<?xml version="1.0" encoding="UTF-8" standalone="no" ?>
<gpx xmlns="http://www.topografix.com/GPX/1/1" xmlns:xsi="http://www.w3.org/2001/XMLSchema-instance" xsi:schemaLocation="http://www.topografix.com/GPX/1/1 http://www.topografix.com/GPX/1/1/gpx.xsd" version="1.1" creator="VisuGPX - https://www.visugpx.com">
  <metadata>
    <name>[14/10/2018] Roc d'Azur à Fréjus</name>
    <desc><![CDATA[Une organisation ASO
Avec des bouchons, de la boue (moins que sur le Roc Marathon de vendredi) et un temps pas trop chaud pour pédaler]]></desc>
  </metadata>
  <trk>
    <name><![CDATA[[14/10/2018] Roc d'Azur à Fréjus_1]]></name>
    <trkseg>
      <trkpt lat="43.41841" lon="6.73705">
        <ele>-0.015879</ele>
        <time>2018-10-14T08:55:33Z</time>
      </trkpt>
      <trkpt lat="43.41842" lon="6.73705">
        <ele>-0.015879</ele>
        <time>2018-10-14T08:55:34Z</time>
      </trkpt>
      <trkpt lat="43.41831" lon="6.73705">
        <ele>1.1</ele>
        <time>2018-10-14T09:10:46Z</time>
      </trkpt>
      <trkpt lat="43.41822" lon="6.73702">
        <ele>1.2</ele>
        <time>2018-10-14T09:10:49Z</time>
      </trkpt>
      <trkpt lat="43.41812" lon="6.73701">
        <ele>1.2</ele>
        <time>2018-10-14T09:10:52Z</time>
      </trkpt>
      <trkpt lat="43.41799" lon="6.73698">
        <ele>1.4</ele>
        <time>2018-10-14T09:10:55Z</time>
      </trkpt>
      <trkpt lat="43.41787" lon="6.73696">
        <ele>1.4</ele>
        <time>2018-10-14T09:10:58Z</time>
      </trkpt>
      <trkpt lat="43.41774" lon="6.73693">
        <ele>1.3</ele>
        <time>2018-10-14T09:11:01Z</time>
      </trkpt>
      <trkpt lat="43.41763" lon="6.73691">
        <ele>1.4</ele>
        <time>2018-10-14T09:11:04Z</time>
      </trkpt>
      <trkpt lat="43.4175" lon="6.73689">
        <ele>1.7</ele>
        <time>2018-10-14T09:11:07Z</time>
      </trkpt>
      <trkpt lat="43.41739" lon="6.73687">
        <ele>1.7</ele>
        <time>2018-10-14T09:11:10Z</time>
      </trkpt>
      <trkpt lat="43.4173" lon="6.73685">
        <ele>1.6</ele>
        <time>2018-10-14T09:11:14Z</time>
      </trkpt>
      <trkpt lat="43.4172" lon="6.73684">
        <ele>1.4</ele>
        <time>2018-10-14T09:11:20Z</time>
      </trkpt>
      <trkpt lat="43.4171" lon="6.73682">
        <ele>1.1</ele>
        <time>2018-10-14T09:11:25Z</time>
      </trkpt>
      <trkpt lat="43.41699" lon="6.73677">
        <ele>1.2</ele>
        <time>2018-10-14T09:11:29Z</time>
      </trkpt>
      <trkpt lat="43.41688" lon="6.7367">
        <ele>1.3</ele>
        <time>2018-10-14T09:11:32Z</time>
      </trkpt>
      <trkpt lat="43.41678" lon="6.73661">
        <ele>1.2</ele>
        <time>2018-10-14T09:11:35Z</time>
      </trkpt>
      <trkpt lat="43.41668" lon="6.73651">
        <ele>1.3</ele>
        <time>2018-10-14T09:11:38Z</time>
      </trkpt>
      <trkpt lat="43.41659" lon="6.73638">
        <ele>1.2</ele>
        <time>2018-10-14T09:11:41Z</time>
      </trkpt>
      <trkpt lat="43.41649" lon="6.73625">
        <ele>1.3</ele>
        <time>2018-10-14T09:11:44Z</time>
      </trkpt>
      <trkpt lat="43.41643" lon="6.73615">
        <ele>1.3</ele>
        <time>2018-10-14T09:11:46Z</time>
      </trkpt>
      <trkpt lat="43.41635" lon="6.73601">
        <ele>1</ele>
        <time>2018-10-14T09:11:49Z</time>
      </trkpt>
      <trkpt lat="43.41628" lon="6.73586">
        <ele>1.1</ele>
        <time>2018-10-14T09:11:52Z</time>
      </trkpt>
      <trkpt lat="43.41622" lon="6.7357">
        <ele>1.4</ele>
        <time>2018-10-14T09:11:55Z</time>
      </trkpt>
      <trkpt lat="43.4162" lon="6.73557">
        <ele>1.5</ele>
        <time>2018-10-14T09:11:57Z</time>
      </trkpt>
      <trkpt lat="43.41621" lon="6.73544">
        <ele>1.3</ele>
        <time>2018-10-14T09:11:59Z</time>
      </trkpt>
      <trkpt lat="43.41623" lon="6.7353">
        <ele>1.2</ele>
        <time>2018-10-14T09:12:01Z</time>
      </trkpt>
      <trkpt lat="43.41626" lon="6.73517">
        <ele>1.1</ele>
        <time>2018-10-14T09:12:03Z</time>
      </trkpt>
      <trkpt lat="43.41632" lon="6.73505">
        <ele>1.2</ele>
        <time>2018-10-14T09:12:05Z</time>
      </trkpt>
      <trkpt lat="43.41639" lon="6.73494">
        <ele>1.4</ele>
        <time>2018-10-14T09:12:07Z</time>
      </trkpt>
      <trkpt lat="43.41647" lon="6.73485">
        <ele>1.4</ele>
        <time>2018-10-14T09:12:09Z</time>
      </trkpt>
      <trkpt lat="43.41654" lon="6.73476">
        <ele>1.5</ele>
        <time>2018-10-14T09:12:11Z</time>
      </trkpt>
      <trkpt lat="43.41661" lon="6.73466">
        <ele>1.6</ele>
        <time>2018-10-14T09:12:13Z</time>
      </trkpt>
      <trkpt lat="43.41669" lon="6.73457">
        <ele>1.7</ele>
        <time>2018-10-14T09:12:15Z</time>
      </trkpt>
      <trkpt lat="43.41676" lon="6.73448">
        <ele>1.7</ele>
        <time>2018-10-14T09:12:17Z</time>
      </trkpt>
      <trkpt lat="43.41683" lon="6.73439">
        <ele>1.8</ele>
        <time>2018-10-14T09:12:19Z</time>
      </trkpt>
      <trkpt lat="43.4169" lon="6.73429">
        <ele>1.7</ele>
        <time>2018-10-14T09:12:21Z</time>
      </trkpt>
      <trkpt lat="43.41697" lon="6.73419">
        <ele>1.6</ele>
        <time>2018-10-14T09:12:23Z</time>
      </trkpt>
      <trkpt lat="43.41703" lon="6.73408">
        <ele>1.7</ele>
        <time>2018-10-14T09:12:25Z</time>
      </trkpt>
      <trkpt lat="43.41708" lon="6.73397">
        <ele>1.6</ele>
        <time>2018-10-14T09:12:27Z</time>
      </trkpt>
      <trkpt lat="43.41713" lon="6.73384">
        <ele>1.5</ele>
        <time>2018-10-14T09:12:29Z</time>
      </trkpt>
      <trkpt lat="43.41717" lon="6.73372">
        <ele>1.6</ele>
        <time>2018-10-14T09:12:31Z</time>
      </trkpt>
      <trkpt lat="43.41719" lon="6.73358">
        <ele>1.6</ele>
        <time>2018-10-14T09:12:33Z</time>
      </trkpt>
      <trkpt lat="43.41721" lon="6.73344">
        <ele>1.5</ele>
        <time>2018-10-14T09:12:35Z</time>
      </trkpt>
      <trkpt lat="43.41721" lon="6.7333">
        <ele>1.4</ele>
        <time>2018-10-14T09:12:37Z</time>
      </trkpt>
      <trkpt lat="43.41722" lon="6.73317">
        <ele>1.5</ele>
        <time>2018-10-14T09:12:39Z</time>
      </trkpt>
      <trkpt lat="43.41721" lon="6.73304">
        <ele>1.9</ele>
        <time>2018-10-14T09:12:41Z</time>
      </trkpt>
      <trkpt lat="43.4172" lon="6.7329">
        <ele>1.8</ele>
        <time>2018-10-14T09:12:43Z</time>
      </trkpt>
      <trkpt lat="43.41719" lon="6.73277">
        <ele>1.8</ele>
        <time>2018-10-14T09:12:45Z</time>
      </trkpt>
      <trkpt lat="43.41717" lon="6.73263">
        <ele>1.6</ele>
        <time>2018-10-14T09:12:47Z</time>
      </trkpt>
      <trkpt lat="43.41716" lon="6.7325">
        <ele>1.5</ele>
        <time>2018-10-14T09:12:49Z</time>
      </trkpt>
      <trkpt lat="43.41715" lon="6.73237">
        <ele>1.5</ele>
        <time>2018-10-14T09:12:51Z</time>
      </trkpt>
      <trkpt lat="43.41713" lon="6.73223">
        <ele>1.4</ele>
        <time>2018-10-14T09:12:53Z</time>
      </trkpt>
      <trkpt lat="43.41711" lon="6.7321">
        <ele>1.6</ele>
        <time>2018-10-14T09:12:55Z</time>
      </trkpt>
      <trkpt lat="43.4171" lon="6.73197">
        <ele>1.6</ele>
        <time>2018-10-14T09:12:57Z</time>
      </trkpt>
      <trkpt lat="43.41708" lon="6.73183">
        <ele>1.5</ele>
        <time>2018-10-14T09:12:59Z</time>
      </trkpt>
      <trkpt lat="43.41707" lon="6.7317">
        <ele>1.7</ele>
        <time>2018-10-14T09:13:01Z</time>
      </trkpt>
      <trkpt lat="43.41706" lon="6.73156">
        <ele>1.6</ele>
        <time>2018-10-14T09:13:03Z</time>
      </trkpt>
      <trkpt lat="43.41705" lon="6.73142">
        <ele>1.8</ele>
        <time>2018-10-14T09:13:05Z</time>
      </trkpt>
      <trkpt lat="43.41704" lon="6.73128">
        <ele>1.6</ele>
        <time>2018-10-14T09:13:07Z</time>
      </trkpt>
      <trkpt lat="43.41703" lon="6.73114">
        <ele>1.6</ele>
        <time>2018-10-14T09:13:09Z</time>
      </trkpt>
      <trkpt lat="43.41702" lon="6.731">
        <ele>1.6</ele>
        <time>2018-10-14T09:13:11Z</time>
      </trkpt>
      <trkpt lat="43.41701" lon="6.73087">
        <ele>1.5</ele>
        <time>2018-10-14T09:13:13Z</time>
      </trkpt>
      <trkpt lat="43.41699" lon="6.73073">
        <ele>1.6</ele>
        <time>2018-10-14T09:13:15Z</time>
      </trkpt>
      <trkpt lat="43.41698" lon="6.7306">
        <ele>1.9</ele>
        <time>2018-10-14T09:13:17Z</time>
      </trkpt>
      <trkpt lat="43.41697" lon="6.73046">
        <ele>1.6</ele>
        <time>2018-10-14T09:13:19Z</time>
      </trkpt>
      <trkpt lat="43.41696" lon="6.73033">
        <ele>1.8</ele>
        <time>2018-10-14T09:13:21Z</time>
      </trkpt>
      <trkpt lat="43.41693" lon="6.7302">
        <ele>1.8</ele>
        <time>2018-10-14T09:13:23Z</time>
      </trkpt>
      <trkpt lat="43.41691" lon="6.73006">
        <ele>2</ele>
        <time>2018-10-14T09:13:25Z</time>
      </trkpt>
      <trkpt lat="43.41689" lon="6.72992">
        <ele>1.9</ele>
        <time>2018-10-14T09:13:27Z</time>
      </trkpt>
      <trkpt lat="43.41687" lon="6.72978">
        <ele>1.9</ele>
        <time>2018-10-14T09:13:29Z</time>
      </trkpt>
      <trkpt lat="43.41685" lon="6.72963">
        <ele>1.8</ele>
        <time>2018-10-14T09:13:31Z</time>
      </trkpt>
      <trkpt lat="43.41682" lon="6.72949">
        <ele>1.5</ele>
        <time>2018-10-14T09:13:33Z</time>
      </trkpt>
      <trkpt lat="43.41679" lon="6.72935">
        <ele>1.7</ele>
        <time>2018-10-14T09:13:35Z</time>
      </trkpt>
      <trkpt lat="43.41676" lon="6.72921">
        <ele>1.9</ele>
        <time>2018-10-14T09:13:37Z</time>
      </trkpt>
      <trkpt lat="43.41672" lon="6.72908">
        <ele>2</ele>
        <time>2018-10-14T09:13:39Z</time>
      </trkpt>
      <trkpt lat="43.41668" lon="6.72896">
        <ele>1.7</ele>
        <time>2018-10-14T09:13:41Z</time>
      </trkpt>
      <trkpt lat="43.41664" lon="6.72884">
        <ele>1.7</ele>
        <time>2018-10-14T09:13:43Z</time>
      </trkpt>
      <trkpt lat="43.41661" lon="6.72872">
        <ele>1.7</ele>
        <time>2018-10-14T09:13:45Z</time>
      </trkpt>
      <trkpt lat="43.41656" lon="6.7286">
        <ele>1.5</ele>
        <time>2018-10-14T09:13:47Z</time>
      </trkpt>
      <trkpt lat="43.41652" lon="6.72848">
        <ele>1.7</ele>
        <time>2018-10-14T09:13:49Z</time>
      </trkpt>
      <trkpt lat="43.41647" lon="6.72837">
        <ele>1.7</ele>
        <time>2018-10-14T09:13:51Z</time>
      </trkpt>
      <trkpt lat="43.41641" lon="6.72828">
        <ele>1.8</ele>
        <time>2018-10-14T09:13:53Z</time>
      </trkpt>
      <trkpt lat="43.41633" lon="6.72821">
        <ele>2</ele>
        <time>2018-10-14T09:13:55Z</time>
      </trkpt>
      <trkpt lat="43.41623" lon="6.72818">
        <ele>2.2</ele>
        <time>2018-10-14T09:13:57Z</time>
      </trkpt>
      <trkpt lat="43.41614" lon="6.72817">
        <ele>2.2</ele>
        <time>2018-10-14T09:13:59Z</time>
      </trkpt>
      <trkpt lat="43.41604" lon="6.72817">
        <ele>2.4</ele>
        <time>2018-10-14T09:14:01Z</time>
      </trkpt>
      <trkpt lat="43.41594" lon="6.72819">
        <ele>2.6</ele>
        <time>2018-10-14T09:14:03Z</time>
      </trkpt>
      <trkpt lat="43.41584" lon="6.72823">
        <ele>2.7</ele>
        <time>2018-10-14T09:14:05Z</time>
      </trkpt>
      <trkpt lat="43.41573" lon="6.72829">
        <ele>2.8</ele>
        <time>2018-10-14T09:14:07Z</time>
      </trkpt>
      <trkpt lat="43.41563" lon="6.72833">
        <ele>2.9</ele>
        <time>2018-10-14T09:14:09Z</time>
      </trkpt>
      <trkpt lat="43.41553" lon="6.72838">
        <ele>2.8</ele>
        <time>2018-10-14T09:14:11Z</time>
      </trkpt>
      <trkpt lat="43.41543" lon="6.72841">
        <ele>2.6</ele>
        <time>2018-10-14T09:14:13Z</time>
      </trkpt>
      <trkpt lat="43.41534" lon="6.72844">
        <ele>2.7</ele>
        <time>2018-10-14T09:14:15Z</time>
      </trkpt>
      <trkpt lat="43.41525" lon="6.72848">
        <ele>2.7</ele>
        <time>2018-10-14T09:14:17Z</time>
      </trkpt>
      <trkpt lat="43.41516" lon="6.72862">
        <ele>2.7</ele>
        <time>2018-10-14T09:14:20Z</time>
      </trkpt>
      <trkpt lat="43.41507" lon="6.7287">
        <ele>2.6</ele>
        <time>2018-10-14T09:14:22Z</time>
      </trkpt>
      <trkpt lat="43.41499" lon="6.72882">
        <ele>2.4</ele>
        <time>2018-10-14T09:14:24Z</time>
      </trkpt>
      <trkpt lat="43.4149" lon="6.7289">
        <ele>2.4</ele>
        <time>2018-10-14T09:14:26Z</time>
      </trkpt>
      <trkpt lat="43.41482" lon="6.72897">
        <ele>2.5</ele>
        <time>2018-10-14T09:14:28Z</time>
      </trkpt>
      <trkpt lat="43.41472" lon="6.7291">
        <ele>2.6</ele>
        <time>2018-10-14T09:14:31Z</time>
      </trkpt>
      <trkpt lat="43.41464" lon="6.72922">
        <ele>2.6</ele>
        <time>2018-10-14T09:14:34Z</time>
      </trkpt>
      <trkpt lat="43.41455" lon="6.72931">
        <ele>2.6</ele>
        <time>2018-10-14T09:14:37Z</time>
      </trkpt>
      <trkpt lat="43.41447" lon="6.7294">
        <ele>2.4</ele>
        <time>2018-10-14T09:14:40Z</time>
      </trkpt>
      <trkpt lat="43.41437" lon="6.7295">
        <ele>2.2</ele>
        <time>2018-10-14T09:14:42Z</time>
      </trkpt>
      <trkpt lat="43.41426" lon="6.72957">
        <ele>2.1</ele>
        <time>2018-10-14T09:14:44Z</time>
      </trkpt>
      <trkpt lat="43.41419" lon="6.72971">
        <ele>2.2</ele>
        <time>2018-10-14T09:14:45Z</time>
      </trkpt>
      <trkpt lat="43.41412" lon="6.72987">
        <ele>2.1</ele>
        <time>2018-10-14T09:14:47Z</time>
      </trkpt>
      <trkpt lat="43.41409" lon="6.72999">
        <ele>2.1</ele>
        <time>2018-10-14T09:14:48Z</time>
      </trkpt>
      <trkpt lat="43.414" lon="6.73016">
        <ele>2.1</ele>
        <time>2018-10-14T09:14:50Z</time>
      </trkpt>
      <trkpt lat="43.41391" lon="6.73032">
        <ele>2</ele>
        <time>2018-10-14T09:14:52Z</time>
      </trkpt>
      <trkpt lat="43.41381" lon="6.73046">
        <ele>2.1</ele>
        <time>2018-10-14T09:14:54Z</time>
      </trkpt>
      <trkpt lat="43.41372" lon="6.73058">
        <ele>2.1</ele>
        <time>2018-10-14T09:14:56Z</time>
      </trkpt>
      <trkpt lat="43.41362" lon="6.73071">
        <ele>1.9</ele>
        <time>2018-10-14T09:14:58Z</time>
      </trkpt>
      <trkpt lat="43.41354" lon="6.73082">
        <ele>1.8</ele>
        <time>2018-10-14T09:15:00Z</time>
      </trkpt>
      <trkpt lat="43.41346" lon="6.73094">
        <ele>1.6</ele>
        <time>2018-10-14T09:15:02Z</time>
      </trkpt>
      <trkpt lat="43.41339" lon="6.73105">
        <ele>1.6</ele>
        <time>2018-10-14T09:15:04Z</time>
      </trkpt>
      <trkpt lat="43.41333" lon="6.73118">
        <ele>1.7</ele>
        <time>2018-10-14T09:15:06Z</time>
      </trkpt>
      <trkpt lat="43.4133" lon="6.73134">
        <ele>1.5</ele>
        <time>2018-10-14T09:15:08Z</time>
      </trkpt>
      <trkpt lat="43.41328" lon="6.7315">
        <ele>1.5</ele>
        <time>2018-10-14T09:15:10Z</time>
      </trkpt>
      <trkpt lat="43.41323" lon="6.73161">
        <ele>1.5</ele>
        <time>2018-10-14T09:15:12Z</time>
      </trkpt>
      <trkpt lat="43.41315" lon="6.73166">
        <ele>1.7</ele>
        <time>2018-10-14T09:15:14Z</time>
      </trkpt>
      <trkpt lat="43.41306" lon="6.73167">
        <ele>2</ele>
        <time>2018-10-14T09:15:16Z</time>
      </trkpt>
      <trkpt lat="43.41298" lon="6.73172">
        <ele>2.2</ele>
        <time>2018-10-14T09:15:18Z</time>
      </trkpt>
      <trkpt lat="43.41289" lon="6.7318">
        <ele>1.8</ele>
        <time>2018-10-14T09:15:20Z</time>
      </trkpt>
      <trkpt lat="43.41281" lon="6.73189">
        <ele>1.6</ele>
        <time>2018-10-14T09:15:22Z</time>
      </trkpt>
      <trkpt lat="43.41271" lon="6.73193">
        <ele>1.1</ele>
        <time>2018-10-14T09:15:24Z</time>
      </trkpt>
      <trkpt lat="43.41261" lon="6.7319">
        <ele>1.2</ele>
        <time>2018-10-14T09:15:26Z</time>
      </trkpt>
      <trkpt lat="43.41252" lon="6.73185">
        <ele>1.1</ele>
        <time>2018-10-14T09:15:28Z</time>
      </trkpt>
      <trkpt lat="43.41239" lon="6.73183">
        <ele>1.1</ele>
        <time>2018-10-14T09:15:31Z</time>
      </trkpt>
      <trkpt lat="43.4123" lon="6.73184">
        <ele>1.3</ele>
        <time>2018-10-14T09:15:33Z</time>
      </trkpt>
      <trkpt lat="43.4122" lon="6.73181">
        <ele>1.8</ele>
        <time>2018-10-14T09:15:36Z</time>
      </trkpt>
      <trkpt lat="43.41212" lon="6.73173">
        <ele>2.1</ele>
        <time>2018-10-14T09:15:38Z</time>
      </trkpt>
      <trkpt lat="43.41205" lon="6.73164">
        <ele>1.9</ele>
        <time>2018-10-14T09:15:40Z</time>
      </trkpt>
      <trkpt lat="43.41198" lon="6.73156">
        <ele>1.7</ele>
        <time>2018-10-14T09:15:42Z</time>
      </trkpt>
      <trkpt lat="43.41191" lon="6.73147">
        <ele>1.7</ele>
        <time>2018-10-14T09:15:44Z</time>
      </trkpt>
      <trkpt lat="43.41183" lon="6.73139">
        <ele>1.5</ele>
        <time>2018-10-14T09:15:46Z</time>
      </trkpt>
      <trkpt lat="43.41175" lon="6.73127">
        <ele>1.3</ele>
        <time>2018-10-14T09:15:49Z</time>
      </trkpt>
      <trkpt lat="43.41181" lon="6.73115">
        <ele>0.6</ele>
        <time>2018-10-14T09:15:53Z</time>
      </trkpt>
      <trkpt lat="43.41191" lon="6.7311">
        <ele>0.9</ele>
        <time>2018-10-14T09:15:56Z</time>
      </trkpt>
      <trkpt lat="43.41202" lon="6.73102">
        <ele>1.8</ele>
        <time>2018-10-14T09:16:00Z</time>
      </trkpt>
      <trkpt lat="43.41211" lon="6.73089">
        <ele>2.3</ele>
        <time>2018-10-14T09:16:03Z</time>
      </trkpt>
      <trkpt lat="43.41218" lon="6.73079">
        <ele>2.7</ele>
        <time>2018-10-14T09:16:05Z</time>
      </trkpt>
      <trkpt lat="43.41226" lon="6.73069">
        <ele>2.9</ele>
        <time>2018-10-14T09:16:07Z</time>
      </trkpt>
      <trkpt lat="43.41235" lon="6.73059">
        <ele>3</ele>
        <time>2018-10-14T09:16:09Z</time>
      </trkpt>
      <trkpt lat="43.41243" lon="6.73049">
        <ele>3</ele>
        <time>2018-10-14T09:16:11Z</time>
      </trkpt>
      <trkpt lat="43.41251" lon="6.73038">
        <ele>3.1</ele>
        <time>2018-10-14T09:16:13Z</time>
      </trkpt>
      <trkpt lat="43.41259" lon="6.73028">
        <ele>2.9</ele>
        <time>2018-10-14T09:16:15Z</time>
      </trkpt>
      <trkpt lat="43.41267" lon="6.73018">
        <ele>3</ele>
        <time>2018-10-14T09:16:17Z</time>
      </trkpt>
      <trkpt lat="43.41275" lon="6.73008">
        <ele>3.2</ele>
        <time>2018-10-14T09:16:19Z</time>
      </trkpt>
      <trkpt lat="43.41283" lon="6.72997">
        <ele>3.2</ele>
        <time>2018-10-14T09:16:21Z</time>
      </trkpt>
      <trkpt lat="43.4129" lon="6.72987">
        <ele>3.2</ele>
        <time>2018-10-14T09:16:23Z</time>
      </trkpt>
      <trkpt lat="43.41298" lon="6.72977">
        <ele>3.3</ele>
        <time>2018-10-14T09:16:25Z</time>
      </trkpt>
      <trkpt lat="43.41306" lon="6.72967">
        <ele>3.4</ele>
        <time>2018-10-14T09:16:27Z</time>
      </trkpt>
      <trkpt lat="43.41314" lon="6.72957">
        <ele>3.3</ele>
        <time>2018-10-14T09:16:29Z</time>
      </trkpt>
      <trkpt lat="43.41321" lon="6.72946">
        <ele>3.6</ele>
        <time>2018-10-14T09:16:31Z</time>
      </trkpt>
      <trkpt lat="43.41329" lon="6.72936">
        <ele>3.5</ele>
        <time>2018-10-14T09:16:33Z</time>
      </trkpt>
      <trkpt lat="43.41337" lon="6.72926">
        <ele>3.4</ele>
        <time>2018-10-14T09:16:35Z</time>
      </trkpt>
      <trkpt lat="43.41344" lon="6.72916">
        <ele>3.6</ele>
        <time>2018-10-14T09:16:37Z</time>
      </trkpt>
      <trkpt lat="43.41352" lon="6.72906">
        <ele>3.7</ele>
        <time>2018-10-14T09:16:39Z</time>
      </trkpt>
      <trkpt lat="43.4136" lon="6.72895">
        <ele>3.6</ele>
        <time>2018-10-14T09:16:41Z</time>
      </trkpt>
      <trkpt lat="43.41368" lon="6.72884">
        <ele>3.6</ele>
        <time>2018-10-14T09:16:43Z</time>
      </trkpt>
      <trkpt lat="43.41376" lon="6.72874">
        <ele>3.6</ele>
        <time>2018-10-14T09:16:45Z</time>
      </trkpt>
      <trkpt lat="43.41384" lon="6.72864">
        <ele>3.5</ele>
        <time>2018-10-14T09:16:47Z</time>
      </trkpt>
      <trkpt lat="43.41391" lon="6.72854">
        <ele>3.5</ele>
        <time>2018-10-14T09:16:49Z</time>
      </trkpt>
      <trkpt lat="43.41399" lon="6.72844">
        <ele>3.5</ele>
        <time>2018-10-14T09:16:51Z</time>
      </trkpt>
      <trkpt lat="43.41408" lon="6.72834">
        <ele>3.4</ele>
        <time>2018-10-14T09:16:53Z</time>
      </trkpt>
      <trkpt lat="43.41416" lon="6.72823">
        <ele>3.3</ele>
        <time>2018-10-14T09:16:55Z</time>
      </trkpt>
      <trkpt lat="43.41424" lon="6.72812">
        <ele>3.2</ele>
        <time>2018-10-14T09:16:57Z</time>
      </trkpt>
      <trkpt lat="43.41433" lon="6.72802">
        <ele>3.3</ele>
        <time>2018-10-14T09:16:59Z</time>
      </trkpt>
      <trkpt lat="43.41441" lon="6.72791">
        <ele>3.4</ele>
        <time>2018-10-14T09:17:01Z</time>
      </trkpt>
      <trkpt lat="43.4145" lon="6.7278">
        <ele>3.6</ele>
        <time>2018-10-14T09:17:03Z</time>
      </trkpt>
      <trkpt lat="43.41458" lon="6.72769">
        <ele>3.8</ele>
        <time>2018-10-14T09:17:05Z</time>
      </trkpt>
      <trkpt lat="43.41466" lon="6.72759">
        <ele>3.8</ele>
        <time>2018-10-14T09:17:07Z</time>
      </trkpt>
      <trkpt lat="43.41473" lon="6.7275">
        <ele>4</ele>
        <time>2018-10-14T09:17:09Z</time>
      </trkpt>
      <trkpt lat="43.41482" lon="6.72738">
        <ele>4</ele>
        <time>2018-10-14T09:17:12Z</time>
      </trkpt>
      <trkpt lat="43.41485" lon="6.72719">
        <ele>3.4</ele>
        <time>2018-10-14T09:17:15Z</time>
      </trkpt>
      <trkpt lat="43.41488" lon="6.72706">
        <ele>2.8</ele>
        <time>2018-10-14T09:17:18Z</time>
      </trkpt>
      <trkpt lat="43.41496" lon="6.72697">
        <ele>2.1</ele>
        <time>2018-10-14T09:17:23Z</time>
      </trkpt>
      <trkpt lat="43.41504" lon="6.72688">
        <ele>1.8</ele>
        <time>2018-10-14T09:17:29Z</time>
      </trkpt>
      <trkpt lat="43.41512" lon="6.72681">
        <ele>1.7</ele>
        <time>2018-10-14T09:17:34Z</time>
      </trkpt>
      <trkpt lat="43.41514" lon="6.72666">
        <ele>1.9</ele>
        <time>2018-10-14T09:17:38Z</time>
      </trkpt>
      <trkpt lat="43.41506" lon="6.72656">
        <ele>2.2</ele>
        <time>2018-10-14T09:17:41Z</time>
      </trkpt>
      <trkpt lat="43.41495" lon="6.7265">
        <ele>2.3</ele>
        <time>2018-10-14T09:17:44Z</time>
      </trkpt>
      <trkpt lat="43.41485" lon="6.72642">
        <ele>2</ele>
        <time>2018-10-14T09:17:47Z</time>
      </trkpt>
      <trkpt lat="43.41474" lon="6.72636">
        <ele>2.1</ele>
        <time>2018-10-14T09:17:51Z</time>
      </trkpt>
      <trkpt lat="43.41465" lon="6.72629">
        <ele>2</ele>
        <time>2018-10-14T09:17:54Z</time>
      </trkpt>
      <trkpt lat="43.41457" lon="6.72622">
        <ele>1.6</ele>
        <time>2018-10-14T09:17:59Z</time>
      </trkpt>
      <trkpt lat="43.4145" lon="6.72614">
        <ele>1.4</ele>
        <time>2018-10-14T09:18:08Z</time>
      </trkpt>
      <trkpt lat="43.41442" lon="6.72604">
        <ele>1.5</ele>
        <time>2018-10-14T09:18:22Z</time>
      </trkpt>
      <trkpt lat="43.41437" lon="6.72593">
        <ele>1.7</ele>
        <time>2018-10-14T09:18:31Z</time>
      </trkpt>
      <trkpt lat="43.41434" lon="6.72581">
        <ele>1.4</ele>
        <time>2018-10-14T09:18:39Z</time>
      </trkpt>
      <trkpt lat="43.41428" lon="6.72571">
        <ele>0.7</ele>
        <time>2018-10-14T09:18:51Z</time>
      </trkpt>
      <trkpt lat="43.41425" lon="6.72559">
        <ele>0.7</ele>
        <time>2018-10-14T09:18:57Z</time>
      </trkpt>
      <trkpt lat="43.4142" lon="6.72548">
        <ele>1.1</ele>
        <time>2018-10-14T09:19:03Z</time>
      </trkpt>
      <trkpt lat="43.41417" lon="6.72535">
        <ele>1.5</ele>
        <time>2018-10-14T09:19:17Z</time>
      </trkpt>
      <trkpt lat="43.41412" lon="6.72524">
        <ele>1.2</ele>
        <time>2018-10-14T09:19:25Z</time>
      </trkpt>
      <trkpt lat="43.41407" lon="6.72513">
        <ele>0.8</ele>
        <time>2018-10-14T09:19:35Z</time>
      </trkpt>
      <trkpt lat="43.41401" lon="6.72504">
        <ele>1.1</ele>
        <time>2018-10-14T09:19:39Z</time>
      </trkpt>
      <trkpt lat="43.41393" lon="6.72496">
        <ele>1</ele>
        <time>2018-10-14T09:19:44Z</time>
      </trkpt>
      <trkpt lat="43.41385" lon="6.72487">
        <ele>1.2</ele>
        <time>2018-10-14T09:19:49Z</time>
      </trkpt>
      <trkpt lat="43.41378" lon="6.72478">
        <ele>1</ele>
        <time>2018-10-14T09:19:54Z</time>
      </trkpt>
      <trkpt lat="43.41371" lon="6.7247">
        <ele>0.8</ele>
        <time>2018-10-14T09:19:58Z</time>
      </trkpt>
      <trkpt lat="43.41361" lon="6.72464">
        <ele>1.3</ele>
        <time>2018-10-14T09:20:02Z</time>
      </trkpt>
      <trkpt lat="43.41352" lon="6.72458">
        <ele>1.3</ele>
        <time>2018-10-14T09:20:07Z</time>
      </trkpt>
      <trkpt lat="43.41341" lon="6.72453">
        <ele>0.9</ele>
        <time>2018-10-14T09:20:13Z</time>
      </trkpt>
      <trkpt lat="43.41332" lon="6.72454">
        <ele>1.4</ele>
        <time>2018-10-14T09:20:17Z</time>
      </trkpt>
      <trkpt lat="43.41322" lon="6.72456">
        <ele>1.3</ele>
        <time>2018-10-14T09:20:21Z</time>
      </trkpt>
      <trkpt lat="43.41313" lon="6.72458">
        <ele>1.6</ele>
        <time>2018-10-14T09:20:25Z</time>
      </trkpt>
      <trkpt lat="43.41302" lon="6.72461">
        <ele>1.5</ele>
        <time>2018-10-14T09:20:29Z</time>
      </trkpt>
      <trkpt lat="43.41292" lon="6.72467">
        <ele>1.8</ele>
        <time>2018-10-14T09:20:33Z</time>
      </trkpt>
      <trkpt lat="43.41282" lon="6.72471">
        <ele>1.7</ele>
        <time>2018-10-14T09:20:37Z</time>
      </trkpt>
      <trkpt lat="43.41272" lon="6.72472">
        <ele>1.7</ele>
        <time>2018-10-14T09:20:41Z</time>
      </trkpt>
      <trkpt lat="43.41262" lon="6.72472">
        <ele>1.8</ele>
        <time>2018-10-14T09:20:45Z</time>
      </trkpt>
      <trkpt lat="43.41252" lon="6.72471">
        <ele>2.1</ele>
        <time>2018-10-14T09:20:48Z</time>
      </trkpt>
      <trkpt lat="43.41243" lon="6.72473">
        <ele>2.4</ele>
        <time>2018-10-14T09:20:52Z</time>
      </trkpt>
      <trkpt lat="43.41232" lon="6.7247">
        <ele>2.9</ele>
        <time>2018-10-14T09:20:56Z</time>
      </trkpt>
      <trkpt lat="43.41223" lon="6.72468">
        <ele>2.7</ele>
        <time>2018-10-14T09:20:59Z</time>
      </trkpt>
      <trkpt lat="43.41213" lon="6.72464">
        <ele>2.3</ele>
        <time>2018-10-14T09:21:07Z</time>
      </trkpt>
      <trkpt lat="43.41203" lon="6.72462">
        <ele>2</ele>
        <time>2018-10-14T09:21:19Z</time>
      </trkpt>
      <trkpt lat="43.41197" lon="6.7247">
        <ele>2</ele>
        <time>2018-10-14T09:21:36Z</time>
      </trkpt>
      <trkpt lat="43.41193" lon="6.72482">
        <ele>4</ele>
        <time>2018-10-14T09:21:50Z</time>
      </trkpt>
      <trkpt lat="43.41187" lon="6.72491">
        <ele>4.4</ele>
        <time>2018-10-14T09:21:56Z</time>
      </trkpt>
      <trkpt lat="43.41179" lon="6.72499">
        <ele>4.3</ele>
        <time>2018-10-14T09:22:01Z</time>
      </trkpt>
      <trkpt lat="43.4117" lon="6.72502">
        <ele>5</ele>
        <time>2018-10-14T09:22:06Z</time>
      </trkpt>
      <trkpt lat="43.41161" lon="6.72496">
        <ele>5.4</ele>
        <time>2018-10-14T09:22:10Z</time>
      </trkpt>
      <trkpt lat="43.41152" lon="6.72491">
        <ele>5.5</ele>
        <time>2018-10-14T09:22:13Z</time>
      </trkpt>
      <trkpt lat="43.41143" lon="6.72485">
        <ele>5.9</ele>
        <time>2018-10-14T09:22:16Z</time>
      </trkpt>
      <trkpt lat="43.41133" lon="6.72479">
        <ele>6.2</ele>
        <time>2018-10-14T09:22:19Z</time>
      </trkpt>
      <trkpt lat="43.41121" lon="6.72473">
        <ele>6.8</ele>
        <time>2018-10-14T09:22:22Z</time>
      </trkpt>
      <trkpt lat="43.41111" lon="6.72467">
        <ele>7</ele>
        <time>2018-10-14T09:22:25Z</time>
      </trkpt>
      <trkpt lat="43.41099" lon="6.72461">
        <ele>6.6</ele>
        <time>2018-10-14T09:22:28Z</time>
      </trkpt>
      <trkpt lat="43.4109" lon="6.72455">
        <ele>6.6</ele>
        <time>2018-10-14T09:22:31Z</time>
      </trkpt>
      <trkpt lat="43.41078" lon="6.72446">
        <ele>6.3</ele>
        <time>2018-10-14T09:22:34Z</time>
      </trkpt>
      <trkpt lat="43.41071" lon="6.72438">
        <ele>6.4</ele>
        <time>2018-10-14T09:22:36Z</time>
      </trkpt>
      <trkpt lat="43.41062" lon="6.7243">
        <ele>6.3</ele>
        <time>2018-10-14T09:22:38Z</time>
      </trkpt>
      <trkpt lat="43.41052" lon="6.72423">
        <ele>6.1</ele>
        <time>2018-10-14T09:22:40Z</time>
      </trkpt>
      <trkpt lat="43.41041" lon="6.72418">
        <ele>6</ele>
        <time>2018-10-14T09:22:42Z</time>
      </trkpt>
      <trkpt lat="43.41029" lon="6.72415">
        <ele>5.9</ele>
        <time>2018-10-14T09:22:44Z</time>
      </trkpt>
      <trkpt lat="43.41019" lon="6.72413">
        <ele>6</ele>
        <time>2018-10-14T09:22:46Z</time>
      </trkpt>
      <trkpt lat="43.41008" lon="6.72411">
        <ele>5.9</ele>
        <time>2018-10-14T09:22:48Z</time>
      </trkpt>
      <trkpt lat="43.40997" lon="6.7241">
        <ele>5.8</ele>
        <time>2018-10-14T09:22:50Z</time>
      </trkpt>
      <trkpt lat="43.40985" lon="6.72411">
        <ele>5.7</ele>
        <time>2018-10-14T09:22:52Z</time>
      </trkpt>
      <trkpt lat="43.40974" lon="6.72412">
        <ele>5.5</ele>
        <time>2018-10-14T09:22:54Z</time>
      </trkpt>
      <trkpt lat="43.40962" lon="6.72413">
        <ele>5.8</ele>
        <time>2018-10-14T09:22:56Z</time>
      </trkpt>
      <trkpt lat="43.4095" lon="6.72415">
        <ele>5.7</ele>
        <time>2018-10-14T09:22:58Z</time>
      </trkpt>
      <trkpt lat="43.40939" lon="6.72418">
        <ele>5.7</ele>
        <time>2018-10-14T09:23:00Z</time>
      </trkpt>
      <trkpt lat="43.40928" lon="6.72419">
        <ele>5.6</ele>
        <time>2018-10-14T09:23:02Z</time>
      </trkpt>
      <trkpt lat="43.40919" lon="6.72415">
        <ele>5.7</ele>
        <time>2018-10-14T09:23:04Z</time>
      </trkpt>
      <trkpt lat="43.40913" lon="6.72402">
        <ele>5.5</ele>
        <time>2018-10-14T09:23:06Z</time>
      </trkpt>
      <trkpt lat="43.4091" lon="6.72385">
        <ele>5</ele>
        <time>2018-10-14T09:23:08Z</time>
      </trkpt>
      <trkpt lat="43.40906" lon="6.72369">
        <ele>4.5</ele>
        <time>2018-10-14T09:23:10Z</time>
      </trkpt>
      <trkpt lat="43.40901" lon="6.72358">
        <ele>4.3</ele>
        <time>2018-10-14T09:23:12Z</time>
      </trkpt>
      <trkpt lat="43.40891" lon="6.72351">
        <ele>4.1</ele>
        <time>2018-10-14T09:23:14Z</time>
      </trkpt>
      <trkpt lat="43.40882" lon="6.72344">
        <ele>4.1</ele>
        <time>2018-10-14T09:23:16Z</time>
      </trkpt>
      <trkpt lat="43.40873" lon="6.72339">
        <ele>4.3</ele>
        <time>2018-10-14T09:23:18Z</time>
      </trkpt>
      <trkpt lat="43.40859" lon="6.72333">
        <ele>4.7</ele>
        <time>2018-10-14T09:23:20Z</time>
      </trkpt>
      <trkpt lat="43.40848" lon="6.72332">
        <ele>4.3</ele>
        <time>2018-10-14T09:23:22Z</time>
      </trkpt>
      <trkpt lat="43.40836" lon="6.72331">
        <ele>4.2</ele>
        <time>2018-10-14T09:23:24Z</time>
      </trkpt>
      <trkpt lat="43.40826" lon="6.72329">
        <ele>4.4</ele>
        <time>2018-10-14T09:23:26Z</time>
      </trkpt>
      <trkpt lat="43.40816" lon="6.72325">
        <ele>4.6</ele>
        <time>2018-10-14T09:23:28Z</time>
      </trkpt>
      <trkpt lat="43.40805" lon="6.72321">
        <ele>4.6</ele>
        <time>2018-10-14T09:23:30Z</time>
      </trkpt>
      <trkpt lat="43.40795" lon="6.72317">
        <ele>4.7</ele>
        <time>2018-10-14T09:23:32Z</time>
      </trkpt>
      <trkpt lat="43.40785" lon="6.72313">
        <ele>4.5</ele>
        <time>2018-10-14T09:23:34Z</time>
      </trkpt>
      <trkpt lat="43.40774" lon="6.72309">
        <ele>4.5</ele>
        <time>2018-10-14T09:23:36Z</time>
      </trkpt>
      <trkpt lat="43.40764" lon="6.72306">
        <ele>4.4</ele>
        <time>2018-10-14T09:23:38Z</time>
      </trkpt>
      <trkpt lat="43.40753" lon="6.72301">
        <ele>4.6</ele>
        <time>2018-10-14T09:23:40Z</time>
      </trkpt>
      <trkpt lat="43.40745" lon="6.72293">
        <ele>4.7</ele>
        <time>2018-10-14T09:23:42Z</time>
      </trkpt>
      <trkpt lat="43.40738" lon="6.72282">
        <ele>4.2</ele>
        <time>2018-10-14T09:23:44Z</time>
      </trkpt>
      <trkpt lat="43.40733" lon="6.72269">
        <ele>4.2</ele>
        <time>2018-10-14T09:23:46Z</time>
      </trkpt>
      <trkpt lat="43.40734" lon="6.72256">
        <ele>4.1</ele>
        <time>2018-10-14T09:23:48Z</time>
      </trkpt>
      <trkpt lat="43.40739" lon="6.72243">
        <ele>4.2</ele>
        <time>2018-10-14T09:23:50Z</time>
      </trkpt>
      <trkpt lat="43.40746" lon="6.72232">
        <ele>4.1</ele>
        <time>2018-10-14T09:23:52Z</time>
      </trkpt>
      <trkpt lat="43.40753" lon="6.72221">
        <ele>4.2</ele>
        <time>2018-10-14T09:23:54Z</time>
      </trkpt>
      <trkpt lat="43.40758" lon="6.72208">
        <ele>3.8</ele>
        <time>2018-10-14T09:23:56Z</time>
      </trkpt>
      <trkpt lat="43.40763" lon="6.72195">
        <ele>4</ele>
        <time>2018-10-14T09:23:58Z</time>
      </trkpt>
      <trkpt lat="43.40768" lon="6.72182">
        <ele>3.8</ele>
        <time>2018-10-14T09:24:00Z</time>
      </trkpt>
      <trkpt lat="43.40773" lon="6.72169">
        <ele>3.8</ele>
        <time>2018-10-14T09:24:02Z</time>
      </trkpt>
      <trkpt lat="43.40779" lon="6.72156">
        <ele>3.8</ele>
        <time>2018-10-14T09:24:04Z</time>
      </trkpt>
      <trkpt lat="43.40784" lon="6.72142">
        <ele>3.9</ele>
        <time>2018-10-14T09:24:06Z</time>
      </trkpt>
      <trkpt lat="43.40788" lon="6.72126">
        <ele>3.6</ele>
        <time>2018-10-14T09:24:08Z</time>
      </trkpt>
      <trkpt lat="43.4079" lon="6.7211">
        <ele>4.1</ele>
        <time>2018-10-14T09:24:10Z</time>
      </trkpt>
      <trkpt lat="43.4079" lon="6.72093">
        <ele>3.8</ele>
        <time>2018-10-14T09:24:12Z</time>
      </trkpt>
      <trkpt lat="43.40791" lon="6.72077">
        <ele>4.1</ele>
        <time>2018-10-14T09:24:14Z</time>
      </trkpt>
      <trkpt lat="43.40793" lon="6.72061">
        <ele>4</ele>
        <time>2018-10-14T09:24:16Z</time>
      </trkpt>
      <trkpt lat="43.40796" lon="6.72045">
        <ele>4.4</ele>
        <time>2018-10-14T09:24:18Z</time>
      </trkpt>
      <trkpt lat="43.40798" lon="6.72029">
        <ele>4.8</ele>
        <time>2018-10-14T09:24:20Z</time>
      </trkpt>
      <trkpt lat="43.40801" lon="6.72013">
        <ele>4.6</ele>
        <time>2018-10-14T09:24:22Z</time>
      </trkpt>
      <trkpt lat="43.40804" lon="6.71996">
        <ele>4.5</ele>
        <time>2018-10-14T09:24:24Z</time>
      </trkpt>
      <trkpt lat="43.40809" lon="6.7198">
        <ele>4.7</ele>
        <time>2018-10-14T09:24:26Z</time>
      </trkpt>
      <trkpt lat="43.40814" lon="6.71964">
        <ele>4.7</ele>
        <time>2018-10-14T09:24:28Z</time>
      </trkpt>
      <trkpt lat="43.40819" lon="6.71948">
        <ele>4.9</ele>
        <time>2018-10-14T09:24:30Z</time>
      </trkpt>
      <trkpt lat="43.40824" lon="6.71932">
        <ele>4.2</ele>
        <time>2018-10-14T09:24:32Z</time>
      </trkpt>
      <trkpt lat="43.40829" lon="6.71917">
        <ele>4.4</ele>
        <time>2018-10-14T09:24:34Z</time>
      </trkpt>
      <trkpt lat="43.40834" lon="6.71901">
        <ele>4.4</ele>
        <time>2018-10-14T09:24:36Z</time>
      </trkpt>
      <trkpt lat="43.4084" lon="6.71887">
        <ele>4.6</ele>
        <time>2018-10-14T09:24:38Z</time>
      </trkpt>
      <trkpt lat="43.40846" lon="6.71872">
        <ele>4.3</ele>
        <time>2018-10-14T09:24:40Z</time>
      </trkpt>
      <trkpt lat="43.40853" lon="6.71857">
        <ele>4.3</ele>
        <time>2018-10-14T09:24:42Z</time>
      </trkpt>
      <trkpt lat="43.4086" lon="6.71843">
        <ele>4.4</ele>
        <time>2018-10-14T09:24:44Z</time>
      </trkpt>
      <trkpt lat="43.40868" lon="6.71829">
        <ele>4.3</ele>
        <time>2018-10-14T09:24:46Z</time>
      </trkpt>
      <trkpt lat="43.40876" lon="6.71816">
        <ele>4.2</ele>
        <time>2018-10-14T09:24:48Z</time>
      </trkpt>
      <trkpt lat="43.40884" lon="6.71803">
        <ele>4.3</ele>
        <time>2018-10-14T09:24:50Z</time>
      </trkpt>
      <trkpt lat="43.40891" lon="6.71789">
        <ele>4.3</ele>
        <time>2018-10-14T09:24:52Z</time>
      </trkpt>
      <trkpt lat="43.40896" lon="6.71773">
        <ele>4</ele>
        <time>2018-10-14T09:24:54Z</time>
      </trkpt>
      <trkpt lat="43.40899" lon="6.71758">
        <ele>4.2</ele>
        <time>2018-10-14T09:24:56Z</time>
      </trkpt>
      <trkpt lat="43.40902" lon="6.71741">
        <ele>4.1</ele>
        <time>2018-10-14T09:24:58Z</time>
      </trkpt>
      <trkpt lat="43.40906" lon="6.71725">
        <ele>3.8</ele>
        <time>2018-10-14T09:25:00Z</time>
      </trkpt>
      <trkpt lat="43.40909" lon="6.71708">
        <ele>4</ele>
        <time>2018-10-14T09:25:02Z</time>
      </trkpt>
      <trkpt lat="43.40913" lon="6.71692">
        <ele>4.4</ele>
        <time>2018-10-14T09:25:04Z</time>
      </trkpt>
      <trkpt lat="43.40916" lon="6.71675">
        <ele>5</ele>
        <time>2018-10-14T09:25:06Z</time>
      </trkpt>
      <trkpt lat="43.4092" lon="6.71659">
        <ele>4.9</ele>
        <time>2018-10-14T09:25:08Z</time>
      </trkpt>
      <trkpt lat="43.40923" lon="6.71643">
        <ele>4.9</ele>
        <time>2018-10-14T09:25:10Z</time>
      </trkpt>
      <trkpt lat="43.40927" lon="6.71626">
        <ele>5</ele>
        <time>2018-10-14T09:25:12Z</time>
      </trkpt>
      <trkpt lat="43.4093" lon="6.7161">
        <ele>4.9</ele>
        <time>2018-10-14T09:25:14Z</time>
      </trkpt>
      <trkpt lat="43.40934" lon="6.71594">
        <ele>4.9</ele>
        <time>2018-10-14T09:25:16Z</time>
      </trkpt>
      <trkpt lat="43.40938" lon="6.71577">
        <ele>4.6</ele>
        <time>2018-10-14T09:25:18Z</time>
      </trkpt>
      <trkpt lat="43.40942" lon="6.7156">
        <ele>4.6</ele>
        <time>2018-10-14T09:25:20Z</time>
      </trkpt>
      <trkpt lat="43.40945" lon="6.71543">
        <ele>4.5</ele>
        <time>2018-10-14T09:25:22Z</time>
      </trkpt>
      <trkpt lat="43.40946" lon="6.71525">
        <ele>4.5</ele>
        <time>2018-10-14T09:25:24Z</time>
      </trkpt>
      <trkpt lat="43.40945" lon="6.71508">
        <ele>4.6</ele>
        <time>2018-10-14T09:25:26Z</time>
      </trkpt>
      <trkpt lat="43.40939" lon="6.71495">
        <ele>5.1</ele>
        <time>2018-10-14T09:25:28Z</time>
      </trkpt>
      <trkpt lat="43.4094" lon="6.7148">
        <ele>5.2</ele>
        <time>2018-10-14T09:25:31Z</time>
      </trkpt>
      <trkpt lat="43.40947" lon="6.71466">
        <ele>4.8</ele>
        <time>2018-10-14T09:25:34Z</time>
      </trkpt>
      <trkpt lat="43.4095" lon="6.71454">
        <ele>4.7</ele>
        <time>2018-10-14T09:25:36Z</time>
      </trkpt>
      <trkpt lat="43.40956" lon="6.71444">
        <ele>5.2</ele>
        <time>2018-10-14T09:25:39Z</time>
      </trkpt>
      <trkpt lat="43.40967" lon="6.71443">
        <ele>5.1</ele>
        <time>2018-10-14T09:25:42Z</time>
      </trkpt>
      <trkpt lat="43.40972" lon="6.71432">
        <ele>4.9</ele>
        <time>2018-10-14T09:25:45Z</time>
      </trkpt>
      <trkpt lat="43.40976" lon="6.71414">
        <ele>5</ele>
        <time>2018-10-14T09:25:48Z</time>
      </trkpt>
      <trkpt lat="43.40987" lon="6.71407">
        <ele>4.9</ele>
        <time>2018-10-14T09:25:51Z</time>
      </trkpt>
      <trkpt lat="43.40997" lon="6.71402">
        <ele>4.7</ele>
        <time>2018-10-14T09:25:53Z</time>
      </trkpt>
      <trkpt lat="43.41007" lon="6.71397">
        <ele>4.8</ele>
        <time>2018-10-14T09:25:55Z</time>
      </trkpt>
      <trkpt lat="43.41017" lon="6.71391">
        <ele>4.8</ele>
        <time>2018-10-14T09:25:57Z</time>
      </trkpt>
      <trkpt lat="43.41026" lon="6.71383">
        <ele>5</ele>
        <time>2018-10-14T09:25:59Z</time>
      </trkpt>
      <trkpt lat="43.41035" lon="6.71371">
        <ele>5.2</ele>
        <time>2018-10-14T09:26:01Z</time>
      </trkpt>
      <trkpt lat="43.41042" lon="6.71357">
        <ele>5</ele>
        <time>2018-10-14T09:26:03Z</time>
      </trkpt>
      <trkpt lat="43.41049" lon="6.71345">
        <ele>5.2</ele>
        <time>2018-10-14T09:26:05Z</time>
      </trkpt>
      <trkpt lat="43.41056" lon="6.71333">
        <ele>5.2</ele>
        <time>2018-10-14T09:26:07Z</time>
      </trkpt>
      <trkpt lat="43.41062" lon="6.71321">
        <ele>5.4</ele>
        <time>2018-10-14T09:26:09Z</time>
      </trkpt>
      <trkpt lat="43.41069" lon="6.71309">
        <ele>5.3</ele>
        <time>2018-10-14T09:26:11Z</time>
      </trkpt>
      <trkpt lat="43.41077" lon="6.71298">
        <ele>5.2</ele>
        <time>2018-10-14T09:26:13Z</time>
      </trkpt>
      <trkpt lat="43.41085" lon="6.71288">
        <ele>4.8</ele>
        <time>2018-10-14T09:26:15Z</time>
      </trkpt>
      <trkpt lat="43.41093" lon="6.71278">
        <ele>4.9</ele>
        <time>2018-10-14T09:26:17Z</time>
      </trkpt>
      <trkpt lat="43.411" lon="6.71265">
        <ele>4.9</ele>
        <time>2018-10-14T09:26:19Z</time>
      </trkpt>
      <trkpt lat="43.411" lon="6.7125">
        <ele>4.9</ele>
        <time>2018-10-14T09:26:21Z</time>
      </trkpt>
      <trkpt lat="43.41096" lon="6.71236">
        <ele>4.6</ele>
        <time>2018-10-14T09:26:23Z</time>
      </trkpt>
      <trkpt lat="43.41091" lon="6.71222">
        <ele>4.6</ele>
        <time>2018-10-14T09:26:25Z</time>
      </trkpt>
      <trkpt lat="43.41087" lon="6.71206">
        <ele>4.9</ele>
        <time>2018-10-14T09:26:27Z</time>
      </trkpt>
      <trkpt lat="43.41082" lon="6.71192">
        <ele>5</ele>
        <time>2018-10-14T09:26:29Z</time>
      </trkpt>
      <trkpt lat="43.41078" lon="6.71177">
        <ele>5.3</ele>
        <time>2018-10-14T09:26:31Z</time>
      </trkpt>
      <trkpt lat="43.41074" lon="6.7116">
        <ele>5.5</ele>
        <time>2018-10-14T09:26:33Z</time>
      </trkpt>
      <trkpt lat="43.41069" lon="6.71144">
        <ele>5.1</ele>
        <time>2018-10-14T09:26:35Z</time>
      </trkpt>
      <trkpt lat="43.41065" lon="6.71129">
        <ele>5.5</ele>
        <time>2018-10-14T09:26:37Z</time>
      </trkpt>
      <trkpt lat="43.4106" lon="6.71114">
        <ele>5.6</ele>
        <time>2018-10-14T09:26:39Z</time>
      </trkpt>
      <trkpt lat="43.41054" lon="6.711">
        <ele>5.6</ele>
        <time>2018-10-14T09:26:41Z</time>
      </trkpt>
      <trkpt lat="43.41049" lon="6.71086">
        <ele>5.8</ele>
        <time>2018-10-14T09:26:43Z</time>
      </trkpt>
      <trkpt lat="43.41045" lon="6.71071">
        <ele>5.8</ele>
        <time>2018-10-14T09:26:45Z</time>
      </trkpt>
      <trkpt lat="43.41042" lon="6.71059">
        <ele>5.9</ele>
        <time>2018-10-14T09:26:47Z</time>
      </trkpt>
      <trkpt lat="43.41041" lon="6.71045">
        <ele>5.9</ele>
        <time>2018-10-14T09:26:49Z</time>
      </trkpt>
      <trkpt lat="43.41038" lon="6.7103">
        <ele>6</ele>
        <time>2018-10-14T09:26:51Z</time>
      </trkpt>
      <trkpt lat="43.41033" lon="6.71015">
        <ele>5.9</ele>
        <time>2018-10-14T09:26:53Z</time>
      </trkpt>
      <trkpt lat="43.41027" lon="6.71001">
        <ele>5.9</ele>
        <time>2018-10-14T09:26:55Z</time>
      </trkpt>
      <trkpt lat="43.41023" lon="6.70987">
        <ele>5.9</ele>
        <time>2018-10-14T09:26:57Z</time>
      </trkpt>
      <trkpt lat="43.41017" lon="6.7097">
        <ele>6</ele>
        <time>2018-10-14T09:26:59Z</time>
      </trkpt>
      <trkpt lat="43.41012" lon="6.70951">
        <ele>6.2</ele>
        <time>2018-10-14T09:27:01Z</time>
      </trkpt>
      <trkpt lat="43.41009" lon="6.70937">
        <ele>6.3</ele>
        <time>2018-10-14T09:27:03Z</time>
      </trkpt>
      <trkpt lat="43.41004" lon="6.70922">
        <ele>6.2</ele>
        <time>2018-10-14T09:27:05Z</time>
      </trkpt>
      <trkpt lat="43.41" lon="6.70908">
        <ele>6.3</ele>
        <time>2018-10-14T09:27:07Z</time>
      </trkpt>
      <trkpt lat="43.40997" lon="6.7089">
        <ele>6.6</ele>
        <time>2018-10-14T09:27:10Z</time>
      </trkpt>
      <trkpt lat="43.40991" lon="6.70876">
        <ele>6.5</ele>
        <time>2018-10-14T09:27:12Z</time>
      </trkpt>
      <trkpt lat="43.40978" lon="6.7087">
        <ele>6.7</ele>
        <time>2018-10-14T09:27:14Z</time>
      </trkpt>
      <trkpt lat="43.40972" lon="6.70859">
        <ele>6.8</ele>
        <time>2018-10-14T09:27:16Z</time>
      </trkpt>
      <trkpt lat="43.4097" lon="6.70844">
        <ele>6.9</ele>
        <time>2018-10-14T09:27:18Z</time>
      </trkpt>
      <trkpt lat="43.40975" lon="6.70833">
        <ele>6.7</ele>
        <time>2018-10-14T09:27:20Z</time>
      </trkpt>
      <trkpt lat="43.40982" lon="6.70821">
        <ele>7.2</ele>
        <time>2018-10-14T09:27:23Z</time>
      </trkpt>
      <trkpt lat="43.40992" lon="6.70813">
        <ele>7.7</ele>
        <time>2018-10-14T09:27:26Z</time>
      </trkpt>
      <trkpt lat="43.41001" lon="6.70808">
        <ele>7.9</ele>
        <time>2018-10-14T09:27:28Z</time>
      </trkpt>
      <trkpt lat="43.4101" lon="6.70804">
        <ele>8.1</ele>
        <time>2018-10-14T09:27:30Z</time>
      </trkpt>
      <trkpt lat="43.41019" lon="6.70799">
        <ele>8.2</ele>
        <time>2018-10-14T09:27:32Z</time>
      </trkpt>
      <trkpt lat="43.41029" lon="6.70794">
        <ele>8.5</ele>
        <time>2018-10-14T09:27:34Z</time>
      </trkpt>
      <trkpt lat="43.41039" lon="6.70789">
        <ele>8.8</ele>
        <time>2018-10-14T09:27:36Z</time>
      </trkpt>
      <trkpt lat="43.41048" lon="6.70784">
        <ele>9</ele>
        <time>2018-10-14T09:27:38Z</time>
      </trkpt>
      <trkpt lat="43.41062" lon="6.70787">
        <ele>9</ele>
        <time>2018-10-14T09:27:41Z</time>
      </trkpt>
      <trkpt lat="43.41073" lon="6.70792">
        <ele>9.3</ele>
        <time>2018-10-14T09:27:43Z</time>
      </trkpt>
      <trkpt lat="43.41085" lon="6.70795">
        <ele>9</ele>
        <time>2018-10-14T09:27:45Z</time>
      </trkpt>
      <trkpt lat="43.41098" lon="6.70795">
        <ele>9.2</ele>
        <time>2018-10-14T09:27:47Z</time>
      </trkpt>
      <trkpt lat="43.41111" lon="6.70795">
        <ele>9.2</ele>
        <time>2018-10-14T09:27:49Z</time>
      </trkpt>
      <trkpt lat="43.41124" lon="6.70796">
        <ele>9</ele>
        <time>2018-10-14T09:27:51Z</time>
      </trkpt>
      <trkpt lat="43.41136" lon="6.70795">
        <ele>8.6</ele>
        <time>2018-10-14T09:27:53Z</time>
      </trkpt>
      <trkpt lat="43.41146" lon="6.70792">
        <ele>8.6</ele>
        <time>2018-10-14T09:27:55Z</time>
      </trkpt>
      <trkpt lat="43.41155" lon="6.70782">
        <ele>8.6</ele>
        <time>2018-10-14T09:27:57Z</time>
      </trkpt>
      <trkpt lat="43.41162" lon="6.70769">
        <ele>8.9</ele>
        <time>2018-10-14T09:27:59Z</time>
      </trkpt>
      <trkpt lat="43.41169" lon="6.70755">
        <ele>8.7</ele>
        <time>2018-10-14T09:28:01Z</time>
      </trkpt>
      <trkpt lat="43.41175" lon="6.70741">
        <ele>8.7</ele>
        <time>2018-10-14T09:28:03Z</time>
      </trkpt>
      <trkpt lat="43.41181" lon="6.70727">
        <ele>8.6</ele>
        <time>2018-10-14T09:28:05Z</time>
      </trkpt>
      <trkpt lat="43.41187" lon="6.70713">
        <ele>8.5</ele>
        <time>2018-10-14T09:28:07Z</time>
      </trkpt>
      <trkpt lat="43.41194" lon="6.70698">
        <ele>8.8</ele>
        <time>2018-10-14T09:28:09Z</time>
      </trkpt>
      <trkpt lat="43.412" lon="6.70683">
        <ele>8.7</ele>
        <time>2018-10-14T09:28:11Z</time>
      </trkpt>
      <trkpt lat="43.41207" lon="6.7067">
        <ele>8.7</ele>
        <time>2018-10-14T09:28:13Z</time>
      </trkpt>
      <trkpt lat="43.41212" lon="6.70657">
        <ele>9</ele>
        <time>2018-10-14T09:28:15Z</time>
      </trkpt>
      <trkpt lat="43.41217" lon="6.70644">
        <ele>9.2</ele>
        <time>2018-10-14T09:28:17Z</time>
      </trkpt>
      <trkpt lat="43.41223" lon="6.70631">
        <ele>9.4</ele>
        <time>2018-10-14T09:28:19Z</time>
      </trkpt>
      <trkpt lat="43.41229" lon="6.70618">
        <ele>9.7</ele>
        <time>2018-10-14T09:28:21Z</time>
      </trkpt>
      <trkpt lat="43.41235" lon="6.70604">
        <ele>9.6</ele>
        <time>2018-10-14T09:28:23Z</time>
      </trkpt>
      <trkpt lat="43.41241" lon="6.70591">
        <ele>9.5</ele>
        <time>2018-10-14T09:28:25Z</time>
      </trkpt>
      <trkpt lat="43.41246" lon="6.70578">
        <ele>9.6</ele>
        <time>2018-10-14T09:28:27Z</time>
      </trkpt>
      <trkpt lat="43.41251" lon="6.70564">
        <ele>9.4</ele>
        <time>2018-10-14T09:28:29Z</time>
      </trkpt>
      <trkpt lat="43.41255" lon="6.70549">
        <ele>9.6</ele>
        <time>2018-10-14T09:28:31Z</time>
      </trkpt>
      <trkpt lat="43.41259" lon="6.70534">
        <ele>9.7</ele>
        <time>2018-10-14T09:28:33Z</time>
      </trkpt>
      <trkpt lat="43.41265" lon="6.70519">
        <ele>10</ele>
        <time>2018-10-14T09:28:35Z</time>
      </trkpt>
      <trkpt lat="43.41271" lon="6.70505">
        <ele>9.9</ele>
        <time>2018-10-14T09:28:37Z</time>
      </trkpt>
      <trkpt lat="43.41277" lon="6.70491">
        <ele>10.1</ele>
        <time>2018-10-14T09:28:39Z</time>
      </trkpt>
      <trkpt lat="43.41282" lon="6.70478">
        <ele>10</ele>
        <time>2018-10-14T09:28:41Z</time>
      </trkpt>
      <trkpt lat="43.41288" lon="6.70465">
        <ele>9.7</ele>
        <time>2018-10-14T09:28:43Z</time>
      </trkpt>
      <trkpt lat="43.41294" lon="6.70453">
        <ele>9.7</ele>
        <time>2018-10-14T09:28:45Z</time>
      </trkpt>
      <trkpt lat="43.41299" lon="6.70441">
        <ele>9.6</ele>
        <time>2018-10-14T09:28:47Z</time>
      </trkpt>
      <trkpt lat="43.41305" lon="6.70428">
        <ele>9.4</ele>
        <time>2018-10-14T09:28:49Z</time>
      </trkpt>
      <trkpt lat="43.41311" lon="6.70415">
        <ele>9.4</ele>
        <time>2018-10-14T09:28:51Z</time>
      </trkpt>
      <trkpt lat="43.41316" lon="6.70401">
        <ele>9.6</ele>
        <time>2018-10-14T09:28:53Z</time>
      </trkpt>
      <trkpt lat="43.41322" lon="6.70386">
        <ele>9.7</ele>
        <time>2018-10-14T09:28:55Z</time>
      </trkpt>
      <trkpt lat="43.41327" lon="6.70372">
        <ele>9.8</ele>
        <time>2018-10-14T09:28:57Z</time>
      </trkpt>
      <trkpt lat="43.41331" lon="6.70357">
        <ele>10</ele>
        <time>2018-10-14T09:28:59Z</time>
      </trkpt>
      <trkpt lat="43.41333" lon="6.70341">
        <ele>10</ele>
        <time>2018-10-14T09:29:01Z</time>
      </trkpt>
      <trkpt lat="43.41336" lon="6.70326">
        <ele>10.2</ele>
        <time>2018-10-14T09:29:03Z</time>
      </trkpt>
      <trkpt lat="43.41337" lon="6.70311">
        <ele>10.1</ele>
        <time>2018-10-14T09:29:05Z</time>
      </trkpt>
      <trkpt lat="43.41337" lon="6.70297">
        <ele>9.9</ele>
        <time>2018-10-14T09:29:07Z</time>
      </trkpt>
      <trkpt lat="43.41337" lon="6.70281">
        <ele>9.8</ele>
        <time>2018-10-14T09:29:09Z</time>
      </trkpt>
      <trkpt lat="43.41335" lon="6.70264">
        <ele>10</ele>
        <time>2018-10-14T09:29:11Z</time>
      </trkpt>
      <trkpt lat="43.41333" lon="6.70247">
        <ele>10</ele>
        <time>2018-10-14T09:29:13Z</time>
      </trkpt>
      <trkpt lat="43.4133" lon="6.70231">
        <ele>10.2</ele>
        <time>2018-10-14T09:29:15Z</time>
      </trkpt>
      <trkpt lat="43.41327" lon="6.70214">
        <ele>10.4</ele>
        <time>2018-10-14T09:29:17Z</time>
      </trkpt>
      <trkpt lat="43.41324" lon="6.70198">
        <ele>10.7</ele>
        <time>2018-10-14T09:29:19Z</time>
      </trkpt>
      <trkpt lat="43.4132" lon="6.70183">
        <ele>10.9</ele>
        <time>2018-10-14T09:29:21Z</time>
      </trkpt>
      <trkpt lat="43.41315" lon="6.70168">
        <ele>10.8</ele>
        <time>2018-10-14T09:29:23Z</time>
      </trkpt>
      <trkpt lat="43.41309" lon="6.70156">
        <ele>11.1</ele>
        <time>2018-10-14T09:29:25Z</time>
      </trkpt>
      <trkpt lat="43.41301" lon="6.70146">
        <ele>11.2</ele>
        <time>2018-10-14T09:29:27Z</time>
      </trkpt>
      <trkpt lat="43.41298" lon="6.70133">
        <ele>11.4</ele>
        <time>2018-10-14T09:29:29Z</time>
      </trkpt>
      <trkpt lat="43.41293" lon="6.70116">
        <ele>11.2</ele>
        <time>2018-10-14T09:29:32Z</time>
      </trkpt>
      <trkpt lat="43.41287" lon="6.70105">
        <ele>11.2</ele>
        <time>2018-10-14T09:29:34Z</time>
      </trkpt>
      <trkpt lat="43.41283" lon="6.70094">
        <ele>11.6</ele>
        <time>2018-10-14T09:29:36Z</time>
      </trkpt>
      <trkpt lat="43.41283" lon="6.70078">
        <ele>11.4</ele>
        <time>2018-10-14T09:29:39Z</time>
      </trkpt>
      <trkpt lat="43.41283" lon="6.70062">
        <ele>12.2</ele>
        <time>2018-10-14T09:29:42Z</time>
      </trkpt>
      <trkpt lat="43.41283" lon="6.70045">
        <ele>12.2</ele>
        <time>2018-10-14T09:29:44Z</time>
      </trkpt>
      <trkpt lat="43.41282" lon="6.70028">
        <ele>11.9</ele>
        <time>2018-10-14T09:29:46Z</time>
      </trkpt>
      <trkpt lat="43.4128" lon="6.70013">
        <ele>12</ele>
        <time>2018-10-14T09:29:48Z</time>
      </trkpt>
      <trkpt lat="43.41276" lon="6.69999">
        <ele>11.9</ele>
        <time>2018-10-14T09:29:50Z</time>
      </trkpt>
      <trkpt lat="43.41273" lon="6.69986">
        <ele>11.9</ele>
        <time>2018-10-14T09:29:52Z</time>
      </trkpt>
      <trkpt lat="43.4127" lon="6.69972">
        <ele>11.6</ele>
        <time>2018-10-14T09:29:54Z</time>
      </trkpt>
      <trkpt lat="43.41267" lon="6.69958">
        <ele>11.1</ele>
        <time>2018-10-14T09:29:56Z</time>
      </trkpt>
      <trkpt lat="43.41264" lon="6.69944">
        <ele>11.1</ele>
        <time>2018-10-14T09:29:58Z</time>
      </trkpt>
      <trkpt lat="43.41261" lon="6.6993">
        <ele>11.2</ele>
        <time>2018-10-14T09:30:00Z</time>
      </trkpt>
      <trkpt lat="43.41259" lon="6.69916">
        <ele>11.1</ele>
        <time>2018-10-14T09:30:02Z</time>
      </trkpt>
      <trkpt lat="43.41255" lon="6.69902">
        <ele>11.3</ele>
        <time>2018-10-14T09:30:04Z</time>
      </trkpt>
      <trkpt lat="43.41251" lon="6.69889">
        <ele>11.3</ele>
        <time>2018-10-14T09:30:06Z</time>
      </trkpt>
      <trkpt lat="43.41249" lon="6.69875">
        <ele>11.2</ele>
        <time>2018-10-14T09:30:08Z</time>
      </trkpt>
      <trkpt lat="43.41244" lon="6.69864">
        <ele>11.5</ele>
        <time>2018-10-14T09:30:10Z</time>
      </trkpt>
      <trkpt lat="43.41237" lon="6.69848">
        <ele>11.4</ele>
        <time>2018-10-14T09:30:13Z</time>
      </trkpt>
      <trkpt lat="43.41229" lon="6.69834">
        <ele>11.1</ele>
        <time>2018-10-14T09:30:16Z</time>
      </trkpt>
      <trkpt lat="43.41222" lon="6.6982">
        <ele>11.4</ele>
        <time>2018-10-14T09:30:19Z</time>
      </trkpt>
      <trkpt lat="43.41218" lon="6.69803">
        <ele>11.6</ele>
        <time>2018-10-14T09:30:22Z</time>
      </trkpt>
      <trkpt lat="43.41214" lon="6.69786">
        <ele>11.1</ele>
        <time>2018-10-14T09:30:25Z</time>
      </trkpt>
      <trkpt lat="43.41209" lon="6.69769">
        <ele>11.2</ele>
        <time>2018-10-14T09:30:28Z</time>
      </trkpt>
      <trkpt lat="43.41203" lon="6.69753">
        <ele>11.1</ele>
        <time>2018-10-14T09:30:31Z</time>
      </trkpt>
      <trkpt lat="43.41198" lon="6.69742">
        <ele>10.5</ele>
        <time>2018-10-14T09:30:33Z</time>
      </trkpt>
      <trkpt lat="43.41192" lon="6.6973">
        <ele>10.6</ele>
        <time>2018-10-14T09:30:35Z</time>
      </trkpt>
      <trkpt lat="43.41188" lon="6.69719">
        <ele>10.5</ele>
        <time>2018-10-14T09:30:37Z</time>
      </trkpt>
      <trkpt lat="43.41182" lon="6.69708">
        <ele>10.6</ele>
        <time>2018-10-14T09:30:39Z</time>
      </trkpt>
      <trkpt lat="43.41172" lon="6.69696">
        <ele>10.7</ele>
        <time>2018-10-14T09:30:42Z</time>
      </trkpt>
      <trkpt lat="43.41161" lon="6.6969">
        <ele>10.7</ele>
        <time>2018-10-14T09:30:45Z</time>
      </trkpt>
      <trkpt lat="43.41151" lon="6.6969">
        <ele>10.7</ele>
        <time>2018-10-14T09:30:47Z</time>
      </trkpt>
      <trkpt lat="43.41141" lon="6.69699">
        <ele>11.2</ele>
        <time>2018-10-14T09:30:50Z</time>
      </trkpt>
      <trkpt lat="43.41132" lon="6.69711">
        <ele>11.4</ele>
        <time>2018-10-14T09:30:53Z</time>
      </trkpt>
      <trkpt lat="43.41128" lon="6.69722">
        <ele>12.1</ele>
        <time>2018-10-14T09:30:56Z</time>
      </trkpt>
      <trkpt lat="43.41124" lon="6.69734">
        <ele>13</ele>
        <time>2018-10-14T09:30:59Z</time>
      </trkpt>
      <trkpt lat="43.41119" lon="6.69746">
        <ele>13.9</ele>
        <time>2018-10-14T09:31:03Z</time>
      </trkpt>
      <trkpt lat="43.41112" lon="6.69755">
        <ele>15.2</ele>
        <time>2018-10-14T09:31:07Z</time>
      </trkpt>
      <trkpt lat="43.41104" lon="6.69763">
        <ele>16.6</ele>
        <time>2018-10-14T09:31:11Z</time>
      </trkpt>
      <trkpt lat="43.41097" lon="6.69772">
        <ele>17.5</ele>
        <time>2018-10-14T09:31:15Z</time>
      </trkpt>
      <trkpt lat="43.41091" lon="6.69783">
        <ele>18.700001</ele>
        <time>2018-10-14T09:31:19Z</time>
      </trkpt>
      <trkpt lat="43.41085" lon="6.69795">
        <ele>19.9</ele>
        <time>2018-10-14T09:31:23Z</time>
      </trkpt>
      <trkpt lat="43.4108" lon="6.69807">
        <ele>21.1</ele>
        <time>2018-10-14T09:31:27Z</time>
      </trkpt>
      <trkpt lat="43.41074" lon="6.69818">
        <ele>21.6</ele>
        <time>2018-10-14T09:31:31Z</time>
      </trkpt>
      <trkpt lat="43.41069" lon="6.69831">
        <ele>22.799999</ele>
        <time>2018-10-14T09:31:35Z</time>
      </trkpt>
      <trkpt lat="43.41066" lon="6.69845">
        <ele>23.799999</ele>
        <time>2018-10-14T09:31:39Z</time>
      </trkpt>
      <trkpt lat="43.41062" lon="6.6986">
        <ele>24.799999</ele>
        <time>2018-10-14T09:31:43Z</time>
      </trkpt>
      <trkpt lat="43.41056" lon="6.6987">
        <ele>25.9</ele>
        <time>2018-10-14T09:31:47Z</time>
      </trkpt>
      <trkpt lat="43.41049" lon="6.69879">
        <ele>26.9</ele>
        <time>2018-10-14T09:31:51Z</time>
      </trkpt>
      <trkpt lat="43.41044" lon="6.69891">
        <ele>28.1</ele>
        <time>2018-10-14T09:31:56Z</time>
      </trkpt>
      <trkpt lat="43.41046" lon="6.69905">
        <ele>29.9</ele>
        <time>2018-10-14T09:32:01Z</time>
      </trkpt>
      <trkpt lat="43.41045" lon="6.69919">
        <ele>31.4</ele>
        <time>2018-10-14T09:32:06Z</time>
      </trkpt>
      <trkpt lat="43.41039" lon="6.69929">
        <ele>32.400002</ele>
        <time>2018-10-14T09:32:13Z</time>
      </trkpt>
      <trkpt lat="43.41033" lon="6.69941">
        <ele>33.900002</ele>
        <time>2018-10-14T09:32:19Z</time>
      </trkpt>
      <trkpt lat="43.41029" lon="6.69954">
        <ele>35.099998</ele>
        <time>2018-10-14T09:32:25Z</time>
      </trkpt>
      <trkpt lat="43.41028" lon="6.69968">
        <ele>36.400002</ele>
        <time>2018-10-14T09:32:31Z</time>
      </trkpt>
      <trkpt lat="43.41028" lon="6.69981">
        <ele>37.400002</ele>
        <time>2018-10-14T09:32:37Z</time>
      </trkpt>
      <trkpt lat="43.41028" lon="6.69994">
        <ele>38.700001</ele>
        <time>2018-10-14T09:32:44Z</time>
      </trkpt>
      <trkpt lat="43.41027" lon="6.70008">
        <ele>40.900002</ele>
        <time>2018-10-14T09:32:52Z</time>
      </trkpt>
      <trkpt lat="43.41028" lon="6.70022">
        <ele>42.299999</ele>
        <time>2018-10-14T09:32:57Z</time>
      </trkpt>
      <trkpt lat="43.41032" lon="6.70036">
        <ele>43.799999</ele>
        <time>2018-10-14T09:33:03Z</time>
      </trkpt>
      <trkpt lat="43.41035" lon="6.70048">
        <ele>44.099998</ele>
        <time>2018-10-14T09:33:07Z</time>
      </trkpt>
      <trkpt lat="43.41038" lon="6.70061">
        <ele>44.700001</ele>
        <time>2018-10-14T09:33:12Z</time>
      </trkpt>
      <trkpt lat="43.41041" lon="6.70074">
        <ele>45.5</ele>
        <time>2018-10-14T09:33:18Z</time>
      </trkpt>
      <trkpt lat="43.41044" lon="6.70088">
        <ele>47.5</ele>
        <time>2018-10-14T09:33:25Z</time>
      </trkpt>
      <trkpt lat="43.41042" lon="6.701">
        <ele>48.099998</ele>
        <time>2018-10-14T09:33:32Z</time>
      </trkpt>
      <trkpt lat="43.41038" lon="6.70113">
        <ele>49</ele>
        <time>2018-10-14T09:33:39Z</time>
      </trkpt>
      <trkpt lat="43.41036" lon="6.70125">
        <ele>51.700001</ele>
        <time>2018-10-14T09:33:55Z</time>
      </trkpt>
      <trkpt lat="43.41027" lon="6.70127">
        <ele>53.900002</ele>
        <time>2018-10-14T09:34:15Z</time>
      </trkpt>
      <trkpt lat="43.41016" lon="6.7013">
        <ele>55.200001</ele>
        <time>2018-10-14T09:34:21Z</time>
      </trkpt>
      <trkpt lat="43.41008" lon="6.70136">
        <ele>56.099998</ele>
        <time>2018-10-14T09:34:26Z</time>
      </trkpt>
      <trkpt lat="43.41002" lon="6.70147">
        <ele>57.299999</ele>
        <time>2018-10-14T09:34:31Z</time>
      </trkpt>
      <trkpt lat="43.40992" lon="6.70145">
        <ele>57.5</ele>
        <time>2018-10-14T09:34:35Z</time>
      </trkpt>
      <trkpt lat="43.40982" lon="6.70139">
        <ele>57.200001</ele>
        <time>2018-10-14T09:34:38Z</time>
      </trkpt>
      <trkpt lat="43.40972" lon="6.70139">
        <ele>57.299999</ele>
        <time>2018-10-14T09:34:42Z</time>
      </trkpt>
      <trkpt lat="43.40963" lon="6.70144">
        <ele>59</ele>
        <time>2018-10-14T09:34:47Z</time>
      </trkpt>
      <trkpt lat="43.40954" lon="6.70147">
        <ele>60.599998</ele>
        <time>2018-10-14T09:34:52Z</time>
      </trkpt>
      <trkpt lat="43.40946" lon="6.70155">
        <ele>62.599998</ele>
        <time>2018-10-14T09:34:58Z</time>
      </trkpt>
      <trkpt lat="43.40938" lon="6.70163">
        <ele>64.599998</ele>
        <time>2018-10-14T09:35:04Z</time>
      </trkpt>
      <trkpt lat="43.40929" lon="6.70165">
        <ele>65.300003</ele>
        <time>2018-10-14T09:35:09Z</time>
      </trkpt>
      <trkpt lat="43.4092" lon="6.70163">
        <ele>65.699997</ele>
        <time>2018-10-14T09:35:13Z</time>
      </trkpt>
      <trkpt lat="43.4091" lon="6.70162">
        <ele>65.800003</ele>
        <time>2018-10-14T09:35:16Z</time>
      </trkpt>
      <trkpt lat="43.409" lon="6.70168">
        <ele>66.300003</ele>
        <time>2018-10-14T09:35:19Z</time>
      </trkpt>
      <trkpt lat="43.40892" lon="6.70176">
        <ele>66.800003</ele>
        <time>2018-10-14T09:35:22Z</time>
      </trkpt>
      <trkpt lat="43.40884" lon="6.70188">
        <ele>67.099998</ele>
        <time>2018-10-14T09:35:25Z</time>
      </trkpt>
      <trkpt lat="43.40875" lon="6.702">
        <ele>67</ele>
        <time>2018-10-14T09:35:28Z</time>
      </trkpt>
      <trkpt lat="43.40865" lon="6.70209">
        <ele>66.699997</ele>
        <time>2018-10-14T09:35:31Z</time>
      </trkpt>
      <trkpt lat="43.40857" lon="6.70218">
        <ele>66.300003</ele>
        <time>2018-10-14T09:35:33Z</time>
      </trkpt>
      <trkpt lat="43.40847" lon="6.70229">
        <ele>65.900002</ele>
        <time>2018-10-14T09:35:35Z</time>
      </trkpt>
      <trkpt lat="43.40837" lon="6.70233">
        <ele>65.699997</ele>
        <time>2018-10-14T09:35:37Z</time>
      </trkpt>
      <trkpt lat="43.40826" lon="6.70235">
        <ele>65.400002</ele>
        <time>2018-10-14T09:35:39Z</time>
      </trkpt>
      <trkpt lat="43.40815" lon="6.70236">
        <ele>65.199997</ele>
        <time>2018-10-14T09:35:41Z</time>
      </trkpt>
      <trkpt lat="43.40805" lon="6.70236">
        <ele>65.199997</ele>
        <time>2018-10-14T09:35:43Z</time>
      </trkpt>
      <trkpt lat="43.40796" lon="6.70233">
        <ele>65.199997</ele>
        <time>2018-10-14T09:35:45Z</time>
      </trkpt>
      <trkpt lat="43.40787" lon="6.70229">
        <ele>65.099998</ele>
        <time>2018-10-14T09:35:47Z</time>
      </trkpt>
      <trkpt lat="43.40777" lon="6.70222">
        <ele>65.099998</ele>
        <time>2018-10-14T09:35:50Z</time>
      </trkpt>
      <trkpt lat="43.40768" lon="6.70212">
        <ele>65.699997</ele>
        <time>2018-10-14T09:35:53Z</time>
      </trkpt>
      <trkpt lat="43.40761" lon="6.70204">
        <ele>66.400002</ele>
        <time>2018-10-14T09:35:56Z</time>
      </trkpt>
      <trkpt lat="43.40751" lon="6.70196">
        <ele>67</ele>
        <time>2018-10-14T09:36:00Z</time>
      </trkpt>
      <trkpt lat="43.40741" lon="6.70193">
        <ele>68.199997</ele>
        <time>2018-10-14T09:36:04Z</time>
      </trkpt>
      <trkpt lat="43.4073" lon="6.70189">
        <ele>69.599998</ele>
        <time>2018-10-14T09:36:08Z</time>
      </trkpt>
      <trkpt lat="43.4072" lon="6.70183">
        <ele>70.5</ele>
        <time>2018-10-14T09:36:13Z</time>
      </trkpt>
      <trkpt lat="43.40712" lon="6.70178">
        <ele>71.300003</ele>
        <time>2018-10-14T09:36:17Z</time>
      </trkpt>
      <trkpt lat="43.40702" lon="6.70172">
        <ele>72.199997</ele>
        <time>2018-10-14T09:36:21Z</time>
      </trkpt>
      <trkpt lat="43.40694" lon="6.70167">
        <ele>72.699997</ele>
        <time>2018-10-14T09:36:24Z</time>
      </trkpt>
      <trkpt lat="43.40683" lon="6.70162">
        <ele>73.800003</ele>
        <time>2018-10-14T09:36:28Z</time>
      </trkpt>
      <trkpt lat="43.40672" lon="6.7016">
        <ele>74.800003</ele>
        <time>2018-10-14T09:36:32Z</time>
      </trkpt>
      <trkpt lat="43.40661" lon="6.70155">
        <ele>75.5</ele>
        <time>2018-10-14T09:36:36Z</time>
      </trkpt>
      <trkpt lat="43.40652" lon="6.70151">
        <ele>75.900002</ele>
        <time>2018-10-14T09:36:39Z</time>
      </trkpt>
      <trkpt lat="43.40641" lon="6.70146">
        <ele>76.300003</ele>
        <time>2018-10-14T09:36:42Z</time>
      </trkpt>
      <trkpt lat="43.40632" lon="6.70141">
        <ele>76.300003</ele>
        <time>2018-10-14T09:36:44Z</time>
      </trkpt>
      <trkpt lat="43.40623" lon="6.70136">
        <ele>76.300003</ele>
        <time>2018-10-14T09:36:46Z</time>
      </trkpt>
      <trkpt lat="43.40614" lon="6.7013">
        <ele>76.300003</ele>
        <time>2018-10-14T09:36:48Z</time>
      </trkpt>
      <trkpt lat="43.40604" lon="6.70125">
        <ele>75.900002</ele>
        <time>2018-10-14T09:36:50Z</time>
      </trkpt>
      <trkpt lat="43.40592" lon="6.7012">
        <ele>76</ele>
        <time>2018-10-14T09:36:52Z</time>
      </trkpt>
      <trkpt lat="43.4058" lon="6.70118">
        <ele>75.699997</ele>
        <time>2018-10-14T09:36:54Z</time>
      </trkpt>
      <trkpt lat="43.40568" lon="6.70115">
        <ele>75.199997</ele>
        <time>2018-10-14T09:36:56Z</time>
      </trkpt>
      <trkpt lat="43.40557" lon="6.70112">
        <ele>75</ele>
        <time>2018-10-14T09:36:58Z</time>
      </trkpt>
      <trkpt lat="43.40546" lon="6.7011">
        <ele>74.900002</ele>
        <time>2018-10-14T09:37:00Z</time>
      </trkpt>
      <trkpt lat="43.40537" lon="6.70106">
        <ele>74.400002</ele>
        <time>2018-10-14T09:37:02Z</time>
      </trkpt>
      <trkpt lat="43.40528" lon="6.70104">
        <ele>74.900002</ele>
        <time>2018-10-14T09:37:04Z</time>
      </trkpt>
      <trkpt lat="43.40518" lon="6.70103">
        <ele>75.199997</ele>
        <time>2018-10-14T09:37:06Z</time>
      </trkpt>
      <trkpt lat="43.40506" lon="6.70101">
        <ele>75.400002</ele>
        <time>2018-10-14T09:37:09Z</time>
      </trkpt>
      <trkpt lat="43.40496" lon="6.70102">
        <ele>75.900002</ele>
        <time>2018-10-14T09:37:12Z</time>
      </trkpt>
      <trkpt lat="43.40485" lon="6.70103">
        <ele>76.5</ele>
        <time>2018-10-14T09:37:16Z</time>
      </trkpt>
      <trkpt lat="43.40475" lon="6.70102">
        <ele>77.199997</ele>
        <time>2018-10-14T09:37:20Z</time>
      </trkpt>
      <trkpt lat="43.40465" lon="6.70103">
        <ele>78.699997</ele>
        <time>2018-10-14T09:37:25Z</time>
      </trkpt>
      <trkpt lat="43.40456" lon="6.70102">
        <ele>79.5</ele>
        <time>2018-10-14T09:37:30Z</time>
      </trkpt>
      <trkpt lat="43.40447" lon="6.70099">
        <ele>81.5</ele>
        <time>2018-10-14T09:37:36Z</time>
      </trkpt>
      <trkpt lat="43.40439" lon="6.70092">
        <ele>82.800003</ele>
        <time>2018-10-14T09:37:41Z</time>
      </trkpt>
      <trkpt lat="43.4043" lon="6.70086">
        <ele>84.599998</ele>
        <time>2018-10-14T09:37:46Z</time>
      </trkpt>
      <trkpt lat="43.4042" lon="6.70082">
        <ele>85.599998</ele>
        <time>2018-10-14T09:37:51Z</time>
      </trkpt>
      <trkpt lat="43.4041" lon="6.70076">
        <ele>86.400002</ele>
        <time>2018-10-14T09:37:56Z</time>
      </trkpt>
      <trkpt lat="43.40399" lon="6.70073">
        <ele>86.599998</ele>
        <time>2018-10-14T09:38:00Z</time>
      </trkpt>
      <trkpt lat="43.40389" lon="6.70069">
        <ele>87.400002</ele>
        <time>2018-10-14T09:38:04Z</time>
      </trkpt>
      <trkpt lat="43.40378" lon="6.70064">
        <ele>88.300003</ele>
        <time>2018-10-14T09:38:08Z</time>
      </trkpt>
      <trkpt lat="43.40367" lon="6.70059">
        <ele>88.400002</ele>
        <time>2018-10-14T09:38:11Z</time>
      </trkpt>
      <trkpt lat="43.40358" lon="6.70053">
        <ele>88.300003</ele>
        <time>2018-10-14T09:38:14Z</time>
      </trkpt>
      <trkpt lat="43.40347" lon="6.70046">
        <ele>89</ele>
        <time>2018-10-14T09:38:17Z</time>
      </trkpt>
      <trkpt lat="43.40337" lon="6.70039">
        <ele>89.300003</ele>
        <time>2018-10-14T09:38:20Z</time>
      </trkpt>
      <trkpt lat="43.40327" lon="6.70031">
        <ele>89.599998</ele>
        <time>2018-10-14T09:38:23Z</time>
      </trkpt>
      <trkpt lat="43.40315" lon="6.70023">
        <ele>90.300003</ele>
        <time>2018-10-14T09:38:26Z</time>
      </trkpt>
      <trkpt lat="43.40307" lon="6.70016">
        <ele>90.199997</ele>
        <time>2018-10-14T09:38:28Z</time>
      </trkpt>
      <trkpt lat="43.40298" lon="6.70007">
        <ele>90</ele>
        <time>2018-10-14T09:38:30Z</time>
      </trkpt>
      <trkpt lat="43.4029" lon="6.69998">
        <ele>89.5</ele>
        <time>2018-10-14T09:38:32Z</time>
      </trkpt>
      <trkpt lat="43.40282" lon="6.69987">
        <ele>89.400002</ele>
        <time>2018-10-14T09:38:34Z</time>
      </trkpt>
      <trkpt lat="43.40272" lon="6.69977">
        <ele>89.199997</ele>
        <time>2018-10-14T09:38:36Z</time>
      </trkpt>
      <trkpt lat="43.40262" lon="6.69967">
        <ele>89.099998</ele>
        <time>2018-10-14T09:38:38Z</time>
      </trkpt>
      <trkpt lat="43.4025" lon="6.69958">
        <ele>88.599998</ele>
        <time>2018-10-14T09:38:40Z</time>
      </trkpt>
      <trkpt lat="43.40238" lon="6.6995">
        <ele>87.699997</ele>
        <time>2018-10-14T09:38:42Z</time>
      </trkpt>
      <trkpt lat="43.40226" lon="6.69949">
        <ele>86.400002</ele>
        <time>2018-10-14T09:38:44Z</time>
      </trkpt>
      <trkpt lat="43.40212" lon="6.69956">
        <ele>85.199997</ele>
        <time>2018-10-14T09:38:46Z</time>
      </trkpt>
      <trkpt lat="43.40204" lon="6.69962">
        <ele>84.5</ele>
        <time>2018-10-14T09:38:47Z</time>
      </trkpt>
      <trkpt lat="43.40196" lon="6.69969">
        <ele>83.5</ele>
        <time>2018-10-14T09:38:48Z</time>
      </trkpt>
      <trkpt lat="43.40188" lon="6.69977">
        <ele>82.5</ele>
        <time>2018-10-14T09:38:49Z</time>
      </trkpt>
      <trkpt lat="43.40179" lon="6.69985">
        <ele>81.5</ele>
        <time>2018-10-14T09:38:50Z</time>
      </trkpt>
      <trkpt lat="43.40171" lon="6.69994">
        <ele>81</ele>
        <time>2018-10-14T09:38:51Z</time>
      </trkpt>
      <trkpt lat="43.40163" lon="6.70003">
        <ele>80.300003</ele>
        <time>2018-10-14T09:38:52Z</time>
      </trkpt>
      <trkpt lat="43.40155" lon="6.70012">
        <ele>79.400002</ele>
        <time>2018-10-14T09:38:53Z</time>
      </trkpt>
      <trkpt lat="43.40147" lon="6.7002">
        <ele>78.300003</ele>
        <time>2018-10-14T09:38:54Z</time>
      </trkpt>
      <trkpt lat="43.4014" lon="6.70028">
        <ele>77.5</ele>
        <time>2018-10-14T09:38:55Z</time>
      </trkpt>
      <trkpt lat="43.40128" lon="6.70043">
        <ele>76.599998</ele>
        <time>2018-10-14T09:38:57Z</time>
      </trkpt>
      <trkpt lat="43.40119" lon="6.70055">
        <ele>75.699997</ele>
        <time>2018-10-14T09:38:59Z</time>
      </trkpt>
      <trkpt lat="43.40112" lon="6.70064">
        <ele>75.400002</ele>
        <time>2018-10-14T09:39:01Z</time>
      </trkpt>
      <trkpt lat="43.40105" lon="6.70075">
        <ele>75.5</ele>
        <time>2018-10-14T09:39:04Z</time>
      </trkpt>
      <trkpt lat="43.401" lon="6.70085">
        <ele>76.099998</ele>
        <time>2018-10-14T09:39:28Z</time>
      </trkpt>
      <trkpt lat="43.40094" lon="6.70098">
        <ele>76.800003</ele>
        <time>2018-10-14T09:39:33Z</time>
      </trkpt>
      <trkpt lat="43.40087" lon="6.70109">
        <ele>78.300003</ele>
        <time>2018-10-14T09:39:38Z</time>
      </trkpt>
      <trkpt lat="43.40079" lon="6.70118">
        <ele>79.800003</ele>
        <time>2018-10-14T09:39:44Z</time>
      </trkpt>
      <trkpt lat="43.40071" lon="6.70126">
        <ele>82.199997</ele>
        <time>2018-10-14T09:39:50Z</time>
      </trkpt>
      <trkpt lat="43.40062" lon="6.70127">
        <ele>84.900002</ele>
        <time>2018-10-14T09:39:56Z</time>
      </trkpt>
      <trkpt lat="43.40052" lon="6.70125">
        <ele>85.699997</ele>
        <time>2018-10-14T09:40:02Z</time>
      </trkpt>
      <trkpt lat="43.40043" lon="6.7012">
        <ele>86.599998</ele>
        <time>2018-10-14T09:40:08Z</time>
      </trkpt>
      <trkpt lat="43.40033" lon="6.70116">
        <ele>87.900002</ele>
        <time>2018-10-14T09:40:15Z</time>
      </trkpt>
      <trkpt lat="43.40024" lon="6.70112">
        <ele>89.400002</ele>
        <time>2018-10-14T09:40:22Z</time>
      </trkpt>
      <trkpt lat="43.40014" lon="6.70109">
        <ele>91.400002</ele>
        <time>2018-10-14T09:40:28Z</time>
      </trkpt>
      <trkpt lat="43.40004" lon="6.70108">
        <ele>92.900002</ele>
        <time>2018-10-14T09:40:34Z</time>
      </trkpt>
      <trkpt lat="43.39994" lon="6.7011">
        <ele>94.699997</ele>
        <time>2018-10-14T09:40:41Z</time>
      </trkpt>
      <trkpt lat="43.39985" lon="6.70112">
        <ele>96.400002</ele>
        <time>2018-10-14T09:40:48Z</time>
      </trkpt>
      <trkpt lat="43.39976" lon="6.70114">
        <ele>97.300003</ele>
        <time>2018-10-14T09:40:53Z</time>
      </trkpt>
      <trkpt lat="43.39967" lon="6.70117">
        <ele>97.900002</ele>
        <time>2018-10-14T09:40:59Z</time>
      </trkpt>
      <trkpt lat="43.39957" lon="6.70119">
        <ele>100</ele>
        <time>2018-10-14T09:41:06Z</time>
      </trkpt>
      <trkpt lat="43.39946" lon="6.70123">
        <ele>101.699997</ele>
        <time>2018-10-14T09:41:13Z</time>
      </trkpt>
      <trkpt lat="43.39937" lon="6.70126">
        <ele>104.400002</ele>
        <time>2018-10-14T09:41:20Z</time>
      </trkpt>
      <trkpt lat="43.39928" lon="6.70128">
        <ele>106.599998</ele>
        <time>2018-10-14T09:41:27Z</time>
      </trkpt>
      <trkpt lat="43.39918" lon="6.70129">
        <ele>107.800003</ele>
        <time>2018-10-14T09:41:33Z</time>
      </trkpt>
      <trkpt lat="43.39909" lon="6.70133">
        <ele>108.900002</ele>
        <time>2018-10-14T09:41:40Z</time>
      </trkpt>
      <trkpt lat="43.39899" lon="6.70138">
        <ele>111.199997</ele>
        <time>2018-10-14T09:41:47Z</time>
      </trkpt>
      <trkpt lat="43.39889" lon="6.70144">
        <ele>113</ele>
        <time>2018-10-14T09:41:53Z</time>
      </trkpt>
      <trkpt lat="43.39881" lon="6.70153">
        <ele>113.5</ele>
        <time>2018-10-14T09:41:58Z</time>
      </trkpt>
      <trkpt lat="43.39872" lon="6.70162">
        <ele>113.800003</ele>
        <time>2018-10-14T09:42:02Z</time>
      </trkpt>
      <trkpt lat="43.39865" lon="6.70169">
        <ele>114</ele>
        <time>2018-10-14T09:42:05Z</time>
      </trkpt>
      <trkpt lat="43.39855" lon="6.70179">
        <ele>114.199997</ele>
        <time>2018-10-14T09:42:09Z</time>
      </trkpt>
      <trkpt lat="43.39845" lon="6.70183">
        <ele>114.400002</ele>
        <time>2018-10-14T09:42:12Z</time>
      </trkpt>
      <trkpt lat="43.39835" lon="6.70182">
        <ele>114.5</ele>
        <time>2018-10-14T09:42:15Z</time>
      </trkpt>
      <trkpt lat="43.39826" lon="6.7018">
        <ele>114.5</ele>
        <time>2018-10-14T09:42:18Z</time>
      </trkpt>
      <trkpt lat="43.39815" lon="6.70181">
        <ele>114.300003</ele>
        <time>2018-10-14T09:42:21Z</time>
      </trkpt>
      <trkpt lat="43.39806" lon="6.7018">
        <ele>114.199997</ele>
        <time>2018-10-14T09:42:24Z</time>
      </trkpt>
      <trkpt lat="43.39795" lon="6.70179">
        <ele>114.300003</ele>
        <time>2018-10-14T09:42:27Z</time>
      </trkpt>
      <trkpt lat="43.39782" lon="6.70178">
        <ele>114.300003</ele>
        <time>2018-10-14T09:42:30Z</time>
      </trkpt>
      <trkpt lat="43.39772" lon="6.70177">
        <ele>114.5</ele>
        <time>2018-10-14T09:42:32Z</time>
      </trkpt>
      <trkpt lat="43.39762" lon="6.70175">
        <ele>114.900002</ele>
        <time>2018-10-14T09:42:34Z</time>
      </trkpt>
      <trkpt lat="43.39752" lon="6.70173">
        <ele>115</ele>
        <time>2018-10-14T09:42:36Z</time>
      </trkpt>
      <trkpt lat="43.39741" lon="6.70169">
        <ele>115</ele>
        <time>2018-10-14T09:42:38Z</time>
      </trkpt>
      <trkpt lat="43.39728" lon="6.70166">
        <ele>114.699997</ele>
        <time>2018-10-14T09:42:40Z</time>
      </trkpt>
      <trkpt lat="43.39715" lon="6.70161">
        <ele>114.5</ele>
        <time>2018-10-14T09:42:42Z</time>
      </trkpt>
      <trkpt lat="43.39703" lon="6.70156">
        <ele>114.400002</ele>
        <time>2018-10-14T09:42:44Z</time>
      </trkpt>
      <trkpt lat="43.39693" lon="6.7015">
        <ele>114.199997</ele>
        <time>2018-10-14T09:42:46Z</time>
      </trkpt>
      <trkpt lat="43.39683" lon="6.70143">
        <ele>114</ele>
        <time>2018-10-14T09:42:48Z</time>
      </trkpt>
      <trkpt lat="43.39673" lon="6.70135">
        <ele>114</ele>
        <time>2018-10-14T09:42:50Z</time>
      </trkpt>
      <trkpt lat="43.39663" lon="6.70125">
        <ele>114.099998</ele>
        <time>2018-10-14T09:42:53Z</time>
      </trkpt>
      <trkpt lat="43.39656" lon="6.70115">
        <ele>114.099998</ele>
        <time>2018-10-14T09:42:56Z</time>
      </trkpt>
      <trkpt lat="43.39649" lon="6.70104">
        <ele>115.5</ele>
        <time>2018-10-14T09:43:00Z</time>
      </trkpt>
      <trkpt lat="43.39643" lon="6.70092">
        <ele>116.800003</ele>
        <time>2018-10-14T09:43:05Z</time>
      </trkpt>
      <trkpt lat="43.39635" lon="6.7008">
        <ele>118.300003</ele>
        <time>2018-10-14T09:43:10Z</time>
      </trkpt>
      <trkpt lat="43.39627" lon="6.70072">
        <ele>119.599998</ele>
        <time>2018-10-14T09:43:14Z</time>
      </trkpt>
      <trkpt lat="43.39618" lon="6.70066">
        <ele>120.800003</ele>
        <time>2018-10-14T09:43:19Z</time>
      </trkpt>
      <trkpt lat="43.39607" lon="6.70064">
        <ele>121</ele>
        <time>2018-10-14T09:43:23Z</time>
      </trkpt>
      <trkpt lat="43.39597" lon="6.70066">
        <ele>121.800003</ele>
        <time>2018-10-14T09:43:27Z</time>
      </trkpt>
      <trkpt lat="43.39588" lon="6.70069">
        <ele>121.800003</ele>
        <time>2018-10-14T09:43:30Z</time>
      </trkpt>
      <trkpt lat="43.39576" lon="6.70072">
        <ele>122</ele>
        <time>2018-10-14T09:43:33Z</time>
      </trkpt>
      <trkpt lat="43.39567" lon="6.70076">
        <ele>122</ele>
        <time>2018-10-14T09:43:35Z</time>
      </trkpt>
      <trkpt lat="43.39556" lon="6.70081">
        <ele>121.599998</ele>
        <time>2018-10-14T09:43:37Z</time>
      </trkpt>
      <trkpt lat="43.39544" lon="6.70088">
        <ele>121.400002</ele>
        <time>2018-10-14T09:43:39Z</time>
      </trkpt>
      <trkpt lat="43.39531" lon="6.70096">
        <ele>120.900002</ele>
        <time>2018-10-14T09:43:41Z</time>
      </trkpt>
      <trkpt lat="43.39518" lon="6.70102">
        <ele>120.699997</ele>
        <time>2018-10-14T09:43:43Z</time>
      </trkpt>
      <trkpt lat="43.39505" lon="6.70103">
        <ele>120.199997</ele>
        <time>2018-10-14T09:43:45Z</time>
      </trkpt>
      <trkpt lat="43.39493" lon="6.70104">
        <ele>119.800003</ele>
        <time>2018-10-14T09:43:47Z</time>
      </trkpt>
      <trkpt lat="43.39481" lon="6.70104">
        <ele>119.400002</ele>
        <time>2018-10-14T09:43:49Z</time>
      </trkpt>
      <trkpt lat="43.39469" lon="6.70103">
        <ele>119.300003</ele>
        <time>2018-10-14T09:43:51Z</time>
      </trkpt>
      <trkpt lat="43.39455" lon="6.701">
        <ele>118.900002</ele>
        <time>2018-10-14T09:43:53Z</time>
      </trkpt>
      <trkpt lat="43.3944" lon="6.70097">
        <ele>118.300003</ele>
        <time>2018-10-14T09:43:55Z</time>
      </trkpt>
      <trkpt lat="43.39424" lon="6.70095">
        <ele>117.900002</ele>
        <time>2018-10-14T09:43:57Z</time>
      </trkpt>
      <trkpt lat="43.39409" lon="6.70091">
        <ele>117.300003</ele>
        <time>2018-10-14T09:43:59Z</time>
      </trkpt>
      <trkpt lat="43.39395" lon="6.70085">
        <ele>117.099998</ele>
        <time>2018-10-14T09:44:01Z</time>
      </trkpt>
      <trkpt lat="43.39382" lon="6.7008">
        <ele>116.800003</ele>
        <time>2018-10-14T09:44:03Z</time>
      </trkpt>
      <trkpt lat="43.3937" lon="6.70071">
        <ele>116.199997</ele>
        <time>2018-10-14T09:44:05Z</time>
      </trkpt>
      <trkpt lat="43.39358" lon="6.7006">
        <ele>116</ele>
        <time>2018-10-14T09:44:07Z</time>
      </trkpt>
      <trkpt lat="43.39346" lon="6.70046">
        <ele>115.800003</ele>
        <time>2018-10-14T09:44:09Z</time>
      </trkpt>
      <trkpt lat="43.39334" lon="6.70032">
        <ele>115.400002</ele>
        <time>2018-10-14T09:44:11Z</time>
      </trkpt>
      <trkpt lat="43.39323" lon="6.7002">
        <ele>114.699997</ele>
        <time>2018-10-14T09:44:13Z</time>
      </trkpt>
      <trkpt lat="43.39313" lon="6.70009">
        <ele>114.300003</ele>
        <time>2018-10-14T09:44:15Z</time>
      </trkpt>
      <trkpt lat="43.39304" lon="6.69998">
        <ele>113.900002</ele>
        <time>2018-10-14T09:44:17Z</time>
      </trkpt>
      <trkpt lat="43.39296" lon="6.69988">
        <ele>113.800003</ele>
        <time>2018-10-14T09:44:19Z</time>
      </trkpt>
      <trkpt lat="43.39289" lon="6.69979">
        <ele>114.5</ele>
        <time>2018-10-14T09:44:21Z</time>
      </trkpt>
      <trkpt lat="43.39282" lon="6.6997">
        <ele>115</ele>
        <time>2018-10-14T09:44:23Z</time>
      </trkpt>
      <trkpt lat="43.39272" lon="6.69957">
        <ele>116</ele>
        <time>2018-10-14T09:44:26Z</time>
      </trkpt>
      <trkpt lat="43.39262" lon="6.69946">
        <ele>116.199997</ele>
        <time>2018-10-14T09:44:29Z</time>
      </trkpt>
      <trkpt lat="43.39254" lon="6.6994">
        <ele>116.199997</ele>
        <time>2018-10-14T09:44:31Z</time>
      </trkpt>
      <trkpt lat="43.39244" lon="6.69936">
        <ele>116.5</ele>
        <time>2018-10-14T09:44:33Z</time>
      </trkpt>
      <trkpt lat="43.39233" lon="6.69931">
        <ele>115.900002</ele>
        <time>2018-10-14T09:44:35Z</time>
      </trkpt>
      <trkpt lat="43.39222" lon="6.69925">
        <ele>115.699997</ele>
        <time>2018-10-14T09:44:37Z</time>
      </trkpt>
      <trkpt lat="43.39212" lon="6.69913">
        <ele>115.199997</ele>
        <time>2018-10-14T09:44:39Z</time>
      </trkpt>
      <trkpt lat="43.39203" lon="6.69898">
        <ele>114.900002</ele>
        <time>2018-10-14T09:44:41Z</time>
      </trkpt>
      <trkpt lat="43.39193" lon="6.69886">
        <ele>114.5</ele>
        <time>2018-10-14T09:44:43Z</time>
      </trkpt>
      <trkpt lat="43.39185" lon="6.69877">
        <ele>114.400002</ele>
        <time>2018-10-14T09:44:45Z</time>
      </trkpt>
      <trkpt lat="43.39177" lon="6.69869">
        <ele>114.900002</ele>
        <time>2018-10-14T09:44:48Z</time>
      </trkpt>
      <trkpt lat="43.39167" lon="6.69862">
        <ele>115.599998</ele>
        <time>2018-10-14T09:44:53Z</time>
      </trkpt>
      <trkpt lat="43.39157" lon="6.69857">
        <ele>116.400002</ele>
        <time>2018-10-14T09:44:58Z</time>
      </trkpt>
      <trkpt lat="43.39148" lon="6.69849">
        <ele>117.699997</ele>
        <time>2018-10-14T09:45:03Z</time>
      </trkpt>
      <trkpt lat="43.3914" lon="6.6984">
        <ele>119.199997</ele>
        <time>2018-10-14T09:45:08Z</time>
      </trkpt>
      <trkpt lat="43.39135" lon="6.69829">
        <ele>120.800003</ele>
        <time>2018-10-14T09:45:13Z</time>
      </trkpt>
      <trkpt lat="43.39133" lon="6.69814">
        <ele>123</ele>
        <time>2018-10-14T09:45:19Z</time>
      </trkpt>
      <trkpt lat="43.39132" lon="6.69801">
        <ele>123.599998</ele>
        <time>2018-10-14T09:45:24Z</time>
      </trkpt>
      <trkpt lat="43.39131" lon="6.69788">
        <ele>124.599998</ele>
        <time>2018-10-14T09:45:30Z</time>
      </trkpt>
      <trkpt lat="43.39132" lon="6.69775">
        <ele>125.699997</ele>
        <time>2018-10-14T09:45:36Z</time>
      </trkpt>
      <trkpt lat="43.39133" lon="6.69762">
        <ele>127.599998</ele>
        <time>2018-10-14T09:45:42Z</time>
      </trkpt>
      <trkpt lat="43.39133" lon="6.69748">
        <ele>129</ele>
        <time>2018-10-14T09:45:48Z</time>
      </trkpt>
      <trkpt lat="43.39132" lon="6.69736">
        <ele>130.899994</ele>
        <time>2018-10-14T09:45:54Z</time>
      </trkpt>
      <trkpt lat="43.39132" lon="6.69721">
        <ele>132.600006</ele>
        <time>2018-10-14T09:46:01Z</time>
      </trkpt>
      <trkpt lat="43.39128" lon="6.6971">
        <ele>134</ele>
        <time>2018-10-14T09:46:07Z</time>
      </trkpt>
      <trkpt lat="43.39124" lon="6.69699">
        <ele>135.399994</ele>
        <time>2018-10-14T09:46:13Z</time>
      </trkpt>
      <trkpt lat="43.3912" lon="6.69687">
        <ele>136.600006</ele>
        <time>2018-10-14T09:46:19Z</time>
      </trkpt>
      <trkpt lat="43.39116" lon="6.69674">
        <ele>138.300003</ele>
        <time>2018-10-14T09:46:26Z</time>
      </trkpt>
      <trkpt lat="43.39114" lon="6.69661">
        <ele>139.5</ele>
        <time>2018-10-14T09:46:33Z</time>
      </trkpt>
      <trkpt lat="43.39112" lon="6.69649">
        <ele>141.5</ele>
        <time>2018-10-14T09:46:39Z</time>
      </trkpt>
      <trkpt lat="43.39109" lon="6.69636">
        <ele>142.600006</ele>
        <time>2018-10-14T09:46:45Z</time>
      </trkpt>
      <trkpt lat="43.39106" lon="6.69623">
        <ele>143.800003</ele>
        <time>2018-10-14T09:46:52Z</time>
      </trkpt>
      <trkpt lat="43.39104" lon="6.6961">
        <ele>145.600006</ele>
        <time>2018-10-14T09:46:59Z</time>
      </trkpt>
      <trkpt lat="43.39101" lon="6.69598">
        <ele>147</ele>
        <time>2018-10-14T09:47:05Z</time>
      </trkpt>
      <trkpt lat="43.39096" lon="6.69586">
        <ele>148.699997</ele>
        <time>2018-10-14T09:47:11Z</time>
      </trkpt>
      <trkpt lat="43.39094" lon="6.69574">
        <ele>150.399994</ele>
        <time>2018-10-14T09:47:17Z</time>
      </trkpt>
      <trkpt lat="43.3909" lon="6.69562">
        <ele>152.399994</ele>
        <time>2018-10-14T09:47:23Z</time>
      </trkpt>
      <trkpt lat="43.39085" lon="6.69552">
        <ele>153.699997</ele>
        <time>2018-10-14T09:47:27Z</time>
      </trkpt>
      <trkpt lat="43.39078" lon="6.69542">
        <ele>155.600006</ele>
        <time>2018-10-14T09:47:34Z</time>
      </trkpt>
      <trkpt lat="43.3907" lon="6.69533">
        <ele>157.300003</ele>
        <time>2018-10-14T09:47:41Z</time>
      </trkpt>
      <trkpt lat="43.39062" lon="6.69528">
        <ele>158.199997</ele>
        <time>2018-10-14T09:47:47Z</time>
      </trkpt>
      <trkpt lat="43.39052" lon="6.69524">
        <ele>159.600006</ele>
        <time>2018-10-14T09:47:54Z</time>
      </trkpt>
      <trkpt lat="43.39043" lon="6.6952">
        <ele>160.899994</ele>
        <time>2018-10-14T09:48:00Z</time>
      </trkpt>
      <trkpt lat="43.39035" lon="6.69514">
        <ele>162.100006</ele>
        <time>2018-10-14T09:48:06Z</time>
      </trkpt>
      <trkpt lat="43.39027" lon="6.69506">
        <ele>163.399994</ele>
        <time>2018-10-14T09:48:13Z</time>
      </trkpt>
      <trkpt lat="43.39019" lon="6.69497">
        <ele>165.199997</ele>
        <time>2018-10-14T09:48:19Z</time>
      </trkpt>
      <trkpt lat="43.3901" lon="6.69491">
        <ele>166.399994</ele>
        <time>2018-10-14T09:48:24Z</time>
      </trkpt>
      <trkpt lat="43.39002" lon="6.69486">
        <ele>167.600006</ele>
        <time>2018-10-14T09:48:30Z</time>
      </trkpt>
      <trkpt lat="43.38993" lon="6.6948">
        <ele>169.199997</ele>
        <time>2018-10-14T09:48:37Z</time>
      </trkpt>
      <trkpt lat="43.38985" lon="6.6947">
        <ele>170.800003</ele>
        <time>2018-10-14T09:48:44Z</time>
      </trkpt>
      <trkpt lat="43.38978" lon="6.69461">
        <ele>172</ele>
        <time>2018-10-14T09:48:51Z</time>
      </trkpt>
      <trkpt lat="43.38971" lon="6.69453">
        <ele>173.399994</ele>
        <time>2018-10-14T09:48:58Z</time>
      </trkpt>
      <trkpt lat="43.38965" lon="6.69441">
        <ele>175.399994</ele>
        <time>2018-10-14T09:49:05Z</time>
      </trkpt>
      <trkpt lat="43.3896" lon="6.6943">
        <ele>177.199997</ele>
        <time>2018-10-14T09:49:12Z</time>
      </trkpt>
      <trkpt lat="43.38957" lon="6.69417">
        <ele>178.5</ele>
        <time>2018-10-14T09:49:19Z</time>
      </trkpt>
      <trkpt lat="43.38953" lon="6.69403">
        <ele>179.899994</ele>
        <time>2018-10-14T09:49:25Z</time>
      </trkpt>
      <trkpt lat="43.38948" lon="6.69391">
        <ele>180.800003</ele>
        <time>2018-10-14T09:49:32Z</time>
      </trkpt>
      <trkpt lat="43.38944" lon="6.69379">
        <ele>183.100006</ele>
        <time>2018-10-14T09:49:39Z</time>
      </trkpt>
      <trkpt lat="43.38938" lon="6.69368">
        <ele>184.600006</ele>
        <time>2018-10-14T09:49:46Z</time>
      </trkpt>
      <trkpt lat="43.38934" lon="6.69357">
        <ele>186</ele>
        <time>2018-10-14T09:49:53Z</time>
      </trkpt>
      <trkpt lat="43.38929" lon="6.69346">
        <ele>187.899994</ele>
        <time>2018-10-14T09:50:00Z</time>
      </trkpt>
      <trkpt lat="43.38923" lon="6.69336">
        <ele>190</ele>
        <time>2018-10-14T09:50:07Z</time>
      </trkpt>
      <trkpt lat="43.38917" lon="6.69325">
        <ele>191.699997</ele>
        <time>2018-10-14T09:50:14Z</time>
      </trkpt>
      <trkpt lat="43.38911" lon="6.69316">
        <ele>193.199997</ele>
        <time>2018-10-14T09:50:20Z</time>
      </trkpt>
      <trkpt lat="43.38902" lon="6.69312">
        <ele>195.399994</ele>
        <time>2018-10-14T09:50:27Z</time>
      </trkpt>
      <trkpt lat="43.38893" lon="6.69308">
        <ele>196.899994</ele>
        <time>2018-10-14T09:50:34Z</time>
      </trkpt>
      <trkpt lat="43.38884" lon="6.69302">
        <ele>197.899994</ele>
        <time>2018-10-14T09:50:41Z</time>
      </trkpt>
      <trkpt lat="43.38875" lon="6.69297">
        <ele>199</ele>
        <time>2018-10-14T09:50:48Z</time>
      </trkpt>
      <trkpt lat="43.38867" lon="6.69292">
        <ele>200.300003</ele>
        <time>2018-10-14T09:50:55Z</time>
      </trkpt>
      <trkpt lat="43.38858" lon="6.69286">
        <ele>202.199997</ele>
        <time>2018-10-14T09:51:02Z</time>
      </trkpt>
      <trkpt lat="43.38849" lon="6.69282">
        <ele>204.100006</ele>
        <time>2018-10-14T09:51:09Z</time>
      </trkpt>
      <trkpt lat="43.3884" lon="6.69276">
        <ele>206.300003</ele>
        <time>2018-10-14T09:51:16Z</time>
      </trkpt>
      <trkpt lat="43.38832" lon="6.6927">
        <ele>207.199997</ele>
        <time>2018-10-14T09:51:22Z</time>
      </trkpt>
      <trkpt lat="43.38823" lon="6.69263">
        <ele>208.199997</ele>
        <time>2018-10-14T09:51:29Z</time>
      </trkpt>
      <trkpt lat="43.38816" lon="6.69252">
        <ele>209.699997</ele>
        <time>2018-10-14T09:51:37Z</time>
      </trkpt>
      <trkpt lat="43.38809" lon="6.69242">
        <ele>211.100006</ele>
        <time>2018-10-14T09:51:44Z</time>
      </trkpt>
      <trkpt lat="43.38802" lon="6.69232">
        <ele>212.699997</ele>
        <time>2018-10-14T09:51:51Z</time>
      </trkpt>
      <trkpt lat="43.38796" lon="6.69223">
        <ele>214.100006</ele>
        <time>2018-10-14T09:51:58Z</time>
      </trkpt>
      <trkpt lat="43.38789" lon="6.69214">
        <ele>216.399994</ele>
        <time>2018-10-14T09:52:05Z</time>
      </trkpt>
      <trkpt lat="43.38782" lon="6.69206">
        <ele>217.5</ele>
        <time>2018-10-14T09:52:11Z</time>
      </trkpt>
      <trkpt lat="43.38773" lon="6.692">
        <ele>217.899994</ele>
        <time>2018-10-14T09:52:16Z</time>
      </trkpt>
      <trkpt lat="43.38765" lon="6.69191">
        <ele>219.199997</ele>
        <time>2018-10-14T09:52:22Z</time>
      </trkpt>
      <trkpt lat="43.38757" lon="6.69183">
        <ele>220.600006</ele>
        <time>2018-10-14T09:52:28Z</time>
      </trkpt>
      <trkpt lat="43.38749" lon="6.69174">
        <ele>221.600006</ele>
        <time>2018-10-14T09:52:34Z</time>
      </trkpt>
      <trkpt lat="43.3874" lon="6.69165">
        <ele>222.399994</ele>
        <time>2018-10-14T09:52:39Z</time>
      </trkpt>
      <trkpt lat="43.38732" lon="6.69158">
        <ele>222.699997</ele>
        <time>2018-10-14T09:52:44Z</time>
      </trkpt>
      <trkpt lat="43.38724" lon="6.69151">
        <ele>223.399994</ele>
        <time>2018-10-14T09:52:49Z</time>
      </trkpt>
      <trkpt lat="43.38716" lon="6.69145">
        <ele>223.199997</ele>
        <time>2018-10-14T09:52:55Z</time>
      </trkpt>
      <trkpt lat="43.38711" lon="6.69133">
        <ele>222.899994</ele>
        <time>2018-10-14T09:53:00Z</time>
      </trkpt>
      <trkpt lat="43.38717" lon="6.69122">
        <ele>225.800003</ele>
        <time>2018-10-14T09:53:08Z</time>
      </trkpt>
      <trkpt lat="43.38727" lon="6.69118">
        <ele>227.899994</ele>
        <time>2018-10-14T09:53:15Z</time>
      </trkpt>
      <trkpt lat="43.38736" lon="6.69111">
        <ele>230.199997</ele>
        <time>2018-10-14T09:53:22Z</time>
      </trkpt>
      <trkpt lat="43.38745" lon="6.6911">
        <ele>232.100006</ele>
        <time>2018-10-14T09:53:29Z</time>
      </trkpt>
      <trkpt lat="43.38754" lon="6.69116">
        <ele>233.600006</ele>
        <time>2018-10-14T09:53:36Z</time>
      </trkpt>
      <trkpt lat="43.38763" lon="6.69121">
        <ele>233.899994</ele>
        <time>2018-10-14T09:53:41Z</time>
      </trkpt>
      <trkpt lat="43.38773" lon="6.69124">
        <ele>234.199997</ele>
        <time>2018-10-14T09:53:47Z</time>
      </trkpt>
      <trkpt lat="43.38784" lon="6.69127">
        <ele>234.300003</ele>
        <time>2018-10-14T09:53:52Z</time>
      </trkpt>
      <trkpt lat="43.38794" lon="6.69135">
        <ele>234.300003</ele>
        <time>2018-10-14T09:53:56Z</time>
      </trkpt>
      <trkpt lat="43.38803" lon="6.69142">
        <ele>234.5</ele>
        <time>2018-10-14T09:53:59Z</time>
      </trkpt>
      <trkpt lat="43.38815" lon="6.69141">
        <ele>234.199997</ele>
        <time>2018-10-14T09:54:02Z</time>
      </trkpt>
      <trkpt lat="43.38824" lon="6.69135">
        <ele>233.399994</ele>
        <time>2018-10-14T09:54:06Z</time>
      </trkpt>
      <trkpt lat="43.38836" lon="6.69129">
        <ele>232.800003</ele>
        <time>2018-10-14T09:54:09Z</time>
      </trkpt>
      <trkpt lat="43.38846" lon="6.69121">
        <ele>231.399994</ele>
        <time>2018-10-14T09:54:23Z</time>
      </trkpt>
      <trkpt lat="43.38855" lon="6.69113">
        <ele>230.899994</ele>
        <time>2018-10-14T09:54:25Z</time>
      </trkpt>
      <trkpt lat="43.38865" lon="6.69104">
        <ele>230.100006</ele>
        <time>2018-10-14T09:54:27Z</time>
      </trkpt>
      <trkpt lat="43.38875" lon="6.69098">
        <ele>229.199997</ele>
        <time>2018-10-14T09:54:29Z</time>
      </trkpt>
      <trkpt lat="43.38887" lon="6.69091">
        <ele>228.199997</ele>
        <time>2018-10-14T09:54:31Z</time>
      </trkpt>
      <trkpt lat="43.38899" lon="6.69079">
        <ele>226.600006</ele>
        <time>2018-10-14T09:54:33Z</time>
      </trkpt>
      <trkpt lat="43.38911" lon="6.69069">
        <ele>225.600006</ele>
        <time>2018-10-14T09:54:35Z</time>
      </trkpt>
      <trkpt lat="43.38923" lon="6.69061">
        <ele>224.600006</ele>
        <time>2018-10-14T09:54:37Z</time>
      </trkpt>
      <trkpt lat="43.38937" lon="6.69056">
        <ele>223.300003</ele>
        <time>2018-10-14T09:54:39Z</time>
      </trkpt>
      <trkpt lat="43.38951" lon="6.69052">
        <ele>221.600006</ele>
        <time>2018-10-14T09:54:41Z</time>
      </trkpt>
      <trkpt lat="43.38964" lon="6.69048">
        <ele>219.699997</ele>
        <time>2018-10-14T09:54:43Z</time>
      </trkpt>
      <trkpt lat="43.38977" lon="6.69045">
        <ele>217.699997</ele>
        <time>2018-10-14T09:54:45Z</time>
      </trkpt>
      <trkpt lat="43.38989" lon="6.69042">
        <ele>216.100006</ele>
        <time>2018-10-14T09:54:47Z</time>
      </trkpt>
      <trkpt lat="43.39002" lon="6.69038">
        <ele>214.100006</ele>
        <time>2018-10-14T09:54:49Z</time>
      </trkpt>
      <trkpt lat="43.39016" lon="6.69033">
        <ele>212.399994</ele>
        <time>2018-10-14T09:54:51Z</time>
      </trkpt>
      <trkpt lat="43.39028" lon="6.69029">
        <ele>210.399994</ele>
        <time>2018-10-14T09:54:53Z</time>
      </trkpt>
      <trkpt lat="43.39037" lon="6.69023">
        <ele>208.5</ele>
        <time>2018-10-14T09:54:55Z</time>
      </trkpt>
      <trkpt lat="43.39046" lon="6.69018">
        <ele>207</ele>
        <time>2018-10-14T09:54:57Z</time>
      </trkpt>
      <trkpt lat="43.39055" lon="6.6901">
        <ele>205.5</ele>
        <time>2018-10-14T09:54:59Z</time>
      </trkpt>
      <trkpt lat="43.39066" lon="6.69003">
        <ele>203.600006</ele>
        <time>2018-10-14T09:55:01Z</time>
      </trkpt>
      <trkpt lat="43.39078" lon="6.68999">
        <ele>199.800003</ele>
        <time>2018-10-14T09:55:04Z</time>
      </trkpt>
      <trkpt lat="43.39088" lon="6.68994">
        <ele>198</ele>
        <time>2018-10-14T09:55:06Z</time>
      </trkpt>
      <trkpt lat="43.39097" lon="6.68986">
        <ele>196.199997</ele>
        <time>2018-10-14T09:55:08Z</time>
      </trkpt>
      <trkpt lat="43.39104" lon="6.68971">
        <ele>194.300003</ele>
        <time>2018-10-14T09:55:10Z</time>
      </trkpt>
      <trkpt lat="43.39109" lon="6.68959">
        <ele>191.600006</ele>
        <time>2018-10-14T09:55:12Z</time>
      </trkpt>
      <trkpt lat="43.39117" lon="6.68952">
        <ele>189.600006</ele>
        <time>2018-10-14T09:55:14Z</time>
      </trkpt>
      <trkpt lat="43.39129" lon="6.6895">
        <ele>186.800003</ele>
        <time>2018-10-14T09:55:17Z</time>
      </trkpt>
      <trkpt lat="43.39138" lon="6.68953">
        <ele>184.899994</ele>
        <time>2018-10-14T09:55:19Z</time>
      </trkpt>
      <trkpt lat="43.39148" lon="6.68954">
        <ele>183</ele>
        <time>2018-10-14T09:55:21Z</time>
      </trkpt>
      <trkpt lat="43.39157" lon="6.68949">
        <ele>181.100006</ele>
        <time>2018-10-14T09:55:23Z</time>
      </trkpt>
      <trkpt lat="43.39165" lon="6.6894">
        <ele>179.800003</ele>
        <time>2018-10-14T09:55:25Z</time>
      </trkpt>
      <trkpt lat="43.39175" lon="6.68933">
        <ele>178.699997</ele>
        <time>2018-10-14T09:55:27Z</time>
      </trkpt>
      <trkpt lat="43.39186" lon="6.68926">
        <ele>177.300003</ele>
        <time>2018-10-14T09:55:29Z</time>
      </trkpt>
      <trkpt lat="43.39195" lon="6.68924">
        <ele>175.600006</ele>
        <time>2018-10-14T09:55:31Z</time>
      </trkpt>
      <trkpt lat="43.39205" lon="6.68925">
        <ele>174.300003</ele>
        <time>2018-10-14T09:55:33Z</time>
      </trkpt>
      <trkpt lat="43.39217" lon="6.68926">
        <ele>173</ele>
        <time>2018-10-14T09:55:35Z</time>
      </trkpt>
      <trkpt lat="43.3923" lon="6.68923">
        <ele>171.600006</ele>
        <time>2018-10-14T09:55:37Z</time>
      </trkpt>
      <trkpt lat="43.39242" lon="6.68923">
        <ele>170.699997</ele>
        <time>2018-10-14T09:55:39Z</time>
      </trkpt>
      <trkpt lat="43.39254" lon="6.68926">
        <ele>169.5</ele>
        <time>2018-10-14T09:55:41Z</time>
      </trkpt>
      <trkpt lat="43.39264" lon="6.68928">
        <ele>167.899994</ele>
        <time>2018-10-14T09:55:43Z</time>
      </trkpt>
      <trkpt lat="43.39275" lon="6.68927">
        <ele>166.600006</ele>
        <time>2018-10-14T09:55:45Z</time>
      </trkpt>
      <trkpt lat="43.39284" lon="6.68922">
        <ele>164.899994</ele>
        <time>2018-10-14T09:55:47Z</time>
      </trkpt>
      <trkpt lat="43.39296" lon="6.68915">
        <ele>162.800003</ele>
        <time>2018-10-14T09:55:49Z</time>
      </trkpt>
      <trkpt lat="43.39308" lon="6.68908">
        <ele>160.800003</ele>
        <time>2018-10-14T09:55:51Z</time>
      </trkpt>
      <trkpt lat="43.3932" lon="6.689">
        <ele>159</ele>
        <time>2018-10-14T09:55:53Z</time>
      </trkpt>
      <trkpt lat="43.39329" lon="6.68895">
        <ele>157.199997</ele>
        <time>2018-10-14T09:55:55Z</time>
      </trkpt>
      <trkpt lat="43.39343" lon="6.68892">
        <ele>155.399994</ele>
        <time>2018-10-14T09:55:58Z</time>
      </trkpt>
      <trkpt lat="43.39354" lon="6.68898">
        <ele>153.899994</ele>
        <time>2018-10-14T09:56:00Z</time>
      </trkpt>
      <trkpt lat="43.39366" lon="6.68902">
        <ele>151.800003</ele>
        <time>2018-10-14T09:56:02Z</time>
      </trkpt>
      <trkpt lat="43.39376" lon="6.68907">
        <ele>150.100006</ele>
        <time>2018-10-14T09:56:04Z</time>
      </trkpt>
      <trkpt lat="43.39388" lon="6.68912">
        <ele>148.399994</ele>
        <time>2018-10-14T09:56:06Z</time>
      </trkpt>
      <trkpt lat="43.39401" lon="6.68918">
        <ele>146.600006</ele>
        <time>2018-10-14T09:56:08Z</time>
      </trkpt>
      <trkpt lat="43.39413" lon="6.68926">
        <ele>144.600006</ele>
        <time>2018-10-14T09:56:10Z</time>
      </trkpt>
      <trkpt lat="43.39426" lon="6.68932">
        <ele>142.199997</ele>
        <time>2018-10-14T09:56:12Z</time>
      </trkpt>
      <trkpt lat="43.39438" lon="6.68931">
        <ele>140.5</ele>
        <time>2018-10-14T09:56:14Z</time>
      </trkpt>
      <trkpt lat="43.39452" lon="6.68924">
        <ele>139.100006</ele>
        <time>2018-10-14T09:56:16Z</time>
      </trkpt>
      <trkpt lat="43.39464" lon="6.68915">
        <ele>137.800003</ele>
        <time>2018-10-14T09:56:18Z</time>
      </trkpt>
      <trkpt lat="43.39478" lon="6.68905">
        <ele>136.300003</ele>
        <time>2018-10-14T09:56:20Z</time>
      </trkpt>
      <trkpt lat="43.3949" lon="6.68899">
        <ele>133.600006</ele>
        <time>2018-10-14T09:56:22Z</time>
      </trkpt>
      <trkpt lat="43.395" lon="6.68892">
        <ele>131.899994</ele>
        <time>2018-10-14T09:56:24Z</time>
      </trkpt>
      <trkpt lat="43.39512" lon="6.68881">
        <ele>129.399994</ele>
        <time>2018-10-14T09:56:26Z</time>
      </trkpt>
      <trkpt lat="43.39524" lon="6.68865">
        <ele>127.300003</ele>
        <time>2018-10-14T09:56:28Z</time>
      </trkpt>
      <trkpt lat="43.39532" lon="6.6885">
        <ele>125.199997</ele>
        <time>2018-10-14T09:56:30Z</time>
      </trkpt>
      <trkpt lat="43.39536" lon="6.68835">
        <ele>122.900002</ele>
        <time>2018-10-14T09:56:32Z</time>
      </trkpt>
      <trkpt lat="43.39532" lon="6.68818">
        <ele>120.099998</ele>
        <time>2018-10-14T09:56:35Z</time>
      </trkpt>
      <trkpt lat="43.39527" lon="6.68804">
        <ele>118.699997</ele>
        <time>2018-10-14T09:56:38Z</time>
      </trkpt>
      <trkpt lat="43.3952" lon="6.6879">
        <ele>118.099998</ele>
        <time>2018-10-14T09:56:41Z</time>
      </trkpt>
      <trkpt lat="43.39512" lon="6.68777">
        <ele>118.099998</ele>
        <time>2018-10-14T09:56:44Z</time>
      </trkpt>
      <trkpt lat="43.39501" lon="6.68764">
        <ele>117.900002</ele>
        <time>2018-10-14T09:56:47Z</time>
      </trkpt>
      <trkpt lat="43.39492" lon="6.68754">
        <ele>117.599998</ele>
        <time>2018-10-14T09:56:49Z</time>
      </trkpt>
      <trkpt lat="43.39484" lon="6.68744">
        <ele>117</ele>
        <time>2018-10-14T09:56:51Z</time>
      </trkpt>
      <trkpt lat="43.39478" lon="6.68733">
        <ele>116.5</ele>
        <time>2018-10-14T09:56:53Z</time>
      </trkpt>
      <trkpt lat="43.39475" lon="6.68715">
        <ele>116.099998</ele>
        <time>2018-10-14T09:56:56Z</time>
      </trkpt>
      <trkpt lat="43.39471" lon="6.68701">
        <ele>115.699997</ele>
        <time>2018-10-14T09:56:59Z</time>
      </trkpt>
      <trkpt lat="43.3947" lon="6.68685">
        <ele>115.5</ele>
        <time>2018-10-14T09:57:02Z</time>
      </trkpt>
      <trkpt lat="43.39471" lon="6.6867">
        <ele>115.199997</ele>
        <time>2018-10-14T09:57:04Z</time>
      </trkpt>
      <trkpt lat="43.39472" lon="6.68653">
        <ele>114.800003</ele>
        <time>2018-10-14T09:57:06Z</time>
      </trkpt>
      <trkpt lat="43.39474" lon="6.68634">
        <ele>114</ele>
        <time>2018-10-14T09:57:08Z</time>
      </trkpt>
      <trkpt lat="43.39477" lon="6.68614">
        <ele>113.099998</ele>
        <time>2018-10-14T09:57:10Z</time>
      </trkpt>
      <trkpt lat="43.3948" lon="6.68593">
        <ele>111.800003</ele>
        <time>2018-10-14T09:57:12Z</time>
      </trkpt>
      <trkpt lat="43.39483" lon="6.68572">
        <ele>110.800003</ele>
        <time>2018-10-14T09:57:14Z</time>
      </trkpt>
      <trkpt lat="43.39484" lon="6.68555">
        <ele>109.599998</ele>
        <time>2018-10-14T09:57:16Z</time>
      </trkpt>
      <trkpt lat="43.3948" lon="6.68539">
        <ele>108.199997</ele>
        <time>2018-10-14T09:57:19Z</time>
      </trkpt>
      <trkpt lat="43.39473" lon="6.68531">
        <ele>107.199997</ele>
        <time>2018-10-14T09:57:21Z</time>
      </trkpt>
      <trkpt lat="43.39464" lon="6.68526">
        <ele>105.400002</ele>
        <time>2018-10-14T09:57:23Z</time>
      </trkpt>
      <trkpt lat="43.39453" lon="6.68523">
        <ele>102.599998</ele>
        <time>2018-10-14T09:57:27Z</time>
      </trkpt>
      <trkpt lat="43.39442" lon="6.68515">
        <ele>101</ele>
        <time>2018-10-14T09:57:30Z</time>
      </trkpt>
      <trkpt lat="43.39434" lon="6.68505">
        <ele>99.599998</ele>
        <time>2018-10-14T09:57:32Z</time>
      </trkpt>
      <trkpt lat="43.39425" lon="6.68493">
        <ele>97.800003</ele>
        <time>2018-10-14T09:57:34Z</time>
      </trkpt>
      <trkpt lat="43.39418" lon="6.68485">
        <ele>96.599998</ele>
        <time>2018-10-14T09:57:36Z</time>
      </trkpt>
      <trkpt lat="43.39411" lon="6.68478">
        <ele>95.599998</ele>
        <time>2018-10-14T09:57:38Z</time>
      </trkpt>
      <trkpt lat="43.39403" lon="6.68466">
        <ele>94.800003</ele>
        <time>2018-10-14T09:57:40Z</time>
      </trkpt>
      <trkpt lat="43.39397" lon="6.68455">
        <ele>93.699997</ele>
        <time>2018-10-14T09:57:42Z</time>
      </trkpt>
      <trkpt lat="43.39392" lon="6.68443">
        <ele>92.900002</ele>
        <time>2018-10-14T09:57:44Z</time>
      </trkpt>
      <trkpt lat="43.39388" lon="6.68432">
        <ele>92.599998</ele>
        <time>2018-10-14T09:57:46Z</time>
      </trkpt>
      <trkpt lat="43.39377" lon="6.68423">
        <ele>92</ele>
        <time>2018-10-14T09:57:49Z</time>
      </trkpt>
      <trkpt lat="43.39369" lon="6.68409">
        <ele>90.400002</ele>
        <time>2018-10-14T09:57:52Z</time>
      </trkpt>
      <trkpt lat="43.39365" lon="6.68396">
        <ele>89.900002</ele>
        <time>2018-10-14T09:57:54Z</time>
      </trkpt>
      <trkpt lat="43.39362" lon="6.68379">
        <ele>88.699997</ele>
        <time>2018-10-14T09:57:57Z</time>
      </trkpt>
      <trkpt lat="43.39359" lon="6.68364">
        <ele>87.400002</ele>
        <time>2018-10-14T09:58:00Z</time>
      </trkpt>
      <trkpt lat="43.39355" lon="6.68351">
        <ele>85.699997</ele>
        <time>2018-10-14T09:58:02Z</time>
      </trkpt>
      <trkpt lat="43.39349" lon="6.6834">
        <ele>84.5</ele>
        <time>2018-10-14T09:58:04Z</time>
      </trkpt>
      <trkpt lat="43.3934" lon="6.68337">
        <ele>83</ele>
        <time>2018-10-14T09:58:07Z</time>
      </trkpt>
      <trkpt lat="43.39331" lon="6.6834">
        <ele>82.400002</ele>
        <time>2018-10-14T09:58:11Z</time>
      </trkpt>
      <trkpt lat="43.3932" lon="6.68338">
        <ele>82.300003</ele>
        <time>2018-10-14T09:58:15Z</time>
      </trkpt>
      <trkpt lat="43.39311" lon="6.68331">
        <ele>82.300003</ele>
        <time>2018-10-14T09:58:19Z</time>
      </trkpt>
      <trkpt lat="43.3931" lon="6.68318">
        <ele>82.199997</ele>
        <time>2018-10-14T09:58:23Z</time>
      </trkpt>
      <trkpt lat="43.39316" lon="6.68307">
        <ele>82.199997</ele>
        <time>2018-10-14T09:58:26Z</time>
      </trkpt>
      <trkpt lat="43.39319" lon="6.68295">
        <ele>82.099998</ele>
        <time>2018-10-14T09:58:29Z</time>
      </trkpt>
      <trkpt lat="43.39318" lon="6.68282">
        <ele>82.300003</ele>
        <time>2018-10-14T09:58:33Z</time>
      </trkpt>
      <trkpt lat="43.39313" lon="6.6827">
        <ele>83.800003</ele>
        <time>2018-10-14T09:58:40Z</time>
      </trkpt>
      <trkpt lat="43.39305" lon="6.68262">
        <ele>85.5</ele>
        <time>2018-10-14T09:58:46Z</time>
      </trkpt>
      <trkpt lat="43.39296" lon="6.68255">
        <ele>87.699997</ele>
        <time>2018-10-14T09:58:53Z</time>
      </trkpt>
      <trkpt lat="43.39287" lon="6.68248">
        <ele>88.099998</ele>
        <time>2018-10-14T09:58:59Z</time>
      </trkpt>
      <trkpt lat="43.39277" lon="6.68241">
        <ele>90.400002</ele>
        <time>2018-10-14T09:59:05Z</time>
      </trkpt>
      <trkpt lat="43.39268" lon="6.68233">
        <ele>91.800003</ele>
        <time>2018-10-14T09:59:11Z</time>
      </trkpt>
      <trkpt lat="43.39269" lon="6.68218">
        <ele>92.599998</ele>
        <time>2018-10-14T09:59:17Z</time>
      </trkpt>
      <trkpt lat="43.39275" lon="6.68203">
        <ele>92.699997</ele>
        <time>2018-10-14T09:59:20Z</time>
      </trkpt>
      <trkpt lat="43.39279" lon="6.68191">
        <ele>92.300003</ele>
        <time>2018-10-14T09:59:22Z</time>
      </trkpt>
      <trkpt lat="43.39282" lon="6.68178">
        <ele>92.400002</ele>
        <time>2018-10-14T09:59:25Z</time>
      </trkpt>
      <trkpt lat="43.39288" lon="6.68166">
        <ele>91.699997</ele>
        <time>2018-10-14T09:59:29Z</time>
      </trkpt>
      <trkpt lat="43.39293" lon="6.68154">
        <ele>92.800003</ele>
        <time>2018-10-14T09:59:33Z</time>
      </trkpt>
      <trkpt lat="43.39299" lon="6.68143">
        <ele>93.199997</ele>
        <time>2018-10-14T09:59:36Z</time>
      </trkpt>
      <trkpt lat="43.39306" lon="6.68133">
        <ele>93.400002</ele>
        <time>2018-10-14T09:59:39Z</time>
      </trkpt>
      <trkpt lat="43.39313" lon="6.68124">
        <ele>93.599998</ele>
        <time>2018-10-14T09:59:42Z</time>
      </trkpt>
      <trkpt lat="43.3932" lon="6.68115">
        <ele>93.5</ele>
        <time>2018-10-14T09:59:45Z</time>
      </trkpt>
      <trkpt lat="43.39325" lon="6.68103">
        <ele>93.5</ele>
        <time>2018-10-14T09:59:49Z</time>
      </trkpt>
      <trkpt lat="43.39328" lon="6.6809">
        <ele>95.400002</ele>
        <time>2018-10-14T09:59:54Z</time>
      </trkpt>
      <trkpt lat="43.39327" lon="6.68076">
        <ele>96.400002</ele>
        <time>2018-10-14T09:59:59Z</time>
      </trkpt>
      <trkpt lat="43.39327" lon="6.68063">
        <ele>97.599998</ele>
        <time>2018-10-14T10:00:04Z</time>
      </trkpt>
      <trkpt lat="43.39329" lon="6.68049">
        <ele>98.099998</ele>
        <time>2018-10-14T10:00:09Z</time>
      </trkpt>
      <trkpt lat="43.39327" lon="6.68035">
        <ele>98.199997</ele>
        <time>2018-10-14T10:00:15Z</time>
      </trkpt>
      <trkpt lat="43.39333" lon="6.68022">
        <ele>97.300003</ele>
        <time>2018-10-14T10:00:21Z</time>
      </trkpt>
      <trkpt lat="43.39337" lon="6.68007">
        <ele>95.900002</ele>
        <time>2018-10-14T10:00:25Z</time>
      </trkpt>
      <trkpt lat="43.39336" lon="6.67992">
        <ele>95.300003</ele>
        <time>2018-10-14T10:00:29Z</time>
      </trkpt>
      <trkpt lat="43.39334" lon="6.67978">
        <ele>94.699997</ele>
        <time>2018-10-14T10:00:34Z</time>
      </trkpt>
      <trkpt lat="43.3933" lon="6.67966">
        <ele>93.599998</ele>
        <time>2018-10-14T10:00:38Z</time>
      </trkpt>
      <trkpt lat="43.39324" lon="6.67955">
        <ele>91.900002</ele>
        <time>2018-10-14T10:00:42Z</time>
      </trkpt>
      <trkpt lat="43.39321" lon="6.67941">
        <ele>89.599998</ele>
        <time>2018-10-14T10:00:47Z</time>
      </trkpt>
      <trkpt lat="43.39318" lon="6.67927">
        <ele>87.900002</ele>
        <time>2018-10-14T10:00:51Z</time>
      </trkpt>
      <trkpt lat="43.39315" lon="6.67913">
        <ele>86.900002</ele>
        <time>2018-10-14T10:00:56Z</time>
      </trkpt>
      <trkpt lat="43.39311" lon="6.679">
        <ele>85.400002</ele>
        <time>2018-10-14T10:01:01Z</time>
      </trkpt>
      <trkpt lat="43.39306" lon="6.67889">
        <ele>83.5</ele>
        <time>2018-10-14T10:01:10Z</time>
      </trkpt>
      <trkpt lat="43.393" lon="6.67879">
        <ele>81.599998</ele>
        <time>2018-10-14T10:01:25Z</time>
      </trkpt>
      <trkpt lat="43.39304" lon="6.67867">
        <ele>79.699997</ele>
        <time>2018-10-14T10:01:33Z</time>
      </trkpt>
      <trkpt lat="43.39311" lon="6.67857">
        <ele>77.900002</ele>
        <time>2018-10-14T10:01:40Z</time>
      </trkpt>
      <trkpt lat="43.39316" lon="6.67847">
        <ele>74.400002</ele>
        <time>2018-10-14T10:02:00Z</time>
      </trkpt>
      <trkpt lat="43.39318" lon="6.67833">
        <ele>71.599998</ele>
        <time>2018-10-14T10:02:15Z</time>
      </trkpt>
      <trkpt lat="43.39318" lon="6.6782">
        <ele>68.900002</ele>
        <time>2018-10-14T10:02:24Z</time>
      </trkpt>
      <trkpt lat="43.39316" lon="6.67807">
        <ele>66.400002</ele>
        <time>2018-10-14T10:02:31Z</time>
      </trkpt>
      <trkpt lat="43.39313" lon="6.67795">
        <ele>64</ele>
        <time>2018-10-14T10:02:40Z</time>
      </trkpt>
      <trkpt lat="43.39321" lon="6.67787">
        <ele>61.099998</ele>
        <time>2018-10-14T10:02:49Z</time>
      </trkpt>
      <trkpt lat="43.39329" lon="6.67778">
        <ele>59.700001</ele>
        <time>2018-10-14T10:02:57Z</time>
      </trkpt>
      <trkpt lat="43.39333" lon="6.67764">
        <ele>57.799999</ele>
        <time>2018-10-14T10:03:02Z</time>
      </trkpt>
      <trkpt lat="43.39336" lon="6.67752">
        <ele>58.200001</ele>
        <time>2018-10-14T10:03:06Z</time>
      </trkpt>
      <trkpt lat="43.39329" lon="6.67743">
        <ele>58.099998</ele>
        <time>2018-10-14T10:03:12Z</time>
      </trkpt>
      <trkpt lat="43.39326" lon="6.67731">
        <ele>54.900002</ele>
        <time>2018-10-14T10:03:24Z</time>
      </trkpt>
      <trkpt lat="43.39319" lon="6.67723">
        <ele>52.400002</ele>
        <time>2018-10-14T10:03:36Z</time>
      </trkpt>
      <trkpt lat="43.3931" lon="6.67718">
        <ele>49.900002</ele>
        <time>2018-10-14T10:03:45Z</time>
      </trkpt>
      <trkpt lat="43.39303" lon="6.6771">
        <ele>47.299999</ele>
        <time>2018-10-14T10:03:55Z</time>
      </trkpt>
      <trkpt lat="43.39294" lon="6.67704">
        <ele>45.200001</ele>
        <time>2018-10-14T10:04:05Z</time>
      </trkpt>
      <trkpt lat="43.39287" lon="6.67696">
        <ele>44.299999</ele>
        <time>2018-10-14T10:04:09Z</time>
      </trkpt>
      <trkpt lat="43.39279" lon="6.67687">
        <ele>40.299999</ele>
        <time>2018-10-14T10:04:19Z</time>
      </trkpt>
      <trkpt lat="43.39273" lon="6.67675">
        <ele>38</ele>
        <time>2018-10-14T10:04:26Z</time>
      </trkpt>
      <trkpt lat="43.39267" lon="6.67664">
        <ele>36.599998</ele>
        <time>2018-10-14T10:04:29Z</time>
      </trkpt>
      <trkpt lat="43.39257" lon="6.67663">
        <ele>35.700001</ele>
        <time>2018-10-14T10:04:33Z</time>
      </trkpt>
      <trkpt lat="43.39248" lon="6.67665">
        <ele>34.799999</ele>
        <time>2018-10-14T10:04:38Z</time>
      </trkpt>
      <trkpt lat="43.39239" lon="6.67665">
        <ele>32.200001</ele>
        <time>2018-10-14T10:05:13Z</time>
      </trkpt>
      <trkpt lat="43.3923" lon="6.67668">
        <ele>32.5</ele>
        <time>2018-10-14T10:06:23Z</time>
      </trkpt>
      <trkpt lat="43.39226" lon="6.67656">
        <ele>31.700001</ele>
        <time>2018-10-14T10:07:13Z</time>
      </trkpt>
      <trkpt lat="43.39222" lon="6.67645">
        <ele>30.6</ele>
        <time>2018-10-14T10:07:32Z</time>
      </trkpt>
      <trkpt lat="43.39223" lon="6.67633">
        <ele>30.799999</ele>
        <time>2018-10-14T10:07:47Z</time>
      </trkpt>
      <trkpt lat="43.39233" lon="6.67633">
        <ele>31.299999</ele>
        <time>2018-10-14T10:07:53Z</time>
      </trkpt>
      <trkpt lat="43.39243" lon="6.67635">
        <ele>30.799999</ele>
        <time>2018-10-14T10:07:57Z</time>
      </trkpt>
      <trkpt lat="43.39254" lon="6.67637">
        <ele>31</ele>
        <time>2018-10-14T10:08:01Z</time>
      </trkpt>
      <trkpt lat="43.39264" lon="6.67634">
        <ele>31.700001</ele>
        <time>2018-10-14T10:08:05Z</time>
      </trkpt>
      <trkpt lat="43.39275" lon="6.67629">
        <ele>31.299999</ele>
        <time>2018-10-14T10:08:09Z</time>
      </trkpt>
      <trkpt lat="43.39284" lon="6.67627">
        <ele>32</ele>
        <time>2018-10-14T10:08:13Z</time>
      </trkpt>
      <trkpt lat="43.39293" lon="6.67629">
        <ele>31.799999</ele>
        <time>2018-10-14T10:08:16Z</time>
      </trkpt>
      <trkpt lat="43.39303" lon="6.67629">
        <ele>32.099998</ele>
        <time>2018-10-14T10:08:18Z</time>
      </trkpt>
      <trkpt lat="43.39312" lon="6.67625">
        <ele>31.4</ele>
        <time>2018-10-14T10:08:20Z</time>
      </trkpt>
      <trkpt lat="43.39323" lon="6.67624">
        <ele>31.700001</ele>
        <time>2018-10-14T10:08:23Z</time>
      </trkpt>
      <trkpt lat="43.39335" lon="6.67621">
        <ele>30.799999</ele>
        <time>2018-10-14T10:08:26Z</time>
      </trkpt>
      <trkpt lat="43.39347" lon="6.67614">
        <ele>30.4</ele>
        <time>2018-10-14T10:08:29Z</time>
      </trkpt>
      <trkpt lat="43.39357" lon="6.67607">
        <ele>30.1</ele>
        <time>2018-10-14T10:08:32Z</time>
      </trkpt>
      <trkpt lat="43.39368" lon="6.67602">
        <ele>29.799999</ele>
        <time>2018-10-14T10:08:35Z</time>
      </trkpt>
      <trkpt lat="43.3938" lon="6.67598">
        <ele>30.299999</ele>
        <time>2018-10-14T10:08:39Z</time>
      </trkpt>
      <trkpt lat="43.39389" lon="6.67591">
        <ele>30.5</ele>
        <time>2018-10-14T10:08:43Z</time>
      </trkpt>
      <trkpt lat="43.39399" lon="6.67587">
        <ele>30.9</ele>
        <time>2018-10-14T10:08:47Z</time>
      </trkpt>
      <trkpt lat="43.39409" lon="6.6759">
        <ele>30.9</ele>
        <time>2018-10-14T10:08:51Z</time>
      </trkpt>
      <trkpt lat="43.39421" lon="6.67594">
        <ele>30.299999</ele>
        <time>2018-10-14T10:08:57Z</time>
      </trkpt>
      <trkpt lat="43.39433" lon="6.67593">
        <ele>30.6</ele>
        <time>2018-10-14T10:09:01Z</time>
      </trkpt>
      <trkpt lat="43.39443" lon="6.67595">
        <ele>30.299999</ele>
        <time>2018-10-14T10:09:04Z</time>
      </trkpt>
      <trkpt lat="43.39455" lon="6.67589">
        <ele>30.5</ele>
        <time>2018-10-14T10:09:07Z</time>
      </trkpt>
      <trkpt lat="43.39464" lon="6.67585">
        <ele>30.5</ele>
        <time>2018-10-14T10:09:09Z</time>
      </trkpt>
      <trkpt lat="43.39472" lon="6.67577">
        <ele>31.1</ele>
        <time>2018-10-14T10:09:11Z</time>
      </trkpt>
      <trkpt lat="43.39481" lon="6.67569">
        <ele>30.6</ele>
        <time>2018-10-14T10:09:14Z</time>
      </trkpt>
      <trkpt lat="43.39491" lon="6.67565">
        <ele>29.299999</ele>
        <time>2018-10-14T10:09:18Z</time>
      </trkpt>
      <trkpt lat="43.39501" lon="6.67563">
        <ele>29.1</ele>
        <time>2018-10-14T10:09:23Z</time>
      </trkpt>
      <trkpt lat="43.39511" lon="6.67557">
        <ele>29.1</ele>
        <time>2018-10-14T10:09:32Z</time>
      </trkpt>
      <trkpt lat="43.39517" lon="6.67548">
        <ele>29.6</ele>
        <time>2018-10-14T10:09:35Z</time>
      </trkpt>
      <trkpt lat="43.39523" lon="6.67537">
        <ele>30.200001</ele>
        <time>2018-10-14T10:09:38Z</time>
      </trkpt>
      <trkpt lat="43.39533" lon="6.67529">
        <ele>29.9</ele>
        <time>2018-10-14T10:09:41Z</time>
      </trkpt>
      <trkpt lat="43.39544" lon="6.67524">
        <ele>29.9</ele>
        <time>2018-10-14T10:09:44Z</time>
      </trkpt>
      <trkpt lat="43.39553" lon="6.67519">
        <ele>29.799999</ele>
        <time>2018-10-14T10:09:46Z</time>
      </trkpt>
      <trkpt lat="43.39561" lon="6.67515">
        <ele>29.799999</ele>
        <time>2018-10-14T10:09:48Z</time>
      </trkpt>
      <trkpt lat="43.3957" lon="6.67512">
        <ele>29.6</ele>
        <time>2018-10-14T10:09:50Z</time>
      </trkpt>
      <trkpt lat="43.3958" lon="6.67508">
        <ele>29.799999</ele>
        <time>2018-10-14T10:09:52Z</time>
      </trkpt>
      <trkpt lat="43.3959" lon="6.67504">
        <ele>29.9</ele>
        <time>2018-10-14T10:09:54Z</time>
      </trkpt>
      <trkpt lat="43.39599" lon="6.675">
        <ele>30.1</ele>
        <time>2018-10-14T10:09:56Z</time>
      </trkpt>
      <trkpt lat="43.39609" lon="6.67498">
        <ele>29.6</ele>
        <time>2018-10-14T10:09:58Z</time>
      </trkpt>
      <trkpt lat="43.3962" lon="6.67494">
        <ele>29.9</ele>
        <time>2018-10-14T10:10:00Z</time>
      </trkpt>
      <trkpt lat="43.39632" lon="6.67491">
        <ele>29.799999</ele>
        <time>2018-10-14T10:10:02Z</time>
      </trkpt>
      <trkpt lat="43.39643" lon="6.67487">
        <ele>29.200001</ele>
        <time>2018-10-14T10:10:04Z</time>
      </trkpt>
      <trkpt lat="43.39654" lon="6.67484">
        <ele>29.299999</ele>
        <time>2018-10-14T10:10:06Z</time>
      </trkpt>
      <trkpt lat="43.39665" lon="6.6748">
        <ele>29.4</ele>
        <time>2018-10-14T10:10:08Z</time>
      </trkpt>
      <trkpt lat="43.39672" lon="6.6747">
        <ele>29.200001</ele>
        <time>2018-10-14T10:10:10Z</time>
      </trkpt>
      <trkpt lat="43.39677" lon="6.67459">
        <ele>30.1</ele>
        <time>2018-10-14T10:10:12Z</time>
      </trkpt>
      <trkpt lat="43.39686" lon="6.67445">
        <ele>30.5</ele>
        <time>2018-10-14T10:10:15Z</time>
      </trkpt>
      <trkpt lat="43.39693" lon="6.67437">
        <ele>30.6</ele>
        <time>2018-10-14T10:10:17Z</time>
      </trkpt>
      <trkpt lat="43.39702" lon="6.67434">
        <ele>30.6</ele>
        <time>2018-10-14T10:10:19Z</time>
      </trkpt>
      <trkpt lat="43.39712" lon="6.67431">
        <ele>30.4</ele>
        <time>2018-10-14T10:10:21Z</time>
      </trkpt>
      <trkpt lat="43.39721" lon="6.67426">
        <ele>30.200001</ele>
        <time>2018-10-14T10:10:23Z</time>
      </trkpt>
      <trkpt lat="43.39729" lon="6.67417">
        <ele>29.9</ele>
        <time>2018-10-14T10:10:25Z</time>
      </trkpt>
      <trkpt lat="43.39736" lon="6.67406">
        <ele>29.700001</ele>
        <time>2018-10-14T10:10:27Z</time>
      </trkpt>
      <trkpt lat="43.39741" lon="6.67393">
        <ele>29.200001</ele>
        <time>2018-10-14T10:10:29Z</time>
      </trkpt>
      <trkpt lat="43.39744" lon="6.67379">
        <ele>29.200001</ele>
        <time>2018-10-14T10:10:31Z</time>
      </trkpt>
      <trkpt lat="43.39746" lon="6.67365">
        <ele>29.200001</ele>
        <time>2018-10-14T10:10:33Z</time>
      </trkpt>
      <trkpt lat="43.39747" lon="6.67349">
        <ele>29.1</ele>
        <time>2018-10-14T10:10:35Z</time>
      </trkpt>
      <trkpt lat="43.39747" lon="6.67335">
        <ele>28.700001</ele>
        <time>2018-10-14T10:10:37Z</time>
      </trkpt>
      <trkpt lat="43.39746" lon="6.67321">
        <ele>28.9</ele>
        <time>2018-10-14T10:10:39Z</time>
      </trkpt>
      <trkpt lat="43.39744" lon="6.67308">
        <ele>29.5</ele>
        <time>2018-10-14T10:10:41Z</time>
      </trkpt>
      <trkpt lat="43.39742" lon="6.67294">
        <ele>29.700001</ele>
        <time>2018-10-14T10:10:43Z</time>
      </trkpt>
      <trkpt lat="43.39738" lon="6.67281">
        <ele>30</ele>
        <time>2018-10-14T10:10:45Z</time>
      </trkpt>
      <trkpt lat="43.39733" lon="6.6727">
        <ele>29.799999</ele>
        <time>2018-10-14T10:10:47Z</time>
      </trkpt>
      <trkpt lat="43.39727" lon="6.67259">
        <ele>29.5</ele>
        <time>2018-10-14T10:10:49Z</time>
      </trkpt>
      <trkpt lat="43.39718" lon="6.67247">
        <ele>29.5</ele>
        <time>2018-10-14T10:10:52Z</time>
      </trkpt>
      <trkpt lat="43.39708" lon="6.67239">
        <ele>29.799999</ele>
        <time>2018-10-14T10:10:56Z</time>
      </trkpt>
      <trkpt lat="43.39699" lon="6.67235">
        <ele>30.6</ele>
        <time>2018-10-14T10:11:15Z</time>
      </trkpt>
      <trkpt lat="43.39691" lon="6.6724">
        <ele>30.6</ele>
        <time>2018-10-14T10:11:43Z</time>
      </trkpt>
      <trkpt lat="43.39698" lon="6.67248">
        <ele>30.299999</ele>
        <time>2018-10-14T10:12:03Z</time>
      </trkpt>
      <trkpt lat="43.39704" lon="6.6724">
        <ele>30.200001</ele>
        <time>2018-10-14T10:12:20Z</time>
      </trkpt>
      <trkpt lat="43.39697" lon="6.67228">
        <ele>30.200001</ele>
        <time>2018-10-14T10:12:46Z</time>
      </trkpt>
      <trkpt lat="43.39691" lon="6.67216">
        <ele>30.6</ele>
        <time>2018-10-14T10:12:51Z</time>
      </trkpt>
      <trkpt lat="43.3968" lon="6.67205">
        <ele>30.200001</ele>
        <time>2018-10-14T10:12:54Z</time>
      </trkpt>
      <trkpt lat="43.39669" lon="6.672">
        <ele>30.200001</ele>
        <time>2018-10-14T10:12:56Z</time>
      </trkpt>
      <trkpt lat="43.39658" lon="6.67197">
        <ele>30.299999</ele>
        <time>2018-10-14T10:12:58Z</time>
      </trkpt>
      <trkpt lat="43.39647" lon="6.67198">
        <ele>30.4</ele>
        <time>2018-10-14T10:13:00Z</time>
      </trkpt>
      <trkpt lat="43.39637" lon="6.672">
        <ele>30.299999</ele>
        <time>2018-10-14T10:13:02Z</time>
      </trkpt>
      <trkpt lat="43.39626" lon="6.67204">
        <ele>30.200001</ele>
        <time>2018-10-14T10:13:04Z</time>
      </trkpt>
      <trkpt lat="43.39617" lon="6.67208">
        <ele>30.4</ele>
        <time>2018-10-14T10:13:06Z</time>
      </trkpt>
      <trkpt lat="43.39604" lon="6.67211">
        <ele>30.4</ele>
        <time>2018-10-14T10:13:09Z</time>
      </trkpt>
      <trkpt lat="43.39595" lon="6.67214">
        <ele>30.200001</ele>
        <time>2018-10-14T10:13:11Z</time>
      </trkpt>
      <trkpt lat="43.39586" lon="6.67219">
        <ele>29.6</ele>
        <time>2018-10-14T10:13:13Z</time>
      </trkpt>
      <trkpt lat="43.39575" lon="6.67219">
        <ele>29.4</ele>
        <time>2018-10-14T10:13:16Z</time>
      </trkpt>
      <trkpt lat="43.39567" lon="6.67211">
        <ele>29.799999</ele>
        <time>2018-10-14T10:13:19Z</time>
      </trkpt>
      <trkpt lat="43.39557" lon="6.67198">
        <ele>29.4</ele>
        <time>2018-10-14T10:13:22Z</time>
      </trkpt>
      <trkpt lat="43.39549" lon="6.67184">
        <ele>29.4</ele>
        <time>2018-10-14T10:13:25Z</time>
      </trkpt>
      <trkpt lat="43.39542" lon="6.6717">
        <ele>29.5</ele>
        <time>2018-10-14T10:13:28Z</time>
      </trkpt>
      <trkpt lat="43.39533" lon="6.67159">
        <ele>29.200001</ele>
        <time>2018-10-14T10:13:31Z</time>
      </trkpt>
      <trkpt lat="43.39522" lon="6.67149">
        <ele>29.4</ele>
        <time>2018-10-14T10:13:34Z</time>
      </trkpt>
      <trkpt lat="43.3951" lon="6.67143">
        <ele>29.299999</ele>
        <time>2018-10-14T10:13:37Z</time>
      </trkpt>
      <trkpt lat="43.395" lon="6.67132">
        <ele>28.799999</ele>
        <time>2018-10-14T10:13:40Z</time>
      </trkpt>
      <trkpt lat="43.39495" lon="6.67116">
        <ele>28.700001</ele>
        <time>2018-10-14T10:13:43Z</time>
      </trkpt>
      <trkpt lat="43.39487" lon="6.67107">
        <ele>28.4</ele>
        <time>2018-10-14T10:13:46Z</time>
      </trkpt>
      <trkpt lat="43.39477" lon="6.67102">
        <ele>30.1</ele>
        <time>2018-10-14T10:13:51Z</time>
      </trkpt>
      <trkpt lat="43.39468" lon="6.67094">
        <ele>30.9</ele>
        <time>2018-10-14T10:13:55Z</time>
      </trkpt>
      <trkpt lat="43.3946" lon="6.67083">
        <ele>30.9</ele>
        <time>2018-10-14T10:13:59Z</time>
      </trkpt>
      <trkpt lat="43.39454" lon="6.67073">
        <ele>31.299999</ele>
        <time>2018-10-14T10:14:02Z</time>
      </trkpt>
      <trkpt lat="43.39453" lon="6.6706">
        <ele>31.4</ele>
        <time>2018-10-14T10:14:06Z</time>
      </trkpt>
      <trkpt lat="43.39451" lon="6.67045">
        <ele>31.700001</ele>
        <time>2018-10-14T10:14:10Z</time>
      </trkpt>
      <trkpt lat="43.39444" lon="6.67031">
        <ele>31.299999</ele>
        <time>2018-10-14T10:14:13Z</time>
      </trkpt>
      <trkpt lat="43.39442" lon="6.67016">
        <ele>31.4</ele>
        <time>2018-10-14T10:14:16Z</time>
      </trkpt>
      <trkpt lat="43.39436" lon="6.67005">
        <ele>31.799999</ele>
        <time>2018-10-14T10:14:18Z</time>
      </trkpt>
      <trkpt lat="43.3943" lon="6.66994">
        <ele>31.5</ele>
        <time>2018-10-14T10:14:20Z</time>
      </trkpt>
      <trkpt lat="43.39423" lon="6.66984">
        <ele>31.799999</ele>
        <time>2018-10-14T10:14:22Z</time>
      </trkpt>
      <trkpt lat="43.39416" lon="6.66975">
        <ele>31.700001</ele>
        <time>2018-10-14T10:14:24Z</time>
      </trkpt>
      <trkpt lat="43.39406" lon="6.66965">
        <ele>32</ele>
        <time>2018-10-14T10:14:26Z</time>
      </trkpt>
      <trkpt lat="43.39396" lon="6.6696">
        <ele>32</ele>
        <time>2018-10-14T10:14:27Z</time>
      </trkpt>
      <trkpt lat="43.39383" lon="6.6695">
        <ele>31.9</ele>
        <time>2018-10-14T10:14:29Z</time>
      </trkpt>
      <trkpt lat="43.39373" lon="6.66942">
        <ele>32</ele>
        <time>2018-10-14T10:14:31Z</time>
      </trkpt>
      <trkpt lat="43.39362" lon="6.66936">
        <ele>31.5</ele>
        <time>2018-10-14T10:14:33Z</time>
      </trkpt>
      <trkpt lat="43.39353" lon="6.6693">
        <ele>31.6</ele>
        <time>2018-10-14T10:14:35Z</time>
      </trkpt>
      <trkpt lat="43.39342" lon="6.66923">
        <ele>31.5</ele>
        <time>2018-10-14T10:14:37Z</time>
      </trkpt>
      <trkpt lat="43.39333" lon="6.66918">
        <ele>32</ele>
        <time>2018-10-14T10:14:39Z</time>
      </trkpt>
      <trkpt lat="43.39324" lon="6.66912">
        <ele>31.5</ele>
        <time>2018-10-14T10:14:41Z</time>
      </trkpt>
      <trkpt lat="43.39316" lon="6.66904">
        <ele>31.4</ele>
        <time>2018-10-14T10:14:43Z</time>
      </trkpt>
      <trkpt lat="43.39304" lon="6.669">
        <ele>31.1</ele>
        <time>2018-10-14T10:14:45Z</time>
      </trkpt>
      <trkpt lat="43.39292" lon="6.66895">
        <ele>31</ele>
        <time>2018-10-14T10:14:47Z</time>
      </trkpt>
      <trkpt lat="43.3928" lon="6.66885">
        <ele>30.9</ele>
        <time>2018-10-14T10:14:49Z</time>
      </trkpt>
      <trkpt lat="43.39271" lon="6.66871">
        <ele>30.299999</ele>
        <time>2018-10-14T10:14:51Z</time>
      </trkpt>
      <trkpt lat="43.39266" lon="6.6686">
        <ele>29.5</ele>
        <time>2018-10-14T10:14:54Z</time>
      </trkpt>
      <trkpt lat="43.3926" lon="6.66845">
        <ele>29.200001</ele>
        <time>2018-10-14T10:14:59Z</time>
      </trkpt>
      <trkpt lat="43.39255" lon="6.66832">
        <ele>29</ele>
        <time>2018-10-14T10:15:03Z</time>
      </trkpt>
      <trkpt lat="43.39251" lon="6.6682">
        <ele>30.299999</ele>
        <time>2018-10-14T10:15:08Z</time>
      </trkpt>
      <trkpt lat="43.39255" lon="6.66808">
        <ele>31.6</ele>
        <time>2018-10-14T10:15:13Z</time>
      </trkpt>
      <trkpt lat="43.39262" lon="6.66799">
        <ele>32.299999</ele>
        <time>2018-10-14T10:15:16Z</time>
      </trkpt>
      <trkpt lat="43.39266" lon="6.66785">
        <ele>32.400002</ele>
        <time>2018-10-14T10:15:20Z</time>
      </trkpt>
      <trkpt lat="43.3927" lon="6.66772">
        <ele>31.9</ele>
        <time>2018-10-14T10:15:24Z</time>
      </trkpt>
      <trkpt lat="43.39274" lon="6.66757">
        <ele>32.599998</ele>
        <time>2018-10-14T10:15:28Z</time>
      </trkpt>
      <trkpt lat="43.39278" lon="6.66743">
        <ele>33.299999</ele>
        <time>2018-10-14T10:15:32Z</time>
      </trkpt>
      <trkpt lat="43.39283" lon="6.66729">
        <ele>34.299999</ele>
        <time>2018-10-14T10:15:36Z</time>
      </trkpt>
      <trkpt lat="43.39286" lon="6.66716">
        <ele>35</ele>
        <time>2018-10-14T10:15:41Z</time>
      </trkpt>
      <trkpt lat="43.39285" lon="6.66702">
        <ele>37.5</ele>
        <time>2018-10-14T10:15:46Z</time>
      </trkpt>
      <trkpt lat="43.3928" lon="6.6669">
        <ele>39.299999</ele>
        <time>2018-10-14T10:15:50Z</time>
      </trkpt>
      <trkpt lat="43.39275" lon="6.66679">
        <ele>40.799999</ele>
        <time>2018-10-14T10:15:55Z</time>
      </trkpt>
      <trkpt lat="43.39269" lon="6.66668">
        <ele>42.900002</ele>
        <time>2018-10-14T10:16:00Z</time>
      </trkpt>
      <trkpt lat="43.39268" lon="6.66654">
        <ele>43.099998</ele>
        <time>2018-10-14T10:16:04Z</time>
      </trkpt>
      <trkpt lat="43.39272" lon="6.66641">
        <ele>43</ele>
        <time>2018-10-14T10:16:08Z</time>
      </trkpt>
      <trkpt lat="43.39277" lon="6.66631">
        <ele>43.299999</ele>
        <time>2018-10-14T10:16:12Z</time>
      </trkpt>
      <trkpt lat="43.39282" lon="6.66619">
        <ele>43.400002</ele>
        <time>2018-10-14T10:16:16Z</time>
      </trkpt>
      <trkpt lat="43.39287" lon="6.66607">
        <ele>43.299999</ele>
        <time>2018-10-14T10:16:19Z</time>
      </trkpt>
      <trkpt lat="43.39293" lon="6.66596">
        <ele>43.400002</ele>
        <time>2018-10-14T10:16:22Z</time>
      </trkpt>
      <trkpt lat="43.393" lon="6.66583">
        <ele>43.599998</ele>
        <time>2018-10-14T10:16:25Z</time>
      </trkpt>
      <trkpt lat="43.39305" lon="6.66571">
        <ele>43.400002</ele>
        <time>2018-10-14T10:16:27Z</time>
      </trkpt>
      <trkpt lat="43.39309" lon="6.66557">
        <ele>42.799999</ele>
        <time>2018-10-14T10:16:29Z</time>
      </trkpt>
      <trkpt lat="43.39312" lon="6.66546">
        <ele>41.799999</ele>
        <time>2018-10-14T10:16:32Z</time>
      </trkpt>
      <trkpt lat="43.39321" lon="6.6654">
        <ele>40.700001</ele>
        <time>2018-10-14T10:16:37Z</time>
      </trkpt>
      <trkpt lat="43.39325" lon="6.66528">
        <ele>40.299999</ele>
        <time>2018-10-14T10:16:42Z</time>
      </trkpt>
      <trkpt lat="43.3933" lon="6.66516">
        <ele>41.299999</ele>
        <time>2018-10-14T10:16:48Z</time>
      </trkpt>
      <trkpt lat="43.39338" lon="6.66507">
        <ele>43.099998</ele>
        <time>2018-10-14T10:16:55Z</time>
      </trkpt>
      <trkpt lat="43.39346" lon="6.66502">
        <ele>44.400002</ele>
        <time>2018-10-14T10:17:01Z</time>
      </trkpt>
      <trkpt lat="43.39356" lon="6.665">
        <ele>45.700001</ele>
        <time>2018-10-14T10:17:08Z</time>
      </trkpt>
      <trkpt lat="43.39365" lon="6.66497">
        <ele>47.799999</ele>
        <time>2018-10-14T10:17:13Z</time>
      </trkpt>
      <trkpt lat="43.39374" lon="6.66494">
        <ele>48.900002</ele>
        <time>2018-10-14T10:17:18Z</time>
      </trkpt>
      <trkpt lat="43.39383" lon="6.6649">
        <ele>49.5</ele>
        <time>2018-10-14T10:17:23Z</time>
      </trkpt>
      <trkpt lat="43.39392" lon="6.66486">
        <ele>49.900002</ele>
        <time>2018-10-14T10:17:28Z</time>
      </trkpt>
      <trkpt lat="43.39401" lon="6.66483">
        <ele>50.700001</ele>
        <time>2018-10-14T10:17:32Z</time>
      </trkpt>
      <trkpt lat="43.39412" lon="6.66478">
        <ele>50.900002</ele>
        <time>2018-10-14T10:17:37Z</time>
      </trkpt>
      <trkpt lat="43.39421" lon="6.66475">
        <ele>51.200001</ele>
        <time>2018-10-14T10:17:41Z</time>
      </trkpt>
      <trkpt lat="43.3943" lon="6.66471">
        <ele>52</ele>
        <time>2018-10-14T10:17:45Z</time>
      </trkpt>
      <trkpt lat="43.3944" lon="6.66468">
        <ele>52.900002</ele>
        <time>2018-10-14T10:17:49Z</time>
      </trkpt>
      <trkpt lat="43.3945" lon="6.66464">
        <ele>53.200001</ele>
        <time>2018-10-14T10:17:54Z</time>
      </trkpt>
      <trkpt lat="43.3946" lon="6.66459">
        <ele>54.700001</ele>
        <time>2018-10-14T10:17:59Z</time>
      </trkpt>
      <trkpt lat="43.39471" lon="6.66456">
        <ele>55.099998</ele>
        <time>2018-10-14T10:18:04Z</time>
      </trkpt>
      <trkpt lat="43.39481" lon="6.66452">
        <ele>56.400002</ele>
        <time>2018-10-14T10:18:09Z</time>
      </trkpt>
      <trkpt lat="43.39491" lon="6.66449">
        <ele>57</ele>
        <time>2018-10-14T10:18:13Z</time>
      </trkpt>
      <trkpt lat="43.39501" lon="6.66445">
        <ele>58.200001</ele>
        <time>2018-10-14T10:18:17Z</time>
      </trkpt>
      <trkpt lat="43.39512" lon="6.66442">
        <ele>59.599998</ele>
        <time>2018-10-14T10:18:22Z</time>
      </trkpt>
      <trkpt lat="43.39521" lon="6.66439">
        <ele>60.400002</ele>
        <time>2018-10-14T10:18:26Z</time>
      </trkpt>
      <trkpt lat="43.39532" lon="6.66436">
        <ele>61.700001</ele>
        <time>2018-10-14T10:18:31Z</time>
      </trkpt>
      <trkpt lat="43.39542" lon="6.66435">
        <ele>62.5</ele>
        <time>2018-10-14T10:18:36Z</time>
      </trkpt>
      <trkpt lat="43.39551" lon="6.66434">
        <ele>63.700001</ele>
        <time>2018-10-14T10:18:40Z</time>
      </trkpt>
      <trkpt lat="43.39562" lon="6.66436">
        <ele>64.400002</ele>
        <time>2018-10-14T10:18:45Z</time>
      </trkpt>
      <trkpt lat="43.39571" lon="6.66441">
        <ele>65.5</ele>
        <time>2018-10-14T10:18:49Z</time>
      </trkpt>
      <trkpt lat="43.39582" lon="6.66445">
        <ele>65.800003</ele>
        <time>2018-10-14T10:18:53Z</time>
      </trkpt>
      <trkpt lat="43.39592" lon="6.66446">
        <ele>66.099998</ele>
        <time>2018-10-14T10:18:56Z</time>
      </trkpt>
      <trkpt lat="43.39601" lon="6.66446">
        <ele>66</ele>
        <time>2018-10-14T10:18:59Z</time>
      </trkpt>
      <trkpt lat="43.39613" lon="6.66444">
        <ele>66.699997</ele>
        <time>2018-10-14T10:19:03Z</time>
      </trkpt>
      <trkpt lat="43.39623" lon="6.66442">
        <ele>67.099998</ele>
        <time>2018-10-14T10:19:07Z</time>
      </trkpt>
      <trkpt lat="43.39635" lon="6.66439">
        <ele>67.300003</ele>
        <time>2018-10-14T10:19:11Z</time>
      </trkpt>
      <trkpt lat="43.39644" lon="6.66434">
        <ele>67.800003</ele>
        <time>2018-10-14T10:19:14Z</time>
      </trkpt>
      <trkpt lat="43.39653" lon="6.66426">
        <ele>68.400002</ele>
        <time>2018-10-14T10:19:18Z</time>
      </trkpt>
      <trkpt lat="43.39663" lon="6.66422">
        <ele>70</ele>
        <time>2018-10-14T10:19:23Z</time>
      </trkpt>
      <trkpt lat="43.39674" lon="6.66419">
        <ele>71.599998</ele>
        <time>2018-10-14T10:19:28Z</time>
      </trkpt>
      <trkpt lat="43.39683" lon="6.66427">
        <ele>72.5</ele>
        <time>2018-10-14T10:19:33Z</time>
      </trkpt>
      <trkpt lat="43.3969" lon="6.66439">
        <ele>74.099998</ele>
        <time>2018-10-14T10:19:38Z</time>
      </trkpt>
      <trkpt lat="43.39699" lon="6.66447">
        <ele>74.199997</ele>
        <time>2018-10-14T10:19:42Z</time>
      </trkpt>
      <trkpt lat="43.39702" lon="6.66433">
        <ele>75.199997</ele>
        <time>2018-10-14T10:19:47Z</time>
      </trkpt>
      <trkpt lat="43.39699" lon="6.66421">
        <ele>75.900002</ele>
        <time>2018-10-14T10:19:51Z</time>
      </trkpt>
      <trkpt lat="43.39699" lon="6.66407">
        <ele>76.400002</ele>
        <time>2018-10-14T10:19:55Z</time>
      </trkpt>
      <trkpt lat="43.39705" lon="6.66397">
        <ele>77.300003</ele>
        <time>2018-10-14T10:19:59Z</time>
      </trkpt>
      <trkpt lat="43.39714" lon="6.66391">
        <ele>77.400002</ele>
        <time>2018-10-14T10:20:03Z</time>
      </trkpt>
      <trkpt lat="43.39723" lon="6.66389">
        <ele>78</ele>
        <time>2018-10-14T10:20:07Z</time>
      </trkpt>
      <trkpt lat="43.39733" lon="6.66395">
        <ele>79.599998</ele>
        <time>2018-10-14T10:20:12Z</time>
      </trkpt>
      <trkpt lat="43.39742" lon="6.664">
        <ele>81.199997</ele>
        <time>2018-10-14T10:20:18Z</time>
      </trkpt>
      <trkpt lat="43.39751" lon="6.66406">
        <ele>82.099998</ele>
        <time>2018-10-14T10:20:23Z</time>
      </trkpt>
      <trkpt lat="43.39761" lon="6.66411">
        <ele>83.199997</ele>
        <time>2018-10-14T10:20:28Z</time>
      </trkpt>
      <trkpt lat="43.39772" lon="6.66412">
        <ele>83.800003</ele>
        <time>2018-10-14T10:20:33Z</time>
      </trkpt>
      <trkpt lat="43.39781" lon="6.66406">
        <ele>84.699997</ele>
        <time>2018-10-14T10:20:37Z</time>
      </trkpt>
      <trkpt lat="43.39789" lon="6.66398">
        <ele>86</ele>
        <time>2018-10-14T10:20:42Z</time>
      </trkpt>
      <trkpt lat="43.39794" lon="6.66385">
        <ele>87</ele>
        <time>2018-10-14T10:20:47Z</time>
      </trkpt>
      <trkpt lat="43.39796" lon="6.66372">
        <ele>87.800003</ele>
        <time>2018-10-14T10:20:51Z</time>
      </trkpt>
      <trkpt lat="43.39798" lon="6.66358">
        <ele>88</ele>
        <time>2018-10-14T10:20:55Z</time>
      </trkpt>
      <trkpt lat="43.398" lon="6.66343">
        <ele>88.099998</ele>
        <time>2018-10-14T10:20:59Z</time>
      </trkpt>
      <trkpt lat="43.39799" lon="6.66329">
        <ele>88.400002</ele>
        <time>2018-10-14T10:21:02Z</time>
      </trkpt>
      <trkpt lat="43.39794" lon="6.66315">
        <ele>88.199997</ele>
        <time>2018-10-14T10:21:06Z</time>
      </trkpt>
      <trkpt lat="43.39786" lon="6.66305">
        <ele>88.300003</ele>
        <time>2018-10-14T10:21:10Z</time>
      </trkpt>
      <trkpt lat="43.3978" lon="6.66297">
        <ele>89.400002</ele>
        <time>2018-10-14T10:21:14Z</time>
      </trkpt>
      <trkpt lat="43.39773" lon="6.66285">
        <ele>90.300003</ele>
        <time>2018-10-14T10:21:18Z</time>
      </trkpt>
      <trkpt lat="43.3977" lon="6.66271">
        <ele>91.599998</ele>
        <time>2018-10-14T10:21:23Z</time>
      </trkpt>
      <trkpt lat="43.3978" lon="6.66267">
        <ele>94.199997</ele>
        <time>2018-10-14T10:21:31Z</time>
      </trkpt>
      <trkpt lat="43.39788" lon="6.66262">
        <ele>95.5</ele>
        <time>2018-10-14T10:21:37Z</time>
      </trkpt>
      <trkpt lat="43.39785" lon="6.66249">
        <ele>97.699997</ele>
        <time>2018-10-14T10:21:43Z</time>
      </trkpt>
      <trkpt lat="43.39779" lon="6.66237">
        <ele>98.099998</ele>
        <time>2018-10-14T10:21:49Z</time>
      </trkpt>
      <trkpt lat="43.39773" lon="6.66225">
        <ele>100.099998</ele>
        <time>2018-10-14T10:21:55Z</time>
      </trkpt>
      <trkpt lat="43.39773" lon="6.66211">
        <ele>100</ele>
        <time>2018-10-14T10:22:00Z</time>
      </trkpt>
      <trkpt lat="43.39781" lon="6.66207">
        <ele>101.300003</ele>
        <time>2018-10-14T10:22:06Z</time>
      </trkpt>
      <trkpt lat="43.3979" lon="6.66211">
        <ele>101.800003</ele>
        <time>2018-10-14T10:22:11Z</time>
      </trkpt>
      <trkpt lat="43.398" lon="6.6621">
        <ele>103.5</ele>
        <time>2018-10-14T10:22:16Z</time>
      </trkpt>
      <trkpt lat="43.39808" lon="6.66201">
        <ele>104.400002</ele>
        <time>2018-10-14T10:22:21Z</time>
      </trkpt>
      <trkpt lat="43.39813" lon="6.66189">
        <ele>105.199997</ele>
        <time>2018-10-14T10:22:26Z</time>
      </trkpt>
      <trkpt lat="43.39819" lon="6.66178">
        <ele>106.400002</ele>
        <time>2018-10-14T10:22:32Z</time>
      </trkpt>
      <trkpt lat="43.39826" lon="6.66167">
        <ele>108.699997</ele>
        <time>2018-10-14T10:22:38Z</time>
      </trkpt>
      <trkpt lat="43.39833" lon="6.66156">
        <ele>109.199997</ele>
        <time>2018-10-14T10:22:44Z</time>
      </trkpt>
      <trkpt lat="43.39841" lon="6.66147">
        <ele>109.599998</ele>
        <time>2018-10-14T10:22:49Z</time>
      </trkpt>
      <trkpt lat="43.3985" lon="6.66136">
        <ele>110.699997</ele>
        <time>2018-10-14T10:22:54Z</time>
      </trkpt>
      <trkpt lat="43.39857" lon="6.66126">
        <ele>110.699997</ele>
        <time>2018-10-14T10:22:59Z</time>
      </trkpt>
      <trkpt lat="43.39865" lon="6.66116">
        <ele>111.699997</ele>
        <time>2018-10-14T10:23:04Z</time>
      </trkpt>
      <trkpt lat="43.39872" lon="6.66108">
        <ele>112.099998</ele>
        <time>2018-10-14T10:23:09Z</time>
      </trkpt>
      <trkpt lat="43.3988" lon="6.66096">
        <ele>113.300003</ele>
        <time>2018-10-14T10:23:15Z</time>
      </trkpt>
      <trkpt lat="43.39886" lon="6.66084">
        <ele>114.300003</ele>
        <time>2018-10-14T10:23:20Z</time>
      </trkpt>
      <trkpt lat="43.39892" lon="6.66074">
        <ele>115.5</ele>
        <time>2018-10-14T10:23:25Z</time>
      </trkpt>
      <trkpt lat="43.39897" lon="6.66062">
        <ele>117.699997</ele>
        <time>2018-10-14T10:23:30Z</time>
      </trkpt>
      <trkpt lat="43.399" lon="6.6605">
        <ele>119.199997</ele>
        <time>2018-10-14T10:23:35Z</time>
      </trkpt>
      <trkpt lat="43.39904" lon="6.66037">
        <ele>120.599998</ele>
        <time>2018-10-14T10:23:41Z</time>
      </trkpt>
      <trkpt lat="43.39907" lon="6.66023">
        <ele>121.099998</ele>
        <time>2018-10-14T10:23:46Z</time>
      </trkpt>
      <trkpt lat="43.39911" lon="6.66011">
        <ele>121.300003</ele>
        <time>2018-10-14T10:23:50Z</time>
      </trkpt>
      <trkpt lat="43.39916" lon="6.65999">
        <ele>122.800003</ele>
        <time>2018-10-14T10:23:54Z</time>
      </trkpt>
      <trkpt lat="43.39919" lon="6.65987">
        <ele>123.400002</ele>
        <time>2018-10-14T10:23:58Z</time>
      </trkpt>
      <trkpt lat="43.39919" lon="6.65974">
        <ele>124.300003</ele>
        <time>2018-10-14T10:24:02Z</time>
      </trkpt>
      <trkpt lat="43.39921" lon="6.65962">
        <ele>124.099998</ele>
        <time>2018-10-14T10:24:06Z</time>
      </trkpt>
      <trkpt lat="43.39923" lon="6.65947">
        <ele>125.099998</ele>
        <time>2018-10-14T10:24:11Z</time>
      </trkpt>
      <trkpt lat="43.39924" lon="6.65933">
        <ele>125.599998</ele>
        <time>2018-10-14T10:24:16Z</time>
      </trkpt>
      <trkpt lat="43.39923" lon="6.6592">
        <ele>126.099998</ele>
        <time>2018-10-14T10:24:20Z</time>
      </trkpt>
      <trkpt lat="43.39922" lon="6.65907">
        <ele>127.300003</ele>
        <time>2018-10-14T10:24:24Z</time>
      </trkpt>
      <trkpt lat="43.3992" lon="6.65893">
        <ele>128.600006</ele>
        <time>2018-10-14T10:24:29Z</time>
      </trkpt>
      <trkpt lat="43.39917" lon="6.65882">
        <ele>129</ele>
        <time>2018-10-14T10:24:33Z</time>
      </trkpt>
      <trkpt lat="43.39916" lon="6.65868">
        <ele>129.800003</ele>
        <time>2018-10-14T10:24:38Z</time>
      </trkpt>
      <trkpt lat="43.39915" lon="6.65854">
        <ele>130.899994</ele>
        <time>2018-10-14T10:24:43Z</time>
      </trkpt>
      <trkpt lat="43.39919" lon="6.65842">
        <ele>132.300003</ele>
        <time>2018-10-14T10:24:49Z</time>
      </trkpt>
      <trkpt lat="43.39926" lon="6.65834">
        <ele>132.899994</ele>
        <time>2018-10-14T10:24:54Z</time>
      </trkpt>
      <trkpt lat="43.39934" lon="6.65826">
        <ele>133.899994</ele>
        <time>2018-10-14T10:24:59Z</time>
      </trkpt>
      <trkpt lat="43.39942" lon="6.6582">
        <ele>134.899994</ele>
        <time>2018-10-14T10:25:04Z</time>
      </trkpt>
      <trkpt lat="43.3995" lon="6.65814">
        <ele>136.199997</ele>
        <time>2018-10-14T10:25:09Z</time>
      </trkpt>
      <trkpt lat="43.3996" lon="6.65808">
        <ele>136.800003</ele>
        <time>2018-10-14T10:25:14Z</time>
      </trkpt>
      <trkpt lat="43.39969" lon="6.65803">
        <ele>137.5</ele>
        <time>2018-10-14T10:25:19Z</time>
      </trkpt>
      <trkpt lat="43.3998" lon="6.65799">
        <ele>137.800003</ele>
        <time>2018-10-14T10:25:24Z</time>
      </trkpt>
      <trkpt lat="43.39989" lon="6.65793">
        <ele>138.899994</ele>
        <time>2018-10-14T10:25:29Z</time>
      </trkpt>
      <trkpt lat="43.39998" lon="6.65786">
        <ele>139.600006</ele>
        <time>2018-10-14T10:25:34Z</time>
      </trkpt>
      <trkpt lat="43.40006" lon="6.65776">
        <ele>141.199997</ele>
        <time>2018-10-14T10:25:39Z</time>
      </trkpt>
      <trkpt lat="43.40013" lon="6.65763">
        <ele>142.5</ele>
        <time>2018-10-14T10:25:44Z</time>
      </trkpt>
      <trkpt lat="43.40018" lon="6.6575">
        <ele>143.5</ele>
        <time>2018-10-14T10:25:49Z</time>
      </trkpt>
      <trkpt lat="43.40022" lon="6.65738">
        <ele>143.899994</ele>
        <time>2018-10-14T10:25:54Z</time>
      </trkpt>
      <trkpt lat="43.40026" lon="6.65725">
        <ele>144.600006</ele>
        <time>2018-10-14T10:25:59Z</time>
      </trkpt>
      <trkpt lat="43.40029" lon="6.65713">
        <ele>145.199997</ele>
        <time>2018-10-14T10:26:04Z</time>
      </trkpt>
      <trkpt lat="43.40033" lon="6.65699">
        <ele>146.300003</ele>
        <time>2018-10-14T10:26:10Z</time>
      </trkpt>
      <trkpt lat="43.40035" lon="6.65686">
        <ele>147.100006</ele>
        <time>2018-10-14T10:26:15Z</time>
      </trkpt>
      <trkpt lat="43.40037" lon="6.65673">
        <ele>148.600006</ele>
        <time>2018-10-14T10:26:20Z</time>
      </trkpt>
      <trkpt lat="43.40039" lon="6.65659">
        <ele>149.600006</ele>
        <time>2018-10-14T10:26:26Z</time>
      </trkpt>
      <trkpt lat="43.40037" lon="6.65644">
        <ele>150.5</ele>
        <time>2018-10-14T10:26:32Z</time>
      </trkpt>
      <trkpt lat="43.40035" lon="6.65631">
        <ele>151.5</ele>
        <time>2018-10-14T10:26:38Z</time>
      </trkpt>
      <trkpt lat="43.40033" lon="6.65617">
        <ele>152.399994</ele>
        <time>2018-10-14T10:26:44Z</time>
      </trkpt>
      <trkpt lat="43.40031" lon="6.65603">
        <ele>152.899994</ele>
        <time>2018-10-14T10:26:50Z</time>
      </trkpt>
      <trkpt lat="43.40025" lon="6.65592">
        <ele>154.300003</ele>
        <time>2018-10-14T10:26:56Z</time>
      </trkpt>
      <trkpt lat="43.40025" lon="6.65577">
        <ele>155.800003</ele>
        <time>2018-10-14T10:27:02Z</time>
      </trkpt>
      <trkpt lat="43.4002" lon="6.65566">
        <ele>157.600006</ele>
        <time>2018-10-14T10:27:07Z</time>
      </trkpt>
      <trkpt lat="43.40016" lon="6.65553">
        <ele>158.600006</ele>
        <time>2018-10-14T10:27:12Z</time>
      </trkpt>
      <trkpt lat="43.40012" lon="6.65542">
        <ele>159.199997</ele>
        <time>2018-10-14T10:27:17Z</time>
      </trkpt>
      <trkpt lat="43.40009" lon="6.65527">
        <ele>160.100006</ele>
        <time>2018-10-14T10:27:23Z</time>
      </trkpt>
      <trkpt lat="43.40002" lon="6.65517">
        <ele>160.199997</ele>
        <time>2018-10-14T10:27:28Z</time>
      </trkpt>
      <trkpt lat="43.39994" lon="6.65507">
        <ele>161.100006</ele>
        <time>2018-10-14T10:27:33Z</time>
      </trkpt>
      <trkpt lat="43.39986" lon="6.655">
        <ele>161.800003</ele>
        <time>2018-10-14T10:27:38Z</time>
      </trkpt>
      <trkpt lat="43.39976" lon="6.65496">
        <ele>162.800003</ele>
        <time>2018-10-14T10:27:43Z</time>
      </trkpt>
      <trkpt lat="43.39968" lon="6.65492">
        <ele>163.399994</ele>
        <time>2018-10-14T10:27:47Z</time>
      </trkpt>
      <trkpt lat="43.39958" lon="6.65488">
        <ele>163.5</ele>
        <time>2018-10-14T10:27:51Z</time>
      </trkpt>
      <trkpt lat="43.39949" lon="6.65485">
        <ele>164.399994</ele>
        <time>2018-10-14T10:27:56Z</time>
      </trkpt>
      <trkpt lat="43.39938" lon="6.6548">
        <ele>165.399994</ele>
        <time>2018-10-14T10:28:02Z</time>
      </trkpt>
      <trkpt lat="43.39928" lon="6.65475">
        <ele>166.600006</ele>
        <time>2018-10-14T10:28:06Z</time>
      </trkpt>
      <trkpt lat="43.39919" lon="6.65466">
        <ele>167.399994</ele>
        <time>2018-10-14T10:28:11Z</time>
      </trkpt>
      <trkpt lat="43.39911" lon="6.65457">
        <ele>168.600006</ele>
        <time>2018-10-14T10:28:16Z</time>
      </trkpt>
      <trkpt lat="43.39903" lon="6.65447">
        <ele>169.100006</ele>
        <time>2018-10-14T10:28:20Z</time>
      </trkpt>
      <trkpt lat="43.39899" lon="6.65436">
        <ele>169.600006</ele>
        <time>2018-10-14T10:28:24Z</time>
      </trkpt>
      <trkpt lat="43.39896" lon="6.65422">
        <ele>170.600006</ele>
        <time>2018-10-14T10:28:29Z</time>
      </trkpt>
      <trkpt lat="43.39896" lon="6.65408">
        <ele>171.300003</ele>
        <time>2018-10-14T10:28:34Z</time>
      </trkpt>
      <trkpt lat="43.39895" lon="6.65395">
        <ele>172</ele>
        <time>2018-10-14T10:28:38Z</time>
      </trkpt>
      <trkpt lat="43.3989" lon="6.65381">
        <ele>172.800003</ele>
        <time>2018-10-14T10:28:43Z</time>
      </trkpt>
      <trkpt lat="43.39886" lon="6.65368">
        <ele>173.300003</ele>
        <time>2018-10-14T10:28:47Z</time>
      </trkpt>
      <trkpt lat="43.3988" lon="6.65356">
        <ele>174.399994</ele>
        <time>2018-10-14T10:28:51Z</time>
      </trkpt>
      <trkpt lat="43.39872" lon="6.6535">
        <ele>175</ele>
        <time>2018-10-14T10:28:56Z</time>
      </trkpt>
      <trkpt lat="43.39861" lon="6.65349">
        <ele>175.899994</ele>
        <time>2018-10-14T10:29:01Z</time>
      </trkpt>
      <trkpt lat="43.39852" lon="6.65344">
        <ele>176.899994</ele>
        <time>2018-10-14T10:29:06Z</time>
      </trkpt>
      <trkpt lat="43.39843" lon="6.65337">
        <ele>178.199997</ele>
        <time>2018-10-14T10:29:11Z</time>
      </trkpt>
      <trkpt lat="43.39836" lon="6.65328">
        <ele>178.100006</ele>
        <time>2018-10-14T10:29:15Z</time>
      </trkpt>
      <trkpt lat="43.3983" lon="6.65317">
        <ele>178.699997</ele>
        <time>2018-10-14T10:29:20Z</time>
      </trkpt>
      <trkpt lat="43.39826" lon="6.65305">
        <ele>179.300003</ele>
        <time>2018-10-14T10:29:25Z</time>
      </trkpt>
      <trkpt lat="43.39818" lon="6.65295">
        <ele>179.600006</ele>
        <time>2018-10-14T10:29:30Z</time>
      </trkpt>
      <trkpt lat="43.39809" lon="6.65292">
        <ele>180.300003</ele>
        <time>2018-10-14T10:29:34Z</time>
      </trkpt>
      <trkpt lat="43.39799" lon="6.65295">
        <ele>180.699997</ele>
        <time>2018-10-14T10:29:38Z</time>
      </trkpt>
      <trkpt lat="43.39792" lon="6.65307">
        <ele>181.800003</ele>
        <time>2018-10-14T10:29:43Z</time>
      </trkpt>
      <trkpt lat="43.39785" lon="6.65315">
        <ele>182.699997</ele>
        <time>2018-10-14T10:29:47Z</time>
      </trkpt>
      <trkpt lat="43.39774" lon="6.65323">
        <ele>183.199997</ele>
        <time>2018-10-14T10:29:51Z</time>
      </trkpt>
      <trkpt lat="43.39765" lon="6.65327">
        <ele>183.199997</ele>
        <time>2018-10-14T10:29:54Z</time>
      </trkpt>
      <trkpt lat="43.39756" lon="6.65331">
        <ele>183.300003</ele>
        <time>2018-10-14T10:29:57Z</time>
      </trkpt>
      <trkpt lat="43.39746" lon="6.65337">
        <ele>183.899994</ele>
        <time>2018-10-14T10:30:01Z</time>
      </trkpt>
      <trkpt lat="43.39736" lon="6.65342">
        <ele>184.600006</ele>
        <time>2018-10-14T10:30:05Z</time>
      </trkpt>
      <trkpt lat="43.39727" lon="6.6535">
        <ele>184.600006</ele>
        <time>2018-10-14T10:30:08Z</time>
      </trkpt>
      <trkpt lat="43.39721" lon="6.65359">
        <ele>185.199997</ele>
        <time>2018-10-14T10:30:11Z</time>
      </trkpt>
      <trkpt lat="43.39714" lon="6.65372">
        <ele>186.800003</ele>
        <time>2018-10-14T10:30:15Z</time>
      </trkpt>
      <trkpt lat="43.39708" lon="6.65381">
        <ele>186.399994</ele>
        <time>2018-10-14T10:30:18Z</time>
      </trkpt>
      <trkpt lat="43.397" lon="6.65388">
        <ele>187</ele>
        <time>2018-10-14T10:30:21Z</time>
      </trkpt>
      <trkpt lat="43.39692" lon="6.65395">
        <ele>187.699997</ele>
        <time>2018-10-14T10:30:24Z</time>
      </trkpt>
      <trkpt lat="43.39683" lon="6.654">
        <ele>188</ele>
        <time>2018-10-14T10:30:27Z</time>
      </trkpt>
      <trkpt lat="43.39673" lon="6.65405">
        <ele>188.800003</ele>
        <time>2018-10-14T10:30:31Z</time>
      </trkpt>
      <trkpt lat="43.39664" lon="6.65405">
        <ele>188.899994</ele>
        <time>2018-10-14T10:30:34Z</time>
      </trkpt>
      <trkpt lat="43.39653" lon="6.65402">
        <ele>190</ele>
        <time>2018-10-14T10:30:38Z</time>
      </trkpt>
      <trkpt lat="43.39644" lon="6.65394">
        <ele>190.399994</ele>
        <time>2018-10-14T10:30:42Z</time>
      </trkpt>
      <trkpt lat="43.39634" lon="6.65384">
        <ele>191.399994</ele>
        <time>2018-10-14T10:30:46Z</time>
      </trkpt>
      <trkpt lat="43.39626" lon="6.65375">
        <ele>191.699997</ele>
        <time>2018-10-14T10:30:49Z</time>
      </trkpt>
      <trkpt lat="43.39617" lon="6.65365">
        <ele>191.899994</ele>
        <time>2018-10-14T10:30:52Z</time>
      </trkpt>
      <trkpt lat="43.39607" lon="6.65353">
        <ele>191.899994</ele>
        <time>2018-10-14T10:30:55Z</time>
      </trkpt>
      <trkpt lat="43.396" lon="6.65344">
        <ele>192.5</ele>
        <time>2018-10-14T10:30:57Z</time>
      </trkpt>
      <trkpt lat="43.39593" lon="6.65335">
        <ele>191.899994</ele>
        <time>2018-10-14T10:30:59Z</time>
      </trkpt>
      <trkpt lat="43.39586" lon="6.65326">
        <ele>192.5</ele>
        <time>2018-10-14T10:31:01Z</time>
      </trkpt>
      <trkpt lat="43.39575" lon="6.65316">
        <ele>192.300003</ele>
        <time>2018-10-14T10:31:04Z</time>
      </trkpt>
      <trkpt lat="43.39564" lon="6.65307">
        <ele>192.800003</ele>
        <time>2018-10-14T10:31:07Z</time>
      </trkpt>
      <trkpt lat="43.39553" lon="6.65299">
        <ele>192.399994</ele>
        <time>2018-10-14T10:31:10Z</time>
      </trkpt>
      <trkpt lat="43.39541" lon="6.65295">
        <ele>192.399994</ele>
        <time>2018-10-14T10:31:13Z</time>
      </trkpt>
      <trkpt lat="43.39532" lon="6.65288">
        <ele>192.399994</ele>
        <time>2018-10-14T10:31:16Z</time>
      </trkpt>
      <trkpt lat="43.39523" lon="6.65282">
        <ele>192.899994</ele>
        <time>2018-10-14T10:31:19Z</time>
      </trkpt>
      <trkpt lat="43.39512" lon="6.65275">
        <ele>194.699997</ele>
        <time>2018-10-14T10:31:23Z</time>
      </trkpt>
      <trkpt lat="43.39503" lon="6.65269">
        <ele>195.199997</ele>
        <time>2018-10-14T10:31:27Z</time>
      </trkpt>
      <trkpt lat="43.39493" lon="6.65263">
        <ele>196.600006</ele>
        <time>2018-10-14T10:31:31Z</time>
      </trkpt>
      <trkpt lat="43.39484" lon="6.65256">
        <ele>197.600006</ele>
        <time>2018-10-14T10:31:35Z</time>
      </trkpt>
      <trkpt lat="43.39477" lon="6.65248">
        <ele>198.100006</ele>
        <time>2018-10-14T10:31:39Z</time>
      </trkpt>
      <trkpt lat="43.39468" lon="6.65242">
        <ele>198.800003</ele>
        <time>2018-10-14T10:31:43Z</time>
      </trkpt>
      <trkpt lat="43.39462" lon="6.65232">
        <ele>199.899994</ele>
        <time>2018-10-14T10:31:47Z</time>
      </trkpt>
      <trkpt lat="43.39466" lon="6.6522">
        <ele>201.600006</ele>
        <time>2018-10-14T10:31:55Z</time>
      </trkpt>
      <trkpt lat="43.39476" lon="6.65219">
        <ele>203.199997</ele>
        <time>2018-10-14T10:32:02Z</time>
      </trkpt>
      <trkpt lat="43.39486" lon="6.65219">
        <ele>204.699997</ele>
        <time>2018-10-14T10:32:09Z</time>
      </trkpt>
      <trkpt lat="43.39496" lon="6.6522">
        <ele>206.399994</ele>
        <time>2018-10-14T10:32:16Z</time>
      </trkpt>
      <trkpt lat="43.39505" lon="6.65221">
        <ele>209.199997</ele>
        <time>2018-10-14T10:32:23Z</time>
      </trkpt>
      <trkpt lat="43.39516" lon="6.6522">
        <ele>210.600006</ele>
        <time>2018-10-14T10:32:30Z</time>
      </trkpt>
      <trkpt lat="43.39526" lon="6.65216">
        <ele>211.5</ele>
        <time>2018-10-14T10:32:37Z</time>
      </trkpt>
      <trkpt lat="43.39536" lon="6.65214">
        <ele>213</ele>
        <time>2018-10-14T10:32:43Z</time>
      </trkpt>
      <trkpt lat="43.39546" lon="6.65213">
        <ele>213.600006</ele>
        <time>2018-10-14T10:32:50Z</time>
      </trkpt>
      <trkpt lat="43.39555" lon="6.65214">
        <ele>215.300003</ele>
        <time>2018-10-14T10:32:57Z</time>
      </trkpt>
      <trkpt lat="43.39565" lon="6.65215">
        <ele>215.600006</ele>
        <time>2018-10-14T10:33:05Z</time>
      </trkpt>
      <trkpt lat="43.39574" lon="6.65215">
        <ele>218.199997</ele>
        <time>2018-10-14T10:33:18Z</time>
      </trkpt>
      <trkpt lat="43.39584" lon="6.65216">
        <ele>219.100006</ele>
        <time>2018-10-14T10:33:27Z</time>
      </trkpt>
      <trkpt lat="43.39593" lon="6.65216">
        <ele>221</ele>
        <time>2018-10-14T10:33:34Z</time>
      </trkpt>
      <trkpt lat="43.39602" lon="6.65215">
        <ele>222.800003</ele>
        <time>2018-10-14T10:33:41Z</time>
      </trkpt>
      <trkpt lat="43.39612" lon="6.65214">
        <ele>224.600006</ele>
        <time>2018-10-14T10:33:48Z</time>
      </trkpt>
      <trkpt lat="43.39621" lon="6.65211">
        <ele>226.100006</ele>
        <time>2018-10-14T10:33:55Z</time>
      </trkpt>
      <trkpt lat="43.39631" lon="6.65207">
        <ele>228.199997</ele>
        <time>2018-10-14T10:34:03Z</time>
      </trkpt>
      <trkpt lat="43.3964" lon="6.65204">
        <ele>230.100006</ele>
        <time>2018-10-14T10:34:10Z</time>
      </trkpt>
      <trkpt lat="43.39647" lon="6.65197">
        <ele>231.800003</ele>
        <time>2018-10-14T10:34:18Z</time>
      </trkpt>
      <trkpt lat="43.39654" lon="6.65188">
        <ele>234.800003</ele>
        <time>2018-10-14T10:34:26Z</time>
      </trkpt>
      <trkpt lat="43.3966" lon="6.65178">
        <ele>235.899994</ele>
        <time>2018-10-14T10:34:34Z</time>
      </trkpt>
      <trkpt lat="43.39665" lon="6.65167">
        <ele>238.100006</ele>
        <time>2018-10-14T10:34:41Z</time>
      </trkpt>
      <trkpt lat="43.3967" lon="6.65155">
        <ele>239.300003</ele>
        <time>2018-10-14T10:34:51Z</time>
      </trkpt>
      <trkpt lat="43.39675" lon="6.65144">
        <ele>240.100006</ele>
        <time>2018-10-14T10:34:57Z</time>
      </trkpt>
      <trkpt lat="43.39681" lon="6.65133">
        <ele>241.300003</ele>
        <time>2018-10-14T10:35:04Z</time>
      </trkpt>
      <trkpt lat="43.39685" lon="6.65122">
        <ele>242.100006</ele>
        <time>2018-10-14T10:35:09Z</time>
      </trkpt>
      <trkpt lat="43.39689" lon="6.65108">
        <ele>242.699997</ele>
        <time>2018-10-14T10:35:14Z</time>
      </trkpt>
      <trkpt lat="43.39693" lon="6.65095">
        <ele>243.399994</ele>
        <time>2018-10-14T10:35:19Z</time>
      </trkpt>
      <trkpt lat="43.39699" lon="6.65082">
        <ele>244.5</ele>
        <time>2018-10-14T10:35:24Z</time>
      </trkpt>
      <trkpt lat="43.39704" lon="6.6507">
        <ele>245.199997</ele>
        <time>2018-10-14T10:35:29Z</time>
      </trkpt>
      <trkpt lat="43.39709" lon="6.65059">
        <ele>246.699997</ele>
        <time>2018-10-14T10:35:34Z</time>
      </trkpt>
      <trkpt lat="43.39716" lon="6.65051">
        <ele>247</ele>
        <time>2018-10-14T10:35:39Z</time>
      </trkpt>
      <trkpt lat="43.39725" lon="6.65043">
        <ele>248.199997</ele>
        <time>2018-10-14T10:35:44Z</time>
      </trkpt>
      <trkpt lat="43.39735" lon="6.65039">
        <ele>249.100006</ele>
        <time>2018-10-14T10:35:49Z</time>
      </trkpt>
      <trkpt lat="43.39745" lon="6.65035">
        <ele>249.399994</ele>
        <time>2018-10-14T10:35:55Z</time>
      </trkpt>
      <trkpt lat="43.39754" lon="6.6503">
        <ele>250.899994</ele>
        <time>2018-10-14T10:36:01Z</time>
      </trkpt>
      <trkpt lat="43.39761" lon="6.65022">
        <ele>252.199997</ele>
        <time>2018-10-14T10:36:07Z</time>
      </trkpt>
      <trkpt lat="43.39769" lon="6.65016">
        <ele>253.100006</ele>
        <time>2018-10-14T10:36:13Z</time>
      </trkpt>
      <trkpt lat="43.39777" lon="6.65011">
        <ele>253.899994</ele>
        <time>2018-10-14T10:36:19Z</time>
      </trkpt>
      <trkpt lat="43.39787" lon="6.65008">
        <ele>255.800003</ele>
        <time>2018-10-14T10:36:26Z</time>
      </trkpt>
      <trkpt lat="43.39797" lon="6.65006">
        <ele>256.899994</ele>
        <time>2018-10-14T10:36:33Z</time>
      </trkpt>
      <trkpt lat="43.39806" lon="6.65004">
        <ele>258.5</ele>
        <time>2018-10-14T10:36:39Z</time>
      </trkpt>
      <trkpt lat="43.39815" lon="6.65003">
        <ele>260.100006</ele>
        <time>2018-10-14T10:36:46Z</time>
      </trkpt>
      <trkpt lat="43.39824" lon="6.65001">
        <ele>261.799988</ele>
        <time>2018-10-14T10:36:53Z</time>
      </trkpt>
      <trkpt lat="43.39833" lon="6.64998">
        <ele>263.100006</ele>
        <time>2018-10-14T10:37:00Z</time>
      </trkpt>
      <trkpt lat="43.39842" lon="6.64992">
        <ele>264.600006</ele>
        <time>2018-10-14T10:37:07Z</time>
      </trkpt>
      <trkpt lat="43.3985" lon="6.64985">
        <ele>266.600006</ele>
        <time>2018-10-14T10:37:15Z</time>
      </trkpt>
      <trkpt lat="43.39859" lon="6.64979">
        <ele>266.600006</ele>
        <time>2018-10-14T10:37:23Z</time>
      </trkpt>
      <trkpt lat="43.39867" lon="6.64972">
        <ele>268.299988</ele>
        <time>2018-10-14T10:37:30Z</time>
      </trkpt>
      <trkpt lat="43.39876" lon="6.64968">
        <ele>269.899994</ele>
        <time>2018-10-14T10:37:37Z</time>
      </trkpt>
      <trkpt lat="43.39885" lon="6.64964">
        <ele>271.100006</ele>
        <time>2018-10-14T10:37:44Z</time>
      </trkpt>
      <trkpt lat="43.39894" lon="6.64962">
        <ele>272.700012</ele>
        <time>2018-10-14T10:37:51Z</time>
      </trkpt>
      <trkpt lat="43.39903" lon="6.6496">
        <ele>273.799988</ele>
        <time>2018-10-14T10:37:57Z</time>
      </trkpt>
      <trkpt lat="43.39914" lon="6.64956">
        <ele>274.799988</ele>
        <time>2018-10-14T10:38:04Z</time>
      </trkpt>
      <trkpt lat="43.39922" lon="6.64951">
        <ele>276.799988</ele>
        <time>2018-10-14T10:38:10Z</time>
      </trkpt>
      <trkpt lat="43.3993" lon="6.64942">
        <ele>278.700012</ele>
        <time>2018-10-14T10:38:18Z</time>
      </trkpt>
      <trkpt lat="43.39939" lon="6.64938">
        <ele>280.799988</ele>
        <time>2018-10-14T10:38:26Z</time>
      </trkpt>
      <trkpt lat="43.39948" lon="6.64935">
        <ele>282.100006</ele>
        <time>2018-10-14T10:38:35Z</time>
      </trkpt>
      <trkpt lat="43.39957" lon="6.64936">
        <ele>284.200012</ele>
        <time>2018-10-14T10:38:46Z</time>
      </trkpt>
      <trkpt lat="43.39967" lon="6.64934">
        <ele>286</ele>
        <time>2018-10-14T10:38:55Z</time>
      </trkpt>
      <trkpt lat="43.39976" lon="6.64936">
        <ele>288.600006</ele>
        <time>2018-10-14T10:39:03Z</time>
      </trkpt>
      <trkpt lat="43.39985" lon="6.6494">
        <ele>291.100006</ele>
        <time>2018-10-14T10:39:11Z</time>
      </trkpt>
      <trkpt lat="43.39994" lon="6.64941">
        <ele>292.200012</ele>
        <time>2018-10-14T10:39:19Z</time>
      </trkpt>
      <trkpt lat="43.40004" lon="6.64939">
        <ele>294.600006</ele>
        <time>2018-10-14T10:39:26Z</time>
      </trkpt>
      <trkpt lat="43.40013" lon="6.64935">
        <ele>295.899994</ele>
        <time>2018-10-14T10:39:34Z</time>
      </trkpt>
      <trkpt lat="43.40023" lon="6.64932">
        <ele>299.5</ele>
        <time>2018-10-14T10:39:43Z</time>
      </trkpt>
      <trkpt lat="43.40032" lon="6.64927">
        <ele>301</ele>
        <time>2018-10-14T10:39:51Z</time>
      </trkpt>
      <trkpt lat="43.4004" lon="6.64919">
        <ele>303.399994</ele>
        <time>2018-10-14T10:40:00Z</time>
      </trkpt>
      <trkpt lat="43.40047" lon="6.6491">
        <ele>305.399994</ele>
        <time>2018-10-14T10:40:09Z</time>
      </trkpt>
      <trkpt lat="43.40055" lon="6.64902">
        <ele>307.100006</ele>
        <time>2018-10-14T10:40:17Z</time>
      </trkpt>
      <trkpt lat="43.40063" lon="6.64896">
        <ele>308.899994</ele>
        <time>2018-10-14T10:40:25Z</time>
      </trkpt>
      <trkpt lat="43.40071" lon="6.64889">
        <ele>311.299988</ele>
        <time>2018-10-14T10:40:33Z</time>
      </trkpt>
      <trkpt lat="43.40078" lon="6.64881">
        <ele>311.899994</ele>
        <time>2018-10-14T10:40:41Z</time>
      </trkpt>
      <trkpt lat="43.40088" lon="6.64876">
        <ele>313.299988</ele>
        <time>2018-10-14T10:40:47Z</time>
      </trkpt>
      <trkpt lat="43.40098" lon="6.64871">
        <ele>314.100006</ele>
        <time>2018-10-14T10:40:52Z</time>
      </trkpt>
      <trkpt lat="43.40106" lon="6.64865">
        <ele>314.600006</ele>
        <time>2018-10-14T10:40:56Z</time>
      </trkpt>
      <trkpt lat="43.40114" lon="6.64857">
        <ele>314.899994</ele>
        <time>2018-10-14T10:41:00Z</time>
      </trkpt>
      <trkpt lat="43.40121" lon="6.64846">
        <ele>315.299988</ele>
        <time>2018-10-14T10:41:04Z</time>
      </trkpt>
      <trkpt lat="43.40129" lon="6.64833">
        <ele>315.5</ele>
        <time>2018-10-14T10:41:08Z</time>
      </trkpt>
      <trkpt lat="43.40136" lon="6.64821">
        <ele>315.299988</ele>
        <time>2018-10-14T10:41:11Z</time>
      </trkpt>
      <trkpt lat="43.40143" lon="6.64808">
        <ele>314.600006</ele>
        <time>2018-10-14T10:41:14Z</time>
      </trkpt>
      <trkpt lat="43.40149" lon="6.64798">
        <ele>314.399994</ele>
        <time>2018-10-14T10:41:16Z</time>
      </trkpt>
      <trkpt lat="43.40156" lon="6.64788">
        <ele>314</ele>
        <time>2018-10-14T10:41:18Z</time>
      </trkpt>
      <trkpt lat="43.40166" lon="6.64778">
        <ele>313.299988</ele>
        <time>2018-10-14T10:41:20Z</time>
      </trkpt>
      <trkpt lat="43.40178" lon="6.6477">
        <ele>313</ele>
        <time>2018-10-14T10:41:22Z</time>
      </trkpt>
      <trkpt lat="43.40193" lon="6.64765">
        <ele>312</ele>
        <time>2018-10-14T10:41:24Z</time>
      </trkpt>
      <trkpt lat="43.4021" lon="6.64763">
        <ele>311.200012</ele>
        <time>2018-10-14T10:41:26Z</time>
      </trkpt>
      <trkpt lat="43.40226" lon="6.64761">
        <ele>310.399994</ele>
        <time>2018-10-14T10:41:28Z</time>
      </trkpt>
      <trkpt lat="43.40242" lon="6.64759">
        <ele>309.700012</ele>
        <time>2018-10-14T10:41:30Z</time>
      </trkpt>
      <trkpt lat="43.40258" lon="6.64756">
        <ele>308.700012</ele>
        <time>2018-10-14T10:41:32Z</time>
      </trkpt>
      <trkpt lat="43.40271" lon="6.64753">
        <ele>307.799988</ele>
        <time>2018-10-14T10:41:34Z</time>
      </trkpt>
      <trkpt lat="43.40284" lon="6.64751">
        <ele>307.399994</ele>
        <time>2018-10-14T10:41:36Z</time>
      </trkpt>
      <trkpt lat="43.40294" lon="6.64748">
        <ele>307</ele>
        <time>2018-10-14T10:41:38Z</time>
      </trkpt>
      <trkpt lat="43.40306" lon="6.64747">
        <ele>307.5</ele>
        <time>2018-10-14T10:41:41Z</time>
      </trkpt>
      <trkpt lat="43.40316" lon="6.64747">
        <ele>308</ele>
        <time>2018-10-14T10:41:43Z</time>
      </trkpt>
      <trkpt lat="43.40327" lon="6.64749">
        <ele>308.100006</ele>
        <time>2018-10-14T10:41:45Z</time>
      </trkpt>
      <trkpt lat="43.4034" lon="6.64753">
        <ele>307.600006</ele>
        <time>2018-10-14T10:41:47Z</time>
      </trkpt>
      <trkpt lat="43.40354" lon="6.64759">
        <ele>307.299988</ele>
        <time>2018-10-14T10:41:49Z</time>
      </trkpt>
      <trkpt lat="43.40369" lon="6.64764">
        <ele>306.700012</ele>
        <time>2018-10-14T10:41:51Z</time>
      </trkpt>
      <trkpt lat="43.40382" lon="6.64766">
        <ele>306</ele>
        <time>2018-10-14T10:41:53Z</time>
      </trkpt>
      <trkpt lat="43.40395" lon="6.64769">
        <ele>305.100006</ele>
        <time>2018-10-14T10:41:55Z</time>
      </trkpt>
      <trkpt lat="43.40407" lon="6.64771">
        <ele>305.5</ele>
        <time>2018-10-14T10:41:57Z</time>
      </trkpt>
      <trkpt lat="43.4042" lon="6.64773">
        <ele>305.600006</ele>
        <time>2018-10-14T10:41:59Z</time>
      </trkpt>
      <trkpt lat="43.40432" lon="6.64775">
        <ele>305.200012</ele>
        <time>2018-10-14T10:42:01Z</time>
      </trkpt>
      <trkpt lat="43.40446" lon="6.64777">
        <ele>305</ele>
        <time>2018-10-14T10:42:03Z</time>
      </trkpt>
      <trkpt lat="43.4046" lon="6.6478">
        <ele>304.600006</ele>
        <time>2018-10-14T10:42:05Z</time>
      </trkpt>
      <trkpt lat="43.40474" lon="6.64784">
        <ele>303.700012</ele>
        <time>2018-10-14T10:42:07Z</time>
      </trkpt>
      <trkpt lat="43.4049" lon="6.64787">
        <ele>303.100006</ele>
        <time>2018-10-14T10:42:09Z</time>
      </trkpt>
      <trkpt lat="43.40506" lon="6.64788">
        <ele>302.200012</ele>
        <time>2018-10-14T10:42:11Z</time>
      </trkpt>
      <trkpt lat="43.40522" lon="6.6479">
        <ele>301.600006</ele>
        <time>2018-10-14T10:42:13Z</time>
      </trkpt>
      <trkpt lat="43.40538" lon="6.64792">
        <ele>300.899994</ele>
        <time>2018-10-14T10:42:15Z</time>
      </trkpt>
      <trkpt lat="43.40554" lon="6.64795">
        <ele>300.5</ele>
        <time>2018-10-14T10:42:17Z</time>
      </trkpt>
      <trkpt lat="43.4057" lon="6.64798">
        <ele>300.100006</ele>
        <time>2018-10-14T10:42:19Z</time>
      </trkpt>
      <trkpt lat="43.40584" lon="6.64801">
        <ele>299.600006</ele>
        <time>2018-10-14T10:42:21Z</time>
      </trkpt>
      <trkpt lat="43.40596" lon="6.64804">
        <ele>298.700012</ele>
        <time>2018-10-14T10:42:23Z</time>
      </trkpt>
      <trkpt lat="43.40606" lon="6.64807">
        <ele>298.700012</ele>
        <time>2018-10-14T10:42:25Z</time>
      </trkpt>
      <trkpt lat="43.40616" lon="6.6481">
        <ele>298.5</ele>
        <time>2018-10-14T10:42:27Z</time>
      </trkpt>
      <trkpt lat="43.40626" lon="6.64811">
        <ele>298.899994</ele>
        <time>2018-10-14T10:42:29Z</time>
      </trkpt>
      <trkpt lat="43.40639" lon="6.64813">
        <ele>299.5</ele>
        <time>2018-10-14T10:42:32Z</time>
      </trkpt>
      <trkpt lat="43.40652" lon="6.64817">
        <ele>299.700012</ele>
        <time>2018-10-14T10:42:35Z</time>
      </trkpt>
      <trkpt lat="43.40664" lon="6.64822">
        <ele>300.399994</ele>
        <time>2018-10-14T10:42:38Z</time>
      </trkpt>
      <trkpt lat="43.40676" lon="6.64827">
        <ele>300.799988</ele>
        <time>2018-10-14T10:42:41Z</time>
      </trkpt>
      <trkpt lat="43.40686" lon="6.6483">
        <ele>300.700012</ele>
        <time>2018-10-14T10:42:44Z</time>
      </trkpt>
      <trkpt lat="43.40695" lon="6.64833">
        <ele>301</ele>
        <time>2018-10-14T10:42:47Z</time>
      </trkpt>
      <trkpt lat="43.40705" lon="6.64835">
        <ele>301.5</ele>
        <time>2018-10-14T10:42:50Z</time>
      </trkpt>
      <trkpt lat="43.40716" lon="6.64839">
        <ele>302.200012</ele>
        <time>2018-10-14T10:42:53Z</time>
      </trkpt>
      <trkpt lat="43.40724" lon="6.64845">
        <ele>302.399994</ele>
        <time>2018-10-14T10:42:55Z</time>
      </trkpt>
      <trkpt lat="43.40732" lon="6.64851">
        <ele>302.399994</ele>
        <time>2018-10-14T10:42:57Z</time>
      </trkpt>
      <trkpt lat="43.40739" lon="6.64861">
        <ele>302.399994</ele>
        <time>2018-10-14T10:43:00Z</time>
      </trkpt>
      <trkpt lat="43.40746" lon="6.64872">
        <ele>303</ele>
        <time>2018-10-14T10:43:04Z</time>
      </trkpt>
      <trkpt lat="43.40753" lon="6.64881">
        <ele>303.899994</ele>
        <time>2018-10-14T10:43:08Z</time>
      </trkpt>
      <trkpt lat="43.40759" lon="6.64891">
        <ele>304.299988</ele>
        <time>2018-10-14T10:43:12Z</time>
      </trkpt>
      <trkpt lat="43.40765" lon="6.64901">
        <ele>305.399994</ele>
        <time>2018-10-14T10:43:16Z</time>
      </trkpt>
      <trkpt lat="43.40771" lon="6.64912">
        <ele>306.200012</ele>
        <time>2018-10-14T10:43:21Z</time>
      </trkpt>
      <trkpt lat="43.40775" lon="6.64925">
        <ele>307.100006</ele>
        <time>2018-10-14T10:43:27Z</time>
      </trkpt>
      <trkpt lat="43.40778" lon="6.64939">
        <ele>308.600006</ele>
        <time>2018-10-14T10:43:33Z</time>
      </trkpt>
      <trkpt lat="43.4078" lon="6.64952">
        <ele>309.299988</ele>
        <time>2018-10-14T10:43:38Z</time>
      </trkpt>
      <trkpt lat="43.40781" lon="6.64966">
        <ele>310</ele>
        <time>2018-10-14T10:43:43Z</time>
      </trkpt>
      <trkpt lat="43.40782" lon="6.6498">
        <ele>311.200012</ele>
        <time>2018-10-14T10:43:48Z</time>
      </trkpt>
      <trkpt lat="43.40783" lon="6.64993">
        <ele>312.100006</ele>
        <time>2018-10-14T10:43:52Z</time>
      </trkpt>
      <trkpt lat="43.40785" lon="6.65008">
        <ele>312.299988</ele>
        <time>2018-10-14T10:43:56Z</time>
      </trkpt>
      <trkpt lat="43.40786" lon="6.65024">
        <ele>312.299988</ele>
        <time>2018-10-14T10:44:00Z</time>
      </trkpt>
      <trkpt lat="43.40788" lon="6.6504">
        <ele>312.700012</ele>
        <time>2018-10-14T10:44:04Z</time>
      </trkpt>
      <trkpt lat="43.40789" lon="6.65054">
        <ele>312.600006</ele>
        <time>2018-10-14T10:44:07Z</time>
      </trkpt>
      <trkpt lat="43.40791" lon="6.65068">
        <ele>313</ele>
        <time>2018-10-14T10:44:10Z</time>
      </trkpt>
      <trkpt lat="43.40792" lon="6.65085">
        <ele>313.700012</ele>
        <time>2018-10-14T10:44:13Z</time>
      </trkpt>
      <trkpt lat="43.40793" lon="6.65104">
        <ele>313.799988</ele>
        <time>2018-10-14T10:44:16Z</time>
      </trkpt>
      <trkpt lat="43.40793" lon="6.65119">
        <ele>313.299988</ele>
        <time>2018-10-14T10:44:18Z</time>
      </trkpt>
      <trkpt lat="43.40794" lon="6.65138">
        <ele>313.100006</ele>
        <time>2018-10-14T10:44:20Z</time>
      </trkpt>
      <trkpt lat="43.40794" lon="6.65156">
        <ele>311.399994</ele>
        <time>2018-10-14T10:44:22Z</time>
      </trkpt>
      <trkpt lat="43.40799" lon="6.6517">
        <ele>310.200012</ele>
        <time>2018-10-14T10:44:24Z</time>
      </trkpt>
      <trkpt lat="43.40806" lon="6.65179">
        <ele>309.100006</ele>
        <time>2018-10-14T10:44:26Z</time>
      </trkpt>
      <trkpt lat="43.40816" lon="6.65187">
        <ele>309.200012</ele>
        <time>2018-10-14T10:44:30Z</time>
      </trkpt>
      <trkpt lat="43.40824" lon="6.65182">
        <ele>309.299988</ele>
        <time>2018-10-14T10:44:34Z</time>
      </trkpt>
      <trkpt lat="43.40825" lon="6.65168">
        <ele>310</ele>
        <time>2018-10-14T10:44:42Z</time>
      </trkpt>
      <trkpt lat="43.40822" lon="6.65156">
        <ele>312.600006</ele>
        <time>2018-10-14T10:44:50Z</time>
      </trkpt>
      <trkpt lat="43.40822" lon="6.65144">
        <ele>313.5</ele>
        <time>2018-10-14T10:44:58Z</time>
      </trkpt>
      <trkpt lat="43.40827" lon="6.65133">
        <ele>317.100006</ele>
        <time>2018-10-14T10:45:06Z</time>
      </trkpt>
      <trkpt lat="43.40832" lon="6.65122">
        <ele>320</ele>
        <time>2018-10-14T10:45:14Z</time>
      </trkpt>
      <trkpt lat="43.40837" lon="6.6511">
        <ele>322.399994</ele>
        <time>2018-10-14T10:45:23Z</time>
      </trkpt>
      <trkpt lat="43.4084" lon="6.65097">
        <ele>324</ele>
        <time>2018-10-14T10:45:33Z</time>
      </trkpt>
      <trkpt lat="43.40844" lon="6.65086">
        <ele>324.799988</ele>
        <time>2018-10-14T10:45:40Z</time>
      </trkpt>
      <trkpt lat="43.40848" lon="6.65073">
        <ele>328.899994</ele>
        <time>2018-10-14T10:45:48Z</time>
      </trkpt>
      <trkpt lat="43.40849" lon="6.65059">
        <ele>329.299988</ele>
        <time>2018-10-14T10:45:56Z</time>
      </trkpt>
      <trkpt lat="43.40848" lon="6.65046">
        <ele>330.100006</ele>
        <time>2018-10-14T10:46:03Z</time>
      </trkpt>
      <trkpt lat="43.40846" lon="6.65034">
        <ele>331.200012</ele>
        <time>2018-10-14T10:46:09Z</time>
      </trkpt>
      <trkpt lat="43.40842" lon="6.65018">
        <ele>331.100006</ele>
        <time>2018-10-14T10:46:13Z</time>
      </trkpt>
      <trkpt lat="43.4084" lon="6.64999">
        <ele>330.600006</ele>
        <time>2018-10-14T10:46:16Z</time>
      </trkpt>
      <trkpt lat="43.40839" lon="6.64984">
        <ele>329.799988</ele>
        <time>2018-10-14T10:46:18Z</time>
      </trkpt>
      <trkpt lat="43.40841" lon="6.64971">
        <ele>328.600006</ele>
        <time>2018-10-14T10:46:20Z</time>
      </trkpt>
      <trkpt lat="43.40846" lon="6.64959">
        <ele>327.600006</ele>
        <time>2018-10-14T10:46:22Z</time>
      </trkpt>
      <trkpt lat="43.40845" lon="6.64943">
        <ele>326.100006</ele>
        <time>2018-10-14T10:46:25Z</time>
      </trkpt>
      <trkpt lat="43.40833" lon="6.64933">
        <ele>325.100006</ele>
        <time>2018-10-14T10:46:28Z</time>
      </trkpt>
      <trkpt lat="43.40821" lon="6.64926">
        <ele>324.200012</ele>
        <time>2018-10-14T10:46:31Z</time>
      </trkpt>
      <trkpt lat="43.40811" lon="6.64914">
        <ele>323.399994</ele>
        <time>2018-10-14T10:46:34Z</time>
      </trkpt>
      <trkpt lat="43.40804" lon="6.64903">
        <ele>322.399994</ele>
        <time>2018-10-14T10:46:36Z</time>
      </trkpt>
      <trkpt lat="43.40801" lon="6.64889">
        <ele>321.100006</ele>
        <time>2018-10-14T10:46:38Z</time>
      </trkpt>
      <trkpt lat="43.40801" lon="6.64875">
        <ele>320.100006</ele>
        <time>2018-10-14T10:46:40Z</time>
      </trkpt>
      <trkpt lat="43.40804" lon="6.64862">
        <ele>319.700012</ele>
        <time>2018-10-14T10:46:43Z</time>
      </trkpt>
      <trkpt lat="43.40805" lon="6.64848">
        <ele>318.399994</ele>
        <time>2018-10-14T10:46:46Z</time>
      </trkpt>
      <trkpt lat="43.40806" lon="6.64831">
        <ele>318.700012</ele>
        <time>2018-10-14T10:46:49Z</time>
      </trkpt>
      <trkpt lat="43.40803" lon="6.64816">
        <ele>319.100006</ele>
        <time>2018-10-14T10:46:51Z</time>
      </trkpt>
      <trkpt lat="43.40796" lon="6.64807">
        <ele>318.600006</ele>
        <time>2018-10-14T10:46:53Z</time>
      </trkpt>
      <trkpt lat="43.40787" lon="6.64798">
        <ele>318.200012</ele>
        <time>2018-10-14T10:46:56Z</time>
      </trkpt>
      <trkpt lat="43.40779" lon="6.6479">
        <ele>318.600006</ele>
        <time>2018-10-14T10:46:58Z</time>
      </trkpt>
      <trkpt lat="43.40771" lon="6.64783">
        <ele>318.5</ele>
        <time>2018-10-14T10:47:00Z</time>
      </trkpt>
      <trkpt lat="43.40761" lon="6.64771">
        <ele>319.5</ele>
        <time>2018-10-14T10:47:03Z</time>
      </trkpt>
      <trkpt lat="43.40754" lon="6.64762">
        <ele>319.600006</ele>
        <time>2018-10-14T10:47:06Z</time>
      </trkpt>
      <trkpt lat="43.40744" lon="6.6475">
        <ele>319.600006</ele>
        <time>2018-10-14T10:47:09Z</time>
      </trkpt>
      <trkpt lat="43.40735" lon="6.6474">
        <ele>319.899994</ele>
        <time>2018-10-14T10:47:11Z</time>
      </trkpt>
      <trkpt lat="43.40728" lon="6.64729">
        <ele>320.299988</ele>
        <time>2018-10-14T10:47:13Z</time>
      </trkpt>
      <trkpt lat="43.40721" lon="6.64718">
        <ele>319.799988</ele>
        <time>2018-10-14T10:47:15Z</time>
      </trkpt>
      <trkpt lat="43.40712" lon="6.64712">
        <ele>319.799988</ele>
        <time>2018-10-14T10:47:17Z</time>
      </trkpt>
      <trkpt lat="43.40701" lon="6.64716">
        <ele>319.100006</ele>
        <time>2018-10-14T10:47:19Z</time>
      </trkpt>
      <trkpt lat="43.40694" lon="6.64727">
        <ele>318.700012</ele>
        <time>2018-10-14T10:47:21Z</time>
      </trkpt>
      <trkpt lat="43.40687" lon="6.64737">
        <ele>317.399994</ele>
        <time>2018-10-14T10:47:23Z</time>
      </trkpt>
      <trkpt lat="43.40678" lon="6.64746">
        <ele>316.200012</ele>
        <time>2018-10-14T10:47:25Z</time>
      </trkpt>
      <trkpt lat="43.40668" lon="6.64755">
        <ele>315</ele>
        <time>2018-10-14T10:47:27Z</time>
      </trkpt>
      <trkpt lat="43.40658" lon="6.64761">
        <ele>313.700012</ele>
        <time>2018-10-14T10:47:29Z</time>
      </trkpt>
      <trkpt lat="43.40648" lon="6.64763">
        <ele>312.200012</ele>
        <time>2018-10-14T10:47:31Z</time>
      </trkpt>
      <trkpt lat="43.40638" lon="6.64758">
        <ele>310.700012</ele>
        <time>2018-10-14T10:47:33Z</time>
      </trkpt>
      <trkpt lat="43.40629" lon="6.64749">
        <ele>309.5</ele>
        <time>2018-10-14T10:47:35Z</time>
      </trkpt>
      <trkpt lat="43.40621" lon="6.64739">
        <ele>308.299988</ele>
        <time>2018-10-14T10:47:37Z</time>
      </trkpt>
      <trkpt lat="43.4061" lon="6.64731">
        <ele>307.600006</ele>
        <time>2018-10-14T10:47:40Z</time>
      </trkpt>
      <trkpt lat="43.40598" lon="6.64733">
        <ele>306.399994</ele>
        <time>2018-10-14T10:47:43Z</time>
      </trkpt>
      <trkpt lat="43.40591" lon="6.64743">
        <ele>305.100006</ele>
        <time>2018-10-14T10:47:46Z</time>
      </trkpt>
      <trkpt lat="43.40581" lon="6.64749">
        <ele>303.799988</ele>
        <time>2018-10-14T10:47:49Z</time>
      </trkpt>
      <trkpt lat="43.40573" lon="6.64742">
        <ele>303</ele>
        <time>2018-10-14T10:47:53Z</time>
      </trkpt>
      <trkpt lat="43.40566" lon="6.64734">
        <ele>304</ele>
        <time>2018-10-14T10:47:59Z</time>
      </trkpt>
      <trkpt lat="43.40557" lon="6.64726">
        <ele>305.200012</ele>
        <time>2018-10-14T10:48:04Z</time>
      </trkpt>
      <trkpt lat="43.40548" lon="6.64723">
        <ele>306.200012</ele>
        <time>2018-10-14T10:48:09Z</time>
      </trkpt>
      <trkpt lat="43.40539" lon="6.64719">
        <ele>306</ele>
        <time>2018-10-14T10:48:15Z</time>
      </trkpt>
      <trkpt lat="43.40532" lon="6.64712">
        <ele>307.600006</ele>
        <time>2018-10-14T10:48:21Z</time>
      </trkpt>
      <trkpt lat="43.4052" lon="6.64706">
        <ele>309.200012</ele>
        <time>2018-10-14T10:48:26Z</time>
      </trkpt>
      <trkpt lat="43.40511" lon="6.64702">
        <ele>309.899994</ele>
        <time>2018-10-14T10:48:29Z</time>
      </trkpt>
      <trkpt lat="43.40502" lon="6.64697">
        <ele>310.899994</ele>
        <time>2018-10-14T10:48:34Z</time>
      </trkpt>
      <trkpt lat="43.40493" lon="6.64694">
        <ele>312.100006</ele>
        <time>2018-10-14T10:48:38Z</time>
      </trkpt>
      <trkpt lat="43.40483" lon="6.64691">
        <ele>311.899994</ele>
        <time>2018-10-14T10:48:42Z</time>
      </trkpt>
      <trkpt lat="43.40473" lon="6.64691">
        <ele>312.399994</ele>
        <time>2018-10-14T10:48:46Z</time>
      </trkpt>
      <trkpt lat="43.40463" lon="6.64689">
        <ele>313.399994</ele>
        <time>2018-10-14T10:48:51Z</time>
      </trkpt>
      <trkpt lat="43.40455" lon="6.64682">
        <ele>314.299988</ele>
        <time>2018-10-14T10:48:56Z</time>
      </trkpt>
      <trkpt lat="43.40445" lon="6.64676">
        <ele>315.600006</ele>
        <time>2018-10-14T10:49:02Z</time>
      </trkpt>
      <trkpt lat="43.40436" lon="6.6467">
        <ele>316.399994</ele>
        <time>2018-10-14T10:49:10Z</time>
      </trkpt>
      <trkpt lat="43.40427" lon="6.64667">
        <ele>317.899994</ele>
        <time>2018-10-14T10:49:16Z</time>
      </trkpt>
      <trkpt lat="43.40418" lon="6.64666">
        <ele>319.5</ele>
        <time>2018-10-14T10:49:21Z</time>
      </trkpt>
      <trkpt lat="43.40406" lon="6.64663">
        <ele>318.899994</ele>
        <time>2018-10-14T10:49:26Z</time>
      </trkpt>
      <trkpt lat="43.40397" lon="6.6466">
        <ele>319.600006</ele>
        <time>2018-10-14T10:49:30Z</time>
      </trkpt>
      <trkpt lat="43.40386" lon="6.64659">
        <ele>321.5</ele>
        <time>2018-10-14T10:49:36Z</time>
      </trkpt>
      <trkpt lat="43.40376" lon="6.6466">
        <ele>322.600006</ele>
        <time>2018-10-14T10:49:42Z</time>
      </trkpt>
      <trkpt lat="43.40367" lon="6.64663">
        <ele>323.799988</ele>
        <time>2018-10-14T10:49:48Z</time>
      </trkpt>
      <trkpt lat="43.40357" lon="6.64666">
        <ele>324.799988</ele>
        <time>2018-10-14T10:49:53Z</time>
      </trkpt>
      <trkpt lat="43.40345" lon="6.6467">
        <ele>325.700012</ele>
        <time>2018-10-14T10:49:58Z</time>
      </trkpt>
      <trkpt lat="43.40336" lon="6.64674">
        <ele>325.299988</ele>
        <time>2018-10-14T10:50:01Z</time>
      </trkpt>
      <trkpt lat="43.40325" lon="6.64673">
        <ele>325.299988</ele>
        <time>2018-10-14T10:50:07Z</time>
      </trkpt>
      <trkpt lat="43.40316" lon="6.64671">
        <ele>326.899994</ele>
        <time>2018-10-14T10:50:12Z</time>
      </trkpt>
      <trkpt lat="43.40307" lon="6.6467">
        <ele>327.600006</ele>
        <time>2018-10-14T10:50:18Z</time>
      </trkpt>
      <trkpt lat="43.40296" lon="6.64668">
        <ele>329.100006</ele>
        <time>2018-10-14T10:50:24Z</time>
      </trkpt>
      <trkpt lat="43.40288" lon="6.64662">
        <ele>330.399994</ele>
        <time>2018-10-14T10:50:32Z</time>
      </trkpt>
      <trkpt lat="43.4028" lon="6.64657">
        <ele>332</ele>
        <time>2018-10-14T10:50:37Z</time>
      </trkpt>
      <trkpt lat="43.40271" lon="6.64652">
        <ele>332</ele>
        <time>2018-10-14T10:50:42Z</time>
      </trkpt>
      <trkpt lat="43.40261" lon="6.64648">
        <ele>333.200012</ele>
        <time>2018-10-14T10:50:47Z</time>
      </trkpt>
      <trkpt lat="43.4025" lon="6.64647">
        <ele>333.200012</ele>
        <time>2018-10-14T10:50:50Z</time>
      </trkpt>
      <trkpt lat="43.40238" lon="6.64648">
        <ele>333.5</ele>
        <time>2018-10-14T10:50:54Z</time>
      </trkpt>
      <trkpt lat="43.40228" lon="6.64647">
        <ele>333.799988</ele>
        <time>2018-10-14T10:50:57Z</time>
      </trkpt>
      <trkpt lat="43.40218" lon="6.64647">
        <ele>333.700012</ele>
        <time>2018-10-14T10:51:00Z</time>
      </trkpt>
      <trkpt lat="43.40206" lon="6.64648">
        <ele>333.5</ele>
        <time>2018-10-14T10:51:03Z</time>
      </trkpt>
      <trkpt lat="43.40196" lon="6.64648">
        <ele>333.100006</ele>
        <time>2018-10-14T10:51:06Z</time>
      </trkpt>
      <trkpt lat="43.40186" lon="6.64648">
        <ele>333.200012</ele>
        <time>2018-10-14T10:51:09Z</time>
      </trkpt>
      <trkpt lat="43.40176" lon="6.6465">
        <ele>333.899994</ele>
        <time>2018-10-14T10:51:12Z</time>
      </trkpt>
      <trkpt lat="43.40164" lon="6.64655">
        <ele>333.700012</ele>
        <time>2018-10-14T10:51:15Z</time>
      </trkpt>
      <trkpt lat="43.40153" lon="6.6466">
        <ele>333.399994</ele>
        <time>2018-10-14T10:51:17Z</time>
      </trkpt>
      <trkpt lat="43.40145" lon="6.64668">
        <ele>333.600006</ele>
        <time>2018-10-14T10:51:19Z</time>
      </trkpt>
      <trkpt lat="43.40137" lon="6.64676">
        <ele>333.700012</ele>
        <time>2018-10-14T10:51:21Z</time>
      </trkpt>
      <trkpt lat="43.40129" lon="6.64688">
        <ele>334.200012</ele>
        <time>2018-10-14T10:51:24Z</time>
      </trkpt>
      <trkpt lat="43.4012" lon="6.64698">
        <ele>334.299988</ele>
        <time>2018-10-14T10:51:27Z</time>
      </trkpt>
      <trkpt lat="43.40109" lon="6.64704">
        <ele>334.700012</ele>
        <time>2018-10-14T10:51:30Z</time>
      </trkpt>
      <trkpt lat="43.40099" lon="6.64709">
        <ele>334.399994</ele>
        <time>2018-10-14T10:51:33Z</time>
      </trkpt>
      <trkpt lat="43.40091" lon="6.64717">
        <ele>334.600006</ele>
        <time>2018-10-14T10:51:36Z</time>
      </trkpt>
      <trkpt lat="43.40082" lon="6.64726">
        <ele>335</ele>
        <time>2018-10-14T10:51:39Z</time>
      </trkpt>
      <trkpt lat="43.40074" lon="6.64736">
        <ele>335.200012</ele>
        <time>2018-10-14T10:51:42Z</time>
      </trkpt>
      <trkpt lat="43.40066" lon="6.64747">
        <ele>335.399994</ele>
        <time>2018-10-14T10:51:45Z</time>
      </trkpt>
      <trkpt lat="43.40059" lon="6.64758">
        <ele>335.899994</ele>
        <time>2018-10-14T10:51:48Z</time>
      </trkpt>
      <trkpt lat="43.40053" lon="6.64769">
        <ele>336.100006</ele>
        <time>2018-10-14T10:51:51Z</time>
      </trkpt>
      <trkpt lat="43.40047" lon="6.64779">
        <ele>336</ele>
        <time>2018-10-14T10:51:54Z</time>
      </trkpt>
      <trkpt lat="43.40041" lon="6.64792">
        <ele>335.5</ele>
        <time>2018-10-14T10:51:57Z</time>
      </trkpt>
      <trkpt lat="43.40037" lon="6.64809">
        <ele>334.600006</ele>
        <time>2018-10-14T10:52:00Z</time>
      </trkpt>
      <trkpt lat="43.40032" lon="6.6482">
        <ele>333.5</ele>
        <time>2018-10-14T10:52:03Z</time>
      </trkpt>
      <trkpt lat="43.40022" lon="6.64822">
        <ele>331.700012</ele>
        <time>2018-10-14T10:52:06Z</time>
      </trkpt>
      <trkpt lat="43.40012" lon="6.64819">
        <ele>328.200012</ele>
        <time>2018-10-14T10:52:11Z</time>
      </trkpt>
      <trkpt lat="43.40002" lon="6.64817">
        <ele>325.5</ele>
        <time>2018-10-14T10:52:17Z</time>
      </trkpt>
      <trkpt lat="43.39991" lon="6.64818">
        <ele>322.5</ele>
        <time>2018-10-14T10:52:22Z</time>
      </trkpt>
      <trkpt lat="43.39983" lon="6.64822">
        <ele>319.100006</ele>
        <time>2018-10-14T10:52:27Z</time>
      </trkpt>
      <trkpt lat="43.39974" lon="6.64827">
        <ele>314.600006</ele>
        <time>2018-10-14T10:52:40Z</time>
      </trkpt>
      <trkpt lat="43.39966" lon="6.64831">
        <ele>311.299988</ele>
        <time>2018-10-14T10:52:52Z</time>
      </trkpt>
      <trkpt lat="43.39957" lon="6.64834">
        <ele>309.5</ele>
        <time>2018-10-14T10:53:52Z</time>
      </trkpt>
      <trkpt lat="43.39948" lon="6.64833">
        <ele>306.899994</ele>
        <time>2018-10-14T10:55:18Z</time>
      </trkpt>
      <trkpt lat="43.3994" lon="6.64839">
        <ele>304.200012</ele>
        <time>2018-10-14T10:57:13Z</time>
      </trkpt>
      <trkpt lat="43.3993" lon="6.64839">
        <ele>302.200012</ele>
        <time>2018-10-14T10:58:53Z</time>
      </trkpt>
      <trkpt lat="43.39921" lon="6.64837">
        <ele>300.299988</ele>
        <time>2018-10-14T11:00:21Z</time>
      </trkpt>
      <trkpt lat="43.39912" lon="6.6484">
        <ele>299.899994</ele>
        <time>2018-10-14T11:01:55Z</time>
      </trkpt>
      <trkpt lat="43.39904" lon="6.64835">
        <ele>299.200012</ele>
        <time>2018-10-14T11:03:45Z</time>
      </trkpt>
      <trkpt lat="43.39899" lon="6.64846">
        <ele>298.600006</ele>
        <time>2018-10-14T11:05:00Z</time>
      </trkpt>
      <trkpt lat="43.3989" lon="6.64848">
        <ele>297.899994</ele>
        <time>2018-10-14T11:06:04Z</time>
      </trkpt>
      <trkpt lat="43.39882" lon="6.64853">
        <ele>296.899994</ele>
        <time>2018-10-14T11:06:37Z</time>
      </trkpt>
      <trkpt lat="43.39876" lon="6.64864">
        <ele>297</ele>
        <time>2018-10-14T11:06:59Z</time>
      </trkpt>
      <trkpt lat="43.39869" lon="6.64874">
        <ele>296.299988</ele>
        <time>2018-10-14T11:07:04Z</time>
      </trkpt>
      <trkpt lat="43.39858" lon="6.64878">
        <ele>295</ele>
        <time>2018-10-14T11:07:08Z</time>
      </trkpt>
      <trkpt lat="43.39851" lon="6.6489">
        <ele>293.100006</ele>
        <time>2018-10-14T11:07:11Z</time>
      </trkpt>
      <trkpt lat="43.39843" lon="6.64906">
        <ele>290.5</ele>
        <time>2018-10-14T11:07:14Z</time>
      </trkpt>
      <trkpt lat="43.39836" lon="6.64913">
        <ele>289.100006</ele>
        <time>2018-10-14T11:07:16Z</time>
      </trkpt>
      <trkpt lat="43.39824" lon="6.6492">
        <ele>286.299988</ele>
        <time>2018-10-14T11:07:19Z</time>
      </trkpt>
      <trkpt lat="43.39815" lon="6.64926">
        <ele>284.399994</ele>
        <time>2018-10-14T11:07:21Z</time>
      </trkpt>
      <trkpt lat="43.39808" lon="6.64938">
        <ele>281.899994</ele>
        <time>2018-10-14T11:07:23Z</time>
      </trkpt>
      <trkpt lat="43.39801" lon="6.64947">
        <ele>279.899994</ele>
        <time>2018-10-14T11:07:25Z</time>
      </trkpt>
      <trkpt lat="43.39791" lon="6.64953">
        <ele>278.200012</ele>
        <time>2018-10-14T11:07:27Z</time>
      </trkpt>
      <trkpt lat="43.39781" lon="6.64956">
        <ele>275.700012</ele>
        <time>2018-10-14T11:07:29Z</time>
      </trkpt>
      <trkpt lat="43.39769" lon="6.64957">
        <ele>272.5</ele>
        <time>2018-10-14T11:07:32Z</time>
      </trkpt>
      <trkpt lat="43.39759" lon="6.64958">
        <ele>271.100006</ele>
        <time>2018-10-14T11:07:34Z</time>
      </trkpt>
      <trkpt lat="43.39748" lon="6.64964">
        <ele>269.799988</ele>
        <time>2018-10-14T11:07:36Z</time>
      </trkpt>
      <trkpt lat="43.39738" lon="6.64972">
        <ele>268</ele>
        <time>2018-10-14T11:07:38Z</time>
      </trkpt>
      <trkpt lat="43.39727" lon="6.64982">
        <ele>266.200012</ele>
        <time>2018-10-14T11:07:40Z</time>
      </trkpt>
      <trkpt lat="43.39714" lon="6.64991">
        <ele>264.799988</ele>
        <time>2018-10-14T11:07:42Z</time>
      </trkpt>
      <trkpt lat="43.39701" lon="6.65">
        <ele>263.5</ele>
        <time>2018-10-14T11:07:44Z</time>
      </trkpt>
      <trkpt lat="43.39689" lon="6.65012">
        <ele>262.399994</ele>
        <time>2018-10-14T11:07:46Z</time>
      </trkpt>
      <trkpt lat="43.3968" lon="6.65024">
        <ele>261.399994</ele>
        <time>2018-10-14T11:07:48Z</time>
      </trkpt>
      <trkpt lat="43.39671" lon="6.65033">
        <ele>260.299988</ele>
        <time>2018-10-14T11:07:50Z</time>
      </trkpt>
      <trkpt lat="43.39662" lon="6.65042">
        <ele>259.399994</ele>
        <time>2018-10-14T11:07:52Z</time>
      </trkpt>
      <trkpt lat="43.39655" lon="6.65051">
        <ele>258.399994</ele>
        <time>2018-10-14T11:07:54Z</time>
      </trkpt>
      <trkpt lat="43.39646" lon="6.65058">
        <ele>256.799988</ele>
        <time>2018-10-14T11:07:56Z</time>
      </trkpt>
      <trkpt lat="43.39634" lon="6.65058">
        <ele>255.300003</ele>
        <time>2018-10-14T11:07:59Z</time>
      </trkpt>
      <trkpt lat="43.39624" lon="6.65054">
        <ele>253.399994</ele>
        <time>2018-10-14T11:08:01Z</time>
      </trkpt>
      <trkpt lat="43.39613" lon="6.65052">
        <ele>251.5</ele>
        <time>2018-10-14T11:08:03Z</time>
      </trkpt>
      <trkpt lat="43.39604" lon="6.65052">
        <ele>249.600006</ele>
        <time>2018-10-14T11:08:05Z</time>
      </trkpt>
      <trkpt lat="43.39595" lon="6.65059">
        <ele>247</ele>
        <time>2018-10-14T11:08:08Z</time>
      </trkpt>
      <trkpt lat="43.39587" lon="6.65066">
        <ele>244.600006</ele>
        <time>2018-10-14T11:08:12Z</time>
      </trkpt>
      <trkpt lat="43.39578" lon="6.65067">
        <ele>240.5</ele>
        <time>2018-10-14T11:08:33Z</time>
      </trkpt>
      <trkpt lat="43.3957" lon="6.65073">
        <ele>238.5</ele>
        <time>2018-10-14T11:09:06Z</time>
      </trkpt>
      <trkpt lat="43.39561" lon="6.65075">
        <ele>236.899994</ele>
        <time>2018-10-14T11:11:00Z</time>
      </trkpt>
      <trkpt lat="43.39552" lon="6.65079">
        <ele>235</ele>
        <time>2018-10-14T11:12:13Z</time>
      </trkpt>
      <trkpt lat="43.39547" lon="6.6509">
        <ele>233.600006</ele>
        <time>2018-10-14T11:13:22Z</time>
      </trkpt>
      <trkpt lat="43.39541" lon="6.65101">
        <ele>232.899994</ele>
        <time>2018-10-14T11:14:05Z</time>
      </trkpt>
      <trkpt lat="43.39532" lon="6.65106">
        <ele>232.699997</ele>
        <time>2018-10-14T11:14:08Z</time>
      </trkpt>
      <trkpt lat="43.39521" lon="6.65101">
        <ele>231.699997</ele>
        <time>2018-10-14T11:14:11Z</time>
      </trkpt>
      <trkpt lat="43.39509" lon="6.65091">
        <ele>231.100006</ele>
        <time>2018-10-14T11:14:14Z</time>
      </trkpt>
      <trkpt lat="43.39499" lon="6.65086">
        <ele>229.5</ele>
        <time>2018-10-14T11:14:17Z</time>
      </trkpt>
      <trkpt lat="43.39491" lon="6.65081">
        <ele>226.800003</ele>
        <time>2018-10-14T11:14:21Z</time>
      </trkpt>
      <trkpt lat="43.39482" lon="6.65074">
        <ele>223.5</ele>
        <time>2018-10-14T11:14:27Z</time>
      </trkpt>
      <trkpt lat="43.39474" lon="6.65067">
        <ele>222</ele>
        <time>2018-10-14T11:14:30Z</time>
      </trkpt>
      <trkpt lat="43.39465" lon="6.6507">
        <ele>219.100006</ele>
        <time>2018-10-14T11:14:35Z</time>
      </trkpt>
      <trkpt lat="43.39456" lon="6.65076">
        <ele>217.399994</ele>
        <time>2018-10-14T11:14:44Z</time>
      </trkpt>
      <trkpt lat="43.39447" lon="6.65079">
        <ele>214.899994</ele>
        <time>2018-10-14T11:14:55Z</time>
      </trkpt>
      <trkpt lat="43.39437" lon="6.65083">
        <ele>213</ele>
        <time>2018-10-14T11:15:03Z</time>
      </trkpt>
      <trkpt lat="43.39428" lon="6.65087">
        <ele>211.300003</ele>
        <time>2018-10-14T11:15:10Z</time>
      </trkpt>
      <trkpt lat="43.39419" lon="6.65101">
        <ele>210.100006</ele>
        <time>2018-10-14T11:15:13Z</time>
      </trkpt>
      <trkpt lat="43.39415" lon="6.65113">
        <ele>209</ele>
        <time>2018-10-14T11:15:15Z</time>
      </trkpt>
      <trkpt lat="43.39409" lon="6.65124">
        <ele>207.800003</ele>
        <time>2018-10-14T11:15:17Z</time>
      </trkpt>
      <trkpt lat="43.39404" lon="6.65137">
        <ele>207.600006</ele>
        <time>2018-10-14T11:15:19Z</time>
      </trkpt>
      <trkpt lat="43.39403" lon="6.65151">
        <ele>207.199997</ele>
        <time>2018-10-14T11:15:21Z</time>
      </trkpt>
      <trkpt lat="43.39403" lon="6.65167">
        <ele>206.300003</ele>
        <time>2018-10-14T11:15:24Z</time>
      </trkpt>
      <trkpt lat="43.39392" lon="6.65159">
        <ele>203.899994</ele>
        <time>2018-10-14T11:15:29Z</time>
      </trkpt>
      <trkpt lat="43.39385" lon="6.65145">
        <ele>203.300003</ele>
        <time>2018-10-14T11:15:32Z</time>
      </trkpt>
      <trkpt lat="43.39372" lon="6.65145">
        <ele>203.5</ele>
        <time>2018-10-14T11:15:35Z</time>
      </trkpt>
      <trkpt lat="43.39366" lon="6.65153">
        <ele>203.399994</ele>
        <time>2018-10-14T11:15:37Z</time>
      </trkpt>
      <trkpt lat="43.39354" lon="6.65162">
        <ele>203.100006</ele>
        <time>2018-10-14T11:15:40Z</time>
      </trkpt>
      <trkpt lat="43.39346" lon="6.65174">
        <ele>202.800003</ele>
        <time>2018-10-14T11:15:42Z</time>
      </trkpt>
      <trkpt lat="43.39339" lon="6.65188">
        <ele>202.899994</ele>
        <time>2018-10-14T11:15:44Z</time>
      </trkpt>
      <trkpt lat="43.39332" lon="6.65203">
        <ele>202</ele>
        <time>2018-10-14T11:15:46Z</time>
      </trkpt>
      <trkpt lat="43.39327" lon="6.65216">
        <ele>200.699997</ele>
        <time>2018-10-14T11:15:48Z</time>
      </trkpt>
      <trkpt lat="43.39321" lon="6.65227">
        <ele>198.800003</ele>
        <time>2018-10-14T11:15:52Z</time>
      </trkpt>
      <trkpt lat="43.39313" lon="6.65236">
        <ele>197.399994</ele>
        <time>2018-10-14T11:17:59Z</time>
      </trkpt>
      <trkpt lat="43.39303" lon="6.65246">
        <ele>196.800003</ele>
        <time>2018-10-14T11:18:02Z</time>
      </trkpt>
      <trkpt lat="43.39299" lon="6.65259">
        <ele>195.600006</ele>
        <time>2018-10-14T11:18:04Z</time>
      </trkpt>
      <trkpt lat="43.39298" lon="6.65272">
        <ele>194.5</ele>
        <time>2018-10-14T11:18:06Z</time>
      </trkpt>
      <trkpt lat="43.39299" lon="6.65285">
        <ele>192.800003</ele>
        <time>2018-10-14T11:18:08Z</time>
      </trkpt>
      <trkpt lat="43.393" lon="6.65299">
        <ele>190.100006</ele>
        <time>2018-10-14T11:18:10Z</time>
      </trkpt>
      <trkpt lat="43.39295" lon="6.65314">
        <ele>187.699997</ele>
        <time>2018-10-14T11:18:12Z</time>
      </trkpt>
      <trkpt lat="43.39289" lon="6.65331">
        <ele>184.899994</ele>
        <time>2018-10-14T11:18:14Z</time>
      </trkpt>
      <trkpt lat="43.39283" lon="6.65352">
        <ele>181.5</ele>
        <time>2018-10-14T11:18:16Z</time>
      </trkpt>
      <trkpt lat="43.39276" lon="6.65369">
        <ele>179.100006</ele>
        <time>2018-10-14T11:18:18Z</time>
      </trkpt>
      <trkpt lat="43.39267" lon="6.65383">
        <ele>176.699997</ele>
        <time>2018-10-14T11:18:20Z</time>
      </trkpt>
      <trkpt lat="43.39262" lon="6.65399">
        <ele>174.300003</ele>
        <time>2018-10-14T11:18:22Z</time>
      </trkpt>
      <trkpt lat="43.39256" lon="6.65413">
        <ele>172.699997</ele>
        <time>2018-10-14T11:18:24Z</time>
      </trkpt>
      <trkpt lat="43.39251" lon="6.6543">
        <ele>171.300003</ele>
        <time>2018-10-14T11:18:26Z</time>
      </trkpt>
      <trkpt lat="43.39245" lon="6.65444">
        <ele>170.199997</ele>
        <time>2018-10-14T11:18:28Z</time>
      </trkpt>
      <trkpt lat="43.39236" lon="6.65452">
        <ele>168.5</ele>
        <time>2018-10-14T11:18:30Z</time>
      </trkpt>
      <trkpt lat="43.39226" lon="6.6546">
        <ele>167.5</ele>
        <time>2018-10-14T11:18:32Z</time>
      </trkpt>
      <trkpt lat="43.39218" lon="6.65469">
        <ele>166.699997</ele>
        <time>2018-10-14T11:18:34Z</time>
      </trkpt>
      <trkpt lat="43.39211" lon="6.65477">
        <ele>166.300003</ele>
        <time>2018-10-14T11:18:36Z</time>
      </trkpt>
      <trkpt lat="43.39204" lon="6.65486">
        <ele>165.199997</ele>
        <time>2018-10-14T11:18:38Z</time>
      </trkpt>
      <trkpt lat="43.39194" lon="6.65494">
        <ele>165.199997</ele>
        <time>2018-10-14T11:18:41Z</time>
      </trkpt>
      <trkpt lat="43.39184" lon="6.65502">
        <ele>165.800003</ele>
        <time>2018-10-14T11:18:44Z</time>
      </trkpt>
      <trkpt lat="43.39176" lon="6.65512">
        <ele>166.899994</ele>
        <time>2018-10-14T11:18:48Z</time>
      </trkpt>
      <trkpt lat="43.39169" lon="6.65521">
        <ele>168.5</ele>
        <time>2018-10-14T11:18:52Z</time>
      </trkpt>
      <trkpt lat="43.39162" lon="6.65529">
        <ele>169.800003</ele>
        <time>2018-10-14T11:18:57Z</time>
      </trkpt>
      <trkpt lat="43.39152" lon="6.65537">
        <ele>172.199997</ele>
        <time>2018-10-14T11:19:03Z</time>
      </trkpt>
      <trkpt lat="43.39154" lon="6.65551">
        <ele>173.100006</ele>
        <time>2018-10-14T11:19:08Z</time>
      </trkpt>
      <trkpt lat="43.39158" lon="6.65562">
        <ele>174.5</ele>
        <time>2018-10-14T11:19:12Z</time>
      </trkpt>
      <trkpt lat="43.39162" lon="6.65576">
        <ele>175.199997</ele>
        <time>2018-10-14T11:19:16Z</time>
      </trkpt>
      <trkpt lat="43.39165" lon="6.65591">
        <ele>176.100006</ele>
        <time>2018-10-14T11:19:20Z</time>
      </trkpt>
      <trkpt lat="43.39164" lon="6.65604">
        <ele>176.5</ele>
        <time>2018-10-14T11:19:24Z</time>
      </trkpt>
      <trkpt lat="43.39162" lon="6.65617">
        <ele>177.5</ele>
        <time>2018-10-14T11:19:28Z</time>
      </trkpt>
      <trkpt lat="43.39157" lon="6.65631">
        <ele>178.699997</ele>
        <time>2018-10-14T11:19:32Z</time>
      </trkpt>
      <trkpt lat="43.39155" lon="6.65646">
        <ele>178.699997</ele>
        <time>2018-10-14T11:19:36Z</time>
      </trkpt>
      <trkpt lat="43.39153" lon="6.65658">
        <ele>179</ele>
        <time>2018-10-14T11:19:39Z</time>
      </trkpt>
      <trkpt lat="43.39148" lon="6.65673">
        <ele>179.300003</ele>
        <time>2018-10-14T11:19:42Z</time>
      </trkpt>
      <trkpt lat="43.39147" lon="6.65688">
        <ele>179.199997</ele>
        <time>2018-10-14T11:19:45Z</time>
      </trkpt>
      <trkpt lat="43.39135" lon="6.65696">
        <ele>177.899994</ele>
        <time>2018-10-14T11:19:48Z</time>
      </trkpt>
      <trkpt lat="43.39124" lon="6.65697">
        <ele>177.100006</ele>
        <time>2018-10-14T11:19:50Z</time>
      </trkpt>
      <trkpt lat="43.39113" lon="6.65699">
        <ele>175.600006</ele>
        <time>2018-10-14T11:19:52Z</time>
      </trkpt>
      <trkpt lat="43.39099" lon="6.65701">
        <ele>174.199997</ele>
        <time>2018-10-14T11:19:55Z</time>
      </trkpt>
      <trkpt lat="43.39089" lon="6.65703">
        <ele>173.699997</ele>
        <time>2018-10-14T11:19:57Z</time>
      </trkpt>
      <trkpt lat="43.39075" lon="6.65705">
        <ele>173</ele>
        <time>2018-10-14T11:19:59Z</time>
      </trkpt>
      <trkpt lat="43.39065" lon="6.65707">
        <ele>171.600006</ele>
        <time>2018-10-14T11:20:01Z</time>
      </trkpt>
      <trkpt lat="43.39052" lon="6.65707">
        <ele>169.300003</ele>
        <time>2018-10-14T11:20:03Z</time>
      </trkpt>
      <trkpt lat="43.39038" lon="6.65709">
        <ele>166.899994</ele>
        <time>2018-10-14T11:20:05Z</time>
      </trkpt>
      <trkpt lat="43.39026" lon="6.65709">
        <ele>165.699997</ele>
        <time>2018-10-14T11:20:07Z</time>
      </trkpt>
      <trkpt lat="43.39016" lon="6.65706">
        <ele>164.300003</ele>
        <time>2018-10-14T11:20:09Z</time>
      </trkpt>
      <trkpt lat="43.39004" lon="6.65705">
        <ele>163.300003</ele>
        <time>2018-10-14T11:20:11Z</time>
      </trkpt>
      <trkpt lat="43.38992" lon="6.65703">
        <ele>161.300003</ele>
        <time>2018-10-14T11:20:13Z</time>
      </trkpt>
      <trkpt lat="43.38979" lon="6.65701">
        <ele>158.699997</ele>
        <time>2018-10-14T11:20:15Z</time>
      </trkpt>
      <trkpt lat="43.38968" lon="6.657">
        <ele>156.800003</ele>
        <time>2018-10-14T11:20:17Z</time>
      </trkpt>
      <trkpt lat="43.38957" lon="6.65698">
        <ele>155.199997</ele>
        <time>2018-10-14T11:20:19Z</time>
      </trkpt>
      <trkpt lat="43.38945" lon="6.65697">
        <ele>153.5</ele>
        <time>2018-10-14T11:20:21Z</time>
      </trkpt>
      <trkpt lat="43.38934" lon="6.65695">
        <ele>152</ele>
        <time>2018-10-14T11:20:23Z</time>
      </trkpt>
      <trkpt lat="43.38924" lon="6.65688">
        <ele>150.300003</ele>
        <time>2018-10-14T11:20:25Z</time>
      </trkpt>
      <trkpt lat="43.38913" lon="6.65682">
        <ele>148.399994</ele>
        <time>2018-10-14T11:20:27Z</time>
      </trkpt>
      <trkpt lat="43.38901" lon="6.65682">
        <ele>146.699997</ele>
        <time>2018-10-14T11:20:29Z</time>
      </trkpt>
      <trkpt lat="43.38889" lon="6.65679">
        <ele>144.699997</ele>
        <time>2018-10-14T11:20:31Z</time>
      </trkpt>
      <trkpt lat="43.38879" lon="6.65676">
        <ele>142.800003</ele>
        <time>2018-10-14T11:20:33Z</time>
      </trkpt>
      <trkpt lat="43.38869" lon="6.65674">
        <ele>141.5</ele>
        <time>2018-10-14T11:20:35Z</time>
      </trkpt>
      <trkpt lat="43.38855" lon="6.65671">
        <ele>139.300003</ele>
        <time>2018-10-14T11:20:37Z</time>
      </trkpt>
      <trkpt lat="43.3884" lon="6.65667">
        <ele>137.899994</ele>
        <time>2018-10-14T11:20:39Z</time>
      </trkpt>
      <trkpt lat="43.38825" lon="6.65662">
        <ele>136.600006</ele>
        <time>2018-10-14T11:20:41Z</time>
      </trkpt>
      <trkpt lat="43.38812" lon="6.65661">
        <ele>135.600006</ele>
        <time>2018-10-14T11:20:43Z</time>
      </trkpt>
      <trkpt lat="43.388" lon="6.65669">
        <ele>134.699997</ele>
        <time>2018-10-14T11:20:45Z</time>
      </trkpt>
      <trkpt lat="43.38789" lon="6.65678">
        <ele>133.800003</ele>
        <time>2018-10-14T11:20:47Z</time>
      </trkpt>
      <trkpt lat="43.38776" lon="6.65681">
        <ele>132.600006</ele>
        <time>2018-10-14T11:20:49Z</time>
      </trkpt>
      <trkpt lat="43.38764" lon="6.65683">
        <ele>132.100006</ele>
        <time>2018-10-14T11:20:51Z</time>
      </trkpt>
      <trkpt lat="43.38753" lon="6.65683">
        <ele>131.199997</ele>
        <time>2018-10-14T11:20:53Z</time>
      </trkpt>
      <trkpt lat="43.38741" lon="6.65683">
        <ele>130.100006</ele>
        <time>2018-10-14T11:20:55Z</time>
      </trkpt>
      <trkpt lat="43.38727" lon="6.65689">
        <ele>129.100006</ele>
        <time>2018-10-14T11:20:57Z</time>
      </trkpt>
      <trkpt lat="43.38715" lon="6.65701">
        <ele>128.5</ele>
        <time>2018-10-14T11:20:59Z</time>
      </trkpt>
      <trkpt lat="43.38704" lon="6.6571">
        <ele>128.100006</ele>
        <time>2018-10-14T11:21:01Z</time>
      </trkpt>
      <trkpt lat="43.38694" lon="6.6572">
        <ele>128.899994</ele>
        <time>2018-10-14T11:21:04Z</time>
      </trkpt>
      <trkpt lat="43.38686" lon="6.65731">
        <ele>129.399994</ele>
        <time>2018-10-14T11:21:07Z</time>
      </trkpt>
      <trkpt lat="43.38679" lon="6.65746">
        <ele>129.5</ele>
        <time>2018-10-14T11:21:10Z</time>
      </trkpt>
      <trkpt lat="43.38677" lon="6.6576">
        <ele>129.600006</ele>
        <time>2018-10-14T11:21:12Z</time>
      </trkpt>
      <trkpt lat="43.38674" lon="6.65776">
        <ele>129.600006</ele>
        <time>2018-10-14T11:21:14Z</time>
      </trkpt>
      <trkpt lat="43.38672" lon="6.65793">
        <ele>129.600006</ele>
        <time>2018-10-14T11:21:16Z</time>
      </trkpt>
      <trkpt lat="43.38671" lon="6.65811">
        <ele>128.699997</ele>
        <time>2018-10-14T11:21:18Z</time>
      </trkpt>
      <trkpt lat="43.38668" lon="6.65829">
        <ele>128</ele>
        <time>2018-10-14T11:21:20Z</time>
      </trkpt>
      <trkpt lat="43.38665" lon="6.65848">
        <ele>127.099998</ele>
        <time>2018-10-14T11:21:22Z</time>
      </trkpt>
      <trkpt lat="43.38662" lon="6.65868">
        <ele>125.400002</ele>
        <time>2018-10-14T11:21:24Z</time>
      </trkpt>
      <trkpt lat="43.38658" lon="6.65889">
        <ele>123.5</ele>
        <time>2018-10-14T11:21:26Z</time>
      </trkpt>
      <trkpt lat="43.38655" lon="6.65909">
        <ele>121.599998</ele>
        <time>2018-10-14T11:21:28Z</time>
      </trkpt>
      <trkpt lat="43.38654" lon="6.6593">
        <ele>120</ele>
        <time>2018-10-14T11:21:30Z</time>
      </trkpt>
      <trkpt lat="43.38651" lon="6.65948">
        <ele>118.599998</ele>
        <time>2018-10-14T11:21:32Z</time>
      </trkpt>
      <trkpt lat="43.3865" lon="6.65966">
        <ele>116.599998</ele>
        <time>2018-10-14T11:21:34Z</time>
      </trkpt>
      <trkpt lat="43.38644" lon="6.6598">
        <ele>114.900002</ele>
        <time>2018-10-14T11:21:36Z</time>
      </trkpt>
      <trkpt lat="43.38633" lon="6.65986">
        <ele>113</ele>
        <time>2018-10-14T11:21:39Z</time>
      </trkpt>
      <trkpt lat="43.38623" lon="6.6599">
        <ele>110.400002</ele>
        <time>2018-10-14T11:21:43Z</time>
      </trkpt>
      <trkpt lat="43.38614" lon="6.6599">
        <ele>108.800003</ele>
        <time>2018-10-14T11:21:47Z</time>
      </trkpt>
      <trkpt lat="43.38603" lon="6.6599">
        <ele>107.400002</ele>
        <time>2018-10-14T11:21:50Z</time>
      </trkpt>
      <trkpt lat="43.38594" lon="6.65994">
        <ele>106.099998</ele>
        <time>2018-10-14T11:21:53Z</time>
      </trkpt>
      <trkpt lat="43.38587" lon="6.66003">
        <ele>104.5</ele>
        <time>2018-10-14T11:21:56Z</time>
      </trkpt>
      <trkpt lat="43.38583" lon="6.66014">
        <ele>100.699997</ele>
        <time>2018-10-14T11:22:02Z</time>
      </trkpt>
      <trkpt lat="43.38581" lon="6.66029">
        <ele>98.699997</ele>
        <time>2018-10-14T11:22:06Z</time>
      </trkpt>
      <trkpt lat="43.38579" lon="6.66042">
        <ele>97.099998</ele>
        <time>2018-10-14T11:22:10Z</time>
      </trkpt>
      <trkpt lat="43.38569" lon="6.66044">
        <ele>95.099998</ele>
        <time>2018-10-14T11:22:14Z</time>
      </trkpt>
      <trkpt lat="43.38561" lon="6.66036">
        <ele>93.5</ele>
        <time>2018-10-14T11:22:17Z</time>
      </trkpt>
      <trkpt lat="43.38554" lon="6.66028">
        <ele>93.199997</ele>
        <time>2018-10-14T11:22:20Z</time>
      </trkpt>
      <trkpt lat="43.38545" lon="6.6602">
        <ele>93.599998</ele>
        <time>2018-10-14T11:22:23Z</time>
      </trkpt>
      <trkpt lat="43.38534" lon="6.66009">
        <ele>93.800003</ele>
        <time>2018-10-14T11:22:26Z</time>
      </trkpt>
      <trkpt lat="43.38526" lon="6.66">
        <ele>94</ele>
        <time>2018-10-14T11:22:28Z</time>
      </trkpt>
      <trkpt lat="43.38518" lon="6.65991">
        <ele>93.699997</ele>
        <time>2018-10-14T11:22:30Z</time>
      </trkpt>
      <trkpt lat="43.38508" lon="6.6598">
        <ele>93.099998</ele>
        <time>2018-10-14T11:22:32Z</time>
      </trkpt>
      <trkpt lat="43.38499" lon="6.65967">
        <ele>93.099998</ele>
        <time>2018-10-14T11:22:34Z</time>
      </trkpt>
      <trkpt lat="43.38493" lon="6.65949">
        <ele>92.599998</ele>
        <time>2018-10-14T11:22:36Z</time>
      </trkpt>
      <trkpt lat="43.3849" lon="6.6593">
        <ele>92.300003</ele>
        <time>2018-10-14T11:22:38Z</time>
      </trkpt>
      <trkpt lat="43.38487" lon="6.6591">
        <ele>91.5</ele>
        <time>2018-10-14T11:22:40Z</time>
      </trkpt>
      <trkpt lat="43.38485" lon="6.65892">
        <ele>91.300003</ele>
        <time>2018-10-14T11:22:42Z</time>
      </trkpt>
      <trkpt lat="43.38487" lon="6.65875">
        <ele>91</ele>
        <time>2018-10-14T11:22:44Z</time>
      </trkpt>
      <trkpt lat="43.38495" lon="6.65862">
        <ele>90.5</ele>
        <time>2018-10-14T11:22:46Z</time>
      </trkpt>
      <trkpt lat="43.38506" lon="6.65855">
        <ele>89.699997</ele>
        <time>2018-10-14T11:22:48Z</time>
      </trkpt>
      <trkpt lat="43.38515" lon="6.65847">
        <ele>89.300003</ele>
        <time>2018-10-14T11:22:50Z</time>
      </trkpt>
      <trkpt lat="43.38516" lon="6.65834">
        <ele>88.5</ele>
        <time>2018-10-14T11:22:52Z</time>
      </trkpt>
      <trkpt lat="43.38506" lon="6.65824">
        <ele>87.900002</ele>
        <time>2018-10-14T11:22:55Z</time>
      </trkpt>
      <trkpt lat="43.38497" lon="6.65822">
        <ele>87.300003</ele>
        <time>2018-10-14T11:22:57Z</time>
      </trkpt>
      <trkpt lat="43.38488" lon="6.6582">
        <ele>86.800003</ele>
        <time>2018-10-14T11:22:59Z</time>
      </trkpt>
      <trkpt lat="43.38479" lon="6.65816">
        <ele>87.199997</ele>
        <time>2018-10-14T11:23:01Z</time>
      </trkpt>
      <trkpt lat="43.3847" lon="6.65814">
        <ele>87.5</ele>
        <time>2018-10-14T11:23:03Z</time>
      </trkpt>
      <trkpt lat="43.38459" lon="6.65814">
        <ele>87.699997</ele>
        <time>2018-10-14T11:23:05Z</time>
      </trkpt>
      <trkpt lat="43.38449" lon="6.65813">
        <ele>87.5</ele>
        <time>2018-10-14T11:23:07Z</time>
      </trkpt>
      <trkpt lat="43.3844" lon="6.65802">
        <ele>87.199997</ele>
        <time>2018-10-14T11:23:10Z</time>
      </trkpt>
      <trkpt lat="43.38441" lon="6.65787">
        <ele>86.099998</ele>
        <time>2018-10-14T11:23:12Z</time>
      </trkpt>
      <trkpt lat="43.38442" lon="6.6577">
        <ele>85.800003</ele>
        <time>2018-10-14T11:23:14Z</time>
      </trkpt>
      <trkpt lat="43.38441" lon="6.65753">
        <ele>85.900002</ele>
        <time>2018-10-14T11:23:16Z</time>
      </trkpt>
      <trkpt lat="43.38445" lon="6.65737">
        <ele>85</ele>
        <time>2018-10-14T11:23:18Z</time>
      </trkpt>
      <trkpt lat="43.38454" lon="6.65723">
        <ele>84</ele>
        <time>2018-10-14T11:23:20Z</time>
      </trkpt>
      <trkpt lat="43.38462" lon="6.6571">
        <ele>84</ele>
        <time>2018-10-14T11:23:22Z</time>
      </trkpt>
      <trkpt lat="43.38472" lon="6.65697">
        <ele>83.599998</ele>
        <time>2018-10-14T11:23:24Z</time>
      </trkpt>
      <trkpt lat="43.3848" lon="6.65682">
        <ele>83.699997</ele>
        <time>2018-10-14T11:23:26Z</time>
      </trkpt>
      <trkpt lat="43.38486" lon="6.65666">
        <ele>83.400002</ele>
        <time>2018-10-14T11:23:28Z</time>
      </trkpt>
      <trkpt lat="43.3849" lon="6.65648">
        <ele>83</ele>
        <time>2018-10-14T11:23:30Z</time>
      </trkpt>
      <trkpt lat="43.38493" lon="6.65629">
        <ele>82.800003</ele>
        <time>2018-10-14T11:23:32Z</time>
      </trkpt>
      <trkpt lat="43.38494" lon="6.65609">
        <ele>82.5</ele>
        <time>2018-10-14T11:23:34Z</time>
      </trkpt>
      <trkpt lat="43.38493" lon="6.65589">
        <ele>82.199997</ele>
        <time>2018-10-14T11:23:36Z</time>
      </trkpt>
      <trkpt lat="43.38495" lon="6.6557">
        <ele>81.400002</ele>
        <time>2018-10-14T11:23:38Z</time>
      </trkpt>
      <trkpt lat="43.385" lon="6.65552">
        <ele>81.199997</ele>
        <time>2018-10-14T11:23:40Z</time>
      </trkpt>
      <trkpt lat="43.38507" lon="6.65538">
        <ele>80.099998</ele>
        <time>2018-10-14T11:23:42Z</time>
      </trkpt>
      <trkpt lat="43.38517" lon="6.65528">
        <ele>79.5</ele>
        <time>2018-10-14T11:23:45Z</time>
      </trkpt>
      <trkpt lat="43.38515" lon="6.65515">
        <ele>79</ele>
        <time>2018-10-14T11:23:49Z</time>
      </trkpt>
      <trkpt lat="43.38505" lon="6.65516">
        <ele>78.599998</ele>
        <time>2018-10-14T11:23:52Z</time>
      </trkpt>
      <trkpt lat="43.38495" lon="6.65518">
        <ele>78.599998</ele>
        <time>2018-10-14T11:23:55Z</time>
      </trkpt>
      <trkpt lat="43.38486" lon="6.65517">
        <ele>79.400002</ele>
        <time>2018-10-14T11:23:58Z</time>
      </trkpt>
      <trkpt lat="43.38477" lon="6.65518">
        <ele>80</ele>
        <time>2018-10-14T11:24:01Z</time>
      </trkpt>
      <trkpt lat="43.38468" lon="6.65517">
        <ele>80.099998</ele>
        <time>2018-10-14T11:24:04Z</time>
      </trkpt>
      <trkpt lat="43.38462" lon="6.65504">
        <ele>80.800003</ele>
        <time>2018-10-14T11:24:08Z</time>
      </trkpt>
      <trkpt lat="43.38468" lon="6.65493">
        <ele>82.300003</ele>
        <time>2018-10-14T11:24:12Z</time>
      </trkpt>
      <trkpt lat="43.38476" lon="6.65486">
        <ele>83</ele>
        <time>2018-10-14T11:24:16Z</time>
      </trkpt>
      <trkpt lat="43.38484" lon="6.65476">
        <ele>84</ele>
        <time>2018-10-14T11:24:21Z</time>
      </trkpt>
      <trkpt lat="43.38491" lon="6.65468">
        <ele>85.199997</ele>
        <time>2018-10-14T11:24:25Z</time>
      </trkpt>
      <trkpt lat="43.385" lon="6.65458">
        <ele>85.199997</ele>
        <time>2018-10-14T11:24:30Z</time>
      </trkpt>
      <trkpt lat="43.38507" lon="6.65451">
        <ele>85.300003</ele>
        <time>2018-10-14T11:24:34Z</time>
      </trkpt>
      <trkpt lat="43.38515" lon="6.65441">
        <ele>86.099998</ele>
        <time>2018-10-14T11:24:37Z</time>
      </trkpt>
      <trkpt lat="43.38521" lon="6.65425">
        <ele>85.800003</ele>
        <time>2018-10-14T11:24:40Z</time>
      </trkpt>
      <trkpt lat="43.38519" lon="6.65409">
        <ele>86.300003</ele>
        <time>2018-10-14T11:24:43Z</time>
      </trkpt>
      <trkpt lat="43.38512" lon="6.65399">
        <ele>86.099998</ele>
        <time>2018-10-14T11:24:46Z</time>
      </trkpt>
      <trkpt lat="43.385" lon="6.65389">
        <ele>86.199997</ele>
        <time>2018-10-14T11:24:49Z</time>
      </trkpt>
      <trkpt lat="43.38489" lon="6.6538">
        <ele>86</ele>
        <time>2018-10-14T11:24:52Z</time>
      </trkpt>
      <trkpt lat="43.38481" lon="6.65372">
        <ele>85.800003</ele>
        <time>2018-10-14T11:24:54Z</time>
      </trkpt>
      <trkpt lat="43.38473" lon="6.6536">
        <ele>85.300003</ele>
        <time>2018-10-14T11:24:56Z</time>
      </trkpt>
      <trkpt lat="43.38467" lon="6.65344">
        <ele>84.800003</ele>
        <time>2018-10-14T11:24:58Z</time>
      </trkpt>
      <trkpt lat="43.38461" lon="6.65326">
        <ele>84.599998</ele>
        <time>2018-10-14T11:25:00Z</time>
      </trkpt>
      <trkpt lat="43.38455" lon="6.65309">
        <ele>84.199997</ele>
        <time>2018-10-14T11:25:02Z</time>
      </trkpt>
      <trkpt lat="43.38451" lon="6.65289">
        <ele>83.900002</ele>
        <time>2018-10-14T11:25:04Z</time>
      </trkpt>
      <trkpt lat="43.38446" lon="6.6527">
        <ele>83.400002</ele>
        <time>2018-10-14T11:25:06Z</time>
      </trkpt>
      <trkpt lat="43.38438" lon="6.65254">
        <ele>83.099998</ele>
        <time>2018-10-14T11:25:08Z</time>
      </trkpt>
      <trkpt lat="43.38433" lon="6.65239">
        <ele>83.400002</ele>
        <time>2018-10-14T11:25:10Z</time>
      </trkpt>
      <trkpt lat="43.38431" lon="6.65224">
        <ele>83.900002</ele>
        <time>2018-10-14T11:25:12Z</time>
      </trkpt>
      <trkpt lat="43.3843" lon="6.65206">
        <ele>84</ele>
        <time>2018-10-14T11:25:14Z</time>
      </trkpt>
      <trkpt lat="43.38428" lon="6.65188">
        <ele>83</ele>
        <time>2018-10-14T11:25:16Z</time>
      </trkpt>
      <trkpt lat="43.38425" lon="6.6517">
        <ele>82.900002</ele>
        <time>2018-10-14T11:25:18Z</time>
      </trkpt>
      <trkpt lat="43.38421" lon="6.65151">
        <ele>83.099998</ele>
        <time>2018-10-14T11:25:20Z</time>
      </trkpt>
      <trkpt lat="43.3842" lon="6.65133">
        <ele>82.5</ele>
        <time>2018-10-14T11:25:22Z</time>
      </trkpt>
      <trkpt lat="43.3842" lon="6.65111">
        <ele>81.800003</ele>
        <time>2018-10-14T11:25:24Z</time>
      </trkpt>
      <trkpt lat="43.38419" lon="6.65088">
        <ele>81.300003</ele>
        <time>2018-10-14T11:25:26Z</time>
      </trkpt>
      <trkpt lat="43.38413" lon="6.65072">
        <ele>79.900002</ele>
        <time>2018-10-14T11:25:28Z</time>
      </trkpt>
      <trkpt lat="43.38406" lon="6.65062">
        <ele>78.599998</ele>
        <time>2018-10-14T11:25:30Z</time>
      </trkpt>
      <trkpt lat="43.38403" lon="6.65048">
        <ele>78.300003</ele>
        <time>2018-10-14T11:25:32Z</time>
      </trkpt>
      <trkpt lat="43.38401" lon="6.65034">
        <ele>77.900002</ele>
        <time>2018-10-14T11:25:34Z</time>
      </trkpt>
      <trkpt lat="43.38394" lon="6.65021">
        <ele>77.5</ele>
        <time>2018-10-14T11:25:36Z</time>
      </trkpt>
      <trkpt lat="43.38387" lon="6.65009">
        <ele>77.199997</ele>
        <time>2018-10-14T11:25:38Z</time>
      </trkpt>
      <trkpt lat="43.3838" lon="6.64997">
        <ele>77</ele>
        <time>2018-10-14T11:25:40Z</time>
      </trkpt>
      <trkpt lat="43.38372" lon="6.64987">
        <ele>76.599998</ele>
        <time>2018-10-14T11:25:42Z</time>
      </trkpt>
      <trkpt lat="43.38365" lon="6.64974">
        <ele>76.599998</ele>
        <time>2018-10-14T11:25:44Z</time>
      </trkpt>
      <trkpt lat="43.3836" lon="6.64956">
        <ele>76.300003</ele>
        <time>2018-10-14T11:25:46Z</time>
      </trkpt>
      <trkpt lat="43.38357" lon="6.64935">
        <ele>74.5</ele>
        <time>2018-10-14T11:25:48Z</time>
      </trkpt>
      <trkpt lat="43.38351" lon="6.64922">
        <ele>74.5</ele>
        <time>2018-10-14T11:25:50Z</time>
      </trkpt>
      <trkpt lat="43.38342" lon="6.64916">
        <ele>73.5</ele>
        <time>2018-10-14T11:25:53Z</time>
      </trkpt>
      <trkpt lat="43.38334" lon="6.64909">
        <ele>72</ele>
        <time>2018-10-14T11:25:58Z</time>
      </trkpt>
      <trkpt lat="43.38326" lon="6.64915">
        <ele>71.599998</ele>
        <time>2018-10-14T11:26:40Z</time>
      </trkpt>
      <trkpt lat="43.38322" lon="6.64903">
        <ele>72.199997</ele>
        <time>2018-10-14T11:28:36Z</time>
      </trkpt>
      <trkpt lat="43.38319" lon="6.64892">
        <ele>72.599998</ele>
        <time>2018-10-14T11:29:29Z</time>
      </trkpt>
      <trkpt lat="43.38318" lon="6.64879">
        <ele>73.400002</ele>
        <time>2018-10-14T11:30:11Z</time>
      </trkpt>
      <trkpt lat="43.38315" lon="6.64867">
        <ele>74.099998</ele>
        <time>2018-10-14T11:31:01Z</time>
      </trkpt>
      <trkpt lat="43.38314" lon="6.64855">
        <ele>73.199997</ele>
        <time>2018-10-14T11:31:26Z</time>
      </trkpt>
      <trkpt lat="43.38311" lon="6.64841">
        <ele>73.099998</ele>
        <time>2018-10-14T11:31:56Z</time>
      </trkpt>
      <trkpt lat="43.38308" lon="6.64827">
        <ele>72.800003</ele>
        <time>2018-10-14T11:32:03Z</time>
      </trkpt>
      <trkpt lat="43.3831" lon="6.64813">
        <ele>72</ele>
        <time>2018-10-14T11:32:09Z</time>
      </trkpt>
      <trkpt lat="43.383" lon="6.6481">
        <ele>73.5</ele>
        <time>2018-10-14T11:32:20Z</time>
      </trkpt>
      <trkpt lat="43.38291" lon="6.64805">
        <ele>74.300003</ele>
        <time>2018-10-14T11:32:38Z</time>
      </trkpt>
      <trkpt lat="43.38283" lon="6.64798">
        <ele>76.199997</ele>
        <time>2018-10-14T11:32:56Z</time>
      </trkpt>
      <trkpt lat="43.38276" lon="6.64789">
        <ele>76.699997</ele>
        <time>2018-10-14T11:33:04Z</time>
      </trkpt>
      <trkpt lat="43.38268" lon="6.64782">
        <ele>78.300003</ele>
        <time>2018-10-14T11:33:15Z</time>
      </trkpt>
      <trkpt lat="43.38257" lon="6.64776">
        <ele>78</ele>
        <time>2018-10-14T11:33:20Z</time>
      </trkpt>
      <trkpt lat="43.38248" lon="6.64772">
        <ele>77.900002</ele>
        <time>2018-10-14T11:33:27Z</time>
      </trkpt>
      <trkpt lat="43.38239" lon="6.64769">
        <ele>78.199997</ele>
        <time>2018-10-14T11:33:34Z</time>
      </trkpt>
      <trkpt lat="43.3823" lon="6.64767">
        <ele>77.599998</ele>
        <time>2018-10-14T11:33:47Z</time>
      </trkpt>
      <trkpt lat="43.38221" lon="6.64768">
        <ele>78.400002</ele>
        <time>2018-10-14T11:33:58Z</time>
      </trkpt>
      <trkpt lat="43.38211" lon="6.64767">
        <ele>80.199997</ele>
        <time>2018-10-14T11:34:06Z</time>
      </trkpt>
      <trkpt lat="43.38202" lon="6.64765">
        <ele>81.5</ele>
        <time>2018-10-14T11:34:14Z</time>
      </trkpt>
      <trkpt lat="43.38193" lon="6.64766">
        <ele>82.400002</ele>
        <time>2018-10-14T11:34:23Z</time>
      </trkpt>
      <trkpt lat="43.38184" lon="6.64766">
        <ele>83.699997</ele>
        <time>2018-10-14T11:34:40Z</time>
      </trkpt>
      <trkpt lat="43.38174" lon="6.64764">
        <ele>85.199997</ele>
        <time>2018-10-14T11:34:55Z</time>
      </trkpt>
      <trkpt lat="43.38165" lon="6.64763">
        <ele>87.300003</ele>
        <time>2018-10-14T11:35:07Z</time>
      </trkpt>
      <trkpt lat="43.38157" lon="6.64755">
        <ele>88.599998</ele>
        <time>2018-10-14T11:35:16Z</time>
      </trkpt>
      <trkpt lat="43.38148" lon="6.64751">
        <ele>89.099998</ele>
        <time>2018-10-14T11:35:23Z</time>
      </trkpt>
      <trkpt lat="43.38139" lon="6.64751">
        <ele>89.599998</ele>
        <time>2018-10-14T11:35:32Z</time>
      </trkpt>
      <trkpt lat="43.38129" lon="6.64751">
        <ele>91.400002</ele>
        <time>2018-10-14T11:35:46Z</time>
      </trkpt>
      <trkpt lat="43.38119" lon="6.64754">
        <ele>92.699997</ele>
        <time>2018-10-14T11:35:55Z</time>
      </trkpt>
      <trkpt lat="43.3811" lon="6.64754">
        <ele>93</ele>
        <time>2018-10-14T11:36:01Z</time>
      </trkpt>
      <trkpt lat="43.38101" lon="6.6475">
        <ele>93.800003</ele>
        <time>2018-10-14T11:36:07Z</time>
      </trkpt>
      <trkpt lat="43.38094" lon="6.6474">
        <ele>93.800003</ele>
        <time>2018-10-14T11:36:12Z</time>
      </trkpt>
      <trkpt lat="43.38088" lon="6.6473">
        <ele>94.5</ele>
        <time>2018-10-14T11:36:15Z</time>
      </trkpt>
      <trkpt lat="43.38083" lon="6.64718">
        <ele>94.300003</ele>
        <time>2018-10-14T11:36:18Z</time>
      </trkpt>
      <trkpt lat="43.38082" lon="6.64703">
        <ele>94.099998</ele>
        <time>2018-10-14T11:36:21Z</time>
      </trkpt>
      <trkpt lat="43.38084" lon="6.64689">
        <ele>94</ele>
        <time>2018-10-14T11:36:24Z</time>
      </trkpt>
      <trkpt lat="43.38086" lon="6.64674">
        <ele>93.099998</ele>
        <time>2018-10-14T11:36:27Z</time>
      </trkpt>
      <trkpt lat="43.3809" lon="6.64659">
        <ele>92.599998</ele>
        <time>2018-10-14T11:36:31Z</time>
      </trkpt>
      <trkpt lat="43.38095" lon="6.64646">
        <ele>91.599998</ele>
        <time>2018-10-14T11:36:38Z</time>
      </trkpt>
      <trkpt lat="43.38096" lon="6.64633">
        <ele>91.800003</ele>
        <time>2018-10-14T11:36:48Z</time>
      </trkpt>
      <trkpt lat="43.38099" lon="6.64621">
        <ele>92</ele>
        <time>2018-10-14T11:36:54Z</time>
      </trkpt>
      <trkpt lat="43.38101" lon="6.64607">
        <ele>91.699997</ele>
        <time>2018-10-14T11:36:58Z</time>
      </trkpt>
      <trkpt lat="43.38105" lon="6.64594">
        <ele>92.099998</ele>
        <time>2018-10-14T11:37:02Z</time>
      </trkpt>
      <trkpt lat="43.38114" lon="6.64591">
        <ele>93</ele>
        <time>2018-10-14T11:37:09Z</time>
      </trkpt>
      <trkpt lat="43.38123" lon="6.64594">
        <ele>95.900002</ele>
        <time>2018-10-14T11:37:16Z</time>
      </trkpt>
      <trkpt lat="43.38131" lon="6.64587">
        <ele>96.400002</ele>
        <time>2018-10-14T11:37:24Z</time>
      </trkpt>
      <trkpt lat="43.3814" lon="6.6458">
        <ele>96.099998</ele>
        <time>2018-10-14T11:37:32Z</time>
      </trkpt>
      <trkpt lat="43.38149" lon="6.64576">
        <ele>97.900002</ele>
        <time>2018-10-14T11:37:41Z</time>
      </trkpt>
      <trkpt lat="43.38156" lon="6.64568">
        <ele>100.800003</ele>
        <time>2018-10-14T11:37:48Z</time>
      </trkpt>
      <trkpt lat="43.38164" lon="6.6456">
        <ele>102.199997</ele>
        <time>2018-10-14T11:37:56Z</time>
      </trkpt>
      <trkpt lat="43.38171" lon="6.64549">
        <ele>103.699997</ele>
        <time>2018-10-14T11:38:03Z</time>
      </trkpt>
      <trkpt lat="43.38174" lon="6.64536">
        <ele>104.199997</ele>
        <time>2018-10-14T11:38:09Z</time>
      </trkpt>
      <trkpt lat="43.38183" lon="6.64528">
        <ele>105.199997</ele>
        <time>2018-10-14T11:38:17Z</time>
      </trkpt>
      <trkpt lat="43.38185" lon="6.64516">
        <ele>107</ele>
        <time>2018-10-14T11:38:23Z</time>
      </trkpt>
      <trkpt lat="43.38189" lon="6.64502">
        <ele>109</ele>
        <time>2018-10-14T11:38:30Z</time>
      </trkpt>
      <trkpt lat="43.38197" lon="6.64499">
        <ele>110.900002</ele>
        <time>2018-10-14T11:38:38Z</time>
      </trkpt>
      <trkpt lat="43.38203" lon="6.64487">
        <ele>113.400002</ele>
        <time>2018-10-14T11:38:47Z</time>
      </trkpt>
      <trkpt lat="43.38206" lon="6.6447">
        <ele>114.300003</ele>
        <time>2018-10-14T11:38:51Z</time>
      </trkpt>
      <trkpt lat="43.38207" lon="6.64456">
        <ele>114.800003</ele>
        <time>2018-10-14T11:38:54Z</time>
      </trkpt>
      <trkpt lat="43.38205" lon="6.6444">
        <ele>115.400002</ele>
        <time>2018-10-14T11:38:58Z</time>
      </trkpt>
      <trkpt lat="43.38203" lon="6.64426">
        <ele>115</ele>
        <time>2018-10-14T11:39:01Z</time>
      </trkpt>
      <trkpt lat="43.38202" lon="6.64408">
        <ele>114.599998</ele>
        <time>2018-10-14T11:39:04Z</time>
      </trkpt>
      <trkpt lat="43.38204" lon="6.64396">
        <ele>114.900002</ele>
        <time>2018-10-14T11:39:06Z</time>
      </trkpt>
      <trkpt lat="43.38207" lon="6.64383">
        <ele>114.300003</ele>
        <time>2018-10-14T11:39:08Z</time>
      </trkpt>
      <trkpt lat="43.38211" lon="6.64371">
        <ele>114.300003</ele>
        <time>2018-10-14T11:39:10Z</time>
      </trkpt>
      <trkpt lat="43.38216" lon="6.64361">
        <ele>113.900002</ele>
        <time>2018-10-14T11:39:12Z</time>
      </trkpt>
      <trkpt lat="43.38222" lon="6.64349">
        <ele>113</ele>
        <time>2018-10-14T11:39:14Z</time>
      </trkpt>
      <trkpt lat="43.3823" lon="6.64337">
        <ele>112.699997</ele>
        <time>2018-10-14T11:39:17Z</time>
      </trkpt>
      <trkpt lat="43.38234" lon="6.64326">
        <ele>113.099998</ele>
        <time>2018-10-14T11:39:20Z</time>
      </trkpt>
      <trkpt lat="43.38237" lon="6.64309">
        <ele>113.400002</ele>
        <time>2018-10-14T11:39:24Z</time>
      </trkpt>
      <trkpt lat="43.38236" lon="6.64296">
        <ele>113.599998</ele>
        <time>2018-10-14T11:39:27Z</time>
      </trkpt>
      <trkpt lat="43.38235" lon="6.64281">
        <ele>112.699997</ele>
        <time>2018-10-14T11:39:30Z</time>
      </trkpt>
      <trkpt lat="43.38242" lon="6.6427">
        <ele>112.800003</ele>
        <time>2018-10-14T11:39:34Z</time>
      </trkpt>
      <trkpt lat="43.38249" lon="6.64259">
        <ele>113.699997</ele>
        <time>2018-10-14T11:39:39Z</time>
      </trkpt>
      <trkpt lat="43.38255" lon="6.64249">
        <ele>115.5</ele>
        <time>2018-10-14T11:39:44Z</time>
      </trkpt>
      <trkpt lat="43.38263" lon="6.64238">
        <ele>116.699997</ele>
        <time>2018-10-14T11:39:49Z</time>
      </trkpt>
      <trkpt lat="43.38268" lon="6.64224">
        <ele>117.400002</ele>
        <time>2018-10-14T11:39:53Z</time>
      </trkpt>
      <trkpt lat="43.38268" lon="6.6421">
        <ele>118.699997</ele>
        <time>2018-10-14T11:39:57Z</time>
      </trkpt>
      <trkpt lat="43.38262" lon="6.64196">
        <ele>118.300003</ele>
        <time>2018-10-14T11:40:01Z</time>
      </trkpt>
      <trkpt lat="43.38253" lon="6.64187">
        <ele>117.599998</ele>
        <time>2018-10-14T11:40:04Z</time>
      </trkpt>
      <trkpt lat="43.38245" lon="6.64179">
        <ele>117.900002</ele>
        <time>2018-10-14T11:40:06Z</time>
      </trkpt>
      <trkpt lat="43.38237" lon="6.64172">
        <ele>117.199997</ele>
        <time>2018-10-14T11:40:08Z</time>
      </trkpt>
      <trkpt lat="43.38228" lon="6.64165">
        <ele>117</ele>
        <time>2018-10-14T11:40:10Z</time>
      </trkpt>
      <trkpt lat="43.38225" lon="6.64148">
        <ele>115.300003</ele>
        <time>2018-10-14T11:40:13Z</time>
      </trkpt>
      <trkpt lat="43.38229" lon="6.64136">
        <ele>114.400002</ele>
        <time>2018-10-14T11:40:15Z</time>
      </trkpt>
      <trkpt lat="43.38238" lon="6.64124">
        <ele>113</ele>
        <time>2018-10-14T11:40:18Z</time>
      </trkpt>
      <trkpt lat="43.38248" lon="6.64114">
        <ele>112.599998</ele>
        <time>2018-10-14T11:40:21Z</time>
      </trkpt>
      <trkpt lat="43.38257" lon="6.64104">
        <ele>111.400002</ele>
        <time>2018-10-14T11:40:24Z</time>
      </trkpt>
      <trkpt lat="43.38264" lon="6.64095">
        <ele>112</ele>
        <time>2018-10-14T11:40:27Z</time>
      </trkpt>
      <trkpt lat="43.38271" lon="6.64087">
        <ele>111.199997</ele>
        <time>2018-10-14T11:40:30Z</time>
      </trkpt>
      <trkpt lat="43.3828" lon="6.64077">
        <ele>112.199997</ele>
        <time>2018-10-14T11:40:33Z</time>
      </trkpt>
      <trkpt lat="43.38286" lon="6.64067">
        <ele>112.800003</ele>
        <time>2018-10-14T11:40:36Z</time>
      </trkpt>
      <trkpt lat="43.38293" lon="6.64057">
        <ele>113.400002</ele>
        <time>2018-10-14T11:40:40Z</time>
      </trkpt>
      <trkpt lat="43.38299" lon="6.64044">
        <ele>113.800003</ele>
        <time>2018-10-14T11:40:45Z</time>
      </trkpt>
      <trkpt lat="43.38302" lon="6.64032">
        <ele>115.400002</ele>
        <time>2018-10-14T11:40:49Z</time>
      </trkpt>
      <trkpt lat="43.38305" lon="6.64016">
        <ele>115.900002</ele>
        <time>2018-10-14T11:40:53Z</time>
      </trkpt>
      <trkpt lat="43.38305" lon="6.64004">
        <ele>116.199997</ele>
        <time>2018-10-14T11:40:56Z</time>
      </trkpt>
      <trkpt lat="43.38304" lon="6.63991">
        <ele>116.599998</ele>
        <time>2018-10-14T11:40:59Z</time>
      </trkpt>
      <trkpt lat="43.38303" lon="6.63975">
        <ele>116.5</ele>
        <time>2018-10-14T11:41:03Z</time>
      </trkpt>
      <trkpt lat="43.38301" lon="6.63959">
        <ele>116.5</ele>
        <time>2018-10-14T11:41:07Z</time>
      </trkpt>
      <trkpt lat="43.38298" lon="6.63945">
        <ele>117.300003</ele>
        <time>2018-10-14T11:41:10Z</time>
      </trkpt>
      <trkpt lat="43.38294" lon="6.63931">
        <ele>117.900002</ele>
        <time>2018-10-14T11:41:13Z</time>
      </trkpt>
      <trkpt lat="43.38289" lon="6.63917">
        <ele>118</ele>
        <time>2018-10-14T11:41:16Z</time>
      </trkpt>
      <trkpt lat="43.38281" lon="6.63909">
        <ele>118.300003</ele>
        <time>2018-10-14T11:41:19Z</time>
      </trkpt>
      <trkpt lat="43.38272" lon="6.63904">
        <ele>118.699997</ele>
        <time>2018-10-14T11:41:22Z</time>
      </trkpt>
      <trkpt lat="43.38263" lon="6.63894">
        <ele>119.699997</ele>
        <time>2018-10-14T11:41:26Z</time>
      </trkpt>
      <trkpt lat="43.38254" lon="6.63885">
        <ele>119.900002</ele>
        <time>2018-10-14T11:41:30Z</time>
      </trkpt>
      <trkpt lat="43.38245" lon="6.63875">
        <ele>119.800003</ele>
        <time>2018-10-14T11:41:34Z</time>
      </trkpt>
      <trkpt lat="43.38238" lon="6.63866">
        <ele>120.099998</ele>
        <time>2018-10-14T11:41:37Z</time>
      </trkpt>
      <trkpt lat="43.38229" lon="6.63858">
        <ele>120.199997</ele>
        <time>2018-10-14T11:41:41Z</time>
      </trkpt>
      <trkpt lat="43.38221" lon="6.63848">
        <ele>119.699997</ele>
        <time>2018-10-14T11:41:46Z</time>
      </trkpt>
      <trkpt lat="43.38213" lon="6.63842">
        <ele>120.900002</ele>
        <time>2018-10-14T11:41:50Z</time>
      </trkpt>
      <trkpt lat="43.38204" lon="6.63835">
        <ele>122.5</ele>
        <time>2018-10-14T11:41:55Z</time>
      </trkpt>
      <trkpt lat="43.38195" lon="6.63826">
        <ele>123.599998</ele>
        <time>2018-10-14T11:42:01Z</time>
      </trkpt>
      <trkpt lat="43.38186" lon="6.63823">
        <ele>124.800003</ele>
        <time>2018-10-14T11:42:06Z</time>
      </trkpt>
      <trkpt lat="43.38177" lon="6.63818">
        <ele>125.699997</ele>
        <time>2018-10-14T11:42:11Z</time>
      </trkpt>
      <trkpt lat="43.38168" lon="6.63816">
        <ele>126.300003</ele>
        <time>2018-10-14T11:42:16Z</time>
      </trkpt>
      <trkpt lat="43.38157" lon="6.63811">
        <ele>128.5</ele>
        <time>2018-10-14T11:42:22Z</time>
      </trkpt>
      <trkpt lat="43.38148" lon="6.63806">
        <ele>129.199997</ele>
        <time>2018-10-14T11:42:27Z</time>
      </trkpt>
      <trkpt lat="43.38139" lon="6.63805">
        <ele>129.699997</ele>
        <time>2018-10-14T11:42:32Z</time>
      </trkpt>
      <trkpt lat="43.3813" lon="6.63802">
        <ele>131</ele>
        <time>2018-10-14T11:42:37Z</time>
      </trkpt>
      <trkpt lat="43.38121" lon="6.638">
        <ele>130.600006</ele>
        <time>2018-10-14T11:42:42Z</time>
      </trkpt>
      <trkpt lat="43.38111" lon="6.63799">
        <ele>131.300003</ele>
        <time>2018-10-14T11:42:48Z</time>
      </trkpt>
      <trkpt lat="43.38102" lon="6.63794">
        <ele>132.600006</ele>
        <time>2018-10-14T11:42:54Z</time>
      </trkpt>
      <trkpt lat="43.38093" lon="6.63789">
        <ele>132.800003</ele>
        <time>2018-10-14T11:43:00Z</time>
      </trkpt>
      <trkpt lat="43.38083" lon="6.63784">
        <ele>134.5</ele>
        <time>2018-10-14T11:43:06Z</time>
      </trkpt>
      <trkpt lat="43.38075" lon="6.63777">
        <ele>134.899994</ele>
        <time>2018-10-14T11:43:13Z</time>
      </trkpt>
      <trkpt lat="43.38065" lon="6.63774">
        <ele>137</ele>
        <time>2018-10-14T11:43:19Z</time>
      </trkpt>
      <trkpt lat="43.38055" lon="6.63773">
        <ele>138.199997</ele>
        <time>2018-10-14T11:43:26Z</time>
      </trkpt>
      <trkpt lat="43.38046" lon="6.63771">
        <ele>138.800003</ele>
        <time>2018-10-14T11:43:32Z</time>
      </trkpt>
      <trkpt lat="43.38037" lon="6.63766">
        <ele>139.300003</ele>
        <time>2018-10-14T11:43:40Z</time>
      </trkpt>
      <trkpt lat="43.38026" lon="6.63762">
        <ele>140.5</ele>
        <time>2018-10-14T11:43:48Z</time>
      </trkpt>
      <trkpt lat="43.38018" lon="6.63759">
        <ele>141.899994</ele>
        <time>2018-10-14T11:43:54Z</time>
      </trkpt>
      <trkpt lat="43.38008" lon="6.63755">
        <ele>142.600006</ele>
        <time>2018-10-14T11:44:00Z</time>
      </trkpt>
      <trkpt lat="43.37999" lon="6.63754">
        <ele>142.300003</ele>
        <time>2018-10-14T11:44:05Z</time>
      </trkpt>
      <trkpt lat="43.37989" lon="6.63754">
        <ele>143.600006</ele>
        <time>2018-10-14T11:44:10Z</time>
      </trkpt>
      <trkpt lat="43.37979" lon="6.63754">
        <ele>144.699997</ele>
        <time>2018-10-14T11:44:15Z</time>
      </trkpt>
      <trkpt lat="43.37969" lon="6.63754">
        <ele>145.5</ele>
        <time>2018-10-14T11:44:21Z</time>
      </trkpt>
      <trkpt lat="43.37959" lon="6.63755">
        <ele>146.100006</ele>
        <time>2018-10-14T11:44:26Z</time>
      </trkpt>
      <trkpt lat="43.37949" lon="6.63757">
        <ele>147.399994</ele>
        <time>2018-10-14T11:44:31Z</time>
      </trkpt>
      <trkpt lat="43.37939" lon="6.63758">
        <ele>148</ele>
        <time>2018-10-14T11:44:36Z</time>
      </trkpt>
      <trkpt lat="43.37929" lon="6.63758">
        <ele>148.5</ele>
        <time>2018-10-14T11:44:41Z</time>
      </trkpt>
      <trkpt lat="43.37919" lon="6.6376">
        <ele>149.600006</ele>
        <time>2018-10-14T11:44:47Z</time>
      </trkpt>
      <trkpt lat="43.37909" lon="6.63761">
        <ele>148.100006</ele>
        <time>2018-10-14T11:44:53Z</time>
      </trkpt>
      <trkpt lat="43.379" lon="6.6376">
        <ele>150.199997</ele>
        <time>2018-10-14T11:44:58Z</time>
      </trkpt>
      <trkpt lat="43.37891" lon="6.6376">
        <ele>150.899994</ele>
        <time>2018-10-14T11:45:02Z</time>
      </trkpt>
      <trkpt lat="43.37881" lon="6.6376">
        <ele>151.300003</ele>
        <time>2018-10-14T11:45:07Z</time>
      </trkpt>
      <trkpt lat="43.37872" lon="6.63757">
        <ele>152.5</ele>
        <time>2018-10-14T11:45:14Z</time>
      </trkpt>
      <trkpt lat="43.37862" lon="6.63755">
        <ele>153.300003</ele>
        <time>2018-10-14T11:45:20Z</time>
      </trkpt>
      <trkpt lat="43.37851" lon="6.63754">
        <ele>153.300003</ele>
        <time>2018-10-14T11:45:26Z</time>
      </trkpt>
      <trkpt lat="43.37841" lon="6.63754">
        <ele>154.5</ele>
        <time>2018-10-14T11:45:32Z</time>
      </trkpt>
      <trkpt lat="43.37832" lon="6.63753">
        <ele>155.300003</ele>
        <time>2018-10-14T11:45:39Z</time>
      </trkpt>
      <trkpt lat="43.37821" lon="6.63753">
        <ele>157</ele>
        <time>2018-10-14T11:45:46Z</time>
      </trkpt>
      <trkpt lat="43.37811" lon="6.63749">
        <ele>158</ele>
        <time>2018-10-14T11:45:53Z</time>
      </trkpt>
      <trkpt lat="43.37802" lon="6.63746">
        <ele>158.5</ele>
        <time>2018-10-14T11:45:59Z</time>
      </trkpt>
      <trkpt lat="43.37792" lon="6.63747">
        <ele>159.699997</ele>
        <time>2018-10-14T11:46:05Z</time>
      </trkpt>
      <trkpt lat="43.37783" lon="6.63746">
        <ele>160.199997</ele>
        <time>2018-10-14T11:46:11Z</time>
      </trkpt>
      <trkpt lat="43.37773" lon="6.63743">
        <ele>160.600006</ele>
        <time>2018-10-14T11:46:17Z</time>
      </trkpt>
      <trkpt lat="43.37764" lon="6.63737">
        <ele>161.800003</ele>
        <time>2018-10-14T11:46:25Z</time>
      </trkpt>
      <trkpt lat="43.37761" lon="6.63724">
        <ele>162.5</ele>
        <time>2018-10-14T11:46:30Z</time>
      </trkpt>
      <trkpt lat="43.37759" lon="6.63712">
        <ele>164.300003</ele>
        <time>2018-10-14T11:46:35Z</time>
      </trkpt>
      <trkpt lat="43.37753" lon="6.63701">
        <ele>164.399994</ele>
        <time>2018-10-14T11:46:40Z</time>
      </trkpt>
      <trkpt lat="43.37745" lon="6.63691">
        <ele>164.100006</ele>
        <time>2018-10-14T11:46:46Z</time>
      </trkpt>
      <trkpt lat="43.37739" lon="6.63682">
        <ele>163.899994</ele>
        <time>2018-10-14T11:46:50Z</time>
      </trkpt>
      <trkpt lat="43.37734" lon="6.63669">
        <ele>163.600006</ele>
        <time>2018-10-14T11:46:54Z</time>
      </trkpt>
      <trkpt lat="43.37729" lon="6.63658">
        <ele>163.100006</ele>
        <time>2018-10-14T11:46:58Z</time>
      </trkpt>
      <trkpt lat="43.37722" lon="6.63646">
        <ele>163.100006</ele>
        <time>2018-10-14T11:47:03Z</time>
      </trkpt>
      <trkpt lat="43.37718" lon="6.63635">
        <ele>163.5</ele>
        <time>2018-10-14T11:47:07Z</time>
      </trkpt>
      <trkpt lat="43.37718" lon="6.6362">
        <ele>163.199997</ele>
        <time>2018-10-14T11:47:11Z</time>
      </trkpt>
      <trkpt lat="43.37723" lon="6.63607">
        <ele>163.199997</ele>
        <time>2018-10-14T11:47:16Z</time>
      </trkpt>
      <trkpt lat="43.37729" lon="6.63594">
        <ele>163.100006</ele>
        <time>2018-10-14T11:47:20Z</time>
      </trkpt>
      <trkpt lat="43.37731" lon="6.6358">
        <ele>163.100006</ele>
        <time>2018-10-14T11:47:23Z</time>
      </trkpt>
      <trkpt lat="43.3773" lon="6.63566">
        <ele>164</ele>
        <time>2018-10-14T11:47:26Z</time>
      </trkpt>
      <trkpt lat="43.37729" lon="6.63552">
        <ele>164</ele>
        <time>2018-10-14T11:47:29Z</time>
      </trkpt>
      <trkpt lat="43.3773" lon="6.63536">
        <ele>163.899994</ele>
        <time>2018-10-14T11:47:33Z</time>
      </trkpt>
      <trkpt lat="43.37733" lon="6.63524">
        <ele>162.800003</ele>
        <time>2018-10-14T11:47:37Z</time>
      </trkpt>
      <trkpt lat="43.37735" lon="6.63511">
        <ele>162.899994</ele>
        <time>2018-10-14T11:47:41Z</time>
      </trkpt>
      <trkpt lat="43.37738" lon="6.63497">
        <ele>162.5</ele>
        <time>2018-10-14T11:47:45Z</time>
      </trkpt>
      <trkpt lat="43.37739" lon="6.63483">
        <ele>162.5</ele>
        <time>2018-10-14T11:47:48Z</time>
      </trkpt>
      <trkpt lat="43.37742" lon="6.6347">
        <ele>163.199997</ele>
        <time>2018-10-14T11:47:51Z</time>
      </trkpt>
      <trkpt lat="43.37741" lon="6.63456">
        <ele>164.100006</ele>
        <time>2018-10-14T11:47:54Z</time>
      </trkpt>
      <trkpt lat="43.37739" lon="6.63444">
        <ele>164.899994</ele>
        <time>2018-10-14T11:47:58Z</time>
      </trkpt>
      <trkpt lat="43.37735" lon="6.63432">
        <ele>165.5</ele>
        <time>2018-10-14T11:48:03Z</time>
      </trkpt>
      <trkpt lat="43.37731" lon="6.6342">
        <ele>167.100006</ele>
        <time>2018-10-14T11:48:08Z</time>
      </trkpt>
      <trkpt lat="43.37729" lon="6.63406">
        <ele>168.5</ele>
        <time>2018-10-14T11:48:14Z</time>
      </trkpt>
      <trkpt lat="43.37725" lon="6.63393">
        <ele>168.699997</ele>
        <time>2018-10-14T11:48:20Z</time>
      </trkpt>
      <trkpt lat="43.37722" lon="6.63379">
        <ele>169.100006</ele>
        <time>2018-10-14T11:48:25Z</time>
      </trkpt>
      <trkpt lat="43.37717" lon="6.63367">
        <ele>170.100006</ele>
        <time>2018-10-14T11:48:30Z</time>
      </trkpt>
      <trkpt lat="43.37709" lon="6.63363">
        <ele>171.600006</ele>
        <time>2018-10-14T11:48:35Z</time>
      </trkpt>
      <trkpt lat="43.37698" lon="6.63362">
        <ele>170.5</ele>
        <time>2018-10-14T11:48:41Z</time>
      </trkpt>
      <trkpt lat="43.37689" lon="6.63363">
        <ele>172.199997</ele>
        <time>2018-10-14T11:48:46Z</time>
      </trkpt>
      <trkpt lat="43.37679" lon="6.63365">
        <ele>173.600006</ele>
        <time>2018-10-14T11:48:51Z</time>
      </trkpt>
      <trkpt lat="43.37669" lon="6.63364">
        <ele>174.800003</ele>
        <time>2018-10-14T11:48:56Z</time>
      </trkpt>
      <trkpt lat="43.37659" lon="6.63366">
        <ele>175</ele>
        <time>2018-10-14T11:49:01Z</time>
      </trkpt>
      <trkpt lat="43.37649" lon="6.63367">
        <ele>174.899994</ele>
        <time>2018-10-14T11:49:06Z</time>
      </trkpt>
      <trkpt lat="43.37645" lon="6.63378">
        <ele>176.5</ele>
        <time>2018-10-14T11:49:17Z</time>
      </trkpt>
      <trkpt lat="43.37654" lon="6.63383">
        <ele>179.300003</ele>
        <time>2018-10-14T11:49:35Z</time>
      </trkpt>
      <trkpt lat="43.3766" lon="6.63393">
        <ele>180.100006</ele>
        <time>2018-10-14T11:49:50Z</time>
      </trkpt>
      <trkpt lat="43.37665" lon="6.63403">
        <ele>181</ele>
        <time>2018-10-14T11:49:59Z</time>
      </trkpt>
      <trkpt lat="43.37671" lon="6.63414">
        <ele>181.699997</ele>
        <time>2018-10-14T11:50:06Z</time>
      </trkpt>
      <trkpt lat="43.37674" lon="6.63428">
        <ele>182.399994</ele>
        <time>2018-10-14T11:50:12Z</time>
      </trkpt>
      <trkpt lat="43.37673" lon="6.63441">
        <ele>183.199997</ele>
        <time>2018-10-14T11:50:18Z</time>
      </trkpt>
      <trkpt lat="43.37672" lon="6.63455">
        <ele>183.899994</ele>
        <time>2018-10-14T11:50:24Z</time>
      </trkpt>
      <trkpt lat="43.37671" lon="6.63468">
        <ele>184.100006</ele>
        <time>2018-10-14T11:50:30Z</time>
      </trkpt>
      <trkpt lat="43.37668" lon="6.63483">
        <ele>184.399994</ele>
        <time>2018-10-14T11:50:35Z</time>
      </trkpt>
      <trkpt lat="43.37664" lon="6.63496">
        <ele>184.600006</ele>
        <time>2018-10-14T11:50:38Z</time>
      </trkpt>
      <trkpt lat="43.37658" lon="6.63509">
        <ele>184.300003</ele>
        <time>2018-10-14T11:50:41Z</time>
      </trkpt>
      <trkpt lat="43.37652" lon="6.63521">
        <ele>184.800003</ele>
        <time>2018-10-14T11:50:44Z</time>
      </trkpt>
      <trkpt lat="43.37647" lon="6.63533">
        <ele>184.5</ele>
        <time>2018-10-14T11:50:47Z</time>
      </trkpt>
      <trkpt lat="43.37641" lon="6.63545">
        <ele>185</ele>
        <time>2018-10-14T11:50:50Z</time>
      </trkpt>
      <trkpt lat="43.37636" lon="6.63556">
        <ele>185.399994</ele>
        <time>2018-10-14T11:50:55Z</time>
      </trkpt>
      <trkpt lat="43.37628" lon="6.63567">
        <ele>187</ele>
        <time>2018-10-14T11:51:01Z</time>
      </trkpt>
      <trkpt lat="43.3762" lon="6.63575">
        <ele>187.899994</ele>
        <time>2018-10-14T11:51:05Z</time>
      </trkpt>
      <trkpt lat="43.37613" lon="6.63585">
        <ele>188.100006</ele>
        <time>2018-10-14T11:51:09Z</time>
      </trkpt>
      <trkpt lat="43.37607" lon="6.63598">
        <ele>188.5</ele>
        <time>2018-10-14T11:51:13Z</time>
      </trkpt>
      <trkpt lat="43.37606" lon="6.63611">
        <ele>189.600006</ele>
        <time>2018-10-14T11:51:19Z</time>
      </trkpt>
      <trkpt lat="43.37604" lon="6.63624">
        <ele>191.300003</ele>
        <time>2018-10-14T11:51:26Z</time>
      </trkpt>
      <trkpt lat="43.37604" lon="6.6364">
        <ele>193</ele>
        <time>2018-10-14T11:51:34Z</time>
      </trkpt>
      <trkpt lat="43.37607" lon="6.63652">
        <ele>193.800003</ele>
        <time>2018-10-14T11:51:39Z</time>
      </trkpt>
      <trkpt lat="43.3761" lon="6.63664">
        <ele>194.199997</ele>
        <time>2018-10-14T11:51:43Z</time>
      </trkpt>
      <trkpt lat="43.37614" lon="6.63676">
        <ele>194.5</ele>
        <time>2018-10-14T11:51:48Z</time>
      </trkpt>
      <trkpt lat="43.3762" lon="6.63687">
        <ele>195.300003</ele>
        <time>2018-10-14T11:51:54Z</time>
      </trkpt>
      <trkpt lat="43.37625" lon="6.63698">
        <ele>196.5</ele>
        <time>2018-10-14T11:51:59Z</time>
      </trkpt>
      <trkpt lat="43.37627" lon="6.63712">
        <ele>198</ele>
        <time>2018-10-14T11:52:05Z</time>
      </trkpt>
      <trkpt lat="43.37626" lon="6.63725">
        <ele>199.699997</ele>
        <time>2018-10-14T11:52:11Z</time>
      </trkpt>
      <trkpt lat="43.37622" lon="6.63737">
        <ele>200.800003</ele>
        <time>2018-10-14T11:52:17Z</time>
      </trkpt>
      <trkpt lat="43.37619" lon="6.63749">
        <ele>201.300003</ele>
        <time>2018-10-14T11:52:22Z</time>
      </trkpt>
      <trkpt lat="43.37623" lon="6.63761">
        <ele>203.5</ele>
        <time>2018-10-14T11:52:31Z</time>
      </trkpt>
      <trkpt lat="43.37627" lon="6.63773">
        <ele>204.300003</ele>
        <time>2018-10-14T11:52:36Z</time>
      </trkpt>
      <trkpt lat="43.37632" lon="6.63784">
        <ele>205.600006</ele>
        <time>2018-10-14T11:52:42Z</time>
      </trkpt>
      <trkpt lat="43.37638" lon="6.63795">
        <ele>206.600006</ele>
        <time>2018-10-14T11:52:48Z</time>
      </trkpt>
      <trkpt lat="43.37643" lon="6.63807">
        <ele>207.199997</ele>
        <time>2018-10-14T11:52:54Z</time>
      </trkpt>
      <trkpt lat="43.37649" lon="6.63819">
        <ele>208.5</ele>
        <time>2018-10-14T11:53:01Z</time>
      </trkpt>
      <trkpt lat="43.37654" lon="6.6383">
        <ele>209.5</ele>
        <time>2018-10-14T11:53:07Z</time>
      </trkpt>
      <trkpt lat="43.37659" lon="6.63842">
        <ele>209.699997</ele>
        <time>2018-10-14T11:53:13Z</time>
      </trkpt>
      <trkpt lat="43.37662" lon="6.63854">
        <ele>211.199997</ele>
        <time>2018-10-14T11:53:19Z</time>
      </trkpt>
      <trkpt lat="43.37665" lon="6.63866">
        <ele>212.699997</ele>
        <time>2018-10-14T11:53:25Z</time>
      </trkpt>
      <trkpt lat="43.37667" lon="6.63879">
        <ele>213.399994</ele>
        <time>2018-10-14T11:53:31Z</time>
      </trkpt>
      <trkpt lat="43.3767" lon="6.63891">
        <ele>215.399994</ele>
        <time>2018-10-14T11:53:39Z</time>
      </trkpt>
      <trkpt lat="43.37674" lon="6.63904">
        <ele>216.199997</ele>
        <time>2018-10-14T11:53:46Z</time>
      </trkpt>
      <trkpt lat="43.37681" lon="6.63914">
        <ele>217.199997</ele>
        <time>2018-10-14T11:53:53Z</time>
      </trkpt>
      <trkpt lat="43.37688" lon="6.63923">
        <ele>217.399994</ele>
        <time>2018-10-14T11:53:58Z</time>
      </trkpt>
      <trkpt lat="43.37695" lon="6.63932">
        <ele>216.800003</ele>
        <time>2018-10-14T11:54:03Z</time>
      </trkpt>
      <trkpt lat="43.37704" lon="6.63937">
        <ele>216.600006</ele>
        <time>2018-10-14T11:54:06Z</time>
      </trkpt>
      <trkpt lat="43.37714" lon="6.63939">
        <ele>216.100006</ele>
        <time>2018-10-14T11:54:08Z</time>
      </trkpt>
      <trkpt lat="43.37727" lon="6.63945">
        <ele>214.899994</ele>
        <time>2018-10-14T11:54:11Z</time>
      </trkpt>
      <trkpt lat="43.37738" lon="6.63952">
        <ele>212.600006</ele>
        <time>2018-10-14T11:54:14Z</time>
      </trkpt>
      <trkpt lat="43.37737" lon="6.63966">
        <ele>210.399994</ele>
        <time>2018-10-14T11:54:18Z</time>
      </trkpt>
      <trkpt lat="43.3773" lon="6.63979">
        <ele>208.899994</ele>
        <time>2018-10-14T11:54:21Z</time>
      </trkpt>
      <trkpt lat="43.37721" lon="6.6399">
        <ele>207.399994</ele>
        <time>2018-10-14T11:54:24Z</time>
      </trkpt>
      <trkpt lat="43.37712" lon="6.63997">
        <ele>206.699997</ele>
        <time>2018-10-14T11:54:27Z</time>
      </trkpt>
      <trkpt lat="43.377" lon="6.64003">
        <ele>206.300003</ele>
        <time>2018-10-14T11:54:31Z</time>
      </trkpt>
      <trkpt lat="43.37689" lon="6.64009">
        <ele>205.5</ele>
        <time>2018-10-14T11:54:34Z</time>
      </trkpt>
      <trkpt lat="43.37679" lon="6.64017">
        <ele>203.699997</ele>
        <time>2018-10-14T11:54:37Z</time>
      </trkpt>
      <trkpt lat="43.37677" lon="6.6403">
        <ele>200.5</ele>
        <time>2018-10-14T11:54:41Z</time>
      </trkpt>
      <trkpt lat="43.37681" lon="6.64043">
        <ele>197.100006</ele>
        <time>2018-10-14T11:54:47Z</time>
      </trkpt>
      <trkpt lat="43.37677" lon="6.64055">
        <ele>192.699997</ele>
        <time>2018-10-14T11:54:56Z</time>
      </trkpt>
      <trkpt lat="43.37668" lon="6.64063">
        <ele>192</ele>
        <time>2018-10-14T11:54:59Z</time>
      </trkpt>
      <trkpt lat="43.37659" lon="6.6407">
        <ele>191.300003</ele>
        <time>2018-10-14T11:55:01Z</time>
      </trkpt>
      <trkpt lat="43.3765" lon="6.64079">
        <ele>190.399994</ele>
        <time>2018-10-14T11:55:03Z</time>
      </trkpt>
      <trkpt lat="43.37639" lon="6.64087">
        <ele>188.899994</ele>
        <time>2018-10-14T11:55:05Z</time>
      </trkpt>
      <trkpt lat="43.37631" lon="6.64094">
        <ele>187</ele>
        <time>2018-10-14T11:55:07Z</time>
      </trkpt>
      <trkpt lat="43.3763" lon="6.64106">
        <ele>185.699997</ele>
        <time>2018-10-14T11:55:10Z</time>
      </trkpt>
      <trkpt lat="43.37639" lon="6.64112">
        <ele>184.800003</ele>
        <time>2018-10-14T11:55:12Z</time>
      </trkpt>
      <trkpt lat="43.37648" lon="6.64114">
        <ele>183.800003</ele>
        <time>2018-10-14T11:55:14Z</time>
      </trkpt>
      <trkpt lat="43.37658" lon="6.64118">
        <ele>182.600006</ele>
        <time>2018-10-14T11:55:16Z</time>
      </trkpt>
      <trkpt lat="43.37668" lon="6.6412">
        <ele>181.399994</ele>
        <time>2018-10-14T11:55:18Z</time>
      </trkpt>
      <trkpt lat="43.37678" lon="6.64118">
        <ele>180.699997</ele>
        <time>2018-10-14T11:55:20Z</time>
      </trkpt>
      <trkpt lat="43.37688" lon="6.64111">
        <ele>179.600006</ele>
        <time>2018-10-14T11:55:22Z</time>
      </trkpt>
      <trkpt lat="43.377" lon="6.64107">
        <ele>177.399994</ele>
        <time>2018-10-14T11:55:25Z</time>
      </trkpt>
      <trkpt lat="43.37713" lon="6.64108">
        <ele>175.800003</ele>
        <time>2018-10-14T11:55:28Z</time>
      </trkpt>
      <trkpt lat="43.37725" lon="6.6411">
        <ele>174.600006</ele>
        <time>2018-10-14T11:55:31Z</time>
      </trkpt>
      <trkpt lat="43.37735" lon="6.6411">
        <ele>174.199997</ele>
        <time>2018-10-14T11:55:33Z</time>
      </trkpt>
      <trkpt lat="43.37748" lon="6.64106">
        <ele>173.100006</ele>
        <time>2018-10-14T11:55:35Z</time>
      </trkpt>
      <trkpt lat="43.37761" lon="6.64102">
        <ele>172</ele>
        <time>2018-10-14T11:55:37Z</time>
      </trkpt>
      <trkpt lat="43.37771" lon="6.64105">
        <ele>170.300003</ele>
        <time>2018-10-14T11:55:39Z</time>
      </trkpt>
      <trkpt lat="43.37783" lon="6.64102">
        <ele>168.600006</ele>
        <time>2018-10-14T11:55:41Z</time>
      </trkpt>
      <trkpt lat="43.37795" lon="6.641">
        <ele>168.199997</ele>
        <time>2018-10-14T11:55:43Z</time>
      </trkpt>
      <trkpt lat="43.37807" lon="6.64099">
        <ele>166.699997</ele>
        <time>2018-10-14T11:55:45Z</time>
      </trkpt>
      <trkpt lat="43.37821" lon="6.64099">
        <ele>166</ele>
        <time>2018-10-14T11:55:47Z</time>
      </trkpt>
      <trkpt lat="43.37834" lon="6.64094">
        <ele>165.399994</ele>
        <time>2018-10-14T11:55:49Z</time>
      </trkpt>
      <trkpt lat="43.37848" lon="6.64088">
        <ele>163.800003</ele>
        <time>2018-10-14T11:55:51Z</time>
      </trkpt>
      <trkpt lat="43.37858" lon="6.64087">
        <ele>162.800003</ele>
        <time>2018-10-14T11:55:53Z</time>
      </trkpt>
      <trkpt lat="43.37869" lon="6.64089">
        <ele>160.699997</ele>
        <time>2018-10-14T11:55:56Z</time>
      </trkpt>
      <trkpt lat="43.37879" lon="6.64091">
        <ele>160.100006</ele>
        <time>2018-10-14T11:55:59Z</time>
      </trkpt>
      <trkpt lat="43.37889" lon="6.64092">
        <ele>158.5</ele>
        <time>2018-10-14T11:56:02Z</time>
      </trkpt>
      <trkpt lat="43.379" lon="6.64093">
        <ele>156.899994</ele>
        <time>2018-10-14T11:56:05Z</time>
      </trkpt>
      <trkpt lat="43.37912" lon="6.64098">
        <ele>155.5</ele>
        <time>2018-10-14T11:56:08Z</time>
      </trkpt>
      <trkpt lat="43.37923" lon="6.64102">
        <ele>154.699997</ele>
        <time>2018-10-14T11:56:11Z</time>
      </trkpt>
      <trkpt lat="43.37931" lon="6.64104">
        <ele>153.399994</ele>
        <time>2018-10-14T11:56:14Z</time>
      </trkpt>
      <trkpt lat="43.37941" lon="6.64106">
        <ele>152.100006</ele>
        <time>2018-10-14T11:56:17Z</time>
      </trkpt>
      <trkpt lat="43.37951" lon="6.6411">
        <ele>151.5</ele>
        <time>2018-10-14T11:56:19Z</time>
      </trkpt>
      <trkpt lat="43.3796" lon="6.64115">
        <ele>150</ele>
        <time>2018-10-14T11:56:22Z</time>
      </trkpt>
      <trkpt lat="43.3797" lon="6.64121">
        <ele>149.100006</ele>
        <time>2018-10-14T11:56:25Z</time>
      </trkpt>
      <trkpt lat="43.37982" lon="6.64129">
        <ele>148.300003</ele>
        <time>2018-10-14T11:56:28Z</time>
      </trkpt>
      <trkpt lat="43.37994" lon="6.64136">
        <ele>147.600006</ele>
        <time>2018-10-14T11:56:31Z</time>
      </trkpt>
      <trkpt lat="43.38005" lon="6.64144">
        <ele>147.399994</ele>
        <time>2018-10-14T11:56:34Z</time>
      </trkpt>
      <trkpt lat="43.38016" lon="6.64153">
        <ele>146.699997</ele>
        <time>2018-10-14T11:56:37Z</time>
      </trkpt>
      <trkpt lat="43.38025" lon="6.64159">
        <ele>145.600006</ele>
        <time>2018-10-14T11:56:39Z</time>
      </trkpt>
      <trkpt lat="43.38034" lon="6.64166">
        <ele>144.899994</ele>
        <time>2018-10-14T11:56:41Z</time>
      </trkpt>
      <trkpt lat="43.38043" lon="6.64174">
        <ele>144.100006</ele>
        <time>2018-10-14T11:56:43Z</time>
      </trkpt>
      <trkpt lat="43.38051" lon="6.64187">
        <ele>142.199997</ele>
        <time>2018-10-14T11:56:46Z</time>
      </trkpt>
      <trkpt lat="43.38055" lon="6.64201">
        <ele>140.199997</ele>
        <time>2018-10-14T11:56:50Z</time>
      </trkpt>
      <trkpt lat="43.38059" lon="6.64216">
        <ele>138.699997</ele>
        <time>2018-10-14T11:56:54Z</time>
      </trkpt>
      <trkpt lat="43.38061" lon="6.64228">
        <ele>135.5</ele>
        <time>2018-10-14T11:56:59Z</time>
      </trkpt>
      <trkpt lat="43.3806" lon="6.64242">
        <ele>134.100006</ele>
        <time>2018-10-14T11:57:04Z</time>
      </trkpt>
      <trkpt lat="43.38059" lon="6.64255">
        <ele>131.699997</ele>
        <time>2018-10-14T11:57:09Z</time>
      </trkpt>
      <trkpt lat="43.38064" lon="6.64266">
        <ele>128.399994</ele>
        <time>2018-10-14T11:57:21Z</time>
      </trkpt>
      <trkpt lat="43.38073" lon="6.64274">
        <ele>128.300003</ele>
        <time>2018-10-14T11:57:25Z</time>
      </trkpt>
      <trkpt lat="43.38082" lon="6.64278">
        <ele>127.699997</ele>
        <time>2018-10-14T11:57:28Z</time>
      </trkpt>
      <trkpt lat="43.38091" lon="6.64281">
        <ele>126.599998</ele>
        <time>2018-10-14T11:57:32Z</time>
      </trkpt>
      <trkpt lat="43.381" lon="6.64276">
        <ele>125.599998</ele>
        <time>2018-10-14T11:57:40Z</time>
      </trkpt>
      <trkpt lat="43.3811" lon="6.6427">
        <ele>124.099998</ele>
        <time>2018-10-14T11:57:45Z</time>
      </trkpt>
      <trkpt lat="43.3812" lon="6.64266">
        <ele>123.400002</ele>
        <time>2018-10-14T11:57:49Z</time>
      </trkpt>
      <trkpt lat="43.38131" lon="6.64269">
        <ele>122.400002</ele>
        <time>2018-10-14T11:57:52Z</time>
      </trkpt>
      <trkpt lat="43.38144" lon="6.64266">
        <ele>121.800003</ele>
        <time>2018-10-14T11:57:55Z</time>
      </trkpt>
      <trkpt lat="43.38154" lon="6.64261">
        <ele>120.5</ele>
        <time>2018-10-14T11:57:57Z</time>
      </trkpt>
      <trkpt lat="43.38161" lon="6.64253">
        <ele>119.699997</ele>
        <time>2018-10-14T11:57:59Z</time>
      </trkpt>
      <trkpt lat="43.38171" lon="6.6425">
        <ele>118.300003</ele>
        <time>2018-10-14T11:58:02Z</time>
      </trkpt>
      <trkpt lat="43.3818" lon="6.64246">
        <ele>116.900002</ele>
        <time>2018-10-14T11:58:05Z</time>
      </trkpt>
      <trkpt lat="43.38188" lon="6.64235">
        <ele>115.199997</ele>
        <time>2018-10-14T11:58:08Z</time>
      </trkpt>
      <trkpt lat="43.38196" lon="6.64225">
        <ele>114.400002</ele>
        <time>2018-10-14T11:58:11Z</time>
      </trkpt>
      <trkpt lat="43.38207" lon="6.64229">
        <ele>112.400002</ele>
        <time>2018-10-14T11:58:17Z</time>
      </trkpt>
      <trkpt lat="43.38215" lon="6.64235">
        <ele>111.400002</ele>
        <time>2018-10-14T11:58:20Z</time>
      </trkpt>
      <trkpt lat="43.38219" lon="6.64246">
        <ele>109.599998</ele>
        <time>2018-10-14T11:58:24Z</time>
      </trkpt>
      <trkpt lat="43.38217" lon="6.64259">
        <ele>107.599998</ele>
        <time>2018-10-14T11:58:28Z</time>
      </trkpt>
      <trkpt lat="43.38218" lon="6.64273">
        <ele>106.800003</ele>
        <time>2018-10-14T11:58:33Z</time>
      </trkpt>
      <trkpt lat="43.38221" lon="6.64285">
        <ele>105.900002</ele>
        <time>2018-10-14T11:58:37Z</time>
      </trkpt>
      <trkpt lat="43.38219" lon="6.64298">
        <ele>105.800003</ele>
        <time>2018-10-14T11:58:41Z</time>
      </trkpt>
      <trkpt lat="43.38214" lon="6.64313">
        <ele>105.5</ele>
        <time>2018-10-14T11:58:44Z</time>
      </trkpt>
      <trkpt lat="43.38203" lon="6.64325">
        <ele>104.900002</ele>
        <time>2018-10-14T11:58:47Z</time>
      </trkpt>
      <trkpt lat="43.38193" lon="6.6433">
        <ele>104.5</ele>
        <time>2018-10-14T11:58:49Z</time>
      </trkpt>
      <trkpt lat="43.38183" lon="6.64337">
        <ele>103.900002</ele>
        <time>2018-10-14T11:58:51Z</time>
      </trkpt>
      <trkpt lat="43.38175" lon="6.64346">
        <ele>102.5</ele>
        <time>2018-10-14T11:58:53Z</time>
      </trkpt>
      <trkpt lat="43.38165" lon="6.64353">
        <ele>100.699997</ele>
        <time>2018-10-14T11:58:55Z</time>
      </trkpt>
      <trkpt lat="43.38157" lon="6.64362">
        <ele>100.099998</ele>
        <time>2018-10-14T11:58:57Z</time>
      </trkpt>
      <trkpt lat="43.3815" lon="6.64374">
        <ele>99.400002</ele>
        <time>2018-10-14T11:58:59Z</time>
      </trkpt>
      <trkpt lat="43.38144" lon="6.64387">
        <ele>98.400002</ele>
        <time>2018-10-14T11:59:01Z</time>
      </trkpt>
      <trkpt lat="43.38138" lon="6.64402">
        <ele>97.900002</ele>
        <time>2018-10-14T11:59:03Z</time>
      </trkpt>
      <trkpt lat="43.38131" lon="6.64417">
        <ele>97.5</ele>
        <time>2018-10-14T11:59:05Z</time>
      </trkpt>
      <trkpt lat="43.38122" lon="6.6443">
        <ele>96.599998</ele>
        <time>2018-10-14T11:59:07Z</time>
      </trkpt>
      <trkpt lat="43.38111" lon="6.64434">
        <ele>95.800003</ele>
        <time>2018-10-14T11:59:09Z</time>
      </trkpt>
      <trkpt lat="43.381" lon="6.64429">
        <ele>94.599998</ele>
        <time>2018-10-14T11:59:11Z</time>
      </trkpt>
      <trkpt lat="43.38087" lon="6.64421">
        <ele>92.800003</ele>
        <time>2018-10-14T11:59:13Z</time>
      </trkpt>
      <trkpt lat="43.38073" lon="6.64417">
        <ele>91.900002</ele>
        <time>2018-10-14T11:59:15Z</time>
      </trkpt>
      <trkpt lat="43.38062" lon="6.64418">
        <ele>91.300003</ele>
        <time>2018-10-14T11:59:17Z</time>
      </trkpt>
      <trkpt lat="43.38053" lon="6.64423">
        <ele>91.599998</ele>
        <time>2018-10-14T11:59:19Z</time>
      </trkpt>
      <trkpt lat="43.38044" lon="6.64431">
        <ele>91.400002</ele>
        <time>2018-10-14T11:59:21Z</time>
      </trkpt>
      <trkpt lat="43.38034" lon="6.64441">
        <ele>91</ele>
        <time>2018-10-14T11:59:23Z</time>
      </trkpt>
      <trkpt lat="43.38022" lon="6.64448">
        <ele>91</ele>
        <time>2018-10-14T11:59:25Z</time>
      </trkpt>
      <trkpt lat="43.3801" lon="6.6445">
        <ele>90.800003</ele>
        <time>2018-10-14T11:59:27Z</time>
      </trkpt>
      <trkpt lat="43.37997" lon="6.64448">
        <ele>90.400002</ele>
        <time>2018-10-14T11:59:29Z</time>
      </trkpt>
      <trkpt lat="43.37984" lon="6.64446">
        <ele>90.800003</ele>
        <time>2018-10-14T11:59:31Z</time>
      </trkpt>
      <trkpt lat="43.37971" lon="6.64443">
        <ele>90.199997</ele>
        <time>2018-10-14T11:59:33Z</time>
      </trkpt>
      <trkpt lat="43.37959" lon="6.64441">
        <ele>89.900002</ele>
        <time>2018-10-14T11:59:35Z</time>
      </trkpt>
      <trkpt lat="43.37947" lon="6.64442">
        <ele>90</ele>
        <time>2018-10-14T11:59:37Z</time>
      </trkpt>
      <trkpt lat="43.37936" lon="6.64444">
        <ele>89.599998</ele>
        <time>2018-10-14T11:59:39Z</time>
      </trkpt>
      <trkpt lat="43.37926" lon="6.64447">
        <ele>89.300003</ele>
        <time>2018-10-14T11:59:41Z</time>
      </trkpt>
      <trkpt lat="43.37916" lon="6.64448">
        <ele>89.300003</ele>
        <time>2018-10-14T11:59:43Z</time>
      </trkpt>
      <trkpt lat="43.37907" lon="6.6445">
        <ele>89.199997</ele>
        <time>2018-10-14T11:59:45Z</time>
      </trkpt>
      <trkpt lat="43.37895" lon="6.64451">
        <ele>89.900002</ele>
        <time>2018-10-14T11:59:48Z</time>
      </trkpt>
      <trkpt lat="43.37885" lon="6.64452">
        <ele>89.199997</ele>
        <time>2018-10-14T11:59:51Z</time>
      </trkpt>
      <trkpt lat="43.37875" lon="6.64453">
        <ele>88.300003</ele>
        <time>2018-10-14T11:59:54Z</time>
      </trkpt>
      <trkpt lat="43.37866" lon="6.64456">
        <ele>88.400002</ele>
        <time>2018-10-14T11:59:58Z</time>
      </trkpt>
      <trkpt lat="43.37857" lon="6.64462">
        <ele>89.099998</ele>
        <time>2018-10-14T12:00:01Z</time>
      </trkpt>
      <trkpt lat="43.37849" lon="6.64471">
        <ele>89.400002</ele>
        <time>2018-10-14T12:00:04Z</time>
      </trkpt>
      <trkpt lat="43.37839" lon="6.64478">
        <ele>90.199997</ele>
        <time>2018-10-14T12:00:07Z</time>
      </trkpt>
      <trkpt lat="43.37829" lon="6.64485">
        <ele>90</ele>
        <time>2018-10-14T12:00:10Z</time>
      </trkpt>
      <trkpt lat="43.37821" lon="6.64491">
        <ele>90.800003</ele>
        <time>2018-10-14T12:00:13Z</time>
      </trkpt>
      <trkpt lat="43.37811" lon="6.64496">
        <ele>90.599998</ele>
        <time>2018-10-14T12:00:20Z</time>
      </trkpt>
      <trkpt lat="43.37802" lon="6.64503">
        <ele>91</ele>
        <time>2018-10-14T12:00:26Z</time>
      </trkpt>
      <trkpt lat="43.37791" lon="6.64506">
        <ele>91.300003</ele>
        <time>2018-10-14T12:00:31Z</time>
      </trkpt>
      <trkpt lat="43.37782" lon="6.64511">
        <ele>91.099998</ele>
        <time>2018-10-14T12:00:39Z</time>
      </trkpt>
      <trkpt lat="43.37774" lon="6.64514">
        <ele>91.300003</ele>
        <time>2018-10-14T12:00:44Z</time>
      </trkpt>
      <trkpt lat="43.37765" lon="6.64524">
        <ele>91.5</ele>
        <time>2018-10-14T12:00:49Z</time>
      </trkpt>
      <trkpt lat="43.37758" lon="6.64534">
        <ele>91.599998</ele>
        <time>2018-10-14T12:00:54Z</time>
      </trkpt>
      <trkpt lat="43.37753" lon="6.64547">
        <ele>92.699997</ele>
        <time>2018-10-14T12:00:59Z</time>
      </trkpt>
      <trkpt lat="43.37748" lon="6.64558">
        <ele>93.900002</ele>
        <time>2018-10-14T12:01:04Z</time>
      </trkpt>
      <trkpt lat="43.37741" lon="6.64567">
        <ele>95.199997</ele>
        <time>2018-10-14T12:01:09Z</time>
      </trkpt>
      <trkpt lat="43.37734" lon="6.64576">
        <ele>96.199997</ele>
        <time>2018-10-14T12:01:14Z</time>
      </trkpt>
      <trkpt lat="43.37724" lon="6.64583">
        <ele>97</ele>
        <time>2018-10-14T12:01:19Z</time>
      </trkpt>
      <trkpt lat="43.37714" lon="6.64588">
        <ele>97.5</ele>
        <time>2018-10-14T12:01:23Z</time>
      </trkpt>
      <trkpt lat="43.37703" lon="6.64591">
        <ele>96.900002</ele>
        <time>2018-10-14T12:01:27Z</time>
      </trkpt>
      <trkpt lat="43.37692" lon="6.64594">
        <ele>96.5</ele>
        <time>2018-10-14T12:01:31Z</time>
      </trkpt>
      <trkpt lat="43.37681" lon="6.64593">
        <ele>96.400002</ele>
        <time>2018-10-14T12:01:35Z</time>
      </trkpt>
      <trkpt lat="43.37671" lon="6.64591">
        <ele>98.5</ele>
        <time>2018-10-14T12:01:39Z</time>
      </trkpt>
      <trkpt lat="43.37662" lon="6.64588">
        <ele>99</ele>
        <time>2018-10-14T12:01:43Z</time>
      </trkpt>
      <trkpt lat="43.37653" lon="6.64584">
        <ele>99.199997</ele>
        <time>2018-10-14T12:01:47Z</time>
      </trkpt>
      <trkpt lat="43.37644" lon="6.64578">
        <ele>99</ele>
        <time>2018-10-14T12:01:50Z</time>
      </trkpt>
      <trkpt lat="43.37634" lon="6.64576">
        <ele>98.900002</ele>
        <time>2018-10-14T12:01:53Z</time>
      </trkpt>
      <trkpt lat="43.37622" lon="6.64576">
        <ele>99.099998</ele>
        <time>2018-10-14T12:01:56Z</time>
      </trkpt>
      <trkpt lat="43.37611" lon="6.64577">
        <ele>99</ele>
        <time>2018-10-14T12:01:59Z</time>
      </trkpt>
      <trkpt lat="43.37598" lon="6.64579">
        <ele>99.099998</ele>
        <time>2018-10-14T12:02:02Z</time>
      </trkpt>
      <trkpt lat="43.37586" lon="6.64584">
        <ele>98.400002</ele>
        <time>2018-10-14T12:02:05Z</time>
      </trkpt>
      <trkpt lat="43.37574" lon="6.64591">
        <ele>98</ele>
        <time>2018-10-14T12:02:08Z</time>
      </trkpt>
      <trkpt lat="43.37562" lon="6.64598">
        <ele>98.199997</ele>
        <time>2018-10-14T12:02:11Z</time>
      </trkpt>
      <trkpt lat="43.37553" lon="6.64604">
        <ele>98.199997</ele>
        <time>2018-10-14T12:02:14Z</time>
      </trkpt>
      <trkpt lat="43.37543" lon="6.6461">
        <ele>98</ele>
        <time>2018-10-14T12:02:17Z</time>
      </trkpt>
      <trkpt lat="43.37532" lon="6.64619">
        <ele>97.5</ele>
        <time>2018-10-14T12:02:20Z</time>
      </trkpt>
      <trkpt lat="43.3752" lon="6.64627">
        <ele>97.099998</ele>
        <time>2018-10-14T12:02:23Z</time>
      </trkpt>
      <trkpt lat="43.37509" lon="6.64635">
        <ele>98.099998</ele>
        <time>2018-10-14T12:02:26Z</time>
      </trkpt>
      <trkpt lat="43.37499" lon="6.64642">
        <ele>98.699997</ele>
        <time>2018-10-14T12:02:29Z</time>
      </trkpt>
      <trkpt lat="43.37491" lon="6.64648">
        <ele>99</ele>
        <time>2018-10-14T12:02:33Z</time>
      </trkpt>
      <trkpt lat="43.37482" lon="6.64655">
        <ele>99.199997</ele>
        <time>2018-10-14T12:02:39Z</time>
      </trkpt>
      <trkpt lat="43.37473" lon="6.64663">
        <ele>99.400002</ele>
        <time>2018-10-14T12:02:44Z</time>
      </trkpt>
      <trkpt lat="43.37464" lon="6.6467">
        <ele>99.699997</ele>
        <time>2018-10-14T12:02:47Z</time>
      </trkpt>
      <trkpt lat="43.37455" lon="6.64676">
        <ele>99.900002</ele>
        <time>2018-10-14T12:02:50Z</time>
      </trkpt>
      <trkpt lat="43.37447" lon="6.64683">
        <ele>100.5</ele>
        <time>2018-10-14T12:02:53Z</time>
      </trkpt>
      <trkpt lat="43.37439" lon="6.6469">
        <ele>100.699997</ele>
        <time>2018-10-14T12:02:56Z</time>
      </trkpt>
      <trkpt lat="43.37431" lon="6.64697">
        <ele>101.300003</ele>
        <time>2018-10-14T12:02:59Z</time>
      </trkpt>
      <trkpt lat="43.37422" lon="6.64705">
        <ele>101.599998</ele>
        <time>2018-10-14T12:03:02Z</time>
      </trkpt>
      <trkpt lat="43.37412" lon="6.64713">
        <ele>102.5</ele>
        <time>2018-10-14T12:03:05Z</time>
      </trkpt>
      <trkpt lat="43.37403" lon="6.6472">
        <ele>102.5</ele>
        <time>2018-10-14T12:03:08Z</time>
      </trkpt>
      <trkpt lat="43.37393" lon="6.64728">
        <ele>102.699997</ele>
        <time>2018-10-14T12:03:11Z</time>
      </trkpt>
      <trkpt lat="43.37383" lon="6.64737">
        <ele>102.699997</ele>
        <time>2018-10-14T12:03:14Z</time>
      </trkpt>
      <trkpt lat="43.37373" lon="6.64746">
        <ele>102.599998</ele>
        <time>2018-10-14T12:03:17Z</time>
      </trkpt>
      <trkpt lat="43.37362" lon="6.64752">
        <ele>102.699997</ele>
        <time>2018-10-14T12:03:20Z</time>
      </trkpt>
      <trkpt lat="43.3735" lon="6.64756">
        <ele>101.900002</ele>
        <time>2018-10-14T12:03:23Z</time>
      </trkpt>
      <trkpt lat="43.37338" lon="6.64757">
        <ele>102.199997</ele>
        <time>2018-10-14T12:03:26Z</time>
      </trkpt>
      <trkpt lat="43.37327" lon="6.64757">
        <ele>101.599998</ele>
        <time>2018-10-14T12:03:29Z</time>
      </trkpt>
      <trkpt lat="43.37318" lon="6.64758">
        <ele>102.699997</ele>
        <time>2018-10-14T12:03:32Z</time>
      </trkpt>
      <trkpt lat="43.37308" lon="6.6476">
        <ele>103.199997</ele>
        <time>2018-10-14T12:03:36Z</time>
      </trkpt>
      <trkpt lat="43.37299" lon="6.64763">
        <ele>103.099998</ele>
        <time>2018-10-14T12:03:41Z</time>
      </trkpt>
      <trkpt lat="43.3729" lon="6.64764">
        <ele>102.599998</ele>
        <time>2018-10-14T12:03:46Z</time>
      </trkpt>
      <trkpt lat="43.37281" lon="6.64761">
        <ele>103</ele>
        <time>2018-10-14T12:03:51Z</time>
      </trkpt>
      <trkpt lat="43.37273" lon="6.64753">
        <ele>103.199997</ele>
        <time>2018-10-14T12:03:57Z</time>
      </trkpt>
      <trkpt lat="43.37266" lon="6.64744">
        <ele>102.800003</ele>
        <time>2018-10-14T12:04:03Z</time>
      </trkpt>
      <trkpt lat="43.37259" lon="6.64733">
        <ele>103.199997</ele>
        <time>2018-10-14T12:04:07Z</time>
      </trkpt>
      <trkpt lat="43.37253" lon="6.64723">
        <ele>103.800003</ele>
        <time>2018-10-14T12:04:10Z</time>
      </trkpt>
      <trkpt lat="43.37245" lon="6.64711">
        <ele>104.099998</ele>
        <time>2018-10-14T12:04:13Z</time>
      </trkpt>
      <trkpt lat="43.37239" lon="6.647">
        <ele>103.900002</ele>
        <time>2018-10-14T12:04:16Z</time>
      </trkpt>
      <trkpt lat="43.37228" lon="6.64695">
        <ele>103.800003</ele>
        <time>2018-10-14T12:04:20Z</time>
      </trkpt>
      <trkpt lat="43.37219" lon="6.64695">
        <ele>104.199997</ele>
        <time>2018-10-14T12:04:23Z</time>
      </trkpt>
      <trkpt lat="43.37208" lon="6.647">
        <ele>104.199997</ele>
        <time>2018-10-14T12:04:27Z</time>
      </trkpt>
      <trkpt lat="43.37199" lon="6.647">
        <ele>104.300003</ele>
        <time>2018-10-14T12:04:30Z</time>
      </trkpt>
      <trkpt lat="43.37189" lon="6.64703">
        <ele>104.5</ele>
        <time>2018-10-14T12:04:34Z</time>
      </trkpt>
      <trkpt lat="43.37178" lon="6.64708">
        <ele>103.599998</ele>
        <time>2018-10-14T12:04:38Z</time>
      </trkpt>
      <trkpt lat="43.37169" lon="6.6471">
        <ele>105.099998</ele>
        <time>2018-10-14T12:04:41Z</time>
      </trkpt>
      <trkpt lat="43.37159" lon="6.64714">
        <ele>105.599998</ele>
        <time>2018-10-14T12:04:44Z</time>
      </trkpt>
      <trkpt lat="43.37149" lon="6.64718">
        <ele>106</ele>
        <time>2018-10-14T12:04:47Z</time>
      </trkpt>
      <trkpt lat="43.37139" lon="6.64721">
        <ele>106.900002</ele>
        <time>2018-10-14T12:04:50Z</time>
      </trkpt>
      <trkpt lat="43.37129" lon="6.64726">
        <ele>107.599998</ele>
        <time>2018-10-14T12:04:53Z</time>
      </trkpt>
      <trkpt lat="43.37119" lon="6.6473">
        <ele>107.400002</ele>
        <time>2018-10-14T12:04:56Z</time>
      </trkpt>
      <trkpt lat="43.37108" lon="6.64734">
        <ele>108.199997</ele>
        <time>2018-10-14T12:04:59Z</time>
      </trkpt>
      <trkpt lat="43.37099" lon="6.6474">
        <ele>108.199997</ele>
        <time>2018-10-14T12:05:02Z</time>
      </trkpt>
      <trkpt lat="43.37088" lon="6.64747">
        <ele>109.300003</ele>
        <time>2018-10-14T12:05:06Z</time>
      </trkpt>
      <trkpt lat="43.37079" lon="6.64754">
        <ele>109</ele>
        <time>2018-10-14T12:05:09Z</time>
      </trkpt>
      <trkpt lat="43.37068" lon="6.64759">
        <ele>108.699997</ele>
        <time>2018-10-14T12:05:12Z</time>
      </trkpt>
      <trkpt lat="43.37059" lon="6.64763">
        <ele>108.599998</ele>
        <time>2018-10-14T12:05:15Z</time>
      </trkpt>
      <trkpt lat="43.37049" lon="6.64766">
        <ele>109.099998</ele>
        <time>2018-10-14T12:05:18Z</time>
      </trkpt>
      <trkpt lat="43.37041" lon="6.64769">
        <ele>109.199997</ele>
        <time>2018-10-14T12:05:21Z</time>
      </trkpt>
      <trkpt lat="43.37031" lon="6.6477">
        <ele>109.400002</ele>
        <time>2018-10-14T12:05:24Z</time>
      </trkpt>
      <trkpt lat="43.3702" lon="6.64769">
        <ele>110.300003</ele>
        <time>2018-10-14T12:05:27Z</time>
      </trkpt>
      <trkpt lat="43.37009" lon="6.64766">
        <ele>110.5</ele>
        <time>2018-10-14T12:05:30Z</time>
      </trkpt>
      <trkpt lat="43.36997" lon="6.64761">
        <ele>111</ele>
        <time>2018-10-14T12:05:33Z</time>
      </trkpt>
      <trkpt lat="43.36984" lon="6.64757">
        <ele>110.800003</ele>
        <time>2018-10-14T12:05:36Z</time>
      </trkpt>
      <trkpt lat="43.36973" lon="6.64755">
        <ele>110.800003</ele>
        <time>2018-10-14T12:05:39Z</time>
      </trkpt>
      <trkpt lat="43.36962" lon="6.64754">
        <ele>110.800003</ele>
        <time>2018-10-14T12:05:42Z</time>
      </trkpt>
      <trkpt lat="43.36952" lon="6.64755">
        <ele>111.199997</ele>
        <time>2018-10-14T12:05:45Z</time>
      </trkpt>
      <trkpt lat="43.36941" lon="6.64757">
        <ele>111.900002</ele>
        <time>2018-10-14T12:05:48Z</time>
      </trkpt>
      <trkpt lat="43.3693" lon="6.64759">
        <ele>111.5</ele>
        <time>2018-10-14T12:05:51Z</time>
      </trkpt>
      <trkpt lat="43.36919" lon="6.64762">
        <ele>112.199997</ele>
        <time>2018-10-14T12:05:54Z</time>
      </trkpt>
      <trkpt lat="43.36909" lon="6.64768">
        <ele>112.400002</ele>
        <time>2018-10-14T12:05:57Z</time>
      </trkpt>
      <trkpt lat="43.369" lon="6.64773">
        <ele>113.199997</ele>
        <time>2018-10-14T12:06:00Z</time>
      </trkpt>
      <trkpt lat="43.3689" lon="6.6478">
        <ele>113.5</ele>
        <time>2018-10-14T12:06:04Z</time>
      </trkpt>
      <trkpt lat="43.36883" lon="6.64792">
        <ele>113.900002</ele>
        <time>2018-10-14T12:06:08Z</time>
      </trkpt>
      <trkpt lat="43.36876" lon="6.64803">
        <ele>113.199997</ele>
        <time>2018-10-14T12:06:12Z</time>
      </trkpt>
      <trkpt lat="43.36873" lon="6.64818">
        <ele>113.900002</ele>
        <time>2018-10-14T12:06:16Z</time>
      </trkpt>
      <trkpt lat="43.36869" lon="6.64831">
        <ele>114.5</ele>
        <time>2018-10-14T12:06:23Z</time>
      </trkpt>
      <trkpt lat="43.36865" lon="6.64842">
        <ele>115.599998</ele>
        <time>2018-10-14T12:06:28Z</time>
      </trkpt>
      <trkpt lat="43.36858" lon="6.6485">
        <ele>116.300003</ele>
        <time>2018-10-14T12:06:33Z</time>
      </trkpt>
      <trkpt lat="43.36848" lon="6.64852">
        <ele>117.300003</ele>
        <time>2018-10-14T12:06:37Z</time>
      </trkpt>
      <trkpt lat="43.36839" lon="6.64854">
        <ele>117.199997</ele>
        <time>2018-10-14T12:06:40Z</time>
      </trkpt>
      <trkpt lat="43.3683" lon="6.64857">
        <ele>117.5</ele>
        <time>2018-10-14T12:06:43Z</time>
      </trkpt>
      <trkpt lat="43.36821" lon="6.6486">
        <ele>117</ele>
        <time>2018-10-14T12:06:46Z</time>
      </trkpt>
      <trkpt lat="43.36811" lon="6.64861">
        <ele>117.300003</ele>
        <time>2018-10-14T12:06:50Z</time>
      </trkpt>
      <trkpt lat="43.36802" lon="6.64865">
        <ele>117.900002</ele>
        <time>2018-10-14T12:06:54Z</time>
      </trkpt>
      <trkpt lat="43.36791" lon="6.64868">
        <ele>118.199997</ele>
        <time>2018-10-14T12:06:58Z</time>
      </trkpt>
      <trkpt lat="43.36779" lon="6.6487">
        <ele>118.400002</ele>
        <time>2018-10-14T12:07:02Z</time>
      </trkpt>
      <trkpt lat="43.3677" lon="6.6487">
        <ele>118.300003</ele>
        <time>2018-10-14T12:07:05Z</time>
      </trkpt>
      <trkpt lat="43.3676" lon="6.64872">
        <ele>118.300003</ele>
        <time>2018-10-14T12:07:08Z</time>
      </trkpt>
      <trkpt lat="43.36748" lon="6.64873">
        <ele>118.400002</ele>
        <time>2018-10-14T12:07:12Z</time>
      </trkpt>
      <trkpt lat="43.36737" lon="6.64874">
        <ele>118.699997</ele>
        <time>2018-10-14T12:07:16Z</time>
      </trkpt>
      <trkpt lat="43.36727" lon="6.64877">
        <ele>119.400002</ele>
        <time>2018-10-14T12:07:20Z</time>
      </trkpt>
      <trkpt lat="43.36718" lon="6.64881">
        <ele>120.199997</ele>
        <time>2018-10-14T12:07:25Z</time>
      </trkpt>
      <trkpt lat="43.36708" lon="6.64882">
        <ele>120.300003</ele>
        <time>2018-10-14T12:07:29Z</time>
      </trkpt>
      <trkpt lat="43.36698" lon="6.64889">
        <ele>120.300003</ele>
        <time>2018-10-14T12:07:34Z</time>
      </trkpt>
      <trkpt lat="43.36689" lon="6.64893">
        <ele>120.699997</ele>
        <time>2018-10-14T12:07:37Z</time>
      </trkpt>
      <trkpt lat="43.3668" lon="6.64897">
        <ele>121</ele>
        <time>2018-10-14T12:07:40Z</time>
      </trkpt>
      <trkpt lat="43.36668" lon="6.64902">
        <ele>121.300003</ele>
        <time>2018-10-14T12:07:44Z</time>
      </trkpt>
      <trkpt lat="43.36659" lon="6.64908">
        <ele>121.900002</ele>
        <time>2018-10-14T12:07:47Z</time>
      </trkpt>
      <trkpt lat="43.36649" lon="6.64911">
        <ele>122.800003</ele>
        <time>2018-10-14T12:07:50Z</time>
      </trkpt>
      <trkpt lat="43.36637" lon="6.64915">
        <ele>122.599998</ele>
        <time>2018-10-14T12:07:53Z</time>
      </trkpt>
      <trkpt lat="43.36625" lon="6.64922">
        <ele>122.599998</ele>
        <time>2018-10-14T12:07:56Z</time>
      </trkpt>
      <trkpt lat="43.36613" lon="6.64929">
        <ele>123.300003</ele>
        <time>2018-10-14T12:07:59Z</time>
      </trkpt>
      <trkpt lat="43.36602" lon="6.64938">
        <ele>123.099998</ele>
        <time>2018-10-14T12:08:02Z</time>
      </trkpt>
      <trkpt lat="43.36591" lon="6.64946">
        <ele>123</ele>
        <time>2018-10-14T12:08:05Z</time>
      </trkpt>
      <trkpt lat="43.36581" lon="6.64957">
        <ele>123.599998</ele>
        <time>2018-10-14T12:08:08Z</time>
      </trkpt>
      <trkpt lat="43.36573" lon="6.64968">
        <ele>124.800003</ele>
        <time>2018-10-14T12:08:11Z</time>
      </trkpt>
      <trkpt lat="43.36569" lon="6.64982">
        <ele>124.800003</ele>
        <time>2018-10-14T12:08:15Z</time>
      </trkpt>
      <trkpt lat="43.36567" lon="6.64996">
        <ele>125.199997</ele>
        <time>2018-10-14T12:08:18Z</time>
      </trkpt>
      <trkpt lat="43.36567" lon="6.65012">
        <ele>126.099998</ele>
        <time>2018-10-14T12:08:21Z</time>
      </trkpt>
      <trkpt lat="43.36567" lon="6.65027">
        <ele>126.800003</ele>
        <time>2018-10-14T12:08:24Z</time>
      </trkpt>
      <trkpt lat="43.36567" lon="6.6504">
        <ele>127.599998</ele>
        <time>2018-10-14T12:08:27Z</time>
      </trkpt>
      <trkpt lat="43.36567" lon="6.65055">
        <ele>127.800003</ele>
        <time>2018-10-14T12:08:30Z</time>
      </trkpt>
      <trkpt lat="43.36567" lon="6.65071">
        <ele>127.800003</ele>
        <time>2018-10-14T12:08:33Z</time>
      </trkpt>
      <trkpt lat="43.36569" lon="6.65085">
        <ele>127.900002</ele>
        <time>2018-10-14T12:08:36Z</time>
      </trkpt>
      <trkpt lat="43.36573" lon="6.65099">
        <ele>128.300003</ele>
        <time>2018-10-14T12:08:39Z</time>
      </trkpt>
      <trkpt lat="43.36575" lon="6.65116">
        <ele>128.5</ele>
        <time>2018-10-14T12:08:43Z</time>
      </trkpt>
      <trkpt lat="43.36577" lon="6.65129">
        <ele>129.899994</ele>
        <time>2018-10-14T12:08:46Z</time>
      </trkpt>
      <trkpt lat="43.36577" lon="6.65141">
        <ele>130</ele>
        <time>2018-10-14T12:08:49Z</time>
      </trkpt>
      <trkpt lat="43.36578" lon="6.65154">
        <ele>130.600006</ele>
        <time>2018-10-14T12:08:52Z</time>
      </trkpt>
      <trkpt lat="43.3658" lon="6.6517">
        <ele>130.800003</ele>
        <time>2018-10-14T12:08:56Z</time>
      </trkpt>
      <trkpt lat="43.3658" lon="6.65184">
        <ele>130.5</ele>
        <time>2018-10-14T12:08:59Z</time>
      </trkpt>
      <trkpt lat="43.3658" lon="6.65198">
        <ele>131.100006</ele>
        <time>2018-10-14T12:09:02Z</time>
      </trkpt>
      <trkpt lat="43.36579" lon="6.65211">
        <ele>131.800003</ele>
        <time>2018-10-14T12:09:05Z</time>
      </trkpt>
      <trkpt lat="43.36578" lon="6.65223">
        <ele>131.899994</ele>
        <time>2018-10-14T12:09:08Z</time>
      </trkpt>
      <trkpt lat="43.36577" lon="6.65241">
        <ele>132</ele>
        <time>2018-10-14T12:09:12Z</time>
      </trkpt>
      <trkpt lat="43.36576" lon="6.65253">
        <ele>132.600006</ele>
        <time>2018-10-14T12:09:15Z</time>
      </trkpt>
      <trkpt lat="43.36576" lon="6.65269">
        <ele>133.100006</ele>
        <time>2018-10-14T12:09:19Z</time>
      </trkpt>
      <trkpt lat="43.36578" lon="6.65284">
        <ele>133.800003</ele>
        <time>2018-10-14T12:09:23Z</time>
      </trkpt>
      <trkpt lat="43.36582" lon="6.65299">
        <ele>134.100006</ele>
        <time>2018-10-14T12:09:27Z</time>
      </trkpt>
      <trkpt lat="43.36587" lon="6.65313">
        <ele>135.100006</ele>
        <time>2018-10-14T12:09:30Z</time>
      </trkpt>
      <trkpt lat="43.36589" lon="6.65328">
        <ele>135.399994</ele>
        <time>2018-10-14T12:09:33Z</time>
      </trkpt>
      <trkpt lat="43.36589" lon="6.65341">
        <ele>135.899994</ele>
        <time>2018-10-14T12:09:36Z</time>
      </trkpt>
      <trkpt lat="43.36589" lon="6.65356">
        <ele>135.600006</ele>
        <time>2018-10-14T12:09:40Z</time>
      </trkpt>
      <trkpt lat="43.36588" lon="6.65371">
        <ele>134.800003</ele>
        <time>2018-10-14T12:09:45Z</time>
      </trkpt>
      <trkpt lat="43.36588" lon="6.65384">
        <ele>135.699997</ele>
        <time>2018-10-14T12:09:49Z</time>
      </trkpt>
      <trkpt lat="43.36588" lon="6.65397">
        <ele>135.600006</ele>
        <time>2018-10-14T12:09:52Z</time>
      </trkpt>
      <trkpt lat="43.36588" lon="6.65413">
        <ele>135.800003</ele>
        <time>2018-10-14T12:09:56Z</time>
      </trkpt>
      <trkpt lat="43.36589" lon="6.65428">
        <ele>137.5</ele>
        <time>2018-10-14T12:10:00Z</time>
      </trkpt>
      <trkpt lat="43.3659" lon="6.6544">
        <ele>137.300003</ele>
        <time>2018-10-14T12:10:04Z</time>
      </trkpt>
      <trkpt lat="43.36595" lon="6.65453">
        <ele>137.5</ele>
        <time>2018-10-14T12:10:09Z</time>
      </trkpt>
      <trkpt lat="43.36598" lon="6.65465">
        <ele>138.199997</ele>
        <time>2018-10-14T12:10:13Z</time>
      </trkpt>
      <trkpt lat="43.36602" lon="6.65477">
        <ele>139.300003</ele>
        <time>2018-10-14T12:10:17Z</time>
      </trkpt>
      <trkpt lat="43.36605" lon="6.65491">
        <ele>140.300003</ele>
        <time>2018-10-14T12:10:22Z</time>
      </trkpt>
      <trkpt lat="43.36609" lon="6.65504">
        <ele>140.600006</ele>
        <time>2018-10-14T12:10:27Z</time>
      </trkpt>
      <trkpt lat="43.36609" lon="6.65519">
        <ele>142</ele>
        <time>2018-10-14T12:10:32Z</time>
      </trkpt>
      <trkpt lat="43.36608" lon="6.65534">
        <ele>142.600006</ele>
        <time>2018-10-14T12:10:36Z</time>
      </trkpt>
      <trkpt lat="43.36607" lon="6.6555">
        <ele>142.800003</ele>
        <time>2018-10-14T12:10:40Z</time>
      </trkpt>
      <trkpt lat="43.36607" lon="6.65565">
        <ele>142.399994</ele>
        <time>2018-10-14T12:10:45Z</time>
      </trkpt>
      <trkpt lat="43.36608" lon="6.6558">
        <ele>141.899994</ele>
        <time>2018-10-14T12:10:49Z</time>
      </trkpt>
      <trkpt lat="43.36612" lon="6.65593">
        <ele>142</ele>
        <time>2018-10-14T12:10:54Z</time>
      </trkpt>
      <trkpt lat="43.36617" lon="6.65603">
        <ele>143.800003</ele>
        <time>2018-10-14T12:10:59Z</time>
      </trkpt>
      <trkpt lat="43.36622" lon="6.65615">
        <ele>145.199997</ele>
        <time>2018-10-14T12:11:04Z</time>
      </trkpt>
      <trkpt lat="43.36627" lon="6.65626">
        <ele>145.600006</ele>
        <time>2018-10-14T12:11:08Z</time>
      </trkpt>
      <trkpt lat="43.36631" lon="6.65639">
        <ele>146.199997</ele>
        <time>2018-10-14T12:11:12Z</time>
      </trkpt>
      <trkpt lat="43.36634" lon="6.65654">
        <ele>146.899994</ele>
        <time>2018-10-14T12:11:17Z</time>
      </trkpt>
      <trkpt lat="43.3664" lon="6.65667">
        <ele>148</ele>
        <time>2018-10-14T12:11:22Z</time>
      </trkpt>
      <trkpt lat="43.36645" lon="6.65677">
        <ele>147.800003</ele>
        <time>2018-10-14T12:11:27Z</time>
      </trkpt>
      <trkpt lat="43.36649" lon="6.6569">
        <ele>147.800003</ele>
        <time>2018-10-14T12:11:32Z</time>
      </trkpt>
      <trkpt lat="43.36654" lon="6.65701">
        <ele>149.300003</ele>
        <time>2018-10-14T12:11:37Z</time>
      </trkpt>
      <trkpt lat="43.36661" lon="6.65713">
        <ele>149.5</ele>
        <time>2018-10-14T12:11:43Z</time>
      </trkpt>
      <trkpt lat="43.36666" lon="6.65724">
        <ele>149.5</ele>
        <time>2018-10-14T12:11:48Z</time>
      </trkpt>
      <trkpt lat="43.36671" lon="6.65735">
        <ele>150.800003</ele>
        <time>2018-10-14T12:11:53Z</time>
      </trkpt>
      <trkpt lat="43.36675" lon="6.65749">
        <ele>152</ele>
        <time>2018-10-14T12:11:59Z</time>
      </trkpt>
      <trkpt lat="43.36675" lon="6.65761">
        <ele>152.699997</ele>
        <time>2018-10-14T12:12:04Z</time>
      </trkpt>
      <trkpt lat="43.36672" lon="6.65775">
        <ele>153.699997</ele>
        <time>2018-10-14T12:12:09Z</time>
      </trkpt>
      <trkpt lat="43.36667" lon="6.65787">
        <ele>154</ele>
        <time>2018-10-14T12:12:14Z</time>
      </trkpt>
      <trkpt lat="43.3666" lon="6.65799">
        <ele>154.899994</ele>
        <time>2018-10-14T12:12:19Z</time>
      </trkpt>
      <trkpt lat="43.36653" lon="6.6581">
        <ele>156</ele>
        <time>2018-10-14T12:12:25Z</time>
      </trkpt>
      <trkpt lat="43.36651" lon="6.65823">
        <ele>156.800003</ele>
        <time>2018-10-14T12:12:30Z</time>
      </trkpt>
      <trkpt lat="43.36649" lon="6.65835">
        <ele>157.699997</ele>
        <time>2018-10-14T12:12:34Z</time>
      </trkpt>
      <trkpt lat="43.36648" lon="6.65851">
        <ele>158</ele>
        <time>2018-10-14T12:12:39Z</time>
      </trkpt>
      <trkpt lat="43.36653" lon="6.65864">
        <ele>158.699997</ele>
        <time>2018-10-14T12:12:44Z</time>
      </trkpt>
      <trkpt lat="43.36663" lon="6.65868">
        <ele>159.100006</ele>
        <time>2018-10-14T12:12:49Z</time>
      </trkpt>
      <trkpt lat="43.36673" lon="6.65866">
        <ele>160.100006</ele>
        <time>2018-10-14T12:12:55Z</time>
      </trkpt>
      <trkpt lat="43.36683" lon="6.65862">
        <ele>161.5</ele>
        <time>2018-10-14T12:13:00Z</time>
      </trkpt>
      <trkpt lat="43.36694" lon="6.65858">
        <ele>162.100006</ele>
        <time>2018-10-14T12:13:05Z</time>
      </trkpt>
      <trkpt lat="43.36703" lon="6.65861">
        <ele>162.800003</ele>
        <time>2018-10-14T12:13:10Z</time>
      </trkpt>
      <trkpt lat="43.36711" lon="6.65866">
        <ele>164.600006</ele>
        <time>2018-10-14T12:13:15Z</time>
      </trkpt>
      <trkpt lat="43.36716" lon="6.65877">
        <ele>165.199997</ele>
        <time>2018-10-14T12:13:20Z</time>
      </trkpt>
      <trkpt lat="43.36721" lon="6.65889">
        <ele>166.300003</ele>
        <time>2018-10-14T12:13:26Z</time>
      </trkpt>
      <trkpt lat="43.36725" lon="6.65901">
        <ele>167.600006</ele>
        <time>2018-10-14T12:13:32Z</time>
      </trkpt>
      <trkpt lat="43.36729" lon="6.65913">
        <ele>167.800003</ele>
        <time>2018-10-14T12:13:38Z</time>
      </trkpt>
      <trkpt lat="43.36732" lon="6.65926">
        <ele>168.600006</ele>
        <time>2018-10-14T12:13:44Z</time>
      </trkpt>
      <trkpt lat="43.36735" lon="6.65939">
        <ele>170.600006</ele>
        <time>2018-10-14T12:13:50Z</time>
      </trkpt>
      <trkpt lat="43.36737" lon="6.65952">
        <ele>172.899994</ele>
        <time>2018-10-14T12:13:57Z</time>
      </trkpt>
      <trkpt lat="43.36741" lon="6.65965">
        <ele>173.800003</ele>
        <time>2018-10-14T12:14:03Z</time>
      </trkpt>
      <trkpt lat="43.36744" lon="6.65977">
        <ele>174</ele>
        <time>2018-10-14T12:14:08Z</time>
      </trkpt>
      <trkpt lat="43.36746" lon="6.65991">
        <ele>174.899994</ele>
        <time>2018-10-14T12:14:14Z</time>
      </trkpt>
      <trkpt lat="43.36747" lon="6.66004">
        <ele>175</ele>
        <time>2018-10-14T12:14:20Z</time>
      </trkpt>
      <trkpt lat="43.3675" lon="6.66017">
        <ele>176.600006</ele>
        <time>2018-10-14T12:14:27Z</time>
      </trkpt>
      <trkpt lat="43.36753" lon="6.6603">
        <ele>178</ele>
        <time>2018-10-14T12:14:34Z</time>
      </trkpt>
      <trkpt lat="43.36753" lon="6.66042">
        <ele>178.899994</ele>
        <time>2018-10-14T12:14:40Z</time>
      </trkpt>
      <trkpt lat="43.36754" lon="6.66054">
        <ele>179.699997</ele>
        <time>2018-10-14T12:14:45Z</time>
      </trkpt>
      <trkpt lat="43.36753" lon="6.66068">
        <ele>179.699997</ele>
        <time>2018-10-14T12:14:50Z</time>
      </trkpt>
      <trkpt lat="43.36753" lon="6.66082">
        <ele>181.699997</ele>
        <time>2018-10-14T12:14:57Z</time>
      </trkpt>
      <trkpt lat="43.36755" lon="6.66096">
        <ele>182.800003</ele>
        <time>2018-10-14T12:15:03Z</time>
      </trkpt>
      <trkpt lat="43.36757" lon="6.66109">
        <ele>184.300003</ele>
        <time>2018-10-14T12:15:08Z</time>
      </trkpt>
      <trkpt lat="43.36758" lon="6.66122">
        <ele>184.699997</ele>
        <time>2018-10-14T12:15:12Z</time>
      </trkpt>
      <trkpt lat="43.36757" lon="6.66137">
        <ele>185.800003</ele>
        <time>2018-10-14T12:15:16Z</time>
      </trkpt>
      <trkpt lat="43.36754" lon="6.6615">
        <ele>186.800003</ele>
        <time>2018-10-14T12:15:20Z</time>
      </trkpt>
      <trkpt lat="43.36751" lon="6.66165">
        <ele>186.899994</ele>
        <time>2018-10-14T12:15:25Z</time>
      </trkpt>
      <trkpt lat="43.36748" lon="6.66178">
        <ele>187.600006</ele>
        <time>2018-10-14T12:15:29Z</time>
      </trkpt>
      <trkpt lat="43.36743" lon="6.66191">
        <ele>188.100006</ele>
        <time>2018-10-14T12:15:33Z</time>
      </trkpt>
      <trkpt lat="43.36739" lon="6.66204">
        <ele>188.899994</ele>
        <time>2018-10-14T12:15:37Z</time>
      </trkpt>
      <trkpt lat="43.36733" lon="6.66214">
        <ele>189.600006</ele>
        <time>2018-10-14T12:15:43Z</time>
      </trkpt>
      <trkpt lat="43.36729" lon="6.66227">
        <ele>190.600006</ele>
        <time>2018-10-14T12:16:04Z</time>
      </trkpt>
      <trkpt lat="43.36724" lon="6.66237">
        <ele>190.800003</ele>
        <time>2018-10-14T12:17:43Z</time>
      </trkpt>
      <trkpt lat="43.36732" lon="6.66232">
        <ele>190.199997</ele>
        <time>2018-10-14T12:18:15Z</time>
      </trkpt>
      <trkpt lat="43.36723" lon="6.66239">
        <ele>192</ele>
        <time>2018-10-14T12:18:43Z</time>
      </trkpt>
      <trkpt lat="43.36713" lon="6.66241">
        <ele>192.199997</ele>
        <time>2018-10-14T12:18:47Z</time>
      </trkpt>
      <trkpt lat="43.36701" lon="6.66247">
        <ele>192.399994</ele>
        <time>2018-10-14T12:18:51Z</time>
      </trkpt>
      <trkpt lat="43.36696" lon="6.66258">
        <ele>192.199997</ele>
        <time>2018-10-14T12:18:54Z</time>
      </trkpt>
      <trkpt lat="43.36693" lon="6.66272">
        <ele>190.899994</ele>
        <time>2018-10-14T12:18:58Z</time>
      </trkpt>
      <trkpt lat="43.36684" lon="6.66278">
        <ele>189.600006</ele>
        <time>2018-10-14T12:19:06Z</time>
      </trkpt>
      <trkpt lat="43.36675" lon="6.66288">
        <ele>187.399994</ele>
        <time>2018-10-14T12:19:11Z</time>
      </trkpt>
      <trkpt lat="43.36673" lon="6.66302">
        <ele>185.100006</ele>
        <time>2018-10-14T12:19:15Z</time>
      </trkpt>
      <trkpt lat="43.3667" lon="6.66315">
        <ele>183.600006</ele>
        <time>2018-10-14T12:19:19Z</time>
      </trkpt>
      <trkpt lat="43.36669" lon="6.66329">
        <ele>183.600006</ele>
        <time>2018-10-14T12:19:22Z</time>
      </trkpt>
      <trkpt lat="43.36665" lon="6.66345">
        <ele>182.800003</ele>
        <time>2018-10-14T12:19:25Z</time>
      </trkpt>
      <trkpt lat="43.36666" lon="6.66361">
        <ele>182.100006</ele>
        <time>2018-10-14T12:19:27Z</time>
      </trkpt>
      <trkpt lat="43.36668" lon="6.66373">
        <ele>181.699997</ele>
        <time>2018-10-14T12:19:29Z</time>
      </trkpt>
      <trkpt lat="43.36669" lon="6.66391">
        <ele>181.199997</ele>
        <time>2018-10-14T12:19:32Z</time>
      </trkpt>
      <trkpt lat="43.36671" lon="6.66404">
        <ele>179.199997</ele>
        <time>2018-10-14T12:19:36Z</time>
      </trkpt>
      <trkpt lat="43.36674" lon="6.66417">
        <ele>177.800003</ele>
        <time>2018-10-14T12:19:42Z</time>
      </trkpt>
      <trkpt lat="43.36677" lon="6.66431">
        <ele>175.899994</ele>
        <time>2018-10-14T12:19:47Z</time>
      </trkpt>
      <trkpt lat="43.36679" lon="6.66443">
        <ele>173.800003</ele>
        <time>2018-10-14T12:19:50Z</time>
      </trkpt>
      <trkpt lat="43.3668" lon="6.66457">
        <ele>171.100006</ele>
        <time>2018-10-14T12:19:55Z</time>
      </trkpt>
      <trkpt lat="43.36683" lon="6.66469">
        <ele>167.899994</ele>
        <time>2018-10-14T12:20:05Z</time>
      </trkpt>
      <trkpt lat="43.36685" lon="6.66482">
        <ele>164.899994</ele>
        <time>2018-10-14T12:20:25Z</time>
      </trkpt>
      <trkpt lat="43.3669" lon="6.66496">
        <ele>162</ele>
        <time>2018-10-14T12:20:36Z</time>
      </trkpt>
      <trkpt lat="43.36689" lon="6.66509">
        <ele>160.199997</ele>
        <time>2018-10-14T12:20:42Z</time>
      </trkpt>
      <trkpt lat="43.36691" lon="6.66521">
        <ele>159.600006</ele>
        <time>2018-10-14T12:20:47Z</time>
      </trkpt>
      <trkpt lat="43.36693" lon="6.66534">
        <ele>158</ele>
        <time>2018-10-14T12:20:51Z</time>
      </trkpt>
      <trkpt lat="43.36694" lon="6.66548">
        <ele>155.5</ele>
        <time>2018-10-14T12:20:56Z</time>
      </trkpt>
      <trkpt lat="43.36697" lon="6.66561">
        <ele>153.899994</ele>
        <time>2018-10-14T12:21:02Z</time>
      </trkpt>
      <trkpt lat="43.36699" lon="6.66574">
        <ele>152.300003</ele>
        <time>2018-10-14T12:21:08Z</time>
      </trkpt>
      <trkpt lat="43.36707" lon="6.66584">
        <ele>151.5</ele>
        <time>2018-10-14T12:21:13Z</time>
      </trkpt>
      <trkpt lat="43.36712" lon="6.66596">
        <ele>149.300003</ele>
        <time>2018-10-14T12:21:18Z</time>
      </trkpt>
      <trkpt lat="43.36715" lon="6.66608">
        <ele>147.5</ele>
        <time>2018-10-14T12:21:23Z</time>
      </trkpt>
      <trkpt lat="43.36718" lon="6.66621">
        <ele>146.100006</ele>
        <time>2018-10-14T12:21:28Z</time>
      </trkpt>
      <trkpt lat="43.36722" lon="6.66632">
        <ele>143.100006</ele>
        <time>2018-10-14T12:21:35Z</time>
      </trkpt>
      <trkpt lat="43.36725" lon="6.66644">
        <ele>140.300003</ele>
        <time>2018-10-14T12:21:48Z</time>
      </trkpt>
      <trkpt lat="43.36725" lon="6.66656">
        <ele>137.199997</ele>
        <time>2018-10-14T12:22:03Z</time>
      </trkpt>
      <trkpt lat="43.36728" lon="6.6667">
        <ele>134.699997</ele>
        <time>2018-10-14T12:22:13Z</time>
      </trkpt>
      <trkpt lat="43.36728" lon="6.66684">
        <ele>133.600006</ele>
        <time>2018-10-14T12:22:20Z</time>
      </trkpt>
      <trkpt lat="43.36727" lon="6.66698">
        <ele>132.600006</ele>
        <time>2018-10-14T12:22:24Z</time>
      </trkpt>
      <trkpt lat="43.36727" lon="6.66712">
        <ele>131.800003</ele>
        <time>2018-10-14T12:22:29Z</time>
      </trkpt>
      <trkpt lat="43.36727" lon="6.66725">
        <ele>131</ele>
        <time>2018-10-14T12:22:40Z</time>
      </trkpt>
      <trkpt lat="43.36728" lon="6.6674">
        <ele>130.899994</ele>
        <time>2018-10-14T12:22:51Z</time>
      </trkpt>
      <trkpt lat="43.36727" lon="6.66752">
        <ele>130.699997</ele>
        <time>2018-10-14T12:22:54Z</time>
      </trkpt>
      <trkpt lat="43.36724" lon="6.66765">
        <ele>130</ele>
        <time>2018-10-14T12:22:57Z</time>
      </trkpt>
      <trkpt lat="43.36724" lon="6.6678">
        <ele>129</ele>
        <time>2018-10-14T12:23:00Z</time>
      </trkpt>
      <trkpt lat="43.36727" lon="6.66794">
        <ele>128.899994</ele>
        <time>2018-10-14T12:23:03Z</time>
      </trkpt>
      <trkpt lat="43.36729" lon="6.66811">
        <ele>128.399994</ele>
        <time>2018-10-14T12:23:07Z</time>
      </trkpt>
      <trkpt lat="43.3673" lon="6.66825">
        <ele>127</ele>
        <time>2018-10-14T12:23:10Z</time>
      </trkpt>
      <trkpt lat="43.36728" lon="6.6684">
        <ele>125.199997</ele>
        <time>2018-10-14T12:23:14Z</time>
      </trkpt>
      <trkpt lat="43.36722" lon="6.66853">
        <ele>124.699997</ele>
        <time>2018-10-14T12:23:17Z</time>
      </trkpt>
      <trkpt lat="43.36714" lon="6.66859">
        <ele>123.800003</ele>
        <time>2018-10-14T12:23:20Z</time>
      </trkpt>
      <trkpt lat="43.36704" lon="6.66861">
        <ele>122.800003</ele>
        <time>2018-10-14T12:23:27Z</time>
      </trkpt>
      <trkpt lat="43.367" lon="6.66873">
        <ele>119.800003</ele>
        <time>2018-10-14T12:23:41Z</time>
      </trkpt>
      <trkpt lat="43.36701" lon="6.66885">
        <ele>120.599998</ele>
        <time>2018-10-14T12:23:53Z</time>
      </trkpt>
      <trkpt lat="43.36704" lon="6.66897">
        <ele>120.800003</ele>
        <time>2018-10-14T12:24:03Z</time>
      </trkpt>
      <trkpt lat="43.36706" lon="6.6691">
        <ele>122.800003</ele>
        <time>2018-10-14T12:24:09Z</time>
      </trkpt>
      <trkpt lat="43.36708" lon="6.66924">
        <ele>123.800003</ele>
        <time>2018-10-14T12:24:16Z</time>
      </trkpt>
      <trkpt lat="43.36707" lon="6.66938">
        <ele>125.099998</ele>
        <time>2018-10-14T12:24:22Z</time>
      </trkpt>
      <trkpt lat="43.36707" lon="6.66951">
        <ele>125.599998</ele>
        <time>2018-10-14T12:24:28Z</time>
      </trkpt>
      <trkpt lat="43.36707" lon="6.66965">
        <ele>126.400002</ele>
        <time>2018-10-14T12:24:33Z</time>
      </trkpt>
      <trkpt lat="43.36706" lon="6.66979">
        <ele>126.800003</ele>
        <time>2018-10-14T12:24:38Z</time>
      </trkpt>
      <trkpt lat="43.36702" lon="6.66992">
        <ele>127.400002</ele>
        <time>2018-10-14T12:24:42Z</time>
      </trkpt>
      <trkpt lat="43.36699" lon="6.67007">
        <ele>128.300003</ele>
        <time>2018-10-14T12:24:46Z</time>
      </trkpt>
      <trkpt lat="43.36697" lon="6.67024">
        <ele>128.300003</ele>
        <time>2018-10-14T12:24:49Z</time>
      </trkpt>
      <trkpt lat="43.36691" lon="6.67041">
        <ele>128.600006</ele>
        <time>2018-10-14T12:24:52Z</time>
      </trkpt>
      <trkpt lat="43.36684" lon="6.67055">
        <ele>127.900002</ele>
        <time>2018-10-14T12:24:55Z</time>
      </trkpt>
      <trkpt lat="43.36682" lon="6.6707">
        <ele>127.900002</ele>
        <time>2018-10-14T12:24:58Z</time>
      </trkpt>
      <trkpt lat="43.36681" lon="6.67084">
        <ele>126.400002</ele>
        <time>2018-10-14T12:25:01Z</time>
      </trkpt>
      <trkpt lat="43.36684" lon="6.67097">
        <ele>125.599998</ele>
        <time>2018-10-14T12:25:04Z</time>
      </trkpt>
      <trkpt lat="43.36687" lon="6.67113">
        <ele>124.099998</ele>
        <time>2018-10-14T12:25:07Z</time>
      </trkpt>
      <trkpt lat="43.36689" lon="6.6713">
        <ele>122.900002</ele>
        <time>2018-10-14T12:25:10Z</time>
      </trkpt>
      <trkpt lat="43.36688" lon="6.67145">
        <ele>121.599998</ele>
        <time>2018-10-14T12:25:12Z</time>
      </trkpt>
      <trkpt lat="43.36686" lon="6.6716">
        <ele>120.800003</ele>
        <time>2018-10-14T12:25:14Z</time>
      </trkpt>
      <trkpt lat="43.36685" lon="6.67174">
        <ele>120.300003</ele>
        <time>2018-10-14T12:25:16Z</time>
      </trkpt>
      <trkpt lat="43.36685" lon="6.67189">
        <ele>119.699997</ele>
        <time>2018-10-14T12:25:18Z</time>
      </trkpt>
      <trkpt lat="43.3668" lon="6.67201">
        <ele>119.199997</ele>
        <time>2018-10-14T12:25:20Z</time>
      </trkpt>
      <trkpt lat="43.36668" lon="6.67206">
        <ele>118.5</ele>
        <time>2018-10-14T12:25:23Z</time>
      </trkpt>
      <trkpt lat="43.36661" lon="6.67214">
        <ele>118</ele>
        <time>2018-10-14T12:25:26Z</time>
      </trkpt>
      <trkpt lat="43.36658" lon="6.67229">
        <ele>117.199997</ele>
        <time>2018-10-14T12:25:29Z</time>
      </trkpt>
      <trkpt lat="43.36655" lon="6.67244">
        <ele>115.800003</ele>
        <time>2018-10-14T12:25:32Z</time>
      </trkpt>
      <trkpt lat="43.36657" lon="6.6726">
        <ele>115.599998</ele>
        <time>2018-10-14T12:25:35Z</time>
      </trkpt>
      <trkpt lat="43.36655" lon="6.67275">
        <ele>115</ele>
        <time>2018-10-14T12:25:38Z</time>
      </trkpt>
      <trkpt lat="43.36651" lon="6.67288">
        <ele>114.599998</ele>
        <time>2018-10-14T12:25:41Z</time>
      </trkpt>
      <trkpt lat="43.36655" lon="6.67301">
        <ele>112.800003</ele>
        <time>2018-10-14T12:25:44Z</time>
      </trkpt>
      <trkpt lat="43.36663" lon="6.6731">
        <ele>113.199997</ele>
        <time>2018-10-14T12:25:47Z</time>
      </trkpt>
      <trkpt lat="43.36671" lon="6.67317">
        <ele>113.5</ele>
        <time>2018-10-14T12:25:50Z</time>
      </trkpt>
      <trkpt lat="43.3668" lon="6.67325">
        <ele>114.300003</ele>
        <time>2018-10-14T12:25:54Z</time>
      </trkpt>
      <trkpt lat="43.36688" lon="6.67333">
        <ele>115</ele>
        <time>2018-10-14T12:25:58Z</time>
      </trkpt>
      <trkpt lat="43.36694" lon="6.67342">
        <ele>115.599998</ele>
        <time>2018-10-14T12:26:02Z</time>
      </trkpt>
      <trkpt lat="43.36699" lon="6.67353">
        <ele>116.699997</ele>
        <time>2018-10-14T12:26:06Z</time>
      </trkpt>
      <trkpt lat="43.36703" lon="6.67366">
        <ele>117.300003</ele>
        <time>2018-10-14T12:26:10Z</time>
      </trkpt>
      <trkpt lat="43.36704" lon="6.6738">
        <ele>117.800003</ele>
        <time>2018-10-14T12:26:14Z</time>
      </trkpt>
      <trkpt lat="43.36704" lon="6.67393">
        <ele>118.699997</ele>
        <time>2018-10-14T12:26:18Z</time>
      </trkpt>
      <trkpt lat="43.36705" lon="6.6741">
        <ele>119</ele>
        <time>2018-10-14T12:26:22Z</time>
      </trkpt>
      <trkpt lat="43.36709" lon="6.67425">
        <ele>118.199997</ele>
        <time>2018-10-14T12:26:25Z</time>
      </trkpt>
      <trkpt lat="43.36714" lon="6.67439">
        <ele>119.5</ele>
        <time>2018-10-14T12:26:28Z</time>
      </trkpt>
      <trkpt lat="43.36718" lon="6.67453">
        <ele>119.400002</ele>
        <time>2018-10-14T12:26:31Z</time>
      </trkpt>
      <trkpt lat="43.36721" lon="6.67469">
        <ele>118.699997</ele>
        <time>2018-10-14T12:26:34Z</time>
      </trkpt>
      <trkpt lat="43.36727" lon="6.67484">
        <ele>118.599998</ele>
        <time>2018-10-14T12:26:37Z</time>
      </trkpt>
      <trkpt lat="43.36732" lon="6.67497">
        <ele>118.699997</ele>
        <time>2018-10-14T12:26:40Z</time>
      </trkpt>
      <trkpt lat="43.36737" lon="6.67509">
        <ele>118.400002</ele>
        <time>2018-10-14T12:26:43Z</time>
      </trkpt>
      <trkpt lat="43.36742" lon="6.67521">
        <ele>118.5</ele>
        <time>2018-10-14T12:26:46Z</time>
      </trkpt>
      <trkpt lat="43.36747" lon="6.67532">
        <ele>118.5</ele>
        <time>2018-10-14T12:26:49Z</time>
      </trkpt>
      <trkpt lat="43.3675" lon="6.67544">
        <ele>119</ele>
        <time>2018-10-14T12:26:52Z</time>
      </trkpt>
      <trkpt lat="43.36752" lon="6.67558">
        <ele>119.300003</ele>
        <time>2018-10-14T12:26:55Z</time>
      </trkpt>
      <trkpt lat="43.36758" lon="6.67571">
        <ele>120.199997</ele>
        <time>2018-10-14T12:26:58Z</time>
      </trkpt>
      <trkpt lat="43.3676" lon="6.67587">
        <ele>120</ele>
        <time>2018-10-14T12:27:02Z</time>
      </trkpt>
      <trkpt lat="43.36758" lon="6.676">
        <ele>120.199997</ele>
        <time>2018-10-14T12:27:07Z</time>
      </trkpt>
      <trkpt lat="43.36755" lon="6.67614">
        <ele>121.300003</ele>
        <time>2018-10-14T12:27:12Z</time>
      </trkpt>
      <trkpt lat="43.36751" lon="6.67626">
        <ele>122.800003</ele>
        <time>2018-10-14T12:27:19Z</time>
      </trkpt>
      <trkpt lat="43.36747" lon="6.67638">
        <ele>124.599998</ele>
        <time>2018-10-14T12:27:25Z</time>
      </trkpt>
      <trkpt lat="43.36744" lon="6.6765">
        <ele>126.300003</ele>
        <time>2018-10-14T12:27:32Z</time>
      </trkpt>
      <trkpt lat="43.36747" lon="6.67663">
        <ele>127.699997</ele>
        <time>2018-10-14T12:27:38Z</time>
      </trkpt>
      <trkpt lat="43.36743" lon="6.67676">
        <ele>129.100006</ele>
        <time>2018-10-14T12:27:44Z</time>
      </trkpt>
      <trkpt lat="43.36741" lon="6.67691">
        <ele>129.800003</ele>
        <time>2018-10-14T12:27:49Z</time>
      </trkpt>
      <trkpt lat="43.36743" lon="6.67703">
        <ele>131.600006</ele>
        <time>2018-10-14T12:27:54Z</time>
      </trkpt>
      <trkpt lat="43.36744" lon="6.67716">
        <ele>132.399994</ele>
        <time>2018-10-14T12:27:59Z</time>
      </trkpt>
      <trkpt lat="43.36746" lon="6.67731">
        <ele>133.5</ele>
        <time>2018-10-14T12:28:05Z</time>
      </trkpt>
      <trkpt lat="43.36748" lon="6.67745">
        <ele>135</ele>
        <time>2018-10-14T12:28:11Z</time>
      </trkpt>
      <trkpt lat="43.36751" lon="6.67758">
        <ele>135.899994</ele>
        <time>2018-10-14T12:28:17Z</time>
      </trkpt>
      <trkpt lat="43.36754" lon="6.67771">
        <ele>137.399994</ele>
        <time>2018-10-14T12:28:24Z</time>
      </trkpt>
      <trkpt lat="43.36756" lon="6.67784">
        <ele>139</ele>
        <time>2018-10-14T12:28:30Z</time>
      </trkpt>
      <trkpt lat="43.3676" lon="6.67796">
        <ele>140.100006</ele>
        <time>2018-10-14T12:28:36Z</time>
      </trkpt>
      <trkpt lat="43.36763" lon="6.67808">
        <ele>141.899994</ele>
        <time>2018-10-14T12:28:43Z</time>
      </trkpt>
      <trkpt lat="43.36764" lon="6.67822">
        <ele>144.100006</ele>
        <time>2018-10-14T12:28:50Z</time>
      </trkpt>
      <trkpt lat="43.36765" lon="6.67836">
        <ele>146.399994</ele>
        <time>2018-10-14T12:28:57Z</time>
      </trkpt>
      <trkpt lat="43.36764" lon="6.67848">
        <ele>148.300003</ele>
        <time>2018-10-14T12:29:04Z</time>
      </trkpt>
      <trkpt lat="43.36762" lon="6.67861">
        <ele>150.699997</ele>
        <time>2018-10-14T12:29:12Z</time>
      </trkpt>
      <trkpt lat="43.36762" lon="6.67874">
        <ele>152.399994</ele>
        <time>2018-10-14T12:29:20Z</time>
      </trkpt>
      <trkpt lat="43.36764" lon="6.67888">
        <ele>155.100006</ele>
        <time>2018-10-14T12:29:28Z</time>
      </trkpt>
      <trkpt lat="43.36766" lon="6.679">
        <ele>156.899994</ele>
        <time>2018-10-14T12:29:35Z</time>
      </trkpt>
      <trkpt lat="43.36768" lon="6.67913">
        <ele>158.600006</ele>
        <time>2018-10-14T12:29:42Z</time>
      </trkpt>
      <trkpt lat="43.36767" lon="6.67925">
        <ele>160.5</ele>
        <time>2018-10-14T12:29:49Z</time>
      </trkpt>
      <trkpt lat="43.36763" lon="6.67937">
        <ele>161</ele>
        <time>2018-10-14T12:29:55Z</time>
      </trkpt>
      <trkpt lat="43.36758" lon="6.6795">
        <ele>162</ele>
        <time>2018-10-14T12:30:00Z</time>
      </trkpt>
      <trkpt lat="43.36754" lon="6.67962">
        <ele>162.300003</ele>
        <time>2018-10-14T12:30:04Z</time>
      </trkpt>
      <trkpt lat="43.36749" lon="6.67976">
        <ele>162.5</ele>
        <time>2018-10-14T12:30:08Z</time>
      </trkpt>
      <trkpt lat="43.36741" lon="6.67986">
        <ele>162.399994</ele>
        <time>2018-10-14T12:30:12Z</time>
      </trkpt>
      <trkpt lat="43.36731" lon="6.6799">
        <ele>161.899994</ele>
        <time>2018-10-14T12:30:16Z</time>
      </trkpt>
      <trkpt lat="43.36722" lon="6.67995">
        <ele>160.899994</ele>
        <time>2018-10-14T12:30:21Z</time>
      </trkpt>
      <trkpt lat="43.36709" lon="6.68">
        <ele>161.100006</ele>
        <time>2018-10-14T12:30:25Z</time>
      </trkpt>
      <trkpt lat="43.36701" lon="6.68012">
        <ele>161.899994</ele>
        <time>2018-10-14T12:30:28Z</time>
      </trkpt>
      <trkpt lat="43.36697" lon="6.68025">
        <ele>162</ele>
        <time>2018-10-14T12:30:31Z</time>
      </trkpt>
      <trkpt lat="43.36697" lon="6.68039">
        <ele>162.699997</ele>
        <time>2018-10-14T12:30:34Z</time>
      </trkpt>
      <trkpt lat="43.36698" lon="6.68054">
        <ele>162.899994</ele>
        <time>2018-10-14T12:30:37Z</time>
      </trkpt>
      <trkpt lat="43.36703" lon="6.68068">
        <ele>162.899994</ele>
        <time>2018-10-14T12:30:40Z</time>
      </trkpt>
      <trkpt lat="43.36709" lon="6.68082">
        <ele>163.5</ele>
        <time>2018-10-14T12:30:43Z</time>
      </trkpt>
      <trkpt lat="43.36715" lon="6.68096">
        <ele>164</ele>
        <time>2018-10-14T12:30:46Z</time>
      </trkpt>
      <trkpt lat="43.36719" lon="6.68113">
        <ele>165.199997</ele>
        <time>2018-10-14T12:30:49Z</time>
      </trkpt>
      <trkpt lat="43.36719" lon="6.68126">
        <ele>164.699997</ele>
        <time>2018-10-14T12:30:51Z</time>
      </trkpt>
      <trkpt lat="43.36717" lon="6.68138">
        <ele>164.699997</ele>
        <time>2018-10-14T12:30:53Z</time>
      </trkpt>
      <trkpt lat="43.36714" lon="6.6815">
        <ele>165.100006</ele>
        <time>2018-10-14T12:30:55Z</time>
      </trkpt>
      <trkpt lat="43.3671" lon="6.68162">
        <ele>165.600006</ele>
        <time>2018-10-14T12:30:57Z</time>
      </trkpt>
      <trkpt lat="43.36705" lon="6.68174">
        <ele>166</ele>
        <time>2018-10-14T12:30:59Z</time>
      </trkpt>
      <trkpt lat="43.36699" lon="6.68184">
        <ele>165.100006</ele>
        <time>2018-10-14T12:31:01Z</time>
      </trkpt>
      <trkpt lat="43.36691" lon="6.68194">
        <ele>165.199997</ele>
        <time>2018-10-14T12:31:03Z</time>
      </trkpt>
      <trkpt lat="43.36684" lon="6.68203">
        <ele>165.100006</ele>
        <time>2018-10-14T12:31:05Z</time>
      </trkpt>
      <trkpt lat="43.36676" lon="6.68211">
        <ele>164.800003</ele>
        <time>2018-10-14T12:31:07Z</time>
      </trkpt>
      <trkpt lat="43.36668" lon="6.68219">
        <ele>164.699997</ele>
        <time>2018-10-14T12:31:09Z</time>
      </trkpt>
      <trkpt lat="43.3666" lon="6.68225">
        <ele>164.699997</ele>
        <time>2018-10-14T12:31:11Z</time>
      </trkpt>
      <trkpt lat="43.36652" lon="6.68231">
        <ele>164.300003</ele>
        <time>2018-10-14T12:31:13Z</time>
      </trkpt>
      <trkpt lat="43.36643" lon="6.68235">
        <ele>163.600006</ele>
        <time>2018-10-14T12:31:15Z</time>
      </trkpt>
      <trkpt lat="43.36633" lon="6.68235">
        <ele>162.800003</ele>
        <time>2018-10-14T12:31:17Z</time>
      </trkpt>
      <trkpt lat="43.36624" lon="6.6823">
        <ele>162.800003</ele>
        <time>2018-10-14T12:31:19Z</time>
      </trkpt>
      <trkpt lat="43.36614" lon="6.68224">
        <ele>162.600006</ele>
        <time>2018-10-14T12:31:21Z</time>
      </trkpt>
      <trkpt lat="43.36605" lon="6.68218">
        <ele>162</ele>
        <time>2018-10-14T12:31:23Z</time>
      </trkpt>
      <trkpt lat="43.36595" lon="6.68213">
        <ele>162.100006</ele>
        <time>2018-10-14T12:31:25Z</time>
      </trkpt>
      <trkpt lat="43.36585" lon="6.68208">
        <ele>162</ele>
        <time>2018-10-14T12:31:27Z</time>
      </trkpt>
      <trkpt lat="43.36575" lon="6.68202">
        <ele>162.300003</ele>
        <time>2018-10-14T12:31:29Z</time>
      </trkpt>
      <trkpt lat="43.36566" lon="6.68194">
        <ele>162.100006</ele>
        <time>2018-10-14T12:31:31Z</time>
      </trkpt>
      <trkpt lat="43.36557" lon="6.68185">
        <ele>161.600006</ele>
        <time>2018-10-14T12:31:33Z</time>
      </trkpt>
      <trkpt lat="43.3655" lon="6.68174">
        <ele>162.199997</ele>
        <time>2018-10-14T12:31:35Z</time>
      </trkpt>
      <trkpt lat="43.36544" lon="6.68161">
        <ele>162</ele>
        <time>2018-10-14T12:31:37Z</time>
      </trkpt>
      <trkpt lat="43.36538" lon="6.68149">
        <ele>162.600006</ele>
        <time>2018-10-14T12:31:39Z</time>
      </trkpt>
      <trkpt lat="43.36529" lon="6.68139">
        <ele>162.899994</ele>
        <time>2018-10-14T12:31:41Z</time>
      </trkpt>
      <trkpt lat="43.36518" lon="6.68134">
        <ele>163.199997</ele>
        <time>2018-10-14T12:31:43Z</time>
      </trkpt>
      <trkpt lat="43.36507" lon="6.68132">
        <ele>163.399994</ele>
        <time>2018-10-14T12:31:45Z</time>
      </trkpt>
      <trkpt lat="43.36495" lon="6.68129">
        <ele>163.300003</ele>
        <time>2018-10-14T12:31:47Z</time>
      </trkpt>
      <trkpt lat="43.36484" lon="6.68125">
        <ele>163.199997</ele>
        <time>2018-10-14T12:31:49Z</time>
      </trkpt>
      <trkpt lat="43.36473" lon="6.6812">
        <ele>162.899994</ele>
        <time>2018-10-14T12:31:51Z</time>
      </trkpt>
      <trkpt lat="43.36462" lon="6.68116">
        <ele>162.899994</ele>
        <time>2018-10-14T12:31:53Z</time>
      </trkpt>
      <trkpt lat="43.36451" lon="6.68119">
        <ele>162.800003</ele>
        <time>2018-10-14T12:31:55Z</time>
      </trkpt>
      <trkpt lat="43.36444" lon="6.6813">
        <ele>163.199997</ele>
        <time>2018-10-14T12:31:57Z</time>
      </trkpt>
      <trkpt lat="43.36442" lon="6.68145">
        <ele>163.100006</ele>
        <time>2018-10-14T12:31:59Z</time>
      </trkpt>
      <trkpt lat="43.36441" lon="6.68159">
        <ele>163.100006</ele>
        <time>2018-10-14T12:32:01Z</time>
      </trkpt>
      <trkpt lat="43.36441" lon="6.68174">
        <ele>163.100006</ele>
        <time>2018-10-14T12:32:03Z</time>
      </trkpt>
      <trkpt lat="43.3644" lon="6.68188">
        <ele>163.300003</ele>
        <time>2018-10-14T12:32:05Z</time>
      </trkpt>
      <trkpt lat="43.36441" lon="6.68202">
        <ele>163.199997</ele>
        <time>2018-10-14T12:32:07Z</time>
      </trkpt>
      <trkpt lat="43.36444" lon="6.68215">
        <ele>163.199997</ele>
        <time>2018-10-14T12:32:09Z</time>
      </trkpt>
      <trkpt lat="43.36446" lon="6.68229">
        <ele>163.5</ele>
        <time>2018-10-14T12:32:11Z</time>
      </trkpt>
      <trkpt lat="43.36447" lon="6.68243">
        <ele>163.899994</ele>
        <time>2018-10-14T12:32:13Z</time>
      </trkpt>
      <trkpt lat="43.36448" lon="6.68258">
        <ele>164</ele>
        <time>2018-10-14T12:32:15Z</time>
      </trkpt>
      <trkpt lat="43.36447" lon="6.68273">
        <ele>163.5</ele>
        <time>2018-10-14T12:32:17Z</time>
      </trkpt>
      <trkpt lat="43.36444" lon="6.68289">
        <ele>163.5</ele>
        <time>2018-10-14T12:32:19Z</time>
      </trkpt>
      <trkpt lat="43.36438" lon="6.68303">
        <ele>163.699997</ele>
        <time>2018-10-14T12:32:21Z</time>
      </trkpt>
      <trkpt lat="43.36431" lon="6.68315">
        <ele>163.800003</ele>
        <time>2018-10-14T12:32:23Z</time>
      </trkpt>
      <trkpt lat="43.36423" lon="6.68326">
        <ele>163.800003</ele>
        <time>2018-10-14T12:32:25Z</time>
      </trkpt>
      <trkpt lat="43.36412" lon="6.68333">
        <ele>163.399994</ele>
        <time>2018-10-14T12:32:27Z</time>
      </trkpt>
      <trkpt lat="43.36402" lon="6.68339">
        <ele>163.600006</ele>
        <time>2018-10-14T12:32:29Z</time>
      </trkpt>
      <trkpt lat="43.36391" lon="6.68344">
        <ele>163.699997</ele>
        <time>2018-10-14T12:32:31Z</time>
      </trkpt>
      <trkpt lat="43.36379" lon="6.68348">
        <ele>163.699997</ele>
        <time>2018-10-14T12:32:33Z</time>
      </trkpt>
      <trkpt lat="43.36368" lon="6.68355">
        <ele>162.699997</ele>
        <time>2018-10-14T12:32:35Z</time>
      </trkpt>
      <trkpt lat="43.36358" lon="6.68366">
        <ele>162.600006</ele>
        <time>2018-10-14T12:32:37Z</time>
      </trkpt>
      <trkpt lat="43.36351" lon="6.6838">
        <ele>162.399994</ele>
        <time>2018-10-14T12:32:39Z</time>
      </trkpt>
      <trkpt lat="43.36345" lon="6.68394">
        <ele>162.100006</ele>
        <time>2018-10-14T12:32:41Z</time>
      </trkpt>
      <trkpt lat="43.36341" lon="6.68408">
        <ele>161.699997</ele>
        <time>2018-10-14T12:32:43Z</time>
      </trkpt>
      <trkpt lat="43.36337" lon="6.68423">
        <ele>161.699997</ele>
        <time>2018-10-14T12:32:46Z</time>
      </trkpt>
      <trkpt lat="43.36337" lon="6.68435">
        <ele>162</ele>
        <time>2018-10-14T12:32:57Z</time>
      </trkpt>
      <trkpt lat="43.36342" lon="6.68446">
        <ele>163.199997</ele>
        <time>2018-10-14T12:33:08Z</time>
      </trkpt>
      <trkpt lat="43.36348" lon="6.68455">
        <ele>163.800003</ele>
        <time>2018-10-14T12:33:14Z</time>
      </trkpt>
      <trkpt lat="43.36356" lon="6.68462">
        <ele>164.399994</ele>
        <time>2018-10-14T12:33:18Z</time>
      </trkpt>
      <trkpt lat="43.36364" lon="6.6847">
        <ele>163.899994</ele>
        <time>2018-10-14T12:33:23Z</time>
      </trkpt>
      <trkpt lat="43.36371" lon="6.68481">
        <ele>164.899994</ele>
        <time>2018-10-14T12:33:28Z</time>
      </trkpt>
      <trkpt lat="43.36379" lon="6.68493">
        <ele>166.100006</ele>
        <time>2018-10-14T12:33:33Z</time>
      </trkpt>
      <trkpt lat="43.36385" lon="6.68504">
        <ele>166.5</ele>
        <time>2018-10-14T12:33:37Z</time>
      </trkpt>
      <trkpt lat="43.36391" lon="6.68514">
        <ele>166.5</ele>
        <time>2018-10-14T12:33:41Z</time>
      </trkpt>
      <trkpt lat="43.36398" lon="6.68523">
        <ele>166.600006</ele>
        <time>2018-10-14T12:33:45Z</time>
      </trkpt>
      <trkpt lat="43.36407" lon="6.68531">
        <ele>166.399994</ele>
        <time>2018-10-14T12:33:50Z</time>
      </trkpt>
      <trkpt lat="43.36416" lon="6.68535">
        <ele>166.600006</ele>
        <time>2018-10-14T12:33:54Z</time>
      </trkpt>
      <trkpt lat="43.36424" lon="6.68541">
        <ele>167.199997</ele>
        <time>2018-10-14T12:33:59Z</time>
      </trkpt>
      <trkpt lat="43.36433" lon="6.68548">
        <ele>168.300003</ele>
        <time>2018-10-14T12:34:04Z</time>
      </trkpt>
      <trkpt lat="43.3644" lon="6.68555">
        <ele>169.300003</ele>
        <time>2018-10-14T12:34:08Z</time>
      </trkpt>
      <trkpt lat="43.36447" lon="6.68564">
        <ele>170</ele>
        <time>2018-10-14T12:34:13Z</time>
      </trkpt>
      <trkpt lat="43.36453" lon="6.68575">
        <ele>170.5</ele>
        <time>2018-10-14T12:34:17Z</time>
      </trkpt>
      <trkpt lat="43.36459" lon="6.68586">
        <ele>170.600006</ele>
        <time>2018-10-14T12:34:21Z</time>
      </trkpt>
      <trkpt lat="43.36466" lon="6.68599">
        <ele>170.100006</ele>
        <time>2018-10-14T12:34:25Z</time>
      </trkpt>
      <trkpt lat="43.36472" lon="6.68612">
        <ele>169.5</ele>
        <time>2018-10-14T12:34:28Z</time>
      </trkpt>
      <trkpt lat="43.36477" lon="6.68623">
        <ele>169.199997</ele>
        <time>2018-10-14T12:34:30Z</time>
      </trkpt>
      <trkpt lat="43.36483" lon="6.68634">
        <ele>169.300003</ele>
        <time>2018-10-14T12:34:32Z</time>
      </trkpt>
      <trkpt lat="43.36487" lon="6.68645">
        <ele>168.600006</ele>
        <time>2018-10-14T12:34:34Z</time>
      </trkpt>
      <trkpt lat="43.36493" lon="6.68656">
        <ele>168.699997</ele>
        <time>2018-10-14T12:34:36Z</time>
      </trkpt>
      <trkpt lat="43.36499" lon="6.68667">
        <ele>167.899994</ele>
        <time>2018-10-14T12:34:38Z</time>
      </trkpt>
      <trkpt lat="43.36505" lon="6.68679">
        <ele>167.399994</ele>
        <time>2018-10-14T12:34:40Z</time>
      </trkpt>
      <trkpt lat="43.36509" lon="6.68691">
        <ele>166.899994</ele>
        <time>2018-10-14T12:34:42Z</time>
      </trkpt>
      <trkpt lat="43.36513" lon="6.68704">
        <ele>166.600006</ele>
        <time>2018-10-14T12:34:44Z</time>
      </trkpt>
      <trkpt lat="43.36515" lon="6.68716">
        <ele>165.600006</ele>
        <time>2018-10-14T12:34:46Z</time>
      </trkpt>
      <trkpt lat="43.36515" lon="6.68733">
        <ele>164.899994</ele>
        <time>2018-10-14T12:34:49Z</time>
      </trkpt>
      <trkpt lat="43.36515" lon="6.68747">
        <ele>164.5</ele>
        <time>2018-10-14T12:34:53Z</time>
      </trkpt>
      <trkpt lat="43.36513" lon="6.68761">
        <ele>164.199997</ele>
        <time>2018-10-14T12:34:57Z</time>
      </trkpt>
      <trkpt lat="43.36509" lon="6.68776">
        <ele>164.100006</ele>
        <time>2018-10-14T12:35:01Z</time>
      </trkpt>
      <trkpt lat="43.36503" lon="6.68786">
        <ele>163.899994</ele>
        <time>2018-10-14T12:35:04Z</time>
      </trkpt>
      <trkpt lat="43.36497" lon="6.68795">
        <ele>163.699997</ele>
        <time>2018-10-14T12:35:07Z</time>
      </trkpt>
      <trkpt lat="43.36488" lon="6.68798">
        <ele>163.199997</ele>
        <time>2018-10-14T12:35:12Z</time>
      </trkpt>
      <trkpt lat="43.36478" lon="6.68801">
        <ele>162.5</ele>
        <time>2018-10-14T12:35:19Z</time>
      </trkpt>
      <trkpt lat="43.36469" lon="6.68807">
        <ele>160.199997</ele>
        <time>2018-10-14T12:35:23Z</time>
      </trkpt>
      <trkpt lat="43.36463" lon="6.68817">
        <ele>158.600006</ele>
        <time>2018-10-14T12:35:25Z</time>
      </trkpt>
      <trkpt lat="43.36453" lon="6.68824">
        <ele>158.399994</ele>
        <time>2018-10-14T12:35:27Z</time>
      </trkpt>
      <trkpt lat="43.36444" lon="6.68829">
        <ele>157.699997</ele>
        <time>2018-10-14T12:35:29Z</time>
      </trkpt>
      <trkpt lat="43.36435" lon="6.68831">
        <ele>156.5</ele>
        <time>2018-10-14T12:35:32Z</time>
      </trkpt>
      <trkpt lat="43.36426" lon="6.68831">
        <ele>154.800003</ele>
        <time>2018-10-14T12:35:36Z</time>
      </trkpt>
      <trkpt lat="43.36416" lon="6.68831">
        <ele>153.300003</ele>
        <time>2018-10-14T12:35:41Z</time>
      </trkpt>
      <trkpt lat="43.36407" lon="6.6883">
        <ele>153.399994</ele>
        <time>2018-10-14T12:35:47Z</time>
      </trkpt>
      <trkpt lat="43.36397" lon="6.68835">
        <ele>154.199997</ele>
        <time>2018-10-14T12:35:54Z</time>
      </trkpt>
      <trkpt lat="43.36388" lon="6.68838">
        <ele>155.699997</ele>
        <time>2018-10-14T12:36:01Z</time>
      </trkpt>
      <trkpt lat="43.3638" lon="6.68844">
        <ele>156.600006</ele>
        <time>2018-10-14T12:36:08Z</time>
      </trkpt>
      <trkpt lat="43.36372" lon="6.68854">
        <ele>156.899994</ele>
        <time>2018-10-14T12:36:13Z</time>
      </trkpt>
      <trkpt lat="43.36367" lon="6.68864">
        <ele>157</ele>
        <time>2018-10-14T12:36:17Z</time>
      </trkpt>
      <trkpt lat="43.36362" lon="6.68875">
        <ele>157.699997</ele>
        <time>2018-10-14T12:36:22Z</time>
      </trkpt>
      <trkpt lat="43.36357" lon="6.68889">
        <ele>158.300003</ele>
        <time>2018-10-14T12:36:27Z</time>
      </trkpt>
      <trkpt lat="43.36351" lon="6.68899">
        <ele>158.899994</ele>
        <time>2018-10-14T12:36:31Z</time>
      </trkpt>
      <trkpt lat="43.36344" lon="6.68911">
        <ele>159.199997</ele>
        <time>2018-10-14T12:36:35Z</time>
      </trkpt>
      <trkpt lat="43.36337" lon="6.68923">
        <ele>159.399994</ele>
        <time>2018-10-14T12:36:40Z</time>
      </trkpt>
      <trkpt lat="43.36329" lon="6.6893">
        <ele>159.800003</ele>
        <time>2018-10-14T12:36:44Z</time>
      </trkpt>
      <trkpt lat="43.3632" lon="6.68938">
        <ele>159.5</ele>
        <time>2018-10-14T12:36:48Z</time>
      </trkpt>
      <trkpt lat="43.36308" lon="6.68946">
        <ele>158.600006</ele>
        <time>2018-10-14T12:36:51Z</time>
      </trkpt>
      <trkpt lat="43.363" lon="6.68955">
        <ele>157.800003</ele>
        <time>2018-10-14T12:36:53Z</time>
      </trkpt>
      <trkpt lat="43.36298" lon="6.68967">
        <ele>157.300003</ele>
        <time>2018-10-14T12:36:57Z</time>
      </trkpt>
      <trkpt lat="43.36294" lon="6.68979">
        <ele>158.800003</ele>
        <time>2018-10-14T12:37:05Z</time>
      </trkpt>
      <trkpt lat="43.36292" lon="6.68992">
        <ele>162</ele>
        <time>2018-10-14T12:37:18Z</time>
      </trkpt>
      <trkpt lat="43.36288" lon="6.69004">
        <ele>164.600006</ele>
        <time>2018-10-14T12:37:29Z</time>
      </trkpt>
      <trkpt lat="43.36282" lon="6.69013">
        <ele>166.800003</ele>
        <time>2018-10-14T12:37:41Z</time>
      </trkpt>
      <trkpt lat="43.36279" lon="6.69025">
        <ele>168.399994</ele>
        <time>2018-10-14T12:37:52Z</time>
      </trkpt>
      <trkpt lat="43.36276" lon="6.69037">
        <ele>170.199997</ele>
        <time>2018-10-14T12:38:03Z</time>
      </trkpt>
      <trkpt lat="43.36269" lon="6.69029">
        <ele>175</ele>
        <time>2018-10-14T12:38:31Z</time>
      </trkpt>
      <trkpt lat="43.36263" lon="6.69039">
        <ele>178</ele>
        <time>2018-10-14T12:38:46Z</time>
      </trkpt>
      <trkpt lat="43.3626" lon="6.69051">
        <ele>179.300003</ele>
        <time>2018-10-14T12:38:58Z</time>
      </trkpt>
      <trkpt lat="43.36255" lon="6.69062">
        <ele>181.5</ele>
        <time>2018-10-14T12:39:12Z</time>
      </trkpt>
      <trkpt lat="43.36249" lon="6.69071">
        <ele>183.600006</ele>
        <time>2018-10-14T12:39:23Z</time>
      </trkpt>
      <trkpt lat="43.36246" lon="6.69084">
        <ele>184.5</ele>
        <time>2018-10-14T12:39:31Z</time>
      </trkpt>
      <trkpt lat="43.36242" lon="6.69095">
        <ele>185.300003</ele>
        <time>2018-10-14T12:39:37Z</time>
      </trkpt>
      <trkpt lat="43.36238" lon="6.69108">
        <ele>186.399994</ele>
        <time>2018-10-14T12:39:44Z</time>
      </trkpt>
      <trkpt lat="43.36236" lon="6.69122">
        <ele>186.5</ele>
        <time>2018-10-14T12:39:51Z</time>
      </trkpt>
      <trkpt lat="43.36237" lon="6.69136">
        <ele>188.100006</ele>
        <time>2018-10-14T12:39:58Z</time>
      </trkpt>
      <trkpt lat="43.36239" lon="6.6915">
        <ele>188.800003</ele>
        <time>2018-10-14T12:40:04Z</time>
      </trkpt>
      <trkpt lat="43.3624" lon="6.69164">
        <ele>189</ele>
        <time>2018-10-14T12:40:11Z</time>
      </trkpt>
      <trkpt lat="43.36243" lon="6.69178">
        <ele>190</ele>
        <time>2018-10-14T12:40:16Z</time>
      </trkpt>
      <trkpt lat="43.36244" lon="6.69191">
        <ele>190.100006</ele>
        <time>2018-10-14T12:40:20Z</time>
      </trkpt>
      <trkpt lat="43.36245" lon="6.69205">
        <ele>190.699997</ele>
        <time>2018-10-14T12:40:25Z</time>
      </trkpt>
      <trkpt lat="43.36244" lon="6.69218">
        <ele>192.199997</ele>
        <time>2018-10-14T12:40:31Z</time>
      </trkpt>
      <trkpt lat="43.36244" lon="6.69231">
        <ele>192.800003</ele>
        <time>2018-10-14T12:40:37Z</time>
      </trkpt>
      <trkpt lat="43.36245" lon="6.69245">
        <ele>193.300003</ele>
        <time>2018-10-14T12:40:42Z</time>
      </trkpt>
      <trkpt lat="43.36249" lon="6.69258">
        <ele>194.899994</ele>
        <time>2018-10-14T12:40:48Z</time>
      </trkpt>
      <trkpt lat="43.36254" lon="6.69267">
        <ele>195.100006</ele>
        <time>2018-10-14T12:40:53Z</time>
      </trkpt>
      <trkpt lat="43.36262" lon="6.69276">
        <ele>195.199997</ele>
        <time>2018-10-14T12:40:58Z</time>
      </trkpt>
      <trkpt lat="43.36269" lon="6.69286">
        <ele>195.600006</ele>
        <time>2018-10-14T12:41:03Z</time>
      </trkpt>
      <trkpt lat="43.36276" lon="6.69296">
        <ele>197</ele>
        <time>2018-10-14T12:41:08Z</time>
      </trkpt>
      <trkpt lat="43.36282" lon="6.69306">
        <ele>197.5</ele>
        <time>2018-10-14T12:41:13Z</time>
      </trkpt>
      <trkpt lat="43.36288" lon="6.69316">
        <ele>198.300003</ele>
        <time>2018-10-14T12:41:18Z</time>
      </trkpt>
      <trkpt lat="43.36293" lon="6.69327">
        <ele>199.5</ele>
        <time>2018-10-14T12:41:24Z</time>
      </trkpt>
      <trkpt lat="43.36298" lon="6.69338">
        <ele>199.699997</ele>
        <time>2018-10-14T12:41:30Z</time>
      </trkpt>
      <trkpt lat="43.36303" lon="6.69348">
        <ele>199.600006</ele>
        <time>2018-10-14T12:41:37Z</time>
      </trkpt>
      <trkpt lat="43.36308" lon="6.69359">
        <ele>200.899994</ele>
        <time>2018-10-14T12:41:43Z</time>
      </trkpt>
      <trkpt lat="43.36313" lon="6.6937">
        <ele>201.899994</ele>
        <time>2018-10-14T12:41:49Z</time>
      </trkpt>
      <trkpt lat="43.36319" lon="6.69382">
        <ele>202.5</ele>
        <time>2018-10-14T12:41:56Z</time>
      </trkpt>
      <trkpt lat="43.36323" lon="6.69393">
        <ele>203.800003</ele>
        <time>2018-10-14T12:42:02Z</time>
      </trkpt>
      <trkpt lat="43.36326" lon="6.69406">
        <ele>204.899994</ele>
        <time>2018-10-14T12:42:09Z</time>
      </trkpt>
      <trkpt lat="43.36328" lon="6.69419">
        <ele>205.899994</ele>
        <time>2018-10-14T12:42:16Z</time>
      </trkpt>
      <trkpt lat="43.36328" lon="6.69432">
        <ele>206.699997</ele>
        <time>2018-10-14T12:42:22Z</time>
      </trkpt>
      <trkpt lat="43.36325" lon="6.69445">
        <ele>207.199997</ele>
        <time>2018-10-14T12:42:30Z</time>
      </trkpt>
      <trkpt lat="43.36321" lon="6.69456">
        <ele>209</ele>
        <time>2018-10-14T12:42:37Z</time>
      </trkpt>
      <trkpt lat="43.36315" lon="6.69467">
        <ele>209.399994</ele>
        <time>2018-10-14T12:42:45Z</time>
      </trkpt>
      <trkpt lat="43.36309" lon="6.69457">
        <ele>212.899994</ele>
        <time>2018-10-14T12:42:57Z</time>
      </trkpt>
      <trkpt lat="43.36302" lon="6.69446">
        <ele>214.600006</ele>
        <time>2018-10-14T12:43:08Z</time>
      </trkpt>
      <trkpt lat="43.36295" lon="6.69438">
        <ele>216.5</ele>
        <time>2018-10-14T12:43:20Z</time>
      </trkpt>
      <trkpt lat="43.36288" lon="6.69429">
        <ele>217.899994</ele>
        <time>2018-10-14T12:43:28Z</time>
      </trkpt>
      <trkpt lat="43.3628" lon="6.6942">
        <ele>218.899994</ele>
        <time>2018-10-14T12:43:36Z</time>
      </trkpt>
      <trkpt lat="43.36274" lon="6.6941">
        <ele>219.5</ele>
        <time>2018-10-14T12:43:44Z</time>
      </trkpt>
      <trkpt lat="43.36268" lon="6.69401">
        <ele>220.699997</ele>
        <time>2018-10-14T12:43:51Z</time>
      </trkpt>
      <trkpt lat="43.36263" lon="6.6939">
        <ele>221.399994</ele>
        <time>2018-10-14T12:43:57Z</time>
      </trkpt>
      <trkpt lat="43.36255" lon="6.69382">
        <ele>222.399994</ele>
        <time>2018-10-14T12:44:06Z</time>
      </trkpt>
      <trkpt lat="43.36245" lon="6.69378">
        <ele>223.300003</ele>
        <time>2018-10-14T12:44:13Z</time>
      </trkpt>
      <trkpt lat="43.36236" lon="6.69374">
        <ele>224.199997</ele>
        <time>2018-10-14T12:44:19Z</time>
      </trkpt>
      <trkpt lat="43.36228" lon="6.69369">
        <ele>224.800003</ele>
        <time>2018-10-14T12:44:25Z</time>
      </trkpt>
      <trkpt lat="43.36219" lon="6.69361">
        <ele>225.600006</ele>
        <time>2018-10-14T12:44:31Z</time>
      </trkpt>
      <trkpt lat="43.36212" lon="6.69351">
        <ele>226.600006</ele>
        <time>2018-10-14T12:44:38Z</time>
      </trkpt>
      <trkpt lat="43.36205" lon="6.69342">
        <ele>227.800003</ele>
        <time>2018-10-14T12:44:46Z</time>
      </trkpt>
      <trkpt lat="43.36199" lon="6.69332">
        <ele>228.699997</ele>
        <time>2018-10-14T12:44:53Z</time>
      </trkpt>
      <trkpt lat="43.36192" lon="6.69323">
        <ele>230.199997</ele>
        <time>2018-10-14T12:44:59Z</time>
      </trkpt>
      <trkpt lat="43.36184" lon="6.69317">
        <ele>230.699997</ele>
        <time>2018-10-14T12:45:08Z</time>
      </trkpt>
      <trkpt lat="43.36175" lon="6.69312">
        <ele>231.5</ele>
        <time>2018-10-14T12:45:16Z</time>
      </trkpt>
      <trkpt lat="43.36166" lon="6.69306">
        <ele>232.100006</ele>
        <time>2018-10-14T12:45:22Z</time>
      </trkpt>
      <trkpt lat="43.36158" lon="6.69298">
        <ele>234.399994</ele>
        <time>2018-10-14T12:45:29Z</time>
      </trkpt>
      <trkpt lat="43.36151" lon="6.69289">
        <ele>236.199997</ele>
        <time>2018-10-14T12:45:37Z</time>
      </trkpt>
      <trkpt lat="43.36144" lon="6.69279">
        <ele>238.600006</ele>
        <time>2018-10-14T12:45:48Z</time>
      </trkpt>
      <trkpt lat="43.36138" lon="6.69269">
        <ele>240.699997</ele>
        <time>2018-10-14T12:46:00Z</time>
      </trkpt>
      <trkpt lat="43.3613" lon="6.69263">
        <ele>243.300003</ele>
        <time>2018-10-14T12:46:15Z</time>
      </trkpt>
      <trkpt lat="43.36122" lon="6.69259">
        <ele>244.600006</ele>
        <time>2018-10-14T12:46:25Z</time>
      </trkpt>
      <trkpt lat="43.36113" lon="6.69253">
        <ele>247.399994</ele>
        <time>2018-10-14T12:46:37Z</time>
      </trkpt>
      <trkpt lat="43.36105" lon="6.69247">
        <ele>249.300003</ele>
        <time>2018-10-14T12:46:47Z</time>
      </trkpt>
      <trkpt lat="43.36095" lon="6.69245">
        <ele>249.899994</ele>
        <time>2018-10-14T12:46:53Z</time>
      </trkpt>
      <trkpt lat="43.36086" lon="6.69249">
        <ele>250.100006</ele>
        <time>2018-10-14T12:46:57Z</time>
      </trkpt>
      <trkpt lat="43.36073" lon="6.69251">
        <ele>249.5</ele>
        <time>2018-10-14T12:47:00Z</time>
      </trkpt>
      <trkpt lat="43.36066" lon="6.69259">
        <ele>249.199997</ele>
        <time>2018-10-14T12:47:02Z</time>
      </trkpt>
      <trkpt lat="43.36059" lon="6.69268">
        <ele>248.5</ele>
        <time>2018-10-14T12:47:04Z</time>
      </trkpt>
      <trkpt lat="43.3605" lon="6.69274">
        <ele>248.199997</ele>
        <time>2018-10-14T12:47:06Z</time>
      </trkpt>
      <trkpt lat="43.36039" lon="6.6928">
        <ele>247.600006</ele>
        <time>2018-10-14T12:47:08Z</time>
      </trkpt>
      <trkpt lat="43.36027" lon="6.69287">
        <ele>246.800003</ele>
        <time>2018-10-14T12:47:10Z</time>
      </trkpt>
      <trkpt lat="43.36014" lon="6.69286">
        <ele>245.5</ele>
        <time>2018-10-14T12:47:12Z</time>
      </trkpt>
      <trkpt lat="43.36001" lon="6.69287">
        <ele>245.199997</ele>
        <time>2018-10-14T12:47:14Z</time>
      </trkpt>
      <trkpt lat="43.35986" lon="6.69289">
        <ele>244</ele>
        <time>2018-10-14T12:47:16Z</time>
      </trkpt>
      <trkpt lat="43.35976" lon="6.6929">
        <ele>243.100006</ele>
        <time>2018-10-14T12:47:18Z</time>
      </trkpt>
      <trkpt lat="43.35964" lon="6.69291">
        <ele>241.300003</ele>
        <time>2018-10-14T12:47:20Z</time>
      </trkpt>
      <trkpt lat="43.35949" lon="6.69292">
        <ele>240.300003</ele>
        <time>2018-10-14T12:47:22Z</time>
      </trkpt>
      <trkpt lat="43.35931" lon="6.693">
        <ele>238.100006</ele>
        <time>2018-10-14T12:47:24Z</time>
      </trkpt>
      <trkpt lat="43.35913" lon="6.69307">
        <ele>236.699997</ele>
        <time>2018-10-14T12:47:26Z</time>
      </trkpt>
      <trkpt lat="43.35905" lon="6.69311">
        <ele>236.199997</ele>
        <time>2018-10-14T12:47:27Z</time>
      </trkpt>
      <trkpt lat="43.35896" lon="6.69316">
        <ele>234.899994</ele>
        <time>2018-10-14T12:47:28Z</time>
      </trkpt>
      <trkpt lat="43.35888" lon="6.69322">
        <ele>234.199997</ele>
        <time>2018-10-14T12:47:29Z</time>
      </trkpt>
      <trkpt lat="43.35874" lon="6.69331">
        <ele>232.199997</ele>
        <time>2018-10-14T12:47:31Z</time>
      </trkpt>
      <trkpt lat="43.35861" lon="6.69343">
        <ele>231.5</ele>
        <time>2018-10-14T12:47:33Z</time>
      </trkpt>
      <trkpt lat="43.35847" lon="6.69358">
        <ele>230.300003</ele>
        <time>2018-10-14T12:47:35Z</time>
      </trkpt>
      <trkpt lat="43.35837" lon="6.69373">
        <ele>229</ele>
        <time>2018-10-14T12:47:37Z</time>
      </trkpt>
      <trkpt lat="43.3583" lon="6.69389">
        <ele>227.300003</ele>
        <time>2018-10-14T12:47:39Z</time>
      </trkpt>
      <trkpt lat="43.35826" lon="6.69404">
        <ele>225.100006</ele>
        <time>2018-10-14T12:47:41Z</time>
      </trkpt>
      <trkpt lat="43.3582" lon="6.69419">
        <ele>223.800003</ele>
        <time>2018-10-14T12:47:43Z</time>
      </trkpt>
      <trkpt lat="43.35815" lon="6.69436">
        <ele>222.800003</ele>
        <time>2018-10-14T12:47:45Z</time>
      </trkpt>
      <trkpt lat="43.35808" lon="6.69449">
        <ele>220.899994</ele>
        <time>2018-10-14T12:47:47Z</time>
      </trkpt>
      <trkpt lat="43.35804" lon="6.69463">
        <ele>219</ele>
        <time>2018-10-14T12:47:49Z</time>
      </trkpt>
      <trkpt lat="43.358" lon="6.69479">
        <ele>216.899994</ele>
        <time>2018-10-14T12:47:52Z</time>
      </trkpt>
      <trkpt lat="43.35796" lon="6.69491">
        <ele>214.300003</ele>
        <time>2018-10-14T12:47:55Z</time>
      </trkpt>
      <trkpt lat="43.35795" lon="6.69503">
        <ele>212</ele>
        <time>2018-10-14T12:47:59Z</time>
      </trkpt>
      <trkpt lat="43.35796" lon="6.69519">
        <ele>209.899994</ele>
        <time>2018-10-14T12:48:03Z</time>
      </trkpt>
      <trkpt lat="43.35796" lon="6.69534">
        <ele>208</ele>
        <time>2018-10-14T12:48:06Z</time>
      </trkpt>
      <trkpt lat="43.35795" lon="6.69548">
        <ele>206.300003</ele>
        <time>2018-10-14T12:48:08Z</time>
      </trkpt>
      <trkpt lat="43.3579" lon="6.69559">
        <ele>204.600006</ele>
        <time>2018-10-14T12:48:10Z</time>
      </trkpt>
      <trkpt lat="43.35785" lon="6.6957">
        <ele>203.899994</ele>
        <time>2018-10-14T12:48:12Z</time>
      </trkpt>
      <trkpt lat="43.35781" lon="6.69588">
        <ele>202.699997</ele>
        <time>2018-10-14T12:48:15Z</time>
      </trkpt>
      <trkpt lat="43.35776" lon="6.696">
        <ele>201.5</ele>
        <time>2018-10-14T12:48:17Z</time>
      </trkpt>
      <trkpt lat="43.35769" lon="6.69613">
        <ele>200.699997</ele>
        <time>2018-10-14T12:48:19Z</time>
      </trkpt>
      <trkpt lat="43.35765" lon="6.69626">
        <ele>200.600006</ele>
        <time>2018-10-14T12:48:21Z</time>
      </trkpt>
      <trkpt lat="43.35759" lon="6.69641">
        <ele>200.100006</ele>
        <time>2018-10-14T12:48:24Z</time>
      </trkpt>
      <trkpt lat="43.35758" lon="6.69656">
        <ele>199.399994</ele>
        <time>2018-10-14T12:48:26Z</time>
      </trkpt>
      <trkpt lat="43.35757" lon="6.69669">
        <ele>199.600006</ele>
        <time>2018-10-14T12:48:28Z</time>
      </trkpt>
      <trkpt lat="43.35756" lon="6.69684">
        <ele>199.300003</ele>
        <time>2018-10-14T12:48:30Z</time>
      </trkpt>
      <trkpt lat="43.35754" lon="6.697">
        <ele>199.300003</ele>
        <time>2018-10-14T12:48:32Z</time>
      </trkpt>
      <trkpt lat="43.35749" lon="6.69712">
        <ele>198.699997</ele>
        <time>2018-10-14T12:48:34Z</time>
      </trkpt>
      <trkpt lat="43.3574" lon="6.69717">
        <ele>198.399994</ele>
        <time>2018-10-14T12:48:36Z</time>
      </trkpt>
      <trkpt lat="43.35731" lon="6.69715">
        <ele>197.899994</ele>
        <time>2018-10-14T12:48:38Z</time>
      </trkpt>
      <trkpt lat="43.3572" lon="6.69714">
        <ele>197</ele>
        <time>2018-10-14T12:48:40Z</time>
      </trkpt>
      <trkpt lat="43.35711" lon="6.69717">
        <ele>196.899994</ele>
        <time>2018-10-14T12:48:42Z</time>
      </trkpt>
      <trkpt lat="43.35702" lon="6.69723">
        <ele>197.100006</ele>
        <time>2018-10-14T12:48:44Z</time>
      </trkpt>
      <trkpt lat="43.35691" lon="6.69734">
        <ele>197.399994</ele>
        <time>2018-10-14T12:48:47Z</time>
      </trkpt>
      <trkpt lat="43.35683" lon="6.69746">
        <ele>196.899994</ele>
        <time>2018-10-14T12:48:50Z</time>
      </trkpt>
      <trkpt lat="43.35675" lon="6.69759">
        <ele>197.100006</ele>
        <time>2018-10-14T12:48:53Z</time>
      </trkpt>
      <trkpt lat="43.35668" lon="6.69773">
        <ele>197.800003</ele>
        <time>2018-10-14T12:48:56Z</time>
      </trkpt>
      <trkpt lat="43.35662" lon="6.69784">
        <ele>197.699997</ele>
        <time>2018-10-14T12:48:58Z</time>
      </trkpt>
      <trkpt lat="43.35656" lon="6.69797">
        <ele>197.899994</ele>
        <time>2018-10-14T12:49:00Z</time>
      </trkpt>
      <trkpt lat="43.35651" lon="6.69809">
        <ele>197.600006</ele>
        <time>2018-10-14T12:49:02Z</time>
      </trkpt>
      <trkpt lat="43.35645" lon="6.69825">
        <ele>197.100006</ele>
        <time>2018-10-14T12:49:04Z</time>
      </trkpt>
      <trkpt lat="43.35639" lon="6.69841">
        <ele>196.800003</ele>
        <time>2018-10-14T12:49:06Z</time>
      </trkpt>
      <trkpt lat="43.35632" lon="6.69856">
        <ele>196.199997</ele>
        <time>2018-10-14T12:49:08Z</time>
      </trkpt>
      <trkpt lat="43.35625" lon="6.69871">
        <ele>195.300003</ele>
        <time>2018-10-14T12:49:10Z</time>
      </trkpt>
      <trkpt lat="43.35617" lon="6.69887">
        <ele>194.5</ele>
        <time>2018-10-14T12:49:12Z</time>
      </trkpt>
      <trkpt lat="43.35609" lon="6.69901">
        <ele>193.800003</ele>
        <time>2018-10-14T12:49:14Z</time>
      </trkpt>
      <trkpt lat="43.35604" lon="6.69915">
        <ele>193.300003</ele>
        <time>2018-10-14T12:49:16Z</time>
      </trkpt>
      <trkpt lat="43.35599" lon="6.69929">
        <ele>192.699997</ele>
        <time>2018-10-14T12:49:18Z</time>
      </trkpt>
      <trkpt lat="43.35595" lon="6.69945">
        <ele>192.699997</ele>
        <time>2018-10-14T12:49:20Z</time>
      </trkpt>
      <trkpt lat="43.3559" lon="6.69962">
        <ele>192</ele>
        <time>2018-10-14T12:49:22Z</time>
      </trkpt>
      <trkpt lat="43.35587" lon="6.69981">
        <ele>191.100006</ele>
        <time>2018-10-14T12:49:24Z</time>
      </trkpt>
      <trkpt lat="43.35583" lon="6.69998">
        <ele>190.600006</ele>
        <time>2018-10-14T12:49:26Z</time>
      </trkpt>
      <trkpt lat="43.35578" lon="6.70014">
        <ele>189.800003</ele>
        <time>2018-10-14T12:49:28Z</time>
      </trkpt>
      <trkpt lat="43.35574" lon="6.7003">
        <ele>189.600006</ele>
        <time>2018-10-14T12:49:30Z</time>
      </trkpt>
      <trkpt lat="43.3557" lon="6.70046">
        <ele>189.699997</ele>
        <time>2018-10-14T12:49:32Z</time>
      </trkpt>
      <trkpt lat="43.3557" lon="6.70061">
        <ele>189.600006</ele>
        <time>2018-10-14T12:49:34Z</time>
      </trkpt>
      <trkpt lat="43.35574" lon="6.70076">
        <ele>189.600006</ele>
        <time>2018-10-14T12:49:36Z</time>
      </trkpt>
      <trkpt lat="43.35579" lon="6.7009">
        <ele>189.100006</ele>
        <time>2018-10-14T12:49:38Z</time>
      </trkpt>
      <trkpt lat="43.35585" lon="6.70104">
        <ele>188.399994</ele>
        <time>2018-10-14T12:49:40Z</time>
      </trkpt>
      <trkpt lat="43.35591" lon="6.70116">
        <ele>188.699997</ele>
        <time>2018-10-14T12:49:42Z</time>
      </trkpt>
      <trkpt lat="43.35597" lon="6.70128">
        <ele>188.399994</ele>
        <time>2018-10-14T12:49:44Z</time>
      </trkpt>
      <trkpt lat="43.35603" lon="6.70143">
        <ele>188.399994</ele>
        <time>2018-10-14T12:49:46Z</time>
      </trkpt>
      <trkpt lat="43.35608" lon="6.70159">
        <ele>188.399994</ele>
        <time>2018-10-14T12:49:48Z</time>
      </trkpt>
      <trkpt lat="43.35614" lon="6.70174">
        <ele>188.699997</ele>
        <time>2018-10-14T12:49:50Z</time>
      </trkpt>
      <trkpt lat="43.3562" lon="6.70189">
        <ele>188.300003</ele>
        <time>2018-10-14T12:49:52Z</time>
      </trkpt>
      <trkpt lat="43.35624" lon="6.70205">
        <ele>187.300003</ele>
        <time>2018-10-14T12:49:54Z</time>
      </trkpt>
      <trkpt lat="43.3563" lon="6.70222">
        <ele>186.899994</ele>
        <time>2018-10-14T12:49:56Z</time>
      </trkpt>
      <trkpt lat="43.35638" lon="6.70239">
        <ele>185.699997</ele>
        <time>2018-10-14T12:49:58Z</time>
      </trkpt>
      <trkpt lat="43.35644" lon="6.70257">
        <ele>184.5</ele>
        <time>2018-10-14T12:50:00Z</time>
      </trkpt>
      <trkpt lat="43.35649" lon="6.70275">
        <ele>183.5</ele>
        <time>2018-10-14T12:50:02Z</time>
      </trkpt>
      <trkpt lat="43.35657" lon="6.70292">
        <ele>182.899994</ele>
        <time>2018-10-14T12:50:04Z</time>
      </trkpt>
      <trkpt lat="43.35666" lon="6.70307">
        <ele>182.199997</ele>
        <time>2018-10-14T12:50:06Z</time>
      </trkpt>
      <trkpt lat="43.35675" lon="6.70322">
        <ele>181.100006</ele>
        <time>2018-10-14T12:50:08Z</time>
      </trkpt>
      <trkpt lat="43.35684" lon="6.70338">
        <ele>180.300003</ele>
        <time>2018-10-14T12:50:10Z</time>
      </trkpt>
      <trkpt lat="43.35691" lon="6.70354">
        <ele>179.300003</ele>
        <time>2018-10-14T12:50:12Z</time>
      </trkpt>
      <trkpt lat="43.35695" lon="6.70372">
        <ele>178.100006</ele>
        <time>2018-10-14T12:50:14Z</time>
      </trkpt>
      <trkpt lat="43.35695" lon="6.70387">
        <ele>178</ele>
        <time>2018-10-14T12:50:16Z</time>
      </trkpt>
      <trkpt lat="43.35694" lon="6.70402">
        <ele>177</ele>
        <time>2018-10-14T12:50:18Z</time>
      </trkpt>
      <trkpt lat="43.35694" lon="6.70417">
        <ele>175.699997</ele>
        <time>2018-10-14T12:50:20Z</time>
      </trkpt>
      <trkpt lat="43.35699" lon="6.7043">
        <ele>175.199997</ele>
        <time>2018-10-14T12:50:22Z</time>
      </trkpt>
      <trkpt lat="43.35708" lon="6.70443">
        <ele>173.800003</ele>
        <time>2018-10-14T12:50:25Z</time>
      </trkpt>
      <trkpt lat="43.35715" lon="6.70457">
        <ele>172.100006</ele>
        <time>2018-10-14T12:50:28Z</time>
      </trkpt>
      <trkpt lat="43.35724" lon="6.7047">
        <ele>170.199997</ele>
        <time>2018-10-14T12:50:31Z</time>
      </trkpt>
      <trkpt lat="43.35734" lon="6.70478">
        <ele>168.600006</ele>
        <time>2018-10-14T12:50:34Z</time>
      </trkpt>
      <trkpt lat="43.35744" lon="6.70482">
        <ele>164.899994</ele>
        <time>2018-10-14T12:50:37Z</time>
      </trkpt>
      <trkpt lat="43.35753" lon="6.70481">
        <ele>164.5</ele>
        <time>2018-10-14T12:50:40Z</time>
      </trkpt>
      <trkpt lat="43.35766" lon="6.70485">
        <ele>163.100006</ele>
        <time>2018-10-14T12:50:43Z</time>
      </trkpt>
      <trkpt lat="43.35775" lon="6.70489">
        <ele>161.100006</ele>
        <time>2018-10-14T12:50:45Z</time>
      </trkpt>
      <trkpt lat="43.35786" lon="6.70497">
        <ele>159.5</ele>
        <time>2018-10-14T12:50:48Z</time>
      </trkpt>
      <trkpt lat="43.35794" lon="6.70505">
        <ele>158.300003</ele>
        <time>2018-10-14T12:50:51Z</time>
      </trkpt>
      <trkpt lat="43.35801" lon="6.70514">
        <ele>157.600006</ele>
        <time>2018-10-14T12:50:54Z</time>
      </trkpt>
      <trkpt lat="43.35808" lon="6.70522">
        <ele>156.399994</ele>
        <time>2018-10-14T12:50:57Z</time>
      </trkpt>
      <trkpt lat="43.35817" lon="6.70531">
        <ele>154.600006</ele>
        <time>2018-10-14T12:51:00Z</time>
      </trkpt>
      <trkpt lat="43.35827" lon="6.70538">
        <ele>152.699997</ele>
        <time>2018-10-14T12:51:03Z</time>
      </trkpt>
      <trkpt lat="43.35836" lon="6.70548">
        <ele>150</ele>
        <time>2018-10-14T12:51:07Z</time>
      </trkpt>
      <trkpt lat="43.35843" lon="6.70556">
        <ele>147.300003</ele>
        <time>2018-10-14T12:51:10Z</time>
      </trkpt>
      <trkpt lat="43.35851" lon="6.70565">
        <ele>146.399994</ele>
        <time>2018-10-14T12:51:13Z</time>
      </trkpt>
      <trkpt lat="43.35861" lon="6.7057">
        <ele>145.300003</ele>
        <time>2018-10-14T12:51:16Z</time>
      </trkpt>
      <trkpt lat="43.35873" lon="6.7057">
        <ele>143.800003</ele>
        <time>2018-10-14T12:51:19Z</time>
      </trkpt>
      <trkpt lat="43.35883" lon="6.70573">
        <ele>142.800003</ele>
        <time>2018-10-14T12:51:22Z</time>
      </trkpt>
      <trkpt lat="43.35893" lon="6.70582">
        <ele>141.100006</ele>
        <time>2018-10-14T12:51:25Z</time>
      </trkpt>
      <trkpt lat="43.35901" lon="6.7059">
        <ele>139.699997</ele>
        <time>2018-10-14T12:51:27Z</time>
      </trkpt>
      <trkpt lat="43.35911" lon="6.706">
        <ele>137.699997</ele>
        <time>2018-10-14T12:51:30Z</time>
      </trkpt>
      <trkpt lat="43.35922" lon="6.70597">
        <ele>135.600006</ele>
        <time>2018-10-14T12:51:33Z</time>
      </trkpt>
      <trkpt lat="43.35931" lon="6.7059">
        <ele>134.600006</ele>
        <time>2018-10-14T12:51:36Z</time>
      </trkpt>
      <trkpt lat="43.3594" lon="6.70584">
        <ele>134.399994</ele>
        <time>2018-10-14T12:51:39Z</time>
      </trkpt>
      <trkpt lat="43.35949" lon="6.70584">
        <ele>132</ele>
        <time>2018-10-14T12:51:43Z</time>
      </trkpt>
      <trkpt lat="43.35958" lon="6.70592">
        <ele>130.399994</ele>
        <time>2018-10-14T12:51:47Z</time>
      </trkpt>
      <trkpt lat="43.35958" lon="6.70579">
        <ele>129</ele>
        <time>2018-10-14T12:51:52Z</time>
      </trkpt>
      <trkpt lat="43.35952" lon="6.70569">
        <ele>129.899994</ele>
        <time>2018-10-14T12:51:58Z</time>
      </trkpt>
      <trkpt lat="43.35942" lon="6.70563">
        <ele>130.699997</ele>
        <time>2018-10-14T12:52:04Z</time>
      </trkpt>
      <trkpt lat="43.35934" lon="6.70557">
        <ele>132.300003</ele>
        <time>2018-10-14T12:52:09Z</time>
      </trkpt>
      <trkpt lat="43.35926" lon="6.7055">
        <ele>133.300003</ele>
        <time>2018-10-14T12:52:14Z</time>
      </trkpt>
      <trkpt lat="43.35918" lon="6.70542">
        <ele>133.600006</ele>
        <time>2018-10-14T12:52:20Z</time>
      </trkpt>
      <trkpt lat="43.35911" lon="6.70533">
        <ele>135.100006</ele>
        <time>2018-10-14T12:52:25Z</time>
      </trkpt>
      <trkpt lat="43.35903" lon="6.70525">
        <ele>136.199997</ele>
        <time>2018-10-14T12:52:30Z</time>
      </trkpt>
      <trkpt lat="43.35894" lon="6.70522">
        <ele>137.199997</ele>
        <time>2018-10-14T12:52:35Z</time>
      </trkpt>
      <trkpt lat="43.35884" lon="6.7052">
        <ele>138.100006</ele>
        <time>2018-10-14T12:52:40Z</time>
      </trkpt>
      <trkpt lat="43.35874" lon="6.70515">
        <ele>138.399994</ele>
        <time>2018-10-14T12:52:45Z</time>
      </trkpt>
      <trkpt lat="43.35865" lon="6.70508">
        <ele>139.5</ele>
        <time>2018-10-14T12:52:50Z</time>
      </trkpt>
      <trkpt lat="43.35858" lon="6.70499">
        <ele>139.899994</ele>
        <time>2018-10-14T12:52:56Z</time>
      </trkpt>
      <trkpt lat="43.3585" lon="6.70491">
        <ele>141.5</ele>
        <time>2018-10-14T12:53:02Z</time>
      </trkpt>
      <trkpt lat="43.35842" lon="6.70482">
        <ele>142.5</ele>
        <time>2018-10-14T12:53:08Z</time>
      </trkpt>
      <trkpt lat="43.35833" lon="6.70474">
        <ele>144</ele>
        <time>2018-10-14T12:53:13Z</time>
      </trkpt>
      <trkpt lat="43.35824" lon="6.70469">
        <ele>144.300003</ele>
        <time>2018-10-14T12:53:18Z</time>
      </trkpt>
      <trkpt lat="43.35816" lon="6.7046">
        <ele>144.899994</ele>
        <time>2018-10-14T12:53:24Z</time>
      </trkpt>
      <trkpt lat="43.35808" lon="6.70454">
        <ele>145.800003</ele>
        <time>2018-10-14T12:53:29Z</time>
      </trkpt>
      <trkpt lat="43.35798" lon="6.70449">
        <ele>146.300003</ele>
        <time>2018-10-14T12:53:34Z</time>
      </trkpt>
      <trkpt lat="43.35788" lon="6.70446">
        <ele>146.5</ele>
        <time>2018-10-14T12:53:39Z</time>
      </trkpt>
      <trkpt lat="43.35778" lon="6.70444">
        <ele>148.699997</ele>
        <time>2018-10-14T12:53:44Z</time>
      </trkpt>
      <trkpt lat="43.3577" lon="6.70439">
        <ele>149.300003</ele>
        <time>2018-10-14T12:53:48Z</time>
      </trkpt>
      <trkpt lat="43.35764" lon="6.70429">
        <ele>149.899994</ele>
        <time>2018-10-14T12:53:54Z</time>
      </trkpt>
      <trkpt lat="43.35757" lon="6.70419">
        <ele>150.399994</ele>
        <time>2018-10-14T12:53:59Z</time>
      </trkpt>
      <trkpt lat="43.35751" lon="6.70409">
        <ele>151.800003</ele>
        <time>2018-10-14T12:54:05Z</time>
      </trkpt>
      <trkpt lat="43.3575" lon="6.70396">
        <ele>152.800003</ele>
        <time>2018-10-14T12:54:14Z</time>
      </trkpt>
      <trkpt lat="43.35751" lon="6.70383">
        <ele>154.100006</ele>
        <time>2018-10-14T12:54:20Z</time>
      </trkpt>
      <trkpt lat="43.35753" lon="6.7037">
        <ele>154.600006</ele>
        <time>2018-10-14T12:54:25Z</time>
      </trkpt>
      <trkpt lat="43.35754" lon="6.70355">
        <ele>155.199997</ele>
        <time>2018-10-14T12:54:30Z</time>
      </trkpt>
      <trkpt lat="43.35752" lon="6.70341">
        <ele>156.100006</ele>
        <time>2018-10-14T12:54:34Z</time>
      </trkpt>
      <trkpt lat="43.35748" lon="6.70326">
        <ele>156.699997</ele>
        <time>2018-10-14T12:54:38Z</time>
      </trkpt>
      <trkpt lat="43.35743" lon="6.70313">
        <ele>157.899994</ele>
        <time>2018-10-14T12:54:42Z</time>
      </trkpt>
      <trkpt lat="43.35736" lon="6.70301">
        <ele>158.600006</ele>
        <time>2018-10-14T12:54:46Z</time>
      </trkpt>
      <trkpt lat="43.35728" lon="6.70293">
        <ele>158.899994</ele>
        <time>2018-10-14T12:54:50Z</time>
      </trkpt>
      <trkpt lat="43.35721" lon="6.70284">
        <ele>159.100006</ele>
        <time>2018-10-14T12:54:54Z</time>
      </trkpt>
      <trkpt lat="43.35713" lon="6.70276">
        <ele>159.899994</ele>
        <time>2018-10-14T12:54:58Z</time>
      </trkpt>
      <trkpt lat="43.35706" lon="6.70265">
        <ele>160.899994</ele>
        <time>2018-10-14T12:55:03Z</time>
      </trkpt>
      <trkpt lat="43.35703" lon="6.70252">
        <ele>161.699997</ele>
        <time>2018-10-14T12:55:08Z</time>
      </trkpt>
      <trkpt lat="43.35698" lon="6.70238">
        <ele>162.699997</ele>
        <time>2018-10-14T12:55:13Z</time>
      </trkpt>
      <trkpt lat="43.35693" lon="6.70226">
        <ele>162.600006</ele>
        <time>2018-10-14T12:55:17Z</time>
      </trkpt>
      <trkpt lat="43.35691" lon="6.70213">
        <ele>162.699997</ele>
        <time>2018-10-14T12:55:21Z</time>
      </trkpt>
      <trkpt lat="43.35691" lon="6.70201">
        <ele>162.600006</ele>
        <time>2018-10-14T12:55:25Z</time>
      </trkpt>
      <trkpt lat="43.35694" lon="6.70185">
        <ele>163.5</ele>
        <time>2018-10-14T12:55:29Z</time>
      </trkpt>
      <trkpt lat="43.35694" lon="6.70168">
        <ele>163.399994</ele>
        <time>2018-10-14T12:55:32Z</time>
      </trkpt>
      <trkpt lat="43.35693" lon="6.70152">
        <ele>163.300003</ele>
        <time>2018-10-14T12:55:35Z</time>
      </trkpt>
      <trkpt lat="43.35691" lon="6.70138">
        <ele>163.199997</ele>
        <time>2018-10-14T12:55:37Z</time>
      </trkpt>
      <trkpt lat="43.35685" lon="6.70122">
        <ele>163.600006</ele>
        <time>2018-10-14T12:55:39Z</time>
      </trkpt>
      <trkpt lat="43.35678" lon="6.7011">
        <ele>163.300003</ele>
        <time>2018-10-14T12:55:41Z</time>
      </trkpt>
      <trkpt lat="43.35672" lon="6.70097">
        <ele>163.399994</ele>
        <time>2018-10-14T12:55:43Z</time>
      </trkpt>
      <trkpt lat="43.35667" lon="6.70086">
        <ele>163.399994</ele>
        <time>2018-10-14T12:55:45Z</time>
      </trkpt>
      <trkpt lat="43.3566" lon="6.7007">
        <ele>164.300003</ele>
        <time>2018-10-14T12:55:48Z</time>
      </trkpt>
      <trkpt lat="43.35658" lon="6.70055">
        <ele>164.5</ele>
        <time>2018-10-14T12:55:51Z</time>
      </trkpt>
      <trkpt lat="43.35661" lon="6.70042">
        <ele>164</ele>
        <time>2018-10-14T12:55:55Z</time>
      </trkpt>
      <trkpt lat="43.35668" lon="6.70033">
        <ele>164.199997</ele>
        <time>2018-10-14T12:55:58Z</time>
      </trkpt>
      <trkpt lat="43.35676" lon="6.70023">
        <ele>164.100006</ele>
        <time>2018-10-14T12:56:01Z</time>
      </trkpt>
      <trkpt lat="43.35683" lon="6.70011">
        <ele>164.199997</ele>
        <time>2018-10-14T12:56:04Z</time>
      </trkpt>
      <trkpt lat="43.35687" lon="6.69992">
        <ele>164.300003</ele>
        <time>2018-10-14T12:56:07Z</time>
      </trkpt>
      <trkpt lat="43.35687" lon="6.69978">
        <ele>164.300003</ele>
        <time>2018-10-14T12:56:09Z</time>
      </trkpt>
      <trkpt lat="43.35687" lon="6.69959">
        <ele>164.5</ele>
        <time>2018-10-14T12:56:12Z</time>
      </trkpt>
      <trkpt lat="43.35689" lon="6.69944">
        <ele>165.800003</ele>
        <time>2018-10-14T12:56:15Z</time>
      </trkpt>
      <trkpt lat="43.35697" lon="6.69932">
        <ele>166</ele>
        <time>2018-10-14T12:56:18Z</time>
      </trkpt>
      <trkpt lat="43.35705" lon="6.69926">
        <ele>166.199997</ele>
        <time>2018-10-14T12:56:20Z</time>
      </trkpt>
      <trkpt lat="43.35716" lon="6.69921">
        <ele>165.800003</ele>
        <time>2018-10-14T12:56:22Z</time>
      </trkpt>
      <trkpt lat="43.35727" lon="6.69912">
        <ele>164.800003</ele>
        <time>2018-10-14T12:56:24Z</time>
      </trkpt>
      <trkpt lat="43.35736" lon="6.69895">
        <ele>164.399994</ele>
        <time>2018-10-14T12:56:26Z</time>
      </trkpt>
      <trkpt lat="43.35742" lon="6.69876">
        <ele>163.399994</ele>
        <time>2018-10-14T12:56:28Z</time>
      </trkpt>
      <trkpt lat="43.35748" lon="6.69859">
        <ele>162.899994</ele>
        <time>2018-10-14T12:56:30Z</time>
      </trkpt>
      <trkpt lat="43.35755" lon="6.6985">
        <ele>163.100006</ele>
        <time>2018-10-14T12:56:32Z</time>
      </trkpt>
      <trkpt lat="43.35764" lon="6.69849">
        <ele>162.399994</ele>
        <time>2018-10-14T12:56:34Z</time>
      </trkpt>
      <trkpt lat="43.35775" lon="6.69851">
        <ele>161.600006</ele>
        <time>2018-10-14T12:56:36Z</time>
      </trkpt>
      <trkpt lat="43.35786" lon="6.69853">
        <ele>160.5</ele>
        <time>2018-10-14T12:56:38Z</time>
      </trkpt>
      <trkpt lat="43.35798" lon="6.69855">
        <ele>160</ele>
        <time>2018-10-14T12:56:40Z</time>
      </trkpt>
      <trkpt lat="43.35812" lon="6.69862">
        <ele>158.699997</ele>
        <time>2018-10-14T12:56:42Z</time>
      </trkpt>
      <trkpt lat="43.35826" lon="6.69871">
        <ele>157.600006</ele>
        <time>2018-10-14T12:56:44Z</time>
      </trkpt>
      <trkpt lat="43.3584" lon="6.69883">
        <ele>156.5</ele>
        <time>2018-10-14T12:56:46Z</time>
      </trkpt>
      <trkpt lat="43.35852" lon="6.69892">
        <ele>155.5</ele>
        <time>2018-10-14T12:56:48Z</time>
      </trkpt>
      <trkpt lat="43.35863" lon="6.69895">
        <ele>154.199997</ele>
        <time>2018-10-14T12:56:50Z</time>
      </trkpt>
      <trkpt lat="43.35872" lon="6.69886">
        <ele>152.699997</ele>
        <time>2018-10-14T12:56:52Z</time>
      </trkpt>
      <trkpt lat="43.35878" lon="6.69871">
        <ele>151.600006</ele>
        <time>2018-10-14T12:56:54Z</time>
      </trkpt>
      <trkpt lat="43.3588" lon="6.69854">
        <ele>150</ele>
        <time>2018-10-14T12:56:56Z</time>
      </trkpt>
      <trkpt lat="43.3588" lon="6.69837">
        <ele>149</ele>
        <time>2018-10-14T12:56:58Z</time>
      </trkpt>
      <trkpt lat="43.3588" lon="6.6982">
        <ele>147.899994</ele>
        <time>2018-10-14T12:57:00Z</time>
      </trkpt>
      <trkpt lat="43.3588" lon="6.69801">
        <ele>146.699997</ele>
        <time>2018-10-14T12:57:02Z</time>
      </trkpt>
      <trkpt lat="43.35882" lon="6.69784">
        <ele>145.399994</ele>
        <time>2018-10-14T12:57:04Z</time>
      </trkpt>
      <trkpt lat="43.35885" lon="6.69766">
        <ele>143.800003</ele>
        <time>2018-10-14T12:57:06Z</time>
      </trkpt>
      <trkpt lat="43.35886" lon="6.69748">
        <ele>143.100006</ele>
        <time>2018-10-14T12:57:08Z</time>
      </trkpt>
      <trkpt lat="43.35885" lon="6.6973">
        <ele>142.199997</ele>
        <time>2018-10-14T12:57:10Z</time>
      </trkpt>
      <trkpt lat="43.35884" lon="6.69713">
        <ele>141.600006</ele>
        <time>2018-10-14T12:57:12Z</time>
      </trkpt>
      <trkpt lat="43.35883" lon="6.69699">
        <ele>140.100006</ele>
        <time>2018-10-14T12:57:14Z</time>
      </trkpt>
      <trkpt lat="43.35891" lon="6.69689">
        <ele>138.5</ele>
        <time>2018-10-14T12:57:17Z</time>
      </trkpt>
      <trkpt lat="43.35904" lon="6.69693">
        <ele>136.5</ele>
        <time>2018-10-14T12:57:20Z</time>
      </trkpt>
      <trkpt lat="43.35913" lon="6.69693">
        <ele>135.399994</ele>
        <time>2018-10-14T12:57:22Z</time>
      </trkpt>
      <trkpt lat="43.35922" lon="6.69687">
        <ele>134.800003</ele>
        <time>2018-10-14T12:57:24Z</time>
      </trkpt>
      <trkpt lat="43.35929" lon="6.69677">
        <ele>133.899994</ele>
        <time>2018-10-14T12:57:26Z</time>
      </trkpt>
      <trkpt lat="43.35935" lon="6.69662">
        <ele>132.5</ele>
        <time>2018-10-14T12:57:28Z</time>
      </trkpt>
      <trkpt lat="43.35943" lon="6.69655">
        <ele>131.600006</ele>
        <time>2018-10-14T12:57:31Z</time>
      </trkpt>
      <trkpt lat="43.35948" lon="6.69665">
        <ele>130.100006</ele>
        <time>2018-10-14T12:57:35Z</time>
      </trkpt>
      <trkpt lat="43.3595" lon="6.69682">
        <ele>129</ele>
        <time>2018-10-14T12:57:38Z</time>
      </trkpt>
      <trkpt lat="43.35951" lon="6.69697">
        <ele>128.399994</ele>
        <time>2018-10-14T12:57:40Z</time>
      </trkpt>
      <trkpt lat="43.35954" lon="6.69712">
        <ele>128.300003</ele>
        <time>2018-10-14T12:57:42Z</time>
      </trkpt>
      <trkpt lat="43.3596" lon="6.69728">
        <ele>128.100006</ele>
        <time>2018-10-14T12:57:44Z</time>
      </trkpt>
      <trkpt lat="43.35967" lon="6.69743">
        <ele>126.900002</ele>
        <time>2018-10-14T12:57:46Z</time>
      </trkpt>
      <trkpt lat="43.3597" lon="6.69758">
        <ele>125.599998</ele>
        <time>2018-10-14T12:57:48Z</time>
      </trkpt>
      <trkpt lat="43.35971" lon="6.69774">
        <ele>124.5</ele>
        <time>2018-10-14T12:57:50Z</time>
      </trkpt>
      <trkpt lat="43.35976" lon="6.69791">
        <ele>123.800003</ele>
        <time>2018-10-14T12:57:52Z</time>
      </trkpt>
      <trkpt lat="43.35983" lon="6.69806">
        <ele>122.699997</ele>
        <time>2018-10-14T12:57:54Z</time>
      </trkpt>
      <trkpt lat="43.35993" lon="6.69818">
        <ele>121.800003</ele>
        <time>2018-10-14T12:57:56Z</time>
      </trkpt>
      <trkpt lat="43.36002" lon="6.69832">
        <ele>120.800003</ele>
        <time>2018-10-14T12:57:58Z</time>
      </trkpt>
      <trkpt lat="43.36011" lon="6.69848">
        <ele>120.099998</ele>
        <time>2018-10-14T12:58:00Z</time>
      </trkpt>
      <trkpt lat="43.3602" lon="6.69864">
        <ele>119.099998</ele>
        <time>2018-10-14T12:58:02Z</time>
      </trkpt>
      <trkpt lat="43.36027" lon="6.69882">
        <ele>117.599998</ele>
        <time>2018-10-14T12:58:04Z</time>
      </trkpt>
      <trkpt lat="43.36036" lon="6.69897">
        <ele>116.800003</ele>
        <time>2018-10-14T12:58:06Z</time>
      </trkpt>
      <trkpt lat="43.3604" lon="6.69914">
        <ele>115.699997</ele>
        <time>2018-10-14T12:58:08Z</time>
      </trkpt>
      <trkpt lat="43.36044" lon="6.69932">
        <ele>114.599998</ele>
        <time>2018-10-14T12:58:10Z</time>
      </trkpt>
      <trkpt lat="43.3605" lon="6.69948">
        <ele>113.800003</ele>
        <time>2018-10-14T12:58:12Z</time>
      </trkpt>
      <trkpt lat="43.36055" lon="6.69961">
        <ele>112.5</ele>
        <time>2018-10-14T12:58:14Z</time>
      </trkpt>
      <trkpt lat="43.36058" lon="6.69975">
        <ele>111.099998</ele>
        <time>2018-10-14T12:58:16Z</time>
      </trkpt>
      <trkpt lat="43.3606" lon="6.69989">
        <ele>110.400002</ele>
        <time>2018-10-14T12:58:18Z</time>
      </trkpt>
      <trkpt lat="43.36063" lon="6.70004">
        <ele>109.599998</ele>
        <time>2018-10-14T12:58:20Z</time>
      </trkpt>
      <trkpt lat="43.36068" lon="6.70017">
        <ele>109</ele>
        <time>2018-10-14T12:58:22Z</time>
      </trkpt>
      <trkpt lat="43.36074" lon="6.70028">
        <ele>107.800003</ele>
        <time>2018-10-14T12:58:24Z</time>
      </trkpt>
      <trkpt lat="43.3608" lon="6.70042">
        <ele>105.300003</ele>
        <time>2018-10-14T12:58:27Z</time>
      </trkpt>
      <trkpt lat="43.36083" lon="6.70058">
        <ele>104.800003</ele>
        <time>2018-10-14T12:58:30Z</time>
      </trkpt>
      <trkpt lat="43.36086" lon="6.7007">
        <ele>104.599998</ele>
        <time>2018-10-14T12:58:32Z</time>
      </trkpt>
      <trkpt lat="43.36091" lon="6.70081">
        <ele>104.599998</ele>
        <time>2018-10-14T12:58:34Z</time>
      </trkpt>
      <trkpt lat="43.36096" lon="6.70092">
        <ele>103.699997</ele>
        <time>2018-10-14T12:58:36Z</time>
      </trkpt>
      <trkpt lat="43.36101" lon="6.70105">
        <ele>103.099998</ele>
        <time>2018-10-14T12:58:38Z</time>
      </trkpt>
      <trkpt lat="43.36106" lon="6.70119">
        <ele>102</ele>
        <time>2018-10-14T12:58:40Z</time>
      </trkpt>
      <trkpt lat="43.36111" lon="6.70133">
        <ele>101.300003</ele>
        <time>2018-10-14T12:58:42Z</time>
      </trkpt>
      <trkpt lat="43.36118" lon="6.70144">
        <ele>99.599998</ele>
        <time>2018-10-14T12:58:44Z</time>
      </trkpt>
      <trkpt lat="43.36128" lon="6.70151">
        <ele>99.199997</ele>
        <time>2018-10-14T12:58:46Z</time>
      </trkpt>
      <trkpt lat="43.36138" lon="6.70157">
        <ele>98.900002</ele>
        <time>2018-10-14T12:58:48Z</time>
      </trkpt>
      <trkpt lat="43.3615" lon="6.70161">
        <ele>98</ele>
        <time>2018-10-14T12:58:50Z</time>
      </trkpt>
      <trkpt lat="43.36161" lon="6.70161">
        <ele>97</ele>
        <time>2018-10-14T12:58:52Z</time>
      </trkpt>
      <trkpt lat="43.3617" lon="6.70156">
        <ele>96.199997</ele>
        <time>2018-10-14T12:58:54Z</time>
      </trkpt>
      <trkpt lat="43.3618" lon="6.70152">
        <ele>95.199997</ele>
        <time>2018-10-14T12:58:57Z</time>
      </trkpt>
      <trkpt lat="43.36189" lon="6.70156">
        <ele>93.599998</ele>
        <time>2018-10-14T12:59:00Z</time>
      </trkpt>
      <trkpt lat="43.36198" lon="6.70163">
        <ele>93</ele>
        <time>2018-10-14T12:59:03Z</time>
      </trkpt>
      <trkpt lat="43.36205" lon="6.70171">
        <ele>90.5</ele>
        <time>2018-10-14T12:59:06Z</time>
      </trkpt>
      <trkpt lat="43.36209" lon="6.70185">
        <ele>89.099998</ele>
        <time>2018-10-14T12:59:10Z</time>
      </trkpt>
      <trkpt lat="43.36215" lon="6.70199">
        <ele>88.199997</ele>
        <time>2018-10-14T12:59:14Z</time>
      </trkpt>
      <trkpt lat="43.36223" lon="6.70208">
        <ele>86.900002</ele>
        <time>2018-10-14T12:59:17Z</time>
      </trkpt>
      <trkpt lat="43.36228" lon="6.70221">
        <ele>85.900002</ele>
        <time>2018-10-14T12:59:21Z</time>
      </trkpt>
      <trkpt lat="43.36231" lon="6.70234">
        <ele>85.400002</ele>
        <time>2018-10-14T12:59:26Z</time>
      </trkpt>
      <trkpt lat="43.36237" lon="6.7025">
        <ele>84.300003</ele>
        <time>2018-10-14T12:59:30Z</time>
      </trkpt>
      <trkpt lat="43.36242" lon="6.70263">
        <ele>83.699997</ele>
        <time>2018-10-14T12:59:33Z</time>
      </trkpt>
      <trkpt lat="43.36243" lon="6.70277">
        <ele>82.900002</ele>
        <time>2018-10-14T12:59:36Z</time>
      </trkpt>
      <trkpt lat="43.36249" lon="6.7029">
        <ele>82.599998</ele>
        <time>2018-10-14T12:59:39Z</time>
      </trkpt>
      <trkpt lat="43.36259" lon="6.70301">
        <ele>80.900002</ele>
        <time>2018-10-14T12:59:42Z</time>
      </trkpt>
      <trkpt lat="43.3627" lon="6.70309">
        <ele>79.800003</ele>
        <time>2018-10-14T12:59:45Z</time>
      </trkpt>
      <trkpt lat="43.36281" lon="6.70309">
        <ele>79.199997</ele>
        <time>2018-10-14T12:59:49Z</time>
      </trkpt>
      <trkpt lat="43.36291" lon="6.70302">
        <ele>78.400002</ele>
        <time>2018-10-14T12:59:52Z</time>
      </trkpt>
      <trkpt lat="43.36299" lon="6.70292">
        <ele>78.300003</ele>
        <time>2018-10-14T12:59:55Z</time>
      </trkpt>
      <trkpt lat="43.36307" lon="6.70283">
        <ele>76.800003</ele>
        <time>2018-10-14T12:59:59Z</time>
      </trkpt>
      <trkpt lat="43.36317" lon="6.70286">
        <ele>74.099998</ele>
        <time>2018-10-14T13:00:06Z</time>
      </trkpt>
      <trkpt lat="43.36324" lon="6.70294">
        <ele>72.599998</ele>
        <time>2018-10-14T13:00:18Z</time>
      </trkpt>
      <trkpt lat="43.36331" lon="6.70303">
        <ele>72.199997</ele>
        <time>2018-10-14T13:00:27Z</time>
      </trkpt>
      <trkpt lat="43.36332" lon="6.70317">
        <ele>71.400002</ele>
        <time>2018-10-14T13:00:36Z</time>
      </trkpt>
      <trkpt lat="43.36333" lon="6.7033">
        <ele>70.300003</ele>
        <time>2018-10-14T13:00:40Z</time>
      </trkpt>
      <trkpt lat="43.36334" lon="6.70343">
        <ele>70.400002</ele>
        <time>2018-10-14T13:00:43Z</time>
      </trkpt>
      <trkpt lat="43.36335" lon="6.70358">
        <ele>69.800003</ele>
        <time>2018-10-14T13:00:46Z</time>
      </trkpt>
      <trkpt lat="43.36336" lon="6.70374">
        <ele>68.800003</ele>
        <time>2018-10-14T13:00:49Z</time>
      </trkpt>
      <trkpt lat="43.36336" lon="6.7039">
        <ele>68.300003</ele>
        <time>2018-10-14T13:00:52Z</time>
      </trkpt>
      <trkpt lat="43.36332" lon="6.70406">
        <ele>67.199997</ele>
        <time>2018-10-14T13:00:55Z</time>
      </trkpt>
      <trkpt lat="43.36331" lon="6.70419">
        <ele>67.599998</ele>
        <time>2018-10-14T13:00:58Z</time>
      </trkpt>
      <trkpt lat="43.36331" lon="6.70436">
        <ele>67.099998</ele>
        <time>2018-10-14T13:01:02Z</time>
      </trkpt>
      <trkpt lat="43.36329" lon="6.70453">
        <ele>66</ele>
        <time>2018-10-14T13:01:05Z</time>
      </trkpt>
      <trkpt lat="43.36327" lon="6.70467">
        <ele>65.5</ele>
        <time>2018-10-14T13:01:07Z</time>
      </trkpt>
      <trkpt lat="43.36327" lon="6.7048">
        <ele>64.800003</ele>
        <time>2018-10-14T13:01:09Z</time>
      </trkpt>
      <trkpt lat="43.36329" lon="6.70493">
        <ele>63.700001</ele>
        <time>2018-10-14T13:01:11Z</time>
      </trkpt>
      <trkpt lat="43.36336" lon="6.70501">
        <ele>63.099998</ele>
        <time>2018-10-14T13:01:13Z</time>
      </trkpt>
      <trkpt lat="43.36348" lon="6.70505">
        <ele>61.599998</ele>
        <time>2018-10-14T13:01:16Z</time>
      </trkpt>
      <trkpt lat="43.36358" lon="6.70509">
        <ele>60.5</ele>
        <time>2018-10-14T13:01:19Z</time>
      </trkpt>
      <trkpt lat="43.36369" lon="6.70514">
        <ele>58.900002</ele>
        <time>2018-10-14T13:01:22Z</time>
      </trkpt>
      <trkpt lat="43.36378" lon="6.70519">
        <ele>57.900002</ele>
        <time>2018-10-14T13:01:25Z</time>
      </trkpt>
      <trkpt lat="43.36388" lon="6.70516">
        <ele>57.5</ele>
        <time>2018-10-14T13:01:28Z</time>
      </trkpt>
      <trkpt lat="43.36397" lon="6.70511">
        <ele>57.200001</ele>
        <time>2018-10-14T13:01:32Z</time>
      </trkpt>
      <trkpt lat="43.36407" lon="6.70516">
        <ele>56.400002</ele>
        <time>2018-10-14T13:01:35Z</time>
      </trkpt>
      <trkpt lat="43.36419" lon="6.70519">
        <ele>55.700001</ele>
        <time>2018-10-14T13:01:38Z</time>
      </trkpt>
      <trkpt lat="43.36429" lon="6.70518">
        <ele>54.799999</ele>
        <time>2018-10-14T13:01:40Z</time>
      </trkpt>
      <trkpt lat="43.36438" lon="6.70519">
        <ele>54.200001</ele>
        <time>2018-10-14T13:01:42Z</time>
      </trkpt>
      <trkpt lat="43.3645" lon="6.70514">
        <ele>51.799999</ele>
        <time>2018-10-14T13:01:45Z</time>
      </trkpt>
      <trkpt lat="43.36461" lon="6.70508">
        <ele>52.200001</ele>
        <time>2018-10-14T13:01:48Z</time>
      </trkpt>
      <trkpt lat="43.36469" lon="6.70503">
        <ele>51.200001</ele>
        <time>2018-10-14T13:01:50Z</time>
      </trkpt>
      <trkpt lat="43.36475" lon="6.70493">
        <ele>50.700001</ele>
        <time>2018-10-14T13:01:52Z</time>
      </trkpt>
      <trkpt lat="43.36482" lon="6.70481">
        <ele>48.5</ele>
        <time>2018-10-14T13:01:56Z</time>
      </trkpt>
      <trkpt lat="43.36492" lon="6.70491">
        <ele>46.700001</ele>
        <time>2018-10-14T13:02:00Z</time>
      </trkpt>
      <trkpt lat="43.36501" lon="6.70497">
        <ele>46.400002</ele>
        <time>2018-10-14T13:02:03Z</time>
      </trkpt>
      <trkpt lat="43.36511" lon="6.70495">
        <ele>45.400002</ele>
        <time>2018-10-14T13:02:07Z</time>
      </trkpt>
      <trkpt lat="43.36521" lon="6.705">
        <ele>44.799999</ele>
        <time>2018-10-14T13:02:11Z</time>
      </trkpt>
      <trkpt lat="43.36529" lon="6.70508">
        <ele>44.700001</ele>
        <time>2018-10-14T13:02:14Z</time>
      </trkpt>
      <trkpt lat="43.36539" lon="6.70509">
        <ele>43.299999</ele>
        <time>2018-10-14T13:02:17Z</time>
      </trkpt>
      <trkpt lat="43.36549" lon="6.70507">
        <ele>43.099998</ele>
        <time>2018-10-14T13:02:20Z</time>
      </trkpt>
      <trkpt lat="43.36559" lon="6.705">
        <ele>42</ele>
        <time>2018-10-14T13:02:23Z</time>
      </trkpt>
      <trkpt lat="43.36568" lon="6.70506">
        <ele>41.5</ele>
        <time>2018-10-14T13:02:27Z</time>
      </trkpt>
      <trkpt lat="43.36565" lon="6.70519">
        <ele>41.900002</ele>
        <time>2018-10-14T13:02:31Z</time>
      </trkpt>
      <trkpt lat="43.36561" lon="6.70533">
        <ele>41.200001</ele>
        <time>2018-10-14T13:02:35Z</time>
      </trkpt>
      <trkpt lat="43.3656" lon="6.70549">
        <ele>40.400002</ele>
        <time>2018-10-14T13:02:38Z</time>
      </trkpt>
      <trkpt lat="43.36563" lon="6.70565">
        <ele>39.700001</ele>
        <time>2018-10-14T13:02:41Z</time>
      </trkpt>
      <trkpt lat="43.36568" lon="6.7058">
        <ele>39.400002</ele>
        <time>2018-10-14T13:02:44Z</time>
      </trkpt>
      <trkpt lat="43.36572" lon="6.70593">
        <ele>39</ele>
        <time>2018-10-14T13:02:47Z</time>
      </trkpt>
      <trkpt lat="43.36577" lon="6.70605">
        <ele>39.099998</ele>
        <time>2018-10-14T13:02:50Z</time>
      </trkpt>
      <trkpt lat="43.36585" lon="6.70616">
        <ele>39.099998</ele>
        <time>2018-10-14T13:02:53Z</time>
      </trkpt>
      <trkpt lat="43.36596" lon="6.70625">
        <ele>39.599998</ele>
        <time>2018-10-14T13:02:56Z</time>
      </trkpt>
      <trkpt lat="43.36607" lon="6.70635">
        <ele>38.900002</ele>
        <time>2018-10-14T13:02:59Z</time>
      </trkpt>
      <trkpt lat="43.36614" lon="6.70644">
        <ele>38.400002</ele>
        <time>2018-10-14T13:03:01Z</time>
      </trkpt>
      <trkpt lat="43.36621" lon="6.70655">
        <ele>38.400002</ele>
        <time>2018-10-14T13:03:03Z</time>
      </trkpt>
      <trkpt lat="43.36628" lon="6.70663">
        <ele>39.299999</ele>
        <time>2018-10-14T13:03:05Z</time>
      </trkpt>
      <trkpt lat="43.36638" lon="6.70671">
        <ele>39</ele>
        <time>2018-10-14T13:03:08Z</time>
      </trkpt>
      <trkpt lat="43.36649" lon="6.70668">
        <ele>38.599998</ele>
        <time>2018-10-14T13:03:11Z</time>
      </trkpt>
      <trkpt lat="43.36659" lon="6.70663">
        <ele>38.5</ele>
        <time>2018-10-14T13:03:13Z</time>
      </trkpt>
      <trkpt lat="43.3667" lon="6.70659">
        <ele>38.200001</ele>
        <time>2018-10-14T13:03:15Z</time>
      </trkpt>
      <trkpt lat="43.36681" lon="6.70659">
        <ele>37.700001</ele>
        <time>2018-10-14T13:03:17Z</time>
      </trkpt>
      <trkpt lat="43.36691" lon="6.70667">
        <ele>37.400002</ele>
        <time>2018-10-14T13:03:19Z</time>
      </trkpt>
      <trkpt lat="43.367" lon="6.70682">
        <ele>36.700001</ele>
        <time>2018-10-14T13:03:21Z</time>
      </trkpt>
      <trkpt lat="43.36707" lon="6.70697">
        <ele>36</ele>
        <time>2018-10-14T13:03:23Z</time>
      </trkpt>
      <trkpt lat="43.36713" lon="6.70706">
        <ele>34.900002</ele>
        <time>2018-10-14T13:03:25Z</time>
      </trkpt>
      <trkpt lat="43.36723" lon="6.70699">
        <ele>32.400002</ele>
        <time>2018-10-14T13:03:28Z</time>
      </trkpt>
      <trkpt lat="43.36724" lon="6.70686">
        <ele>31.4</ele>
        <time>2018-10-14T13:03:30Z</time>
      </trkpt>
      <trkpt lat="43.36725" lon="6.70671">
        <ele>30.9</ele>
        <time>2018-10-14T13:03:32Z</time>
      </trkpt>
      <trkpt lat="43.36726" lon="6.70655">
        <ele>30.299999</ele>
        <time>2018-10-14T13:03:34Z</time>
      </trkpt>
      <trkpt lat="43.3673" lon="6.7064">
        <ele>29.4</ele>
        <time>2018-10-14T13:03:36Z</time>
      </trkpt>
      <trkpt lat="43.3674" lon="6.70632">
        <ele>28.299999</ele>
        <time>2018-10-14T13:03:38Z</time>
      </trkpt>
      <trkpt lat="43.36753" lon="6.70634">
        <ele>27.299999</ele>
        <time>2018-10-14T13:03:40Z</time>
      </trkpt>
      <trkpt lat="43.36762" lon="6.70646">
        <ele>26.5</ele>
        <time>2018-10-14T13:03:42Z</time>
      </trkpt>
      <trkpt lat="43.36768" lon="6.70654">
        <ele>24.799999</ele>
        <time>2018-10-14T13:03:44Z</time>
      </trkpt>
      <trkpt lat="43.36777" lon="6.70648">
        <ele>24.700001</ele>
        <time>2018-10-14T13:03:47Z</time>
      </trkpt>
      <trkpt lat="43.36784" lon="6.70635">
        <ele>23.9</ele>
        <time>2018-10-14T13:03:50Z</time>
      </trkpt>
      <trkpt lat="43.36791" lon="6.70618">
        <ele>23</ele>
        <time>2018-10-14T13:03:53Z</time>
      </trkpt>
      <trkpt lat="43.36791" lon="6.70603">
        <ele>22.9</ele>
        <time>2018-10-14T13:03:55Z</time>
      </trkpt>
      <trkpt lat="43.36789" lon="6.70591">
        <ele>22.9</ele>
        <time>2018-10-14T13:03:57Z</time>
      </trkpt>
      <trkpt lat="43.36789" lon="6.70574">
        <ele>22.6</ele>
        <time>2018-10-14T13:04:00Z</time>
      </trkpt>
      <trkpt lat="43.36794" lon="6.70559">
        <ele>22.6</ele>
        <time>2018-10-14T13:04:03Z</time>
      </trkpt>
      <trkpt lat="43.36793" lon="6.70545">
        <ele>22.200001</ele>
        <time>2018-10-14T13:04:05Z</time>
      </trkpt>
      <trkpt lat="43.36791" lon="6.7053">
        <ele>22.5</ele>
        <time>2018-10-14T13:04:07Z</time>
      </trkpt>
      <trkpt lat="43.36791" lon="6.70516">
        <ele>22.4</ele>
        <time>2018-10-14T13:04:09Z</time>
      </trkpt>
      <trkpt lat="43.36792" lon="6.70502">
        <ele>22.299999</ele>
        <time>2018-10-14T13:04:11Z</time>
      </trkpt>
      <trkpt lat="43.36794" lon="6.70484">
        <ele>22.200001</ele>
        <time>2018-10-14T13:04:14Z</time>
      </trkpt>
      <trkpt lat="43.36796" lon="6.70472">
        <ele>22.1</ele>
        <time>2018-10-14T13:04:16Z</time>
      </trkpt>
      <trkpt lat="43.36798" lon="6.70456">
        <ele>22.200001</ele>
        <time>2018-10-14T13:04:19Z</time>
      </trkpt>
      <trkpt lat="43.36801" lon="6.70441">
        <ele>21.9</ele>
        <time>2018-10-14T13:04:22Z</time>
      </trkpt>
      <trkpt lat="43.36811" lon="6.70436">
        <ele>22.799999</ele>
        <time>2018-10-14T13:04:25Z</time>
      </trkpt>
      <trkpt lat="43.3682" lon="6.70441">
        <ele>23.200001</ele>
        <time>2018-10-14T13:04:28Z</time>
      </trkpt>
      <trkpt lat="43.36829" lon="6.70446">
        <ele>23.700001</ele>
        <time>2018-10-14T13:04:34Z</time>
      </trkpt>
      <trkpt lat="43.36839" lon="6.70452">
        <ele>26.700001</ele>
        <time>2018-10-14T13:04:39Z</time>
      </trkpt>
      <trkpt lat="43.36847" lon="6.70461">
        <ele>27.1</ele>
        <time>2018-10-14T13:04:44Z</time>
      </trkpt>
      <trkpt lat="43.36855" lon="6.7047">
        <ele>27.5</ele>
        <time>2018-10-14T13:04:49Z</time>
      </trkpt>
      <trkpt lat="43.36861" lon="6.7048">
        <ele>28.4</ele>
        <time>2018-10-14T13:04:53Z</time>
      </trkpt>
      <trkpt lat="43.36867" lon="6.7049">
        <ele>28.9</ele>
        <time>2018-10-14T13:04:57Z</time>
      </trkpt>
      <trkpt lat="43.36872" lon="6.70501">
        <ele>28.9</ele>
        <time>2018-10-14T13:05:01Z</time>
      </trkpt>
      <trkpt lat="43.36875" lon="6.70514">
        <ele>29.6</ele>
        <time>2018-10-14T13:05:06Z</time>
      </trkpt>
      <trkpt lat="43.36877" lon="6.70526">
        <ele>31.9</ele>
        <time>2018-10-14T13:05:12Z</time>
      </trkpt>
      <trkpt lat="43.3688" lon="6.70539">
        <ele>33.799999</ele>
        <time>2018-10-14T13:05:18Z</time>
      </trkpt>
      <trkpt lat="43.36884" lon="6.70552">
        <ele>35</ele>
        <time>2018-10-14T13:05:25Z</time>
      </trkpt>
      <trkpt lat="43.36893" lon="6.70552">
        <ele>37.5</ele>
        <time>2018-10-14T13:05:33Z</time>
      </trkpt>
      <trkpt lat="43.36903" lon="6.70549">
        <ele>40.200001</ele>
        <time>2018-10-14T13:05:43Z</time>
      </trkpt>
      <trkpt lat="43.36911" lon="6.70545">
        <ele>42.700001</ele>
        <time>2018-10-14T13:05:53Z</time>
      </trkpt>
      <trkpt lat="43.3692" lon="6.70541">
        <ele>45.400002</ele>
        <time>2018-10-14T13:06:03Z</time>
      </trkpt>
      <trkpt lat="43.36929" lon="6.70535">
        <ele>46.900002</ele>
        <time>2018-10-14T13:06:14Z</time>
      </trkpt>
      <trkpt lat="43.36938" lon="6.7053">
        <ele>49.400002</ele>
        <time>2018-10-14T13:06:22Z</time>
      </trkpt>
      <trkpt lat="43.36946" lon="6.70525">
        <ele>51.700001</ele>
        <time>2018-10-14T13:06:31Z</time>
      </trkpt>
      <trkpt lat="43.36956" lon="6.70521">
        <ele>52.900002</ele>
        <time>2018-10-14T13:06:40Z</time>
      </trkpt>
      <trkpt lat="43.36965" lon="6.70518">
        <ele>55.099998</ele>
        <time>2018-10-14T13:06:47Z</time>
      </trkpt>
      <trkpt lat="43.36975" lon="6.70513">
        <ele>56.099998</ele>
        <time>2018-10-14T13:06:54Z</time>
      </trkpt>
      <trkpt lat="43.36984" lon="6.70506">
        <ele>56.700001</ele>
        <time>2018-10-14T13:07:00Z</time>
      </trkpt>
      <trkpt lat="43.36991" lon="6.705">
        <ele>57.900002</ele>
        <time>2018-10-14T13:07:05Z</time>
      </trkpt>
      <trkpt lat="43.36999" lon="6.7049">
        <ele>58.700001</ele>
        <time>2018-10-14T13:07:11Z</time>
      </trkpt>
      <trkpt lat="43.37007" lon="6.70481">
        <ele>59.200001</ele>
        <time>2018-10-14T13:07:16Z</time>
      </trkpt>
      <trkpt lat="43.37015" lon="6.70472">
        <ele>60.200001</ele>
        <time>2018-10-14T13:07:22Z</time>
      </trkpt>
      <trkpt lat="43.37021" lon="6.70461">
        <ele>60.900002</ele>
        <time>2018-10-14T13:07:27Z</time>
      </trkpt>
      <trkpt lat="43.37027" lon="6.70452">
        <ele>62.099998</ele>
        <time>2018-10-14T13:07:32Z</time>
      </trkpt>
      <trkpt lat="43.37034" lon="6.70441">
        <ele>62.099998</ele>
        <time>2018-10-14T13:07:37Z</time>
      </trkpt>
      <trkpt lat="43.37041" lon="6.70432">
        <ele>62.799999</ele>
        <time>2018-10-14T13:07:41Z</time>
      </trkpt>
      <trkpt lat="43.37049" lon="6.70421">
        <ele>63.599998</ele>
        <time>2018-10-14T13:07:46Z</time>
      </trkpt>
      <trkpt lat="43.37055" lon="6.70412">
        <ele>64</ele>
        <time>2018-10-14T13:07:50Z</time>
      </trkpt>
      <trkpt lat="43.37062" lon="6.70401">
        <ele>64.599998</ele>
        <time>2018-10-14T13:07:55Z</time>
      </trkpt>
      <trkpt lat="43.37069" lon="6.70391">
        <ele>66.199997</ele>
        <time>2018-10-14T13:08:00Z</time>
      </trkpt>
      <trkpt lat="43.37077" lon="6.70381">
        <ele>66.599998</ele>
        <time>2018-10-14T13:08:05Z</time>
      </trkpt>
      <trkpt lat="43.37084" lon="6.7037">
        <ele>67</ele>
        <time>2018-10-14T13:08:09Z</time>
      </trkpt>
      <trkpt lat="43.37091" lon="6.70359">
        <ele>67.5</ele>
        <time>2018-10-14T13:08:13Z</time>
      </trkpt>
      <trkpt lat="43.37097" lon="6.70345">
        <ele>67.400002</ele>
        <time>2018-10-14T13:08:17Z</time>
      </trkpt>
      <trkpt lat="43.371" lon="6.70333">
        <ele>66.800003</ele>
        <time>2018-10-14T13:08:20Z</time>
      </trkpt>
      <trkpt lat="43.37104" lon="6.70321">
        <ele>66.199997</ele>
        <time>2018-10-14T13:08:23Z</time>
      </trkpt>
      <trkpt lat="43.37109" lon="6.70309">
        <ele>66.300003</ele>
        <time>2018-10-14T13:08:26Z</time>
      </trkpt>
      <trkpt lat="43.37113" lon="6.70296">
        <ele>66.400002</ele>
        <time>2018-10-14T13:08:29Z</time>
      </trkpt>
      <trkpt lat="43.37118" lon="6.70282">
        <ele>66.599998</ele>
        <time>2018-10-14T13:08:33Z</time>
      </trkpt>
      <trkpt lat="43.37121" lon="6.70268">
        <ele>67</ele>
        <time>2018-10-14T13:08:37Z</time>
      </trkpt>
      <trkpt lat="43.37124" lon="6.70254">
        <ele>67.5</ele>
        <time>2018-10-14T13:08:42Z</time>
      </trkpt>
      <trkpt lat="43.37129" lon="6.70243">
        <ele>68.800003</ele>
        <time>2018-10-14T13:08:46Z</time>
      </trkpt>
      <trkpt lat="43.37133" lon="6.70232">
        <ele>69.5</ele>
        <time>2018-10-14T13:08:50Z</time>
      </trkpt>
      <trkpt lat="43.37138" lon="6.70221">
        <ele>71.199997</ele>
        <time>2018-10-14T13:08:54Z</time>
      </trkpt>
      <trkpt lat="43.37143" lon="6.70209">
        <ele>71.300003</ele>
        <time>2018-10-14T13:08:58Z</time>
      </trkpt>
      <trkpt lat="43.37152" lon="6.70202">
        <ele>71.199997</ele>
        <time>2018-10-14T13:09:03Z</time>
      </trkpt>
      <trkpt lat="43.3716" lon="6.70195">
        <ele>71.900002</ele>
        <time>2018-10-14T13:09:07Z</time>
      </trkpt>
      <trkpt lat="43.3717" lon="6.70191">
        <ele>72.099998</ele>
        <time>2018-10-14T13:09:12Z</time>
      </trkpt>
      <trkpt lat="43.3718" lon="6.70186">
        <ele>73.300003</ele>
        <time>2018-10-14T13:09:17Z</time>
      </trkpt>
      <trkpt lat="43.3719" lon="6.70183">
        <ele>74.900002</ele>
        <time>2018-10-14T13:09:22Z</time>
      </trkpt>
      <trkpt lat="43.37199" lon="6.7018">
        <ele>75.300003</ele>
        <time>2018-10-14T13:09:27Z</time>
      </trkpt>
      <trkpt lat="43.37208" lon="6.70177">
        <ele>76.599998</ele>
        <time>2018-10-14T13:09:32Z</time>
      </trkpt>
      <trkpt lat="43.37218" lon="6.70173">
        <ele>77.300003</ele>
        <time>2018-10-14T13:09:38Z</time>
      </trkpt>
      <trkpt lat="43.37228" lon="6.70169">
        <ele>78.699997</ele>
        <time>2018-10-14T13:09:44Z</time>
      </trkpt>
      <trkpt lat="43.37238" lon="6.70167">
        <ele>79.400002</ele>
        <time>2018-10-14T13:09:50Z</time>
      </trkpt>
      <trkpt lat="43.37248" lon="6.70164">
        <ele>81.199997</ele>
        <time>2018-10-14T13:09:56Z</time>
      </trkpt>
      <trkpt lat="43.37259" lon="6.70163">
        <ele>82.699997</ele>
        <time>2018-10-14T13:10:02Z</time>
      </trkpt>
      <trkpt lat="43.37269" lon="6.70162">
        <ele>84.199997</ele>
        <time>2018-10-14T13:10:07Z</time>
      </trkpt>
      <trkpt lat="43.37278" lon="6.70159">
        <ele>84.400002</ele>
        <time>2018-10-14T13:10:12Z</time>
      </trkpt>
      <trkpt lat="43.37287" lon="6.70155">
        <ele>85.800003</ele>
        <time>2018-10-14T13:10:17Z</time>
      </trkpt>
      <trkpt lat="43.37297" lon="6.7015">
        <ele>86.699997</ele>
        <time>2018-10-14T13:10:24Z</time>
      </trkpt>
      <trkpt lat="43.37303" lon="6.7014">
        <ele>88.900002</ele>
        <time>2018-10-14T13:10:31Z</time>
      </trkpt>
      <trkpt lat="43.37309" lon="6.7013">
        <ele>90.900002</ele>
        <time>2018-10-14T13:10:38Z</time>
      </trkpt>
      <trkpt lat="43.37315" lon="6.70119">
        <ele>91.699997</ele>
        <time>2018-10-14T13:10:47Z</time>
      </trkpt>
      <trkpt lat="43.3732" lon="6.70109">
        <ele>93.900002</ele>
        <time>2018-10-14T13:10:54Z</time>
      </trkpt>
      <trkpt lat="43.37327" lon="6.70098">
        <ele>95.800003</ele>
        <time>2018-10-14T13:11:03Z</time>
      </trkpt>
      <trkpt lat="43.37333" lon="6.70088">
        <ele>98.199997</ele>
        <time>2018-10-14T13:11:11Z</time>
      </trkpt>
      <trkpt lat="43.37339" lon="6.70076">
        <ele>98.900002</ele>
        <time>2018-10-14T13:11:20Z</time>
      </trkpt>
      <trkpt lat="43.37343" lon="6.70065">
        <ele>101.400002</ele>
        <time>2018-10-14T13:11:29Z</time>
      </trkpt>
      <trkpt lat="43.3735" lon="6.70054">
        <ele>103.199997</ele>
        <time>2018-10-14T13:11:38Z</time>
      </trkpt>
      <trkpt lat="43.37355" lon="6.70043">
        <ele>103.800003</ele>
        <time>2018-10-14T13:11:46Z</time>
      </trkpt>
      <trkpt lat="43.3736" lon="6.70032">
        <ele>106.5</ele>
        <time>2018-10-14T13:11:54Z</time>
      </trkpt>
      <trkpt lat="43.37365" lon="6.70022">
        <ele>109</ele>
        <time>2018-10-14T13:12:05Z</time>
      </trkpt>
      <trkpt lat="43.37373" lon="6.70014">
        <ele>110.599998</ele>
        <time>2018-10-14T13:12:13Z</time>
      </trkpt>
      <trkpt lat="43.37383" lon="6.70017">
        <ele>113</ele>
        <time>2018-10-14T13:12:23Z</time>
      </trkpt>
      <trkpt lat="43.3739" lon="6.70025">
        <ele>115.400002</ele>
        <time>2018-10-14T13:12:38Z</time>
      </trkpt>
      <trkpt lat="43.37398" lon="6.70032">
        <ele>117.5</ele>
        <time>2018-10-14T13:12:50Z</time>
      </trkpt>
      <trkpt lat="43.37406" lon="6.70037">
        <ele>119.400002</ele>
        <time>2018-10-14T13:13:02Z</time>
      </trkpt>
      <trkpt lat="43.37415" lon="6.70035">
        <ele>121.199997</ele>
        <time>2018-10-14T13:13:13Z</time>
      </trkpt>
      <trkpt lat="43.37424" lon="6.70028">
        <ele>122.199997</ele>
        <time>2018-10-14T13:13:20Z</time>
      </trkpt>
      <trkpt lat="43.37432" lon="6.70018">
        <ele>122.300003</ele>
        <time>2018-10-14T13:13:25Z</time>
      </trkpt>
      <trkpt lat="43.37441" lon="6.7001">
        <ele>122.400002</ele>
        <time>2018-10-14T13:13:30Z</time>
      </trkpt>
      <trkpt lat="43.37448" lon="6.70002">
        <ele>122.599998</ele>
        <time>2018-10-14T13:13:35Z</time>
      </trkpt>
      <trkpt lat="43.37455" lon="6.69993">
        <ele>122.699997</ele>
        <time>2018-10-14T13:13:40Z</time>
      </trkpt>
      <trkpt lat="43.37462" lon="6.69985">
        <ele>123.800003</ele>
        <time>2018-10-14T13:13:44Z</time>
      </trkpt>
      <trkpt lat="43.37469" lon="6.69976">
        <ele>124.300003</ele>
        <time>2018-10-14T13:13:48Z</time>
      </trkpt>
      <trkpt lat="43.37476" lon="6.69968">
        <ele>125.699997</ele>
        <time>2018-10-14T13:13:52Z</time>
      </trkpt>
      <trkpt lat="43.37483" lon="6.6996">
        <ele>125.800003</ele>
        <time>2018-10-14T13:13:56Z</time>
      </trkpt>
      <trkpt lat="43.37492" lon="6.69954">
        <ele>126.199997</ele>
        <time>2018-10-14T13:14:00Z</time>
      </trkpt>
      <trkpt lat="43.37502" lon="6.6995">
        <ele>127.099998</ele>
        <time>2018-10-14T13:14:04Z</time>
      </trkpt>
      <trkpt lat="43.37511" lon="6.69955">
        <ele>128.600006</ele>
        <time>2018-10-14T13:14:08Z</time>
      </trkpt>
      <trkpt lat="43.37518" lon="6.69966">
        <ele>128.699997</ele>
        <time>2018-10-14T13:14:12Z</time>
      </trkpt>
      <trkpt lat="43.37523" lon="6.69979">
        <ele>129.199997</ele>
        <time>2018-10-14T13:14:16Z</time>
      </trkpt>
      <trkpt lat="43.3753" lon="6.69989">
        <ele>130.100006</ele>
        <time>2018-10-14T13:14:20Z</time>
      </trkpt>
      <trkpt lat="43.37539" lon="6.69996">
        <ele>130.699997</ele>
        <time>2018-10-14T13:14:25Z</time>
      </trkpt>
      <trkpt lat="43.37548" lon="6.70001">
        <ele>132</ele>
        <time>2018-10-14T13:14:30Z</time>
      </trkpt>
      <trkpt lat="43.37558" lon="6.70004">
        <ele>134</ele>
        <time>2018-10-14T13:14:35Z</time>
      </trkpt>
      <trkpt lat="43.37568" lon="6.70005">
        <ele>134.800003</ele>
        <time>2018-10-14T13:14:40Z</time>
      </trkpt>
      <trkpt lat="43.3758" lon="6.70001">
        <ele>136.5</ele>
        <time>2018-10-14T13:14:45Z</time>
      </trkpt>
      <trkpt lat="43.37591" lon="6.70002">
        <ele>137</ele>
        <time>2018-10-14T13:14:50Z</time>
      </trkpt>
      <trkpt lat="43.37601" lon="6.7">
        <ele>136.899994</ele>
        <time>2018-10-14T13:14:54Z</time>
      </trkpt>
      <trkpt lat="43.37609" lon="6.69993">
        <ele>136.300003</ele>
        <time>2018-10-14T13:14:57Z</time>
      </trkpt>
      <trkpt lat="43.37622" lon="6.69987">
        <ele>136.5</ele>
        <time>2018-10-14T13:15:00Z</time>
      </trkpt>
      <trkpt lat="43.37634" lon="6.69984">
        <ele>135.800003</ele>
        <time>2018-10-14T13:15:03Z</time>
      </trkpt>
      <trkpt lat="43.37644" lon="6.69981">
        <ele>136</ele>
        <time>2018-10-14T13:15:06Z</time>
      </trkpt>
      <trkpt lat="43.37654" lon="6.69978">
        <ele>134.600006</ele>
        <time>2018-10-14T13:15:09Z</time>
      </trkpt>
      <trkpt lat="43.37664" lon="6.69973">
        <ele>133.399994</ele>
        <time>2018-10-14T13:15:12Z</time>
      </trkpt>
      <trkpt lat="43.37676" lon="6.69966">
        <ele>131.399994</ele>
        <time>2018-10-14T13:15:15Z</time>
      </trkpt>
      <trkpt lat="43.37684" lon="6.69959">
        <ele>131.300003</ele>
        <time>2018-10-14T13:15:17Z</time>
      </trkpt>
      <trkpt lat="43.37692" lon="6.69951">
        <ele>130.100006</ele>
        <time>2018-10-14T13:15:19Z</time>
      </trkpt>
      <trkpt lat="43.37702" lon="6.69944">
        <ele>129.100006</ele>
        <time>2018-10-14T13:15:21Z</time>
      </trkpt>
      <trkpt lat="43.37713" lon="6.6994">
        <ele>127.800003</ele>
        <time>2018-10-14T13:15:24Z</time>
      </trkpt>
      <trkpt lat="43.3772" lon="6.69949">
        <ele>127.800003</ele>
        <time>2018-10-14T13:15:29Z</time>
      </trkpt>
      <trkpt lat="43.37726" lon="6.6996">
        <ele>126.800003</ele>
        <time>2018-10-14T13:15:36Z</time>
      </trkpt>
      <trkpt lat="43.37732" lon="6.69969">
        <ele>128</ele>
        <time>2018-10-14T13:15:41Z</time>
      </trkpt>
      <trkpt lat="43.37739" lon="6.69979">
        <ele>128.600006</ele>
        <time>2018-10-14T13:15:47Z</time>
      </trkpt>
      <trkpt lat="43.37747" lon="6.69986">
        <ele>129.300003</ele>
        <time>2018-10-14T13:15:58Z</time>
      </trkpt>
      <trkpt lat="43.37754" lon="6.69993">
        <ele>130.699997</ele>
        <time>2018-10-14T13:16:08Z</time>
      </trkpt>
      <trkpt lat="43.37763" lon="6.7">
        <ele>132</ele>
        <time>2018-10-14T13:16:18Z</time>
      </trkpt>
      <trkpt lat="43.3777" lon="6.70007">
        <ele>133.100006</ele>
        <time>2018-10-14T13:16:26Z</time>
      </trkpt>
      <trkpt lat="43.3778" lon="6.70012">
        <ele>135.699997</ele>
        <time>2018-10-14T13:16:31Z</time>
      </trkpt>
      <trkpt lat="43.37788" lon="6.70016">
        <ele>136.199997</ele>
        <time>2018-10-14T13:16:38Z</time>
      </trkpt>
      <trkpt lat="43.37797" lon="6.70021">
        <ele>137.800003</ele>
        <time>2018-10-14T13:16:50Z</time>
      </trkpt>
      <trkpt lat="43.37806" lon="6.70025">
        <ele>139.699997</ele>
        <time>2018-10-14T13:16:59Z</time>
      </trkpt>
      <trkpt lat="43.37817" lon="6.70029">
        <ele>140.300003</ele>
        <time>2018-10-14T13:17:05Z</time>
      </trkpt>
      <trkpt lat="43.37826" lon="6.70031">
        <ele>141.199997</ele>
        <time>2018-10-14T13:17:09Z</time>
      </trkpt>
      <trkpt lat="43.37837" lon="6.70035">
        <ele>141.5</ele>
        <time>2018-10-14T13:17:14Z</time>
      </trkpt>
      <trkpt lat="43.37848" lon="6.7004">
        <ele>143.300003</ele>
        <time>2018-10-14T13:17:19Z</time>
      </trkpt>
      <trkpt lat="43.37858" lon="6.70047">
        <ele>144.5</ele>
        <time>2018-10-14T13:17:23Z</time>
      </trkpt>
      <trkpt lat="43.37867" lon="6.70055">
        <ele>144.100006</ele>
        <time>2018-10-14T13:17:26Z</time>
      </trkpt>
      <trkpt lat="43.37875" lon="6.70064">
        <ele>144.5</ele>
        <time>2018-10-14T13:17:29Z</time>
      </trkpt>
      <trkpt lat="43.37884" lon="6.70078">
        <ele>144.5</ele>
        <time>2018-10-14T13:17:32Z</time>
      </trkpt>
      <trkpt lat="43.3789" lon="6.70088">
        <ele>144.899994</ele>
        <time>2018-10-14T13:17:34Z</time>
      </trkpt>
      <trkpt lat="43.37894" lon="6.70101">
        <ele>144.800003</ele>
        <time>2018-10-14T13:17:36Z</time>
      </trkpt>
      <trkpt lat="43.37898" lon="6.70115">
        <ele>144.600006</ele>
        <time>2018-10-14T13:17:38Z</time>
      </trkpt>
      <trkpt lat="43.37902" lon="6.70132">
        <ele>144.5</ele>
        <time>2018-10-14T13:17:40Z</time>
      </trkpt>
      <trkpt lat="43.37906" lon="6.70151">
        <ele>143.600006</ele>
        <time>2018-10-14T13:17:42Z</time>
      </trkpt>
      <trkpt lat="43.37912" lon="6.70169">
        <ele>142.399994</ele>
        <time>2018-10-14T13:17:44Z</time>
      </trkpt>
      <trkpt lat="43.37918" lon="6.70182">
        <ele>141.800003</ele>
        <time>2018-10-14T13:17:46Z</time>
      </trkpt>
      <trkpt lat="43.37926" lon="6.70195">
        <ele>142.100006</ele>
        <time>2018-10-14T13:17:49Z</time>
      </trkpt>
      <trkpt lat="43.37933" lon="6.70203">
        <ele>142.100006</ele>
        <time>2018-10-14T13:17:52Z</time>
      </trkpt>
      <trkpt lat="43.37942" lon="6.70212">
        <ele>142.5</ele>
        <time>2018-10-14T13:17:57Z</time>
      </trkpt>
      <trkpt lat="43.3795" lon="6.7022">
        <ele>144.5</ele>
        <time>2018-10-14T13:18:03Z</time>
      </trkpt>
      <trkpt lat="43.37954" lon="6.70232">
        <ele>147.300003</ele>
        <time>2018-10-14T13:18:11Z</time>
      </trkpt>
      <trkpt lat="43.37952" lon="6.70244">
        <ele>150.199997</ele>
        <time>2018-10-14T13:18:20Z</time>
      </trkpt>
      <trkpt lat="43.37952" lon="6.70258">
        <ele>152.800003</ele>
        <time>2018-10-14T13:18:30Z</time>
      </trkpt>
      <trkpt lat="43.37955" lon="6.7027">
        <ele>154.5</ele>
        <time>2018-10-14T13:18:39Z</time>
      </trkpt>
      <trkpt lat="43.37958" lon="6.70282">
        <ele>157.199997</ele>
        <time>2018-10-14T13:18:47Z</time>
      </trkpt>
      <trkpt lat="43.37961" lon="6.70294">
        <ele>157.600006</ele>
        <time>2018-10-14T13:18:54Z</time>
      </trkpt>
      <trkpt lat="43.37969" lon="6.70302">
        <ele>158.899994</ele>
        <time>2018-10-14T13:19:01Z</time>
      </trkpt>
      <trkpt lat="43.37979" lon="6.70304">
        <ele>160</ele>
        <time>2018-10-14T13:19:08Z</time>
      </trkpt>
      <trkpt lat="43.37991" lon="6.70301">
        <ele>159.699997</ele>
        <time>2018-10-14T13:19:12Z</time>
      </trkpt>
      <trkpt lat="43.38001" lon="6.70301">
        <ele>160</ele>
        <time>2018-10-14T13:19:15Z</time>
      </trkpt>
      <trkpt lat="43.38013" lon="6.70301">
        <ele>159.899994</ele>
        <time>2018-10-14T13:19:18Z</time>
      </trkpt>
      <trkpt lat="43.38022" lon="6.70299">
        <ele>160.199997</ele>
        <time>2018-10-14T13:19:20Z</time>
      </trkpt>
      <trkpt lat="43.38035" lon="6.70298">
        <ele>160.199997</ele>
        <time>2018-10-14T13:19:23Z</time>
      </trkpt>
      <trkpt lat="43.38047" lon="6.703">
        <ele>160.100006</ele>
        <time>2018-10-14T13:19:26Z</time>
      </trkpt>
      <trkpt lat="43.38056" lon="6.70302">
        <ele>160.399994</ele>
        <time>2018-10-14T13:19:28Z</time>
      </trkpt>
      <trkpt lat="43.38067" lon="6.70304">
        <ele>160.5</ele>
        <time>2018-10-14T13:19:30Z</time>
      </trkpt>
      <trkpt lat="43.38078" lon="6.70305">
        <ele>160.300003</ele>
        <time>2018-10-14T13:19:32Z</time>
      </trkpt>
      <trkpt lat="43.3809" lon="6.70305">
        <ele>159.899994</ele>
        <time>2018-10-14T13:19:34Z</time>
      </trkpt>
      <trkpt lat="43.38102" lon="6.70309">
        <ele>159.199997</ele>
        <time>2018-10-14T13:19:36Z</time>
      </trkpt>
      <trkpt lat="43.38116" lon="6.70316">
        <ele>158.5</ele>
        <time>2018-10-14T13:19:38Z</time>
      </trkpt>
      <trkpt lat="43.3813" lon="6.70323">
        <ele>157.300003</ele>
        <time>2018-10-14T13:19:40Z</time>
      </trkpt>
      <trkpt lat="43.38143" lon="6.7033">
        <ele>156.899994</ele>
        <time>2018-10-14T13:19:42Z</time>
      </trkpt>
      <trkpt lat="43.38156" lon="6.70338">
        <ele>156.100006</ele>
        <time>2018-10-14T13:19:44Z</time>
      </trkpt>
      <trkpt lat="43.38169" lon="6.70347">
        <ele>155.699997</ele>
        <time>2018-10-14T13:19:46Z</time>
      </trkpt>
      <trkpt lat="43.3818" lon="6.70359">
        <ele>154.899994</ele>
        <time>2018-10-14T13:19:48Z</time>
      </trkpt>
      <trkpt lat="43.38194" lon="6.70367">
        <ele>154</ele>
        <time>2018-10-14T13:19:50Z</time>
      </trkpt>
      <trkpt lat="43.38207" lon="6.70371">
        <ele>152.699997</ele>
        <time>2018-10-14T13:19:52Z</time>
      </trkpt>
      <trkpt lat="43.38217" lon="6.70381">
        <ele>150.600006</ele>
        <time>2018-10-14T13:19:54Z</time>
      </trkpt>
      <trkpt lat="43.38227" lon="6.70392">
        <ele>149.300003</ele>
        <time>2018-10-14T13:19:56Z</time>
      </trkpt>
      <trkpt lat="43.3824" lon="6.70401">
        <ele>148</ele>
        <time>2018-10-14T13:19:58Z</time>
      </trkpt>
      <trkpt lat="43.38256" lon="6.70405">
        <ele>146.600006</ele>
        <time>2018-10-14T13:20:00Z</time>
      </trkpt>
      <trkpt lat="43.38272" lon="6.70409">
        <ele>145.800003</ele>
        <time>2018-10-14T13:20:02Z</time>
      </trkpt>
      <trkpt lat="43.38283" lon="6.70419">
        <ele>145.199997</ele>
        <time>2018-10-14T13:20:04Z</time>
      </trkpt>
      <trkpt lat="43.3829" lon="6.70433">
        <ele>144.199997</ele>
        <time>2018-10-14T13:20:06Z</time>
      </trkpt>
      <trkpt lat="43.38296" lon="6.70443">
        <ele>143.600006</ele>
        <time>2018-10-14T13:20:08Z</time>
      </trkpt>
      <trkpt lat="43.38304" lon="6.70452">
        <ele>144.199997</ele>
        <time>2018-10-14T13:20:10Z</time>
      </trkpt>
      <trkpt lat="43.38313" lon="6.7046">
        <ele>144.600006</ele>
        <time>2018-10-14T13:20:12Z</time>
      </trkpt>
      <trkpt lat="43.38323" lon="6.70467">
        <ele>144.800003</ele>
        <time>2018-10-14T13:20:14Z</time>
      </trkpt>
      <trkpt lat="43.38336" lon="6.70474">
        <ele>144.300003</ele>
        <time>2018-10-14T13:20:16Z</time>
      </trkpt>
      <trkpt lat="43.38346" lon="6.70484">
        <ele>143.100006</ele>
        <time>2018-10-14T13:20:18Z</time>
      </trkpt>
      <trkpt lat="43.38352" lon="6.70498">
        <ele>142.5</ele>
        <time>2018-10-14T13:20:20Z</time>
      </trkpt>
      <trkpt lat="43.38358" lon="6.70509">
        <ele>142.199997</ele>
        <time>2018-10-14T13:20:22Z</time>
      </trkpt>
      <trkpt lat="43.38368" lon="6.70514">
        <ele>141.5</ele>
        <time>2018-10-14T13:20:24Z</time>
      </trkpt>
      <trkpt lat="43.38379" lon="6.70512">
        <ele>140.699997</ele>
        <time>2018-10-14T13:20:26Z</time>
      </trkpt>
      <trkpt lat="43.38388" lon="6.70513">
        <ele>140.199997</ele>
        <time>2018-10-14T13:20:28Z</time>
      </trkpt>
      <trkpt lat="43.38397" lon="6.70517">
        <ele>138.600006</ele>
        <time>2018-10-14T13:20:30Z</time>
      </trkpt>
      <trkpt lat="43.38404" lon="6.70526">
        <ele>136.899994</ele>
        <time>2018-10-14T13:20:32Z</time>
      </trkpt>
      <trkpt lat="43.38412" lon="6.70537">
        <ele>133.600006</ele>
        <time>2018-10-14T13:20:35Z</time>
      </trkpt>
      <trkpt lat="43.38422" lon="6.7055">
        <ele>129.699997</ele>
        <time>2018-10-14T13:20:38Z</time>
      </trkpt>
      <trkpt lat="43.38429" lon="6.70561">
        <ele>127.800003</ele>
        <time>2018-10-14T13:20:40Z</time>
      </trkpt>
      <trkpt lat="43.38438" lon="6.70574">
        <ele>125.400002</ele>
        <time>2018-10-14T13:20:43Z</time>
      </trkpt>
      <trkpt lat="43.38447" lon="6.70579">
        <ele>124.400002</ele>
        <time>2018-10-14T13:20:45Z</time>
      </trkpt>
      <trkpt lat="43.38459" lon="6.70581">
        <ele>122.699997</ele>
        <time>2018-10-14T13:20:47Z</time>
      </trkpt>
      <trkpt lat="43.38473" lon="6.70581">
        <ele>121.400002</ele>
        <time>2018-10-14T13:20:49Z</time>
      </trkpt>
      <trkpt lat="43.38484" lon="6.70585">
        <ele>119.300003</ele>
        <time>2018-10-14T13:20:51Z</time>
      </trkpt>
      <trkpt lat="43.38491" lon="6.70597">
        <ele>118.400002</ele>
        <time>2018-10-14T13:20:53Z</time>
      </trkpt>
      <trkpt lat="43.38499" lon="6.70609">
        <ele>117.5</ele>
        <time>2018-10-14T13:20:55Z</time>
      </trkpt>
      <trkpt lat="43.38509" lon="6.70623">
        <ele>116.300003</ele>
        <time>2018-10-14T13:20:57Z</time>
      </trkpt>
      <trkpt lat="43.38519" lon="6.70639">
        <ele>115.400002</ele>
        <time>2018-10-14T13:20:59Z</time>
      </trkpt>
      <trkpt lat="43.38528" lon="6.70654">
        <ele>114.599998</ele>
        <time>2018-10-14T13:21:01Z</time>
      </trkpt>
      <trkpt lat="43.38538" lon="6.70671">
        <ele>113.800003</ele>
        <time>2018-10-14T13:21:03Z</time>
      </trkpt>
      <trkpt lat="43.38546" lon="6.70685">
        <ele>112.800003</ele>
        <time>2018-10-14T13:21:05Z</time>
      </trkpt>
      <trkpt lat="43.38552" lon="6.70695">
        <ele>113.099998</ele>
        <time>2018-10-14T13:21:08Z</time>
      </trkpt>
      <trkpt lat="43.38557" lon="6.70705">
        <ele>114.400002</ele>
        <time>2018-10-14T13:21:13Z</time>
      </trkpt>
      <trkpt lat="43.38564" lon="6.70714">
        <ele>116.400002</ele>
        <time>2018-10-14T13:21:19Z</time>
      </trkpt>
      <trkpt lat="43.38572" lon="6.70721">
        <ele>118.800003</ele>
        <time>2018-10-14T13:21:26Z</time>
      </trkpt>
      <trkpt lat="43.38581" lon="6.70727">
        <ele>119.699997</ele>
        <time>2018-10-14T13:21:35Z</time>
      </trkpt>
      <trkpt lat="43.3859" lon="6.7073">
        <ele>121.900002</ele>
        <time>2018-10-14T13:21:42Z</time>
      </trkpt>
      <trkpt lat="43.386" lon="6.70734">
        <ele>122.699997</ele>
        <time>2018-10-14T13:21:48Z</time>
      </trkpt>
      <trkpt lat="43.3861" lon="6.70736">
        <ele>123</ele>
        <time>2018-10-14T13:21:52Z</time>
      </trkpt>
      <trkpt lat="43.3862" lon="6.70739">
        <ele>122.599998</ele>
        <time>2018-10-14T13:21:55Z</time>
      </trkpt>
      <trkpt lat="43.38631" lon="6.70741">
        <ele>123.199997</ele>
        <time>2018-10-14T13:21:58Z</time>
      </trkpt>
      <trkpt lat="43.38642" lon="6.70739">
        <ele>120.699997</ele>
        <time>2018-10-14T13:22:02Z</time>
      </trkpt>
      <trkpt lat="43.3865" lon="6.7073">
        <ele>118.300003</ele>
        <time>2018-10-14T13:22:06Z</time>
      </trkpt>
      <trkpt lat="43.3866" lon="6.70726">
        <ele>115.5</ele>
        <time>2018-10-14T13:22:10Z</time>
      </trkpt>
      <trkpt lat="43.38669" lon="6.70733">
        <ele>113.900002</ele>
        <time>2018-10-14T13:22:12Z</time>
      </trkpt>
      <trkpt lat="43.38678" lon="6.70732">
        <ele>112.900002</ele>
        <time>2018-10-14T13:22:14Z</time>
      </trkpt>
      <trkpt lat="43.38687" lon="6.70727">
        <ele>111.800003</ele>
        <time>2018-10-14T13:22:19Z</time>
      </trkpt>
      <trkpt lat="43.38695" lon="6.70722">
        <ele>112.599998</ele>
        <time>2018-10-14T13:22:33Z</time>
      </trkpt>
      <trkpt lat="43.38705" lon="6.70721">
        <ele>115.900002</ele>
        <time>2018-10-14T13:22:47Z</time>
      </trkpt>
      <trkpt lat="43.38713" lon="6.70726">
        <ele>118.5</ele>
        <time>2018-10-14T13:22:59Z</time>
      </trkpt>
      <trkpt lat="43.38723" lon="6.70724">
        <ele>119.400002</ele>
        <time>2018-10-14T13:23:10Z</time>
      </trkpt>
      <trkpt lat="43.38732" lon="6.70722">
        <ele>119.599998</ele>
        <time>2018-10-14T13:23:14Z</time>
      </trkpt>
      <trkpt lat="43.38743" lon="6.70718">
        <ele>119.5</ele>
        <time>2018-10-14T13:23:17Z</time>
      </trkpt>
      <trkpt lat="43.38755" lon="6.70711">
        <ele>119.199997</ele>
        <time>2018-10-14T13:23:20Z</time>
      </trkpt>
      <trkpt lat="43.38766" lon="6.70705">
        <ele>118.900002</ele>
        <time>2018-10-14T13:23:23Z</time>
      </trkpt>
      <trkpt lat="43.38776" lon="6.70702">
        <ele>118.099998</ele>
        <time>2018-10-14T13:23:25Z</time>
      </trkpt>
      <trkpt lat="43.38786" lon="6.70695">
        <ele>117.300003</ele>
        <time>2018-10-14T13:23:28Z</time>
      </trkpt>
      <trkpt lat="43.38798" lon="6.70689">
        <ele>116.400002</ele>
        <time>2018-10-14T13:23:31Z</time>
      </trkpt>
      <trkpt lat="43.38808" lon="6.70683">
        <ele>115</ele>
        <time>2018-10-14T13:23:33Z</time>
      </trkpt>
      <trkpt lat="43.3882" lon="6.7068">
        <ele>112.699997</ele>
        <time>2018-10-14T13:23:36Z</time>
      </trkpt>
      <trkpt lat="43.3883" lon="6.70676">
        <ele>111.400002</ele>
        <time>2018-10-14T13:23:40Z</time>
      </trkpt>
      <trkpt lat="43.38839" lon="6.70669">
        <ele>108.400002</ele>
        <time>2018-10-14T13:23:44Z</time>
      </trkpt>
      <trkpt lat="43.3885" lon="6.70663">
        <ele>106.400002</ele>
        <time>2018-10-14T13:23:47Z</time>
      </trkpt>
      <trkpt lat="43.3886" lon="6.70657">
        <ele>105.400002</ele>
        <time>2018-10-14T13:23:49Z</time>
      </trkpt>
      <trkpt lat="43.38869" lon="6.70646">
        <ele>104.5</ele>
        <time>2018-10-14T13:23:52Z</time>
      </trkpt>
      <trkpt lat="43.38876" lon="6.70637">
        <ele>103.900002</ele>
        <time>2018-10-14T13:23:57Z</time>
      </trkpt>
      <trkpt lat="43.38881" lon="6.70626">
        <ele>105.199997</ele>
        <time>2018-10-14T13:24:03Z</time>
      </trkpt>
      <trkpt lat="43.38887" lon="6.70616">
        <ele>107.800003</ele>
        <time>2018-10-14T13:24:14Z</time>
      </trkpt>
      <trkpt lat="43.38894" lon="6.70609">
        <ele>109.699997</ele>
        <time>2018-10-14T13:24:23Z</time>
      </trkpt>
      <trkpt lat="43.38905" lon="6.70607">
        <ele>112.699997</ele>
        <time>2018-10-14T13:24:33Z</time>
      </trkpt>
      <trkpt lat="43.38913" lon="6.706">
        <ele>111.900002</ele>
        <time>2018-10-14T13:24:39Z</time>
      </trkpt>
      <trkpt lat="43.3892" lon="6.7059">
        <ele>111.900002</ele>
        <time>2018-10-14T13:24:42Z</time>
      </trkpt>
      <trkpt lat="43.38929" lon="6.70581">
        <ele>112.199997</ele>
        <time>2018-10-14T13:24:45Z</time>
      </trkpt>
      <trkpt lat="43.3894" lon="6.70574">
        <ele>111.599998</ele>
        <time>2018-10-14T13:24:48Z</time>
      </trkpt>
      <trkpt lat="43.38948" lon="6.70569">
        <ele>109.800003</ele>
        <time>2018-10-14T13:24:51Z</time>
      </trkpt>
      <trkpt lat="43.38959" lon="6.70573">
        <ele>107.300003</ele>
        <time>2018-10-14T13:24:55Z</time>
      </trkpt>
      <trkpt lat="43.38968" lon="6.70575">
        <ele>104.400002</ele>
        <time>2018-10-14T13:24:58Z</time>
      </trkpt>
      <trkpt lat="43.38977" lon="6.70569">
        <ele>100.300003</ele>
        <time>2018-10-14T13:25:03Z</time>
      </trkpt>
      <trkpt lat="43.38985" lon="6.70556">
        <ele>99</ele>
        <time>2018-10-14T13:25:06Z</time>
      </trkpt>
      <trkpt lat="43.38993" lon="6.70548">
        <ele>97.199997</ele>
        <time>2018-10-14T13:25:09Z</time>
      </trkpt>
      <trkpt lat="43.39003" lon="6.70541">
        <ele>95.300003</ele>
        <time>2018-10-14T13:25:12Z</time>
      </trkpt>
      <trkpt lat="43.39014" lon="6.70542">
        <ele>92.699997</ele>
        <time>2018-10-14T13:25:16Z</time>
      </trkpt>
      <trkpt lat="43.39023" lon="6.70537">
        <ele>89</ele>
        <time>2018-10-14T13:25:20Z</time>
      </trkpt>
      <trkpt lat="43.39023" lon="6.70523">
        <ele>86.300003</ele>
        <time>2018-10-14T13:25:25Z</time>
      </trkpt>
      <trkpt lat="43.39032" lon="6.7052">
        <ele>82.800003</ele>
        <time>2018-10-14T13:25:33Z</time>
      </trkpt>
      <trkpt lat="43.3904" lon="6.70524">
        <ele>80.900002</ele>
        <time>2018-10-14T13:25:38Z</time>
      </trkpt>
      <trkpt lat="43.3905" lon="6.70532">
        <ele>79.300003</ele>
        <time>2018-10-14T13:25:41Z</time>
      </trkpt>
      <trkpt lat="43.39053" lon="6.70545">
        <ele>78.099998</ele>
        <time>2018-10-14T13:25:44Z</time>
      </trkpt>
      <trkpt lat="43.39053" lon="6.70558">
        <ele>77.699997</ele>
        <time>2018-10-14T13:25:46Z</time>
      </trkpt>
      <trkpt lat="43.39056" lon="6.70572">
        <ele>77</ele>
        <time>2018-10-14T13:25:48Z</time>
      </trkpt>
      <trkpt lat="43.39063" lon="6.70585">
        <ele>76.099998</ele>
        <time>2018-10-14T13:25:51Z</time>
      </trkpt>
      <trkpt lat="43.3907" lon="6.70593">
        <ele>74.900002</ele>
        <time>2018-10-14T13:25:58Z</time>
      </trkpt>
      <trkpt lat="43.39078" lon="6.70598">
        <ele>74.5</ele>
        <time>2018-10-14T13:26:55Z</time>
      </trkpt>
      <trkpt lat="43.39087" lon="6.70603">
        <ele>74.900002</ele>
        <time>2018-10-14T13:28:09Z</time>
      </trkpt>
      <trkpt lat="43.39098" lon="6.70603">
        <ele>73.300003</ele>
        <time>2018-10-14T13:28:12Z</time>
      </trkpt>
      <trkpt lat="43.39109" lon="6.70613">
        <ele>72.300003</ele>
        <time>2018-10-14T13:28:15Z</time>
      </trkpt>
      <trkpt lat="43.39116" lon="6.70624">
        <ele>71.699997</ele>
        <time>2018-10-14T13:28:17Z</time>
      </trkpt>
      <trkpt lat="43.39124" lon="6.70633">
        <ele>71.300003</ele>
        <time>2018-10-14T13:28:19Z</time>
      </trkpt>
      <trkpt lat="43.39133" lon="6.70638">
        <ele>70.699997</ele>
        <time>2018-10-14T13:28:22Z</time>
      </trkpt>
      <trkpt lat="43.39139" lon="6.70654">
        <ele>70.099998</ele>
        <time>2018-10-14T13:28:25Z</time>
      </trkpt>
      <trkpt lat="43.39144" lon="6.70665">
        <ele>69.699997</ele>
        <time>2018-10-14T13:28:27Z</time>
      </trkpt>
      <trkpt lat="43.39152" lon="6.70673">
        <ele>69.400002</ele>
        <time>2018-10-14T13:28:29Z</time>
      </trkpt>
      <trkpt lat="43.39162" lon="6.70675">
        <ele>69</ele>
        <time>2018-10-14T13:28:31Z</time>
      </trkpt>
      <trkpt lat="43.39173" lon="6.70675">
        <ele>68.699997</ele>
        <time>2018-10-14T13:28:33Z</time>
      </trkpt>
      <trkpt lat="43.39182" lon="6.70678">
        <ele>68.699997</ele>
        <time>2018-10-14T13:28:35Z</time>
      </trkpt>
      <trkpt lat="43.39193" lon="6.70682">
        <ele>68.199997</ele>
        <time>2018-10-14T13:28:37Z</time>
      </trkpt>
      <trkpt lat="43.39203" lon="6.70686">
        <ele>67.5</ele>
        <time>2018-10-14T13:28:39Z</time>
      </trkpt>
      <trkpt lat="43.39212" lon="6.70689">
        <ele>67.5</ele>
        <time>2018-10-14T13:28:41Z</time>
      </trkpt>
      <trkpt lat="43.39224" lon="6.70695">
        <ele>66.599998</ele>
        <time>2018-10-14T13:28:44Z</time>
      </trkpt>
      <trkpt lat="43.39233" lon="6.707">
        <ele>66.5</ele>
        <time>2018-10-14T13:28:47Z</time>
      </trkpt>
      <trkpt lat="43.39244" lon="6.70701">
        <ele>64.300003</ele>
        <time>2018-10-14T13:28:51Z</time>
      </trkpt>
      <trkpt lat="43.39254" lon="6.70702">
        <ele>61.799999</ele>
        <time>2018-10-14T13:28:56Z</time>
      </trkpt>
      <trkpt lat="43.39263" lon="6.70703">
        <ele>57.099998</ele>
        <time>2018-10-14T13:29:06Z</time>
      </trkpt>
      <trkpt lat="43.39264" lon="6.70689">
        <ele>56.200001</ele>
        <time>2018-10-14T13:29:10Z</time>
      </trkpt>
      <trkpt lat="43.39257" lon="6.70678">
        <ele>55.200001</ele>
        <time>2018-10-14T13:29:13Z</time>
      </trkpt>
      <trkpt lat="43.39258" lon="6.70665">
        <ele>53.700001</ele>
        <time>2018-10-14T13:29:19Z</time>
      </trkpt>
      <trkpt lat="43.39268" lon="6.70663">
        <ele>52.200001</ele>
        <time>2018-10-14T13:29:28Z</time>
      </trkpt>
      <trkpt lat="43.39277" lon="6.70665">
        <ele>52.799999</ele>
        <time>2018-10-14T13:29:35Z</time>
      </trkpt>
      <trkpt lat="43.39286" lon="6.70662">
        <ele>53.799999</ele>
        <time>2018-10-14T13:29:45Z</time>
      </trkpt>
      <trkpt lat="43.39295" lon="6.70658">
        <ele>54.700001</ele>
        <time>2018-10-14T13:29:55Z</time>
      </trkpt>
      <trkpt lat="43.39305" lon="6.70659">
        <ele>57</ele>
        <time>2018-10-14T13:30:05Z</time>
      </trkpt>
      <trkpt lat="43.39314" lon="6.70658">
        <ele>59.400002</ele>
        <time>2018-10-14T13:30:15Z</time>
      </trkpt>
      <trkpt lat="43.39324" lon="6.70662">
        <ele>60.5</ele>
        <time>2018-10-14T13:30:23Z</time>
      </trkpt>
      <trkpt lat="43.39333" lon="6.7066">
        <ele>62.200001</ele>
        <time>2018-10-14T13:30:31Z</time>
      </trkpt>
      <trkpt lat="43.39343" lon="6.70659">
        <ele>63</ele>
        <time>2018-10-14T13:30:37Z</time>
      </trkpt>
      <trkpt lat="43.39354" lon="6.70662">
        <ele>63.099998</ele>
        <time>2018-10-14T13:30:41Z</time>
      </trkpt>
      <trkpt lat="43.39364" lon="6.70667">
        <ele>63.200001</ele>
        <time>2018-10-14T13:30:44Z</time>
      </trkpt>
      <trkpt lat="43.39374" lon="6.70673">
        <ele>62.299999</ele>
        <time>2018-10-14T13:30:47Z</time>
      </trkpt>
      <trkpt lat="43.39384" lon="6.70676">
        <ele>63.400002</ele>
        <time>2018-10-14T13:30:51Z</time>
      </trkpt>
      <trkpt lat="43.39393" lon="6.70682">
        <ele>63.799999</ele>
        <time>2018-10-14T13:30:57Z</time>
      </trkpt>
      <trkpt lat="43.39402" lon="6.70685">
        <ele>64.900002</ele>
        <time>2018-10-14T13:31:02Z</time>
      </trkpt>
      <trkpt lat="43.39412" lon="6.70686">
        <ele>66.199997</ele>
        <time>2018-10-14T13:31:08Z</time>
      </trkpt>
      <trkpt lat="43.39423" lon="6.70685">
        <ele>67.199997</ele>
        <time>2018-10-14T13:31:13Z</time>
      </trkpt>
      <trkpt lat="43.39432" lon="6.70688">
        <ele>67.199997</ele>
        <time>2018-10-14T13:31:17Z</time>
      </trkpt>
      <trkpt lat="43.39441" lon="6.70692">
        <ele>68.300003</ele>
        <time>2018-10-14T13:31:21Z</time>
      </trkpt>
      <trkpt lat="43.39452" lon="6.70691">
        <ele>68</ele>
        <time>2018-10-14T13:31:25Z</time>
      </trkpt>
      <trkpt lat="43.39456" lon="6.70679">
        <ele>69.300003</ele>
        <time>2018-10-14T13:31:33Z</time>
      </trkpt>
      <trkpt lat="43.39465" lon="6.70676">
        <ele>71.400002</ele>
        <time>2018-10-14T13:31:41Z</time>
      </trkpt>
      <trkpt lat="43.39475" lon="6.70674">
        <ele>71.5</ele>
        <time>2018-10-14T13:31:45Z</time>
      </trkpt>
      <trkpt lat="43.39484" lon="6.70674">
        <ele>71.300003</ele>
        <time>2018-10-14T13:31:49Z</time>
      </trkpt>
      <trkpt lat="43.39491" lon="6.70665">
        <ele>72.699997</ele>
        <time>2018-10-14T13:31:55Z</time>
      </trkpt>
      <trkpt lat="43.39493" lon="6.70651">
        <ele>72.900002</ele>
        <time>2018-10-14T13:32:00Z</time>
      </trkpt>
      <trkpt lat="43.39499" lon="6.70642">
        <ele>73.599998</ele>
        <time>2018-10-14T13:32:05Z</time>
      </trkpt>
      <trkpt lat="43.39506" lon="6.7063">
        <ele>74.099998</ele>
        <time>2018-10-14T13:32:10Z</time>
      </trkpt>
      <trkpt lat="43.39512" lon="6.70618">
        <ele>73.699997</ele>
        <time>2018-10-14T13:32:14Z</time>
      </trkpt>
      <trkpt lat="43.39522" lon="6.70614">
        <ele>74.099998</ele>
        <time>2018-10-14T13:32:19Z</time>
      </trkpt>
      <trkpt lat="43.39532" lon="6.70611">
        <ele>74</ele>
        <time>2018-10-14T13:32:24Z</time>
      </trkpt>
      <trkpt lat="43.3954" lon="6.70621">
        <ele>71.199997</ele>
        <time>2018-10-14T13:32:55Z</time>
      </trkpt>
      <trkpt lat="43.39544" lon="6.70635">
        <ele>70.599998</ele>
        <time>2018-10-14T13:33:00Z</time>
      </trkpt>
      <trkpt lat="43.39555" lon="6.70634">
        <ele>68.599998</ele>
        <time>2018-10-14T13:33:04Z</time>
      </trkpt>
      <trkpt lat="43.39565" lon="6.70624">
        <ele>67.300003</ele>
        <time>2018-10-14T13:33:07Z</time>
      </trkpt>
      <trkpt lat="43.3957" lon="6.70613">
        <ele>67</ele>
        <time>2018-10-14T13:33:10Z</time>
      </trkpt>
      <trkpt lat="43.39577" lon="6.70605">
        <ele>65.199997</ele>
        <time>2018-10-14T13:33:20Z</time>
      </trkpt>
      <trkpt lat="43.39585" lon="6.70609">
        <ele>66.400002</ele>
        <time>2018-10-14T13:33:36Z</time>
      </trkpt>
      <trkpt lat="43.39592" lon="6.70619">
        <ele>67.300003</ele>
        <time>2018-10-14T13:33:47Z</time>
      </trkpt>
      <trkpt lat="43.39596" lon="6.70632">
        <ele>67</ele>
        <time>2018-10-14T13:33:52Z</time>
      </trkpt>
      <trkpt lat="43.396" lon="6.70644">
        <ele>68.800003</ele>
        <time>2018-10-14T13:34:05Z</time>
      </trkpt>
      <trkpt lat="43.396" lon="6.70658">
        <ele>69.699997</ele>
        <time>2018-10-14T13:34:14Z</time>
      </trkpt>
      <trkpt lat="43.39603" lon="6.70671">
        <ele>70.699997</ele>
        <time>2018-10-14T13:34:22Z</time>
      </trkpt>
      <trkpt lat="43.39609" lon="6.7068">
        <ele>70.199997</ele>
        <time>2018-10-14T13:34:29Z</time>
      </trkpt>
      <trkpt lat="43.39619" lon="6.70681">
        <ele>71.699997</ele>
        <time>2018-10-14T13:34:35Z</time>
      </trkpt>
      <trkpt lat="43.39628" lon="6.7068">
        <ele>71.699997</ele>
        <time>2018-10-14T13:34:44Z</time>
      </trkpt>
      <trkpt lat="43.39638" lon="6.70678">
        <ele>74.099998</ele>
        <time>2018-10-14T13:34:53Z</time>
      </trkpt>
      <trkpt lat="43.39648" lon="6.70675">
        <ele>75.199997</ele>
        <time>2018-10-14T13:35:00Z</time>
      </trkpt>
      <trkpt lat="43.39657" lon="6.70671">
        <ele>77</ele>
        <time>2018-10-14T13:35:09Z</time>
      </trkpt>
      <trkpt lat="43.39666" lon="6.70664">
        <ele>78.400002</ele>
        <time>2018-10-14T13:35:20Z</time>
      </trkpt>
      <trkpt lat="43.39677" lon="6.7066">
        <ele>78.199997</ele>
        <time>2018-10-14T13:35:24Z</time>
      </trkpt>
      <trkpt lat="43.39689" lon="6.70657">
        <ele>78.300003</ele>
        <time>2018-10-14T13:35:28Z</time>
      </trkpt>
      <trkpt lat="43.397" lon="6.70656">
        <ele>78.199997</ele>
        <time>2018-10-14T13:35:32Z</time>
      </trkpt>
      <trkpt lat="43.39711" lon="6.70659">
        <ele>77.699997</ele>
        <time>2018-10-14T13:35:36Z</time>
      </trkpt>
      <trkpt lat="43.39719" lon="6.70666">
        <ele>76.800003</ele>
        <time>2018-10-14T13:35:39Z</time>
      </trkpt>
      <trkpt lat="43.39732" lon="6.70665">
        <ele>76.699997</ele>
        <time>2018-10-14T13:35:42Z</time>
      </trkpt>
      <trkpt lat="43.39739" lon="6.70654">
        <ele>76.800003</ele>
        <time>2018-10-14T13:35:46Z</time>
      </trkpt>
      <trkpt lat="43.39746" lon="6.70643">
        <ele>76.300003</ele>
        <time>2018-10-14T13:35:49Z</time>
      </trkpt>
      <trkpt lat="43.39752" lon="6.70632">
        <ele>77.400002</ele>
        <time>2018-10-14T13:35:53Z</time>
      </trkpt>
      <trkpt lat="43.3976" lon="6.70622">
        <ele>77.199997</ele>
        <time>2018-10-14T13:35:58Z</time>
      </trkpt>
      <trkpt lat="43.39766" lon="6.7061">
        <ele>77.599998</ele>
        <time>2018-10-14T13:36:03Z</time>
      </trkpt>
      <trkpt lat="43.39767" lon="6.70598">
        <ele>77.199997</ele>
        <time>2018-10-14T13:36:07Z</time>
      </trkpt>
      <trkpt lat="43.39772" lon="6.70587">
        <ele>76.099998</ele>
        <time>2018-10-14T13:36:13Z</time>
      </trkpt>
      <trkpt lat="43.39782" lon="6.7058">
        <ele>76.099998</ele>
        <time>2018-10-14T13:36:18Z</time>
      </trkpt>
      <trkpt lat="43.39789" lon="6.7057">
        <ele>76</ele>
        <time>2018-10-14T13:36:22Z</time>
      </trkpt>
      <trkpt lat="43.39796" lon="6.7056">
        <ele>77</ele>
        <time>2018-10-14T13:36:26Z</time>
      </trkpt>
      <trkpt lat="43.39801" lon="6.70548">
        <ele>76.599998</ele>
        <time>2018-10-14T13:36:29Z</time>
      </trkpt>
      <trkpt lat="43.39807" lon="6.70539">
        <ele>76.400002</ele>
        <time>2018-10-14T13:36:33Z</time>
      </trkpt>
      <trkpt lat="43.39817" lon="6.7053">
        <ele>76.699997</ele>
        <time>2018-10-14T13:36:37Z</time>
      </trkpt>
      <trkpt lat="43.39821" lon="6.70519">
        <ele>76.5</ele>
        <time>2018-10-14T13:36:41Z</time>
      </trkpt>
      <trkpt lat="43.39826" lon="6.70506">
        <ele>76</ele>
        <time>2018-10-14T13:36:45Z</time>
      </trkpt>
      <trkpt lat="43.39831" lon="6.70495">
        <ele>76.800003</ele>
        <time>2018-10-14T13:36:52Z</time>
      </trkpt>
      <trkpt lat="43.39839" lon="6.70502">
        <ele>78</ele>
        <time>2018-10-14T13:37:05Z</time>
      </trkpt>
      <trkpt lat="43.39847" lon="6.70507">
        <ele>79.5</ele>
        <time>2018-10-14T13:37:15Z</time>
      </trkpt>
      <trkpt lat="43.39852" lon="6.70519">
        <ele>80.400002</ele>
        <time>2018-10-14T13:37:23Z</time>
      </trkpt>
      <trkpt lat="43.39855" lon="6.70532">
        <ele>81.099998</ele>
        <time>2018-10-14T13:37:27Z</time>
      </trkpt>
      <trkpt lat="43.3986" lon="6.70544">
        <ele>80.199997</ele>
        <time>2018-10-14T13:37:30Z</time>
      </trkpt>
      <trkpt lat="43.39867" lon="6.70557">
        <ele>80.5</ele>
        <time>2018-10-14T13:37:34Z</time>
      </trkpt>
      <trkpt lat="43.39874" lon="6.70565">
        <ele>80</ele>
        <time>2018-10-14T13:37:38Z</time>
      </trkpt>
      <trkpt lat="43.39881" lon="6.70577">
        <ele>79.900002</ele>
        <time>2018-10-14T13:37:43Z</time>
      </trkpt>
      <trkpt lat="43.39888" lon="6.70586">
        <ele>80</ele>
        <time>2018-10-14T13:37:46Z</time>
      </trkpt>
      <trkpt lat="43.39899" lon="6.70589">
        <ele>78.699997</ele>
        <time>2018-10-14T13:37:50Z</time>
      </trkpt>
      <trkpt lat="43.39909" lon="6.70591">
        <ele>78.800003</ele>
        <time>2018-10-14T13:37:54Z</time>
      </trkpt>
      <trkpt lat="43.3992" lon="6.70588">
        <ele>80.599998</ele>
        <time>2018-10-14T13:38:00Z</time>
      </trkpt>
      <trkpt lat="43.39929" lon="6.70582">
        <ele>81.5</ele>
        <time>2018-10-14T13:38:05Z</time>
      </trkpt>
      <trkpt lat="43.39938" lon="6.70575">
        <ele>82.199997</ele>
        <time>2018-10-14T13:38:10Z</time>
      </trkpt>
      <trkpt lat="43.39947" lon="6.70568">
        <ele>81.400002</ele>
        <time>2018-10-14T13:38:15Z</time>
      </trkpt>
      <trkpt lat="43.39956" lon="6.70564">
        <ele>82</ele>
        <time>2018-10-14T13:38:20Z</time>
      </trkpt>
      <trkpt lat="43.39967" lon="6.70559">
        <ele>83</ele>
        <time>2018-10-14T13:38:25Z</time>
      </trkpt>
      <trkpt lat="43.39977" lon="6.70551">
        <ele>83.599998</ele>
        <time>2018-10-14T13:38:29Z</time>
      </trkpt>
      <trkpt lat="43.39982" lon="6.70538">
        <ele>84</ele>
        <time>2018-10-14T13:38:33Z</time>
      </trkpt>
      <trkpt lat="43.39983" lon="6.70524">
        <ele>83.5</ele>
        <time>2018-10-14T13:38:36Z</time>
      </trkpt>
      <trkpt lat="43.39984" lon="6.70509">
        <ele>83.5</ele>
        <time>2018-10-14T13:38:40Z</time>
      </trkpt>
      <trkpt lat="43.39989" lon="6.70498">
        <ele>84</ele>
        <time>2018-10-14T13:38:44Z</time>
      </trkpt>
      <trkpt lat="43.39994" lon="6.70484">
        <ele>84.5</ele>
        <time>2018-10-14T13:38:48Z</time>
      </trkpt>
      <trkpt lat="43.4" lon="6.70472">
        <ele>84.099998</ele>
        <time>2018-10-14T13:38:51Z</time>
      </trkpt>
      <trkpt lat="43.40003" lon="6.70456">
        <ele>83.5</ele>
        <time>2018-10-14T13:38:54Z</time>
      </trkpt>
      <trkpt lat="43.40006" lon="6.70443">
        <ele>82.599998</ele>
        <time>2018-10-14T13:38:57Z</time>
      </trkpt>
      <trkpt lat="43.40015" lon="6.70439">
        <ele>82.199997</ele>
        <time>2018-10-14T13:39:02Z</time>
      </trkpt>
      <trkpt lat="43.40026" lon="6.7044">
        <ele>81.599998</ele>
        <time>2018-10-14T13:39:07Z</time>
      </trkpt>
      <trkpt lat="43.40036" lon="6.70437">
        <ele>81.400002</ele>
        <time>2018-10-14T13:39:11Z</time>
      </trkpt>
      <trkpt lat="43.40044" lon="6.70432">
        <ele>80.699997</ele>
        <time>2018-10-14T13:39:16Z</time>
      </trkpt>
      <trkpt lat="43.40054" lon="6.70427">
        <ele>80.199997</ele>
        <time>2018-10-14T13:39:23Z</time>
      </trkpt>
      <trkpt lat="43.40065" lon="6.70429">
        <ele>80</ele>
        <time>2018-10-14T13:39:26Z</time>
      </trkpt>
      <trkpt lat="43.40071" lon="6.7044">
        <ele>78.800003</ele>
        <time>2018-10-14T13:39:29Z</time>
      </trkpt>
      <trkpt lat="43.40078" lon="6.7045">
        <ele>77.5</ele>
        <time>2018-10-14T13:39:32Z</time>
      </trkpt>
      <trkpt lat="43.40078" lon="6.70466">
        <ele>77.300003</ele>
        <time>2018-10-14T13:39:36Z</time>
      </trkpt>
      <trkpt lat="43.40089" lon="6.7047">
        <ele>77</ele>
        <time>2018-10-14T13:39:41Z</time>
      </trkpt>
      <trkpt lat="43.40096" lon="6.70478">
        <ele>78.400002</ele>
        <time>2018-10-14T13:39:45Z</time>
      </trkpt>
      <trkpt lat="43.40099" lon="6.70491">
        <ele>80</ele>
        <time>2018-10-14T13:39:49Z</time>
      </trkpt>
      <trkpt lat="43.40102" lon="6.70504">
        <ele>80.199997</ele>
        <time>2018-10-14T13:39:53Z</time>
      </trkpt>
      <trkpt lat="43.40107" lon="6.70515">
        <ele>80.699997</ele>
        <time>2018-10-14T13:39:57Z</time>
      </trkpt>
      <trkpt lat="43.40109" lon="6.70531">
        <ele>81</ele>
        <time>2018-10-14T13:40:01Z</time>
      </trkpt>
      <trkpt lat="43.40114" lon="6.70543">
        <ele>81.400002</ele>
        <time>2018-10-14T13:40:05Z</time>
      </trkpt>
      <trkpt lat="43.40123" lon="6.70548">
        <ele>81.699997</ele>
        <time>2018-10-14T13:40:11Z</time>
      </trkpt>
      <trkpt lat="43.40127" lon="6.7056">
        <ele>82.099998</ele>
        <time>2018-10-14T13:40:17Z</time>
      </trkpt>
      <trkpt lat="43.40133" lon="6.70569">
        <ele>81.300003</ele>
        <time>2018-10-14T13:40:22Z</time>
      </trkpt>
      <trkpt lat="43.4014" lon="6.70578">
        <ele>79.300003</ele>
        <time>2018-10-14T13:40:27Z</time>
      </trkpt>
      <trkpt lat="43.40147" lon="6.70588">
        <ele>77.800003</ele>
        <time>2018-10-14T13:40:31Z</time>
      </trkpt>
      <trkpt lat="43.40152" lon="6.706">
        <ele>77.300003</ele>
        <time>2018-10-14T13:40:33Z</time>
      </trkpt>
      <trkpt lat="43.40156" lon="6.70612">
        <ele>75.400002</ele>
        <time>2018-10-14T13:40:35Z</time>
      </trkpt>
      <trkpt lat="43.40162" lon="6.70627">
        <ele>74.099998</ele>
        <time>2018-10-14T13:40:38Z</time>
      </trkpt>
      <trkpt lat="43.40171" lon="6.70638">
        <ele>72.900002</ele>
        <time>2018-10-14T13:40:41Z</time>
      </trkpt>
      <trkpt lat="43.40178" lon="6.70649">
        <ele>72.5</ele>
        <time>2018-10-14T13:40:44Z</time>
      </trkpt>
      <trkpt lat="43.40181" lon="6.70661">
        <ele>72.5</ele>
        <time>2018-10-14T13:40:48Z</time>
      </trkpt>
      <trkpt lat="43.40187" lon="6.70675">
        <ele>71.199997</ele>
        <time>2018-10-14T13:40:53Z</time>
      </trkpt>
      <trkpt lat="43.40192" lon="6.70687">
        <ele>69.800003</ele>
        <time>2018-10-14T13:40:57Z</time>
      </trkpt>
      <trkpt lat="43.40197" lon="6.70699">
        <ele>68.300003</ele>
        <time>2018-10-14T13:41:01Z</time>
      </trkpt>
      <trkpt lat="43.40205" lon="6.7071">
        <ele>67.699997</ele>
        <time>2018-10-14T13:41:05Z</time>
      </trkpt>
      <trkpt lat="43.40206" lon="6.70723">
        <ele>68</ele>
        <time>2018-10-14T13:41:09Z</time>
      </trkpt>
      <trkpt lat="43.40204" lon="6.70736">
        <ele>66.699997</ele>
        <time>2018-10-14T13:41:12Z</time>
      </trkpt>
      <trkpt lat="43.40203" lon="6.70754">
        <ele>67.300003</ele>
        <time>2018-10-14T13:41:15Z</time>
      </trkpt>
      <trkpt lat="43.40202" lon="6.70766">
        <ele>66.900002</ele>
        <time>2018-10-14T13:41:17Z</time>
      </trkpt>
      <trkpt lat="43.40197" lon="6.70784">
        <ele>64.300003</ele>
        <time>2018-10-14T13:41:20Z</time>
      </trkpt>
      <trkpt lat="43.40193" lon="6.70799">
        <ele>64.5</ele>
        <time>2018-10-14T13:41:23Z</time>
      </trkpt>
      <trkpt lat="43.40186" lon="6.70809">
        <ele>64.300003</ele>
        <time>2018-10-14T13:41:26Z</time>
      </trkpt>
      <trkpt lat="43.4018" lon="6.70821">
        <ele>63.700001</ele>
        <time>2018-10-14T13:41:29Z</time>
      </trkpt>
      <trkpt lat="43.40172" lon="6.70831">
        <ele>62.200001</ele>
        <time>2018-10-14T13:41:32Z</time>
      </trkpt>
      <trkpt lat="43.40165" lon="6.70841">
        <ele>61</ele>
        <time>2018-10-14T13:41:35Z</time>
      </trkpt>
      <trkpt lat="43.40158" lon="6.70853">
        <ele>60.099998</ele>
        <time>2018-10-14T13:41:38Z</time>
      </trkpt>
      <trkpt lat="43.4015" lon="6.70865">
        <ele>57.900002</ele>
        <time>2018-10-14T13:41:41Z</time>
      </trkpt>
      <trkpt lat="43.40145" lon="6.7088">
        <ele>57</ele>
        <time>2018-10-14T13:41:44Z</time>
      </trkpt>
      <trkpt lat="43.40144" lon="6.70893">
        <ele>55.099998</ele>
        <time>2018-10-14T13:41:47Z</time>
      </trkpt>
      <trkpt lat="43.40142" lon="6.70907">
        <ele>52.599998</ele>
        <time>2018-10-14T13:41:52Z</time>
      </trkpt>
      <trkpt lat="43.40138" lon="6.7092">
        <ele>50.400002</ele>
        <time>2018-10-14T13:41:57Z</time>
      </trkpt>
      <trkpt lat="43.40136" lon="6.70933">
        <ele>49.099998</ele>
        <time>2018-10-14T13:42:02Z</time>
      </trkpt>
      <trkpt lat="43.40133" lon="6.70946">
        <ele>47.599998</ele>
        <time>2018-10-14T13:42:07Z</time>
      </trkpt>
      <trkpt lat="43.40129" lon="6.70962">
        <ele>45.799999</ele>
        <time>2018-10-14T13:42:12Z</time>
      </trkpt>
      <trkpt lat="43.4013" lon="6.70976">
        <ele>44.900002</ele>
        <time>2018-10-14T13:42:14Z</time>
      </trkpt>
      <trkpt lat="43.4013" lon="6.70993">
        <ele>43.200001</ele>
        <time>2018-10-14T13:42:17Z</time>
      </trkpt>
      <trkpt lat="43.40132" lon="6.71009">
        <ele>42.099998</ele>
        <time>2018-10-14T13:42:20Z</time>
      </trkpt>
      <trkpt lat="43.40134" lon="6.71024">
        <ele>40.5</ele>
        <time>2018-10-14T13:42:22Z</time>
      </trkpt>
      <trkpt lat="43.40135" lon="6.71039">
        <ele>37.700001</ele>
        <time>2018-10-14T13:42:25Z</time>
      </trkpt>
      <trkpt lat="43.40137" lon="6.71054">
        <ele>34.599998</ele>
        <time>2018-10-14T13:42:30Z</time>
      </trkpt>
      <trkpt lat="43.40139" lon="6.7107">
        <ele>33.099998</ele>
        <time>2018-10-14T13:42:33Z</time>
      </trkpt>
      <trkpt lat="43.40139" lon="6.71082">
        <ele>30.6</ele>
        <time>2018-10-14T13:42:35Z</time>
      </trkpt>
      <trkpt lat="43.40137" lon="6.711">
        <ele>28.4</ele>
        <time>2018-10-14T13:42:38Z</time>
      </trkpt>
      <trkpt lat="43.40133" lon="6.71118">
        <ele>24.4</ele>
        <time>2018-10-14T13:42:41Z</time>
      </trkpt>
      <trkpt lat="43.40134" lon="6.71136">
        <ele>24.1</ele>
        <time>2018-10-14T13:42:43Z</time>
      </trkpt>
      <trkpt lat="43.40136" lon="6.71156">
        <ele>23.1</ele>
        <time>2018-10-14T13:42:45Z</time>
      </trkpt>
      <trkpt lat="43.40139" lon="6.71177">
        <ele>21.299999</ele>
        <time>2018-10-14T13:42:47Z</time>
      </trkpt>
      <trkpt lat="43.40141" lon="6.71198">
        <ele>20.299999</ele>
        <time>2018-10-14T13:42:49Z</time>
      </trkpt>
      <trkpt lat="43.40142" lon="6.71216">
        <ele>19.799999</ele>
        <time>2018-10-14T13:42:51Z</time>
      </trkpt>
      <trkpt lat="43.40143" lon="6.71233">
        <ele>19.299999</ele>
        <time>2018-10-14T13:42:53Z</time>
      </trkpt>
      <trkpt lat="43.40141" lon="6.71246">
        <ele>19.1</ele>
        <time>2018-10-14T13:42:55Z</time>
      </trkpt>
      <trkpt lat="43.40135" lon="6.71259">
        <ele>18.200001</ele>
        <time>2018-10-14T13:42:59Z</time>
      </trkpt>
      <trkpt lat="43.40127" lon="6.71265">
        <ele>17.799999</ele>
        <time>2018-10-14T13:43:02Z</time>
      </trkpt>
      <trkpt lat="43.40116" lon="6.7127">
        <ele>17.4</ele>
        <time>2018-10-14T13:43:06Z</time>
      </trkpt>
      <trkpt lat="43.40106" lon="6.71275">
        <ele>18.1</ele>
        <time>2018-10-14T13:43:10Z</time>
      </trkpt>
      <trkpt lat="43.40096" lon="6.7128">
        <ele>17.700001</ele>
        <time>2018-10-14T13:43:14Z</time>
      </trkpt>
      <trkpt lat="43.40087" lon="6.71284">
        <ele>17.799999</ele>
        <time>2018-10-14T13:43:18Z</time>
      </trkpt>
      <trkpt lat="43.40077" lon="6.71289">
        <ele>17.200001</ele>
        <time>2018-10-14T13:43:22Z</time>
      </trkpt>
      <trkpt lat="43.40069" lon="6.71296">
        <ele>17</ele>
        <time>2018-10-14T13:43:25Z</time>
      </trkpt>
      <trkpt lat="43.40061" lon="6.71304">
        <ele>17.5</ele>
        <time>2018-10-14T13:43:28Z</time>
      </trkpt>
      <trkpt lat="43.40054" lon="6.71313">
        <ele>17.700001</ele>
        <time>2018-10-14T13:43:31Z</time>
      </trkpt>
      <trkpt lat="43.40046" lon="6.71324">
        <ele>16.799999</ele>
        <time>2018-10-14T13:43:35Z</time>
      </trkpt>
      <trkpt lat="43.4004" lon="6.71335">
        <ele>17.299999</ele>
        <time>2018-10-14T13:43:38Z</time>
      </trkpt>
      <trkpt lat="43.40035" lon="6.71345">
        <ele>17.9</ele>
        <time>2018-10-14T13:43:41Z</time>
      </trkpt>
      <trkpt lat="43.4003" lon="6.71357">
        <ele>17.9</ele>
        <time>2018-10-14T13:43:44Z</time>
      </trkpt>
      <trkpt lat="43.40023" lon="6.71367">
        <ele>17.9</ele>
        <time>2018-10-14T13:43:47Z</time>
      </trkpt>
      <trkpt lat="43.40017" lon="6.71381">
        <ele>18.700001</ele>
        <time>2018-10-14T13:43:51Z</time>
      </trkpt>
      <trkpt lat="43.4001" lon="6.71394">
        <ele>19.1</ele>
        <time>2018-10-14T13:43:55Z</time>
      </trkpt>
      <trkpt lat="43.40003" lon="6.71405">
        <ele>19.1</ele>
        <time>2018-10-14T13:43:58Z</time>
      </trkpt>
      <trkpt lat="43.39997" lon="6.71418">
        <ele>17.799999</ele>
        <time>2018-10-14T13:44:01Z</time>
      </trkpt>
      <trkpt lat="43.3999" lon="6.71429">
        <ele>17.4</ele>
        <time>2018-10-14T13:44:04Z</time>
      </trkpt>
      <trkpt lat="43.39983" lon="6.71443">
        <ele>18</ele>
        <time>2018-10-14T13:44:07Z</time>
      </trkpt>
      <trkpt lat="43.39979" lon="6.71456">
        <ele>18</ele>
        <time>2018-10-14T13:44:10Z</time>
      </trkpt>
      <trkpt lat="43.39979" lon="6.71469">
        <ele>18.1</ele>
        <time>2018-10-14T13:44:12Z</time>
      </trkpt>
      <trkpt lat="43.39981" lon="6.71484">
        <ele>17.4</ele>
        <time>2018-10-14T13:44:14Z</time>
      </trkpt>
      <trkpt lat="43.39982" lon="6.715">
        <ele>17.1</ele>
        <time>2018-10-14T13:44:16Z</time>
      </trkpt>
      <trkpt lat="43.39983" lon="6.71513">
        <ele>18</ele>
        <time>2018-10-14T13:44:18Z</time>
      </trkpt>
      <trkpt lat="43.39984" lon="6.71526">
        <ele>18.700001</ele>
        <time>2018-10-14T13:44:20Z</time>
      </trkpt>
      <trkpt lat="43.39985" lon="6.71542">
        <ele>19</ele>
        <time>2018-10-14T13:44:23Z</time>
      </trkpt>
      <trkpt lat="43.39987" lon="6.7156">
        <ele>18.6</ele>
        <time>2018-10-14T13:44:26Z</time>
      </trkpt>
      <trkpt lat="43.39986" lon="6.71572">
        <ele>18.700001</ele>
        <time>2018-10-14T13:44:28Z</time>
      </trkpt>
      <trkpt lat="43.39983" lon="6.71588">
        <ele>17.9</ele>
        <time>2018-10-14T13:44:31Z</time>
      </trkpt>
      <trkpt lat="43.39976" lon="6.71601">
        <ele>18.1</ele>
        <time>2018-10-14T13:44:34Z</time>
      </trkpt>
      <trkpt lat="43.39973" lon="6.71612">
        <ele>18.9</ele>
        <time>2018-10-14T13:44:37Z</time>
      </trkpt>
      <trkpt lat="43.39973" lon="6.71627">
        <ele>17.799999</ele>
        <time>2018-10-14T13:44:42Z</time>
      </trkpt>
      <trkpt lat="43.39976" lon="6.71641">
        <ele>17.4</ele>
        <time>2018-10-14T13:44:55Z</time>
      </trkpt>
      <trkpt lat="43.39979" lon="6.71654">
        <ele>17.700001</ele>
        <time>2018-10-14T13:45:00Z</time>
      </trkpt>
      <trkpt lat="43.39986" lon="6.71664">
        <ele>17</ele>
        <time>2018-10-14T13:45:13Z</time>
      </trkpt>
      <trkpt lat="43.39982" lon="6.71676">
        <ele>17.4</ele>
        <time>2018-10-14T13:45:19Z</time>
      </trkpt>
      <trkpt lat="43.39979" lon="6.71689">
        <ele>17.5</ele>
        <time>2018-10-14T13:45:23Z</time>
      </trkpt>
      <trkpt lat="43.39971" lon="6.71697">
        <ele>17.6</ele>
        <time>2018-10-14T13:45:26Z</time>
      </trkpt>
      <trkpt lat="43.39966" lon="6.71707">
        <ele>18.1</ele>
        <time>2018-10-14T13:45:29Z</time>
      </trkpt>
      <trkpt lat="43.3996" lon="6.71718">
        <ele>18.799999</ele>
        <time>2018-10-14T13:45:32Z</time>
      </trkpt>
      <trkpt lat="43.39951" lon="6.71727">
        <ele>18.6</ele>
        <time>2018-10-14T13:45:36Z</time>
      </trkpt>
      <trkpt lat="43.39945" lon="6.7174">
        <ele>20.299999</ele>
        <time>2018-10-14T13:45:40Z</time>
      </trkpt>
      <trkpt lat="43.39938" lon="6.71754">
        <ele>21</ele>
        <time>2018-10-14T13:45:44Z</time>
      </trkpt>
      <trkpt lat="43.39929" lon="6.71763">
        <ele>21.799999</ele>
        <time>2018-10-14T13:45:48Z</time>
      </trkpt>
      <trkpt lat="43.3992" lon="6.71774">
        <ele>22.200001</ele>
        <time>2018-10-14T13:45:52Z</time>
      </trkpt>
      <trkpt lat="43.39911" lon="6.71784">
        <ele>22.799999</ele>
        <time>2018-10-14T13:45:55Z</time>
      </trkpt>
      <trkpt lat="43.39901" lon="6.71794">
        <ele>23</ele>
        <time>2018-10-14T13:45:58Z</time>
      </trkpt>
      <trkpt lat="43.39891" lon="6.71803">
        <ele>23.200001</ele>
        <time>2018-10-14T13:46:01Z</time>
      </trkpt>
      <trkpt lat="43.3988" lon="6.71811">
        <ele>23</ele>
        <time>2018-10-14T13:46:04Z</time>
      </trkpt>
      <trkpt lat="43.39868" lon="6.71821">
        <ele>22.6</ele>
        <time>2018-10-14T13:46:07Z</time>
      </trkpt>
      <trkpt lat="43.3986" lon="6.71826">
        <ele>22.700001</ele>
        <time>2018-10-14T13:46:09Z</time>
      </trkpt>
      <trkpt lat="43.39851" lon="6.71831">
        <ele>22.700001</ele>
        <time>2018-10-14T13:46:11Z</time>
      </trkpt>
      <trkpt lat="43.39842" lon="6.71834">
        <ele>23</ele>
        <time>2018-10-14T13:46:13Z</time>
      </trkpt>
      <trkpt lat="43.39833" lon="6.71838">
        <ele>23</ele>
        <time>2018-10-14T13:46:15Z</time>
      </trkpt>
      <trkpt lat="43.39824" lon="6.71842">
        <ele>23</ele>
        <time>2018-10-14T13:46:17Z</time>
      </trkpt>
      <trkpt lat="43.39815" lon="6.71844">
        <ele>22.5</ele>
        <time>2018-10-14T13:46:19Z</time>
      </trkpt>
      <trkpt lat="43.39806" lon="6.71847">
        <ele>23.1</ele>
        <time>2018-10-14T13:46:21Z</time>
      </trkpt>
      <trkpt lat="43.39796" lon="6.71849">
        <ele>22.9</ele>
        <time>2018-10-14T13:46:23Z</time>
      </trkpt>
      <trkpt lat="43.39787" lon="6.71851">
        <ele>22.799999</ele>
        <time>2018-10-14T13:46:25Z</time>
      </trkpt>
      <trkpt lat="43.39778" lon="6.71854">
        <ele>22.799999</ele>
        <time>2018-10-14T13:46:27Z</time>
      </trkpt>
      <trkpt lat="43.39769" lon="6.71856">
        <ele>23</ele>
        <time>2018-10-14T13:46:29Z</time>
      </trkpt>
      <trkpt lat="43.3976" lon="6.7186">
        <ele>23.4</ele>
        <time>2018-10-14T13:46:31Z</time>
      </trkpt>
      <trkpt lat="43.39751" lon="6.71863">
        <ele>23.700001</ele>
        <time>2018-10-14T13:46:33Z</time>
      </trkpt>
      <trkpt lat="43.39742" lon="6.71867">
        <ele>23.9</ele>
        <time>2018-10-14T13:46:35Z</time>
      </trkpt>
      <trkpt lat="43.39733" lon="6.7187">
        <ele>24.299999</ele>
        <time>2018-10-14T13:46:37Z</time>
      </trkpt>
      <trkpt lat="43.39721" lon="6.71873">
        <ele>24.1</ele>
        <time>2018-10-14T13:46:40Z</time>
      </trkpt>
      <trkpt lat="43.3971" lon="6.71877">
        <ele>23.9</ele>
        <time>2018-10-14T13:46:43Z</time>
      </trkpt>
      <trkpt lat="43.39703" lon="6.71889">
        <ele>23.700001</ele>
        <time>2018-10-14T13:46:46Z</time>
      </trkpt>
      <trkpt lat="43.39701" lon="6.71904">
        <ele>22.299999</ele>
        <time>2018-10-14T13:46:48Z</time>
      </trkpt>
      <trkpt lat="43.39698" lon="6.71919">
        <ele>21.700001</ele>
        <time>2018-10-14T13:46:50Z</time>
      </trkpt>
      <trkpt lat="43.39694" lon="6.71932">
        <ele>20.700001</ele>
        <time>2018-10-14T13:46:52Z</time>
      </trkpt>
      <trkpt lat="43.3969" lon="6.71949">
        <ele>20.6</ele>
        <time>2018-10-14T13:46:55Z</time>
      </trkpt>
      <trkpt lat="43.39685" lon="6.7196">
        <ele>20.700001</ele>
        <time>2018-10-14T13:46:57Z</time>
      </trkpt>
      <trkpt lat="43.39682" lon="6.71972">
        <ele>20.6</ele>
        <time>2018-10-14T13:46:59Z</time>
      </trkpt>
      <trkpt lat="43.3968" lon="6.71987">
        <ele>21</ele>
        <time>2018-10-14T13:47:01Z</time>
      </trkpt>
      <trkpt lat="43.39677" lon="6.72002">
        <ele>20.799999</ele>
        <time>2018-10-14T13:47:03Z</time>
      </trkpt>
      <trkpt lat="43.39674" lon="6.72015">
        <ele>20.299999</ele>
        <time>2018-10-14T13:47:05Z</time>
      </trkpt>
      <trkpt lat="43.39671" lon="6.72029">
        <ele>19.9</ele>
        <time>2018-10-14T13:47:07Z</time>
      </trkpt>
      <trkpt lat="43.39669" lon="6.72042">
        <ele>19.9</ele>
        <time>2018-10-14T13:47:09Z</time>
      </trkpt>
      <trkpt lat="43.39666" lon="6.72056">
        <ele>20</ele>
        <time>2018-10-14T13:47:11Z</time>
      </trkpt>
      <trkpt lat="43.39664" lon="6.72069">
        <ele>20.200001</ele>
        <time>2018-10-14T13:47:13Z</time>
      </trkpt>
      <trkpt lat="43.39662" lon="6.72083">
        <ele>20</ele>
        <time>2018-10-14T13:47:15Z</time>
      </trkpt>
      <trkpt lat="43.39657" lon="6.72096">
        <ele>19.700001</ele>
        <time>2018-10-14T13:47:17Z</time>
      </trkpt>
      <trkpt lat="43.39655" lon="6.72109">
        <ele>20</ele>
        <time>2018-10-14T13:47:19Z</time>
      </trkpt>
      <trkpt lat="43.3965" lon="6.72125">
        <ele>19.4</ele>
        <time>2018-10-14T13:47:21Z</time>
      </trkpt>
      <trkpt lat="43.39647" lon="6.72142">
        <ele>19.799999</ele>
        <time>2018-10-14T13:47:23Z</time>
      </trkpt>
      <trkpt lat="43.39644" lon="6.72156">
        <ele>20.200001</ele>
        <time>2018-10-14T13:47:25Z</time>
      </trkpt>
      <trkpt lat="43.39639" lon="6.72174">
        <ele>19.9</ele>
        <time>2018-10-14T13:47:27Z</time>
      </trkpt>
      <trkpt lat="43.39635" lon="6.7219">
        <ele>20.200001</ele>
        <time>2018-10-14T13:47:29Z</time>
      </trkpt>
      <trkpt lat="43.39631" lon="6.72205">
        <ele>20.4</ele>
        <time>2018-10-14T13:47:31Z</time>
      </trkpt>
      <trkpt lat="43.39627" lon="6.72221">
        <ele>20.799999</ele>
        <time>2018-10-14T13:47:33Z</time>
      </trkpt>
      <trkpt lat="43.39625" lon="6.72236">
        <ele>21</ele>
        <time>2018-10-14T13:47:35Z</time>
      </trkpt>
      <trkpt lat="43.39623" lon="6.72257">
        <ele>20.4</ele>
        <time>2018-10-14T13:47:37Z</time>
      </trkpt>
      <trkpt lat="43.39621" lon="6.72275">
        <ele>20.1</ele>
        <time>2018-10-14T13:47:39Z</time>
      </trkpt>
      <trkpt lat="43.39619" lon="6.72292">
        <ele>20.1</ele>
        <time>2018-10-14T13:47:41Z</time>
      </trkpt>
      <trkpt lat="43.39618" lon="6.7231">
        <ele>20.299999</ele>
        <time>2018-10-14T13:47:43Z</time>
      </trkpt>
      <trkpt lat="43.39616" lon="6.72328">
        <ele>20.299999</ele>
        <time>2018-10-14T13:47:45Z</time>
      </trkpt>
      <trkpt lat="43.39615" lon="6.72346">
        <ele>20.700001</ele>
        <time>2018-10-14T13:47:47Z</time>
      </trkpt>
      <trkpt lat="43.39614" lon="6.72363">
        <ele>20.299999</ele>
        <time>2018-10-14T13:47:49Z</time>
      </trkpt>
      <trkpt lat="43.39612" lon="6.72379">
        <ele>21.1</ele>
        <time>2018-10-14T13:47:51Z</time>
      </trkpt>
      <trkpt lat="43.39611" lon="6.72395">
        <ele>21.1</ele>
        <time>2018-10-14T13:47:53Z</time>
      </trkpt>
      <trkpt lat="43.39608" lon="6.72411">
        <ele>20.6</ele>
        <time>2018-10-14T13:47:55Z</time>
      </trkpt>
      <trkpt lat="43.39606" lon="6.72426">
        <ele>20.9</ele>
        <time>2018-10-14T13:47:57Z</time>
      </trkpt>
      <trkpt lat="43.39603" lon="6.7244">
        <ele>20.799999</ele>
        <time>2018-10-14T13:47:59Z</time>
      </trkpt>
      <trkpt lat="43.39601" lon="6.72456">
        <ele>21</ele>
        <time>2018-10-14T13:48:01Z</time>
      </trkpt>
      <trkpt lat="43.39599" lon="6.72472">
        <ele>20.9</ele>
        <time>2018-10-14T13:48:03Z</time>
      </trkpt>
      <trkpt lat="43.39595" lon="6.72485">
        <ele>21.1</ele>
        <time>2018-10-14T13:48:05Z</time>
      </trkpt>
      <trkpt lat="43.3959" lon="6.72504">
        <ele>20.700001</ele>
        <time>2018-10-14T13:48:08Z</time>
      </trkpt>
      <trkpt lat="43.39588" lon="6.72518">
        <ele>20.5</ele>
        <time>2018-10-14T13:48:10Z</time>
      </trkpt>
      <trkpt lat="43.39584" lon="6.7253">
        <ele>21</ele>
        <time>2018-10-14T13:48:12Z</time>
      </trkpt>
      <trkpt lat="43.39577" lon="6.72548">
        <ele>20.9</ele>
        <time>2018-10-14T13:48:15Z</time>
      </trkpt>
      <trkpt lat="43.39575" lon="6.72563">
        <ele>20.9</ele>
        <time>2018-10-14T13:48:17Z</time>
      </trkpt>
      <trkpt lat="43.39573" lon="6.72577">
        <ele>20.6</ele>
        <time>2018-10-14T13:48:19Z</time>
      </trkpt>
      <trkpt lat="43.39568" lon="6.72588">
        <ele>20.5</ele>
        <time>2018-10-14T13:48:21Z</time>
      </trkpt>
      <trkpt lat="43.39556" lon="6.72592">
        <ele>18.9</ele>
        <time>2018-10-14T13:48:24Z</time>
      </trkpt>
      <trkpt lat="43.39547" lon="6.72591">
        <ele>18.6</ele>
        <time>2018-10-14T13:48:26Z</time>
      </trkpt>
      <trkpt lat="43.39533" lon="6.72589">
        <ele>18.700001</ele>
        <time>2018-10-14T13:48:29Z</time>
      </trkpt>
      <trkpt lat="43.39523" lon="6.72586">
        <ele>18.299999</ele>
        <time>2018-10-14T13:48:31Z</time>
      </trkpt>
      <trkpt lat="43.39512" lon="6.72583">
        <ele>18.6</ele>
        <time>2018-10-14T13:48:33Z</time>
      </trkpt>
      <trkpt lat="43.39502" lon="6.72582">
        <ele>18.9</ele>
        <time>2018-10-14T13:48:35Z</time>
      </trkpt>
      <trkpt lat="43.39492" lon="6.72585">
        <ele>18.4</ele>
        <time>2018-10-14T13:48:37Z</time>
      </trkpt>
      <trkpt lat="43.39482" lon="6.72589">
        <ele>18.700001</ele>
        <time>2018-10-14T13:48:39Z</time>
      </trkpt>
      <trkpt lat="43.39472" lon="6.72593">
        <ele>18.9</ele>
        <time>2018-10-14T13:48:41Z</time>
      </trkpt>
      <trkpt lat="43.39462" lon="6.72596">
        <ele>19</ele>
        <time>2018-10-14T13:48:43Z</time>
      </trkpt>
      <trkpt lat="43.39452" lon="6.726">
        <ele>19.299999</ele>
        <time>2018-10-14T13:48:45Z</time>
      </trkpt>
      <trkpt lat="43.39443" lon="6.72604">
        <ele>19.299999</ele>
        <time>2018-10-14T13:48:47Z</time>
      </trkpt>
      <trkpt lat="43.39433" lon="6.72608">
        <ele>19.299999</ele>
        <time>2018-10-14T13:48:49Z</time>
      </trkpt>
      <trkpt lat="43.39422" lon="6.72611">
        <ele>19.299999</ele>
        <time>2018-10-14T13:48:51Z</time>
      </trkpt>
      <trkpt lat="43.39411" lon="6.72615">
        <ele>19.299999</ele>
        <time>2018-10-14T13:48:53Z</time>
      </trkpt>
      <trkpt lat="43.39401" lon="6.72619">
        <ele>19.6</ele>
        <time>2018-10-14T13:48:55Z</time>
      </trkpt>
      <trkpt lat="43.39391" lon="6.72623">
        <ele>19.9</ele>
        <time>2018-10-14T13:48:57Z</time>
      </trkpt>
      <trkpt lat="43.39379" lon="6.72628">
        <ele>19.700001</ele>
        <time>2018-10-14T13:49:00Z</time>
      </trkpt>
      <trkpt lat="43.39369" lon="6.72633">
        <ele>19.299999</ele>
        <time>2018-10-14T13:49:02Z</time>
      </trkpt>
      <trkpt lat="43.3936" lon="6.72642">
        <ele>19.4</ele>
        <time>2018-10-14T13:49:04Z</time>
      </trkpt>
      <trkpt lat="43.39353" lon="6.72654">
        <ele>19.9</ele>
        <time>2018-10-14T13:49:06Z</time>
      </trkpt>
      <trkpt lat="43.39346" lon="6.72665">
        <ele>19.200001</ele>
        <time>2018-10-14T13:49:08Z</time>
      </trkpt>
      <trkpt lat="43.3934" lon="6.72675">
        <ele>18.9</ele>
        <time>2018-10-14T13:49:10Z</time>
      </trkpt>
      <trkpt lat="43.39333" lon="6.72686">
        <ele>19.299999</ele>
        <time>2018-10-14T13:49:12Z</time>
      </trkpt>
      <trkpt lat="43.39323" lon="6.72696">
        <ele>19.6</ele>
        <time>2018-10-14T13:49:15Z</time>
      </trkpt>
      <trkpt lat="43.39311" lon="6.72699">
        <ele>19.799999</ele>
        <time>2018-10-14T13:49:18Z</time>
      </trkpt>
      <trkpt lat="43.39304" lon="6.72689">
        <ele>19.700001</ele>
        <time>2018-10-14T13:49:21Z</time>
      </trkpt>
      <trkpt lat="43.39295" lon="6.72676">
        <ele>19.5</ele>
        <time>2018-10-14T13:49:24Z</time>
      </trkpt>
      <trkpt lat="43.39286" lon="6.72665">
        <ele>19.200001</ele>
        <time>2018-10-14T13:49:27Z</time>
      </trkpt>
      <trkpt lat="43.39273" lon="6.72659">
        <ele>18.9</ele>
        <time>2018-10-14T13:49:30Z</time>
      </trkpt>
      <trkpt lat="43.39264" lon="6.7266">
        <ele>19.200001</ele>
        <time>2018-10-14T13:49:32Z</time>
      </trkpt>
      <trkpt lat="43.39254" lon="6.72662">
        <ele>19.700001</ele>
        <time>2018-10-14T13:49:34Z</time>
      </trkpt>
      <trkpt lat="43.39245" lon="6.72661">
        <ele>19.700001</ele>
        <time>2018-10-14T13:49:36Z</time>
      </trkpt>
      <trkpt lat="43.39236" lon="6.72656">
        <ele>20.299999</ele>
        <time>2018-10-14T13:49:38Z</time>
      </trkpt>
      <trkpt lat="43.39226" lon="6.72652">
        <ele>20.5</ele>
        <time>2018-10-14T13:49:40Z</time>
      </trkpt>
      <trkpt lat="43.39217" lon="6.72649">
        <ele>20.799999</ele>
        <time>2018-10-14T13:49:42Z</time>
      </trkpt>
      <trkpt lat="43.39208" lon="6.72647">
        <ele>21.5</ele>
        <time>2018-10-14T13:49:44Z</time>
      </trkpt>
      <trkpt lat="43.39199" lon="6.72644">
        <ele>21.799999</ele>
        <time>2018-10-14T13:49:46Z</time>
      </trkpt>
      <trkpt lat="43.3919" lon="6.72642">
        <ele>22.299999</ele>
        <time>2018-10-14T13:49:48Z</time>
      </trkpt>
      <trkpt lat="43.39181" lon="6.72638">
        <ele>23</ele>
        <time>2018-10-14T13:49:50Z</time>
      </trkpt>
      <trkpt lat="43.39171" lon="6.72636">
        <ele>24</ele>
        <time>2018-10-14T13:49:53Z</time>
      </trkpt>
      <trkpt lat="43.39164" lon="6.7265">
        <ele>24.4</ele>
        <time>2018-10-14T13:49:56Z</time>
      </trkpt>
      <trkpt lat="43.39161" lon="6.72663">
        <ele>24.6</ele>
        <time>2018-10-14T13:49:58Z</time>
      </trkpt>
      <trkpt lat="43.39158" lon="6.72675">
        <ele>24.4</ele>
        <time>2018-10-14T13:50:00Z</time>
      </trkpt>
      <trkpt lat="43.39155" lon="6.72687">
        <ele>25</ele>
        <time>2018-10-14T13:50:02Z</time>
      </trkpt>
      <trkpt lat="43.3916" lon="6.72701">
        <ele>25.4</ele>
        <time>2018-10-14T13:50:05Z</time>
      </trkpt>
      <trkpt lat="43.39171" lon="6.72706">
        <ele>26</ele>
        <time>2018-10-14T13:50:08Z</time>
      </trkpt>
      <trkpt lat="43.39179" lon="6.7271">
        <ele>25.9</ele>
        <time>2018-10-14T13:50:10Z</time>
      </trkpt>
      <trkpt lat="43.39188" lon="6.72716">
        <ele>25.5</ele>
        <time>2018-10-14T13:50:12Z</time>
      </trkpt>
      <trkpt lat="43.39198" lon="6.72722">
        <ele>26.1</ele>
        <time>2018-10-14T13:50:14Z</time>
      </trkpt>
      <trkpt lat="43.39207" lon="6.72737">
        <ele>26.9</ele>
        <time>2018-10-14T13:50:17Z</time>
      </trkpt>
      <trkpt lat="43.39214" lon="6.7275">
        <ele>26.1</ele>
        <time>2018-10-14T13:50:19Z</time>
      </trkpt>
      <trkpt lat="43.39218" lon="6.72765">
        <ele>26</ele>
        <time>2018-10-14T13:50:21Z</time>
      </trkpt>
      <trkpt lat="43.39217" lon="6.72781">
        <ele>25.4</ele>
        <time>2018-10-14T13:50:23Z</time>
      </trkpt>
      <trkpt lat="43.39222" lon="6.72795">
        <ele>24.700001</ele>
        <time>2018-10-14T13:50:25Z</time>
      </trkpt>
      <trkpt lat="43.39232" lon="6.72804">
        <ele>24.6</ele>
        <time>2018-10-14T13:50:27Z</time>
      </trkpt>
      <trkpt lat="43.39244" lon="6.72807">
        <ele>24.1</ele>
        <time>2018-10-14T13:50:29Z</time>
      </trkpt>
      <trkpt lat="43.39256" lon="6.7281">
        <ele>23.200001</ele>
        <time>2018-10-14T13:50:31Z</time>
      </trkpt>
      <trkpt lat="43.39268" lon="6.72811">
        <ele>23.4</ele>
        <time>2018-10-14T13:50:33Z</time>
      </trkpt>
      <trkpt lat="43.3928" lon="6.72813">
        <ele>23.799999</ele>
        <time>2018-10-14T13:50:35Z</time>
      </trkpt>
      <trkpt lat="43.39292" lon="6.72815">
        <ele>24.299999</ele>
        <time>2018-10-14T13:50:37Z</time>
      </trkpt>
      <trkpt lat="43.39304" lon="6.72817">
        <ele>24</ele>
        <time>2018-10-14T13:50:39Z</time>
      </trkpt>
      <trkpt lat="43.39317" lon="6.72819">
        <ele>23.9</ele>
        <time>2018-10-14T13:50:41Z</time>
      </trkpt>
      <trkpt lat="43.39329" lon="6.72821">
        <ele>24.5</ele>
        <time>2018-10-14T13:50:43Z</time>
      </trkpt>
      <trkpt lat="43.39342" lon="6.72823">
        <ele>24.799999</ele>
        <time>2018-10-14T13:50:45Z</time>
      </trkpt>
      <trkpt lat="43.39354" lon="6.72824">
        <ele>24.700001</ele>
        <time>2018-10-14T13:50:47Z</time>
      </trkpt>
      <trkpt lat="43.39365" lon="6.72814">
        <ele>24.9</ele>
        <time>2018-10-14T13:50:49Z</time>
      </trkpt>
      <trkpt lat="43.39372" lon="6.72796">
        <ele>24.299999</ele>
        <time>2018-10-14T13:50:51Z</time>
      </trkpt>
      <trkpt lat="43.39382" lon="6.72784">
        <ele>23.299999</ele>
        <time>2018-10-14T13:50:53Z</time>
      </trkpt>
      <trkpt lat="43.39396" lon="6.72786">
        <ele>23.200001</ele>
        <time>2018-10-14T13:50:55Z</time>
      </trkpt>
      <trkpt lat="43.39409" lon="6.72791">
        <ele>23.4</ele>
        <time>2018-10-14T13:50:57Z</time>
      </trkpt>
      <trkpt lat="43.39423" lon="6.72796">
        <ele>23.1</ele>
        <time>2018-10-14T13:50:59Z</time>
      </trkpt>
      <trkpt lat="43.39436" lon="6.72802">
        <ele>22.799999</ele>
        <time>2018-10-14T13:51:01Z</time>
      </trkpt>
      <trkpt lat="43.3945" lon="6.72807">
        <ele>22.700001</ele>
        <time>2018-10-14T13:51:03Z</time>
      </trkpt>
      <trkpt lat="43.39464" lon="6.72811">
        <ele>22</ele>
        <time>2018-10-14T13:51:05Z</time>
      </trkpt>
      <trkpt lat="43.39477" lon="6.72817">
        <ele>21.700001</ele>
        <time>2018-10-14T13:51:07Z</time>
      </trkpt>
      <trkpt lat="43.3949" lon="6.72822">
        <ele>21.700001</ele>
        <time>2018-10-14T13:51:09Z</time>
      </trkpt>
      <trkpt lat="43.39504" lon="6.72827">
        <ele>22.200001</ele>
        <time>2018-10-14T13:51:11Z</time>
      </trkpt>
      <trkpt lat="43.39517" lon="6.72831">
        <ele>22.5</ele>
        <time>2018-10-14T13:51:13Z</time>
      </trkpt>
      <trkpt lat="43.3953" lon="6.72837">
        <ele>22</ele>
        <time>2018-10-14T13:51:15Z</time>
      </trkpt>
      <trkpt lat="43.39544" lon="6.72842">
        <ele>22.1</ele>
        <time>2018-10-14T13:51:17Z</time>
      </trkpt>
      <trkpt lat="43.39558" lon="6.72847">
        <ele>22</ele>
        <time>2018-10-14T13:51:19Z</time>
      </trkpt>
      <trkpt lat="43.39572" lon="6.72852">
        <ele>21.799999</ele>
        <time>2018-10-14T13:51:21Z</time>
      </trkpt>
      <trkpt lat="43.39586" lon="6.72857">
        <ele>22.5</ele>
        <time>2018-10-14T13:51:23Z</time>
      </trkpt>
      <trkpt lat="43.39599" lon="6.72862">
        <ele>22.1</ele>
        <time>2018-10-14T13:51:25Z</time>
      </trkpt>
      <trkpt lat="43.39613" lon="6.72867">
        <ele>21.9</ele>
        <time>2018-10-14T13:51:27Z</time>
      </trkpt>
      <trkpt lat="43.39627" lon="6.72872">
        <ele>21.9</ele>
        <time>2018-10-14T13:51:29Z</time>
      </trkpt>
      <trkpt lat="43.3964" lon="6.72877">
        <ele>21.5</ele>
        <time>2018-10-14T13:51:31Z</time>
      </trkpt>
      <trkpt lat="43.39653" lon="6.72882">
        <ele>21.6</ele>
        <time>2018-10-14T13:51:33Z</time>
      </trkpt>
      <trkpt lat="43.39666" lon="6.72886">
        <ele>21.9</ele>
        <time>2018-10-14T13:51:35Z</time>
      </trkpt>
      <trkpt lat="43.39679" lon="6.72891">
        <ele>22.200001</ele>
        <time>2018-10-14T13:51:37Z</time>
      </trkpt>
      <trkpt lat="43.39691" lon="6.72896">
        <ele>22.200001</ele>
        <time>2018-10-14T13:51:39Z</time>
      </trkpt>
      <trkpt lat="43.39704" lon="6.72901">
        <ele>21.799999</ele>
        <time>2018-10-14T13:51:41Z</time>
      </trkpt>
      <trkpt lat="43.39717" lon="6.72905">
        <ele>21.9</ele>
        <time>2018-10-14T13:51:43Z</time>
      </trkpt>
      <trkpt lat="43.39729" lon="6.7291">
        <ele>22.200001</ele>
        <time>2018-10-14T13:51:45Z</time>
      </trkpt>
      <trkpt lat="43.39742" lon="6.72915">
        <ele>22.1</ele>
        <time>2018-10-14T13:51:47Z</time>
      </trkpt>
      <trkpt lat="43.39754" lon="6.72919">
        <ele>21.9</ele>
        <time>2018-10-14T13:51:49Z</time>
      </trkpt>
      <trkpt lat="43.39767" lon="6.72923">
        <ele>21.6</ele>
        <time>2018-10-14T13:51:51Z</time>
      </trkpt>
      <trkpt lat="43.39779" lon="6.72928">
        <ele>21.5</ele>
        <time>2018-10-14T13:51:53Z</time>
      </trkpt>
      <trkpt lat="43.39792" lon="6.72933">
        <ele>21.4</ele>
        <time>2018-10-14T13:51:55Z</time>
      </trkpt>
      <trkpt lat="43.39804" lon="6.72938">
        <ele>21.799999</ele>
        <time>2018-10-14T13:51:57Z</time>
      </trkpt>
      <trkpt lat="43.39817" lon="6.72942">
        <ele>21.799999</ele>
        <time>2018-10-14T13:51:59Z</time>
      </trkpt>
      <trkpt lat="43.39829" lon="6.72946">
        <ele>21.799999</ele>
        <time>2018-10-14T13:52:01Z</time>
      </trkpt>
      <trkpt lat="43.39841" lon="6.7295">
        <ele>21.6</ele>
        <time>2018-10-14T13:52:03Z</time>
      </trkpt>
      <trkpt lat="43.39853" lon="6.72954">
        <ele>20.9</ele>
        <time>2018-10-14T13:52:05Z</time>
      </trkpt>
      <trkpt lat="43.39865" lon="6.72958">
        <ele>20.4</ele>
        <time>2018-10-14T13:52:07Z</time>
      </trkpt>
      <trkpt lat="43.39878" lon="6.72963">
        <ele>20.4</ele>
        <time>2018-10-14T13:52:09Z</time>
      </trkpt>
      <trkpt lat="43.3989" lon="6.72967">
        <ele>20.5</ele>
        <time>2018-10-14T13:52:11Z</time>
      </trkpt>
      <trkpt lat="43.39902" lon="6.7297">
        <ele>20.700001</ele>
        <time>2018-10-14T13:52:13Z</time>
      </trkpt>
      <trkpt lat="43.39915" lon="6.72974">
        <ele>20.4</ele>
        <time>2018-10-14T13:52:15Z</time>
      </trkpt>
      <trkpt lat="43.39928" lon="6.72976">
        <ele>20.4</ele>
        <time>2018-10-14T13:52:17Z</time>
      </trkpt>
      <trkpt lat="43.39941" lon="6.72979">
        <ele>20.5</ele>
        <time>2018-10-14T13:52:19Z</time>
      </trkpt>
      <trkpt lat="43.39954" lon="6.72981">
        <ele>20.700001</ele>
        <time>2018-10-14T13:52:21Z</time>
      </trkpt>
      <trkpt lat="43.39967" lon="6.72982">
        <ele>20.799999</ele>
        <time>2018-10-14T13:52:23Z</time>
      </trkpt>
      <trkpt lat="43.3998" lon="6.72983">
        <ele>20.700001</ele>
        <time>2018-10-14T13:52:25Z</time>
      </trkpt>
      <trkpt lat="43.39993" lon="6.72983">
        <ele>20.9</ele>
        <time>2018-10-14T13:52:27Z</time>
      </trkpt>
      <trkpt lat="43.40006" lon="6.72983">
        <ele>20.9</ele>
        <time>2018-10-14T13:52:29Z</time>
      </trkpt>
      <trkpt lat="43.4002" lon="6.72985">
        <ele>20.6</ele>
        <time>2018-10-14T13:52:31Z</time>
      </trkpt>
      <trkpt lat="43.40033" lon="6.72986">
        <ele>20.4</ele>
        <time>2018-10-14T13:52:33Z</time>
      </trkpt>
      <trkpt lat="43.40046" lon="6.72987">
        <ele>20.799999</ele>
        <time>2018-10-14T13:52:35Z</time>
      </trkpt>
      <trkpt lat="43.4006" lon="6.72988">
        <ele>21.200001</ele>
        <time>2018-10-14T13:52:37Z</time>
      </trkpt>
      <trkpt lat="43.40073" lon="6.72988">
        <ele>21.299999</ele>
        <time>2018-10-14T13:52:39Z</time>
      </trkpt>
      <trkpt lat="43.40086" lon="6.72989">
        <ele>21.5</ele>
        <time>2018-10-14T13:52:41Z</time>
      </trkpt>
      <trkpt lat="43.401" lon="6.7299">
        <ele>21.200001</ele>
        <time>2018-10-14T13:52:43Z</time>
      </trkpt>
      <trkpt lat="43.40113" lon="6.72991">
        <ele>21.299999</ele>
        <time>2018-10-14T13:52:45Z</time>
      </trkpt>
      <trkpt lat="43.40126" lon="6.72992">
        <ele>21.4</ele>
        <time>2018-10-14T13:52:47Z</time>
      </trkpt>
      <trkpt lat="43.4014" lon="6.72992">
        <ele>21.1</ele>
        <time>2018-10-14T13:52:49Z</time>
      </trkpt>
      <trkpt lat="43.40153" lon="6.72993">
        <ele>20.6</ele>
        <time>2018-10-14T13:52:51Z</time>
      </trkpt>
      <trkpt lat="43.40167" lon="6.72994">
        <ele>21</ele>
        <time>2018-10-14T13:52:53Z</time>
      </trkpt>
      <trkpt lat="43.4018" lon="6.72994">
        <ele>21.1</ele>
        <time>2018-10-14T13:52:55Z</time>
      </trkpt>
      <trkpt lat="43.40193" lon="6.72994">
        <ele>20.9</ele>
        <time>2018-10-14T13:52:57Z</time>
      </trkpt>
      <trkpt lat="43.40206" lon="6.72994">
        <ele>21.5</ele>
        <time>2018-10-14T13:52:59Z</time>
      </trkpt>
      <trkpt lat="43.40219" lon="6.72993">
        <ele>21.5</ele>
        <time>2018-10-14T13:53:01Z</time>
      </trkpt>
      <trkpt lat="43.40232" lon="6.72991">
        <ele>21.299999</ele>
        <time>2018-10-14T13:53:03Z</time>
      </trkpt>
      <trkpt lat="43.40246" lon="6.72988">
        <ele>20.700001</ele>
        <time>2018-10-14T13:53:05Z</time>
      </trkpt>
      <trkpt lat="43.40259" lon="6.72985">
        <ele>20.200001</ele>
        <time>2018-10-14T13:53:07Z</time>
      </trkpt>
      <trkpt lat="43.40273" lon="6.72981">
        <ele>19.9</ele>
        <time>2018-10-14T13:53:09Z</time>
      </trkpt>
      <trkpt lat="43.40286" lon="6.72978">
        <ele>20</ele>
        <time>2018-10-14T13:53:11Z</time>
      </trkpt>
      <trkpt lat="43.403" lon="6.72974">
        <ele>20.1</ele>
        <time>2018-10-14T13:53:13Z</time>
      </trkpt>
      <trkpt lat="43.40313" lon="6.7297">
        <ele>19.5</ele>
        <time>2018-10-14T13:53:15Z</time>
      </trkpt>
      <trkpt lat="43.40327" lon="6.72964">
        <ele>19.5</ele>
        <time>2018-10-14T13:53:17Z</time>
      </trkpt>
      <trkpt lat="43.40341" lon="6.72957">
        <ele>19.9</ele>
        <time>2018-10-14T13:53:19Z</time>
      </trkpt>
      <trkpt lat="43.40354" lon="6.72949">
        <ele>20.6</ele>
        <time>2018-10-14T13:53:21Z</time>
      </trkpt>
      <trkpt lat="43.40368" lon="6.72941">
        <ele>20.4</ele>
        <time>2018-10-14T13:53:23Z</time>
      </trkpt>
      <trkpt lat="43.40381" lon="6.72933">
        <ele>20.4</ele>
        <time>2018-10-14T13:53:25Z</time>
      </trkpt>
      <trkpt lat="43.40395" lon="6.72924">
        <ele>20.6</ele>
        <time>2018-10-14T13:53:27Z</time>
      </trkpt>
      <trkpt lat="43.40408" lon="6.72916">
        <ele>20.6</ele>
        <time>2018-10-14T13:53:29Z</time>
      </trkpt>
      <trkpt lat="43.4042" lon="6.72906">
        <ele>20.700001</ele>
        <time>2018-10-14T13:53:31Z</time>
      </trkpt>
      <trkpt lat="43.40432" lon="6.72896">
        <ele>20.799999</ele>
        <time>2018-10-14T13:53:33Z</time>
      </trkpt>
      <trkpt lat="43.40443" lon="6.72885">
        <ele>20.799999</ele>
        <time>2018-10-14T13:53:35Z</time>
      </trkpt>
      <trkpt lat="43.40454" lon="6.72874">
        <ele>20.6</ele>
        <time>2018-10-14T13:53:37Z</time>
      </trkpt>
      <trkpt lat="43.40466" lon="6.72863">
        <ele>20.799999</ele>
        <time>2018-10-14T13:53:39Z</time>
      </trkpt>
      <trkpt lat="43.40477" lon="6.72853">
        <ele>20.5</ele>
        <time>2018-10-14T13:53:41Z</time>
      </trkpt>
      <trkpt lat="43.40488" lon="6.72843">
        <ele>20.799999</ele>
        <time>2018-10-14T13:53:43Z</time>
      </trkpt>
      <trkpt lat="43.405" lon="6.72831">
        <ele>20.299999</ele>
        <time>2018-10-14T13:53:45Z</time>
      </trkpt>
      <trkpt lat="43.40511" lon="6.7282">
        <ele>21</ele>
        <time>2018-10-14T13:53:47Z</time>
      </trkpt>
      <trkpt lat="43.40522" lon="6.72809">
        <ele>21.1</ele>
        <time>2018-10-14T13:53:49Z</time>
      </trkpt>
      <trkpt lat="43.40533" lon="6.72798">
        <ele>21.700001</ele>
        <time>2018-10-14T13:53:51Z</time>
      </trkpt>
      <trkpt lat="43.40544" lon="6.72788">
        <ele>21.4</ele>
        <time>2018-10-14T13:53:53Z</time>
      </trkpt>
      <trkpt lat="43.40555" lon="6.72778">
        <ele>21.6</ele>
        <time>2018-10-14T13:53:55Z</time>
      </trkpt>
      <trkpt lat="43.40567" lon="6.72767">
        <ele>21.799999</ele>
        <time>2018-10-14T13:53:57Z</time>
      </trkpt>
      <trkpt lat="43.40579" lon="6.72754">
        <ele>21.700001</ele>
        <time>2018-10-14T13:53:59Z</time>
      </trkpt>
      <trkpt lat="43.4059" lon="6.72741">
        <ele>21.299999</ele>
        <time>2018-10-14T13:54:01Z</time>
      </trkpt>
      <trkpt lat="43.40601" lon="6.7273">
        <ele>21.200001</ele>
        <time>2018-10-14T13:54:03Z</time>
      </trkpt>
      <trkpt lat="43.40613" lon="6.72718">
        <ele>21.1</ele>
        <time>2018-10-14T13:54:05Z</time>
      </trkpt>
      <trkpt lat="43.40624" lon="6.72707">
        <ele>21.299999</ele>
        <time>2018-10-14T13:54:07Z</time>
      </trkpt>
      <trkpt lat="43.40636" lon="6.72697">
        <ele>21.299999</ele>
        <time>2018-10-14T13:54:09Z</time>
      </trkpt>
      <trkpt lat="43.40647" lon="6.72687">
        <ele>21.4</ele>
        <time>2018-10-14T13:54:11Z</time>
      </trkpt>
      <trkpt lat="43.40658" lon="6.72678">
        <ele>21.200001</ele>
        <time>2018-10-14T13:54:13Z</time>
      </trkpt>
      <trkpt lat="43.40668" lon="6.72671">
        <ele>21.5</ele>
        <time>2018-10-14T13:54:15Z</time>
      </trkpt>
      <trkpt lat="43.40677" lon="6.72661">
        <ele>21.299999</ele>
        <time>2018-10-14T13:54:17Z</time>
      </trkpt>
      <trkpt lat="43.40688" lon="6.72648">
        <ele>21.700001</ele>
        <time>2018-10-14T13:54:19Z</time>
      </trkpt>
      <trkpt lat="43.40699" lon="6.72636">
        <ele>21.799999</ele>
        <time>2018-10-14T13:54:21Z</time>
      </trkpt>
      <trkpt lat="43.40711" lon="6.72625">
        <ele>21.799999</ele>
        <time>2018-10-14T13:54:23Z</time>
      </trkpt>
      <trkpt lat="43.40722" lon="6.72614">
        <ele>21.299999</ele>
        <time>2018-10-14T13:54:25Z</time>
      </trkpt>
      <trkpt lat="43.40734" lon="6.72601">
        <ele>21.1</ele>
        <time>2018-10-14T13:54:27Z</time>
      </trkpt>
      <trkpt lat="43.40745" lon="6.7259">
        <ele>21.4</ele>
        <time>2018-10-14T13:54:29Z</time>
      </trkpt>
      <trkpt lat="43.40757" lon="6.72579">
        <ele>21.200001</ele>
        <time>2018-10-14T13:54:31Z</time>
      </trkpt>
      <trkpt lat="43.40769" lon="6.72567">
        <ele>21.5</ele>
        <time>2018-10-14T13:54:33Z</time>
      </trkpt>
      <trkpt lat="43.4078" lon="6.72558">
        <ele>21.5</ele>
        <time>2018-10-14T13:54:35Z</time>
      </trkpt>
      <trkpt lat="43.40791" lon="6.72546">
        <ele>21.799999</ele>
        <time>2018-10-14T13:54:37Z</time>
      </trkpt>
      <trkpt lat="43.40801" lon="6.72535">
        <ele>21.9</ele>
        <time>2018-10-14T13:54:39Z</time>
      </trkpt>
      <trkpt lat="43.40809" lon="6.72525">
        <ele>22.200001</ele>
        <time>2018-10-14T13:54:41Z</time>
      </trkpt>
      <trkpt lat="43.4082" lon="6.72515">
        <ele>22.4</ele>
        <time>2018-10-14T13:54:43Z</time>
      </trkpt>
      <trkpt lat="43.40829" lon="6.72507">
        <ele>21.9</ele>
        <time>2018-10-14T13:54:45Z</time>
      </trkpt>
      <trkpt lat="43.40837" lon="6.72498">
        <ele>21.4</ele>
        <time>2018-10-14T13:54:47Z</time>
      </trkpt>
      <trkpt lat="43.40848" lon="6.72491">
        <ele>21.4</ele>
        <time>2018-10-14T13:54:49Z</time>
      </trkpt>
      <trkpt lat="43.40856" lon="6.72484">
        <ele>21.6</ele>
        <time>2018-10-14T13:54:51Z</time>
      </trkpt>
      <trkpt lat="43.40866" lon="6.72475">
        <ele>22</ele>
        <time>2018-10-14T13:54:53Z</time>
      </trkpt>
      <trkpt lat="43.40874" lon="6.72469">
        <ele>21.6</ele>
        <time>2018-10-14T13:54:54Z</time>
      </trkpt>
      <trkpt lat="43.40887" lon="6.72452">
        <ele>21.4</ele>
        <time>2018-10-14T13:54:56Z</time>
      </trkpt>
      <trkpt lat="43.40897" lon="6.72439">
        <ele>21.200001</ele>
        <time>2018-10-14T13:54:58Z</time>
      </trkpt>
      <trkpt lat="43.40907" lon="6.72439">
        <ele>20.5</ele>
        <time>2018-10-14T13:55:00Z</time>
      </trkpt>
      <trkpt lat="43.40918" lon="6.72438">
        <ele>20.6</ele>
        <time>2018-10-14T13:55:02Z</time>
      </trkpt>
      <trkpt lat="43.4093" lon="6.72436">
        <ele>20.6</ele>
        <time>2018-10-14T13:55:04Z</time>
      </trkpt>
      <trkpt lat="43.40941" lon="6.72432">
        <ele>20.799999</ele>
        <time>2018-10-14T13:55:06Z</time>
      </trkpt>
      <trkpt lat="43.40954" lon="6.7243">
        <ele>21.700001</ele>
        <time>2018-10-14T13:55:08Z</time>
      </trkpt>
      <trkpt lat="43.40967" lon="6.72428">
        <ele>21.5</ele>
        <time>2018-10-14T13:55:10Z</time>
      </trkpt>
      <trkpt lat="43.40981" lon="6.72428">
        <ele>21.4</ele>
        <time>2018-10-14T13:55:12Z</time>
      </trkpt>
      <trkpt lat="43.40993" lon="6.72429">
        <ele>21.700001</ele>
        <time>2018-10-14T13:55:14Z</time>
      </trkpt>
      <trkpt lat="43.41005" lon="6.72431">
        <ele>22</ele>
        <time>2018-10-14T13:55:16Z</time>
      </trkpt>
      <trkpt lat="43.41018" lon="6.72433">
        <ele>22.5</ele>
        <time>2018-10-14T13:55:18Z</time>
      </trkpt>
      <trkpt lat="43.4103" lon="6.72437">
        <ele>22.799999</ele>
        <time>2018-10-14T13:55:20Z</time>
      </trkpt>
      <trkpt lat="43.41042" lon="6.72441">
        <ele>23</ele>
        <time>2018-10-14T13:55:22Z</time>
      </trkpt>
      <trkpt lat="43.41054" lon="6.72447">
        <ele>23</ele>
        <time>2018-10-14T13:55:24Z</time>
      </trkpt>
      <trkpt lat="43.41066" lon="6.72455">
        <ele>22.700001</ele>
        <time>2018-10-14T13:55:26Z</time>
      </trkpt>
      <trkpt lat="43.41077" lon="6.72463">
        <ele>22.5</ele>
        <time>2018-10-14T13:55:28Z</time>
      </trkpt>
      <trkpt lat="43.41087" lon="6.72471">
        <ele>23.299999</ele>
        <time>2018-10-14T13:55:30Z</time>
      </trkpt>
      <trkpt lat="43.41099" lon="6.72478">
        <ele>23.5</ele>
        <time>2018-10-14T13:55:32Z</time>
      </trkpt>
      <trkpt lat="43.4111" lon="6.72485">
        <ele>23.4</ele>
        <time>2018-10-14T13:55:34Z</time>
      </trkpt>
      <trkpt lat="43.41121" lon="6.72491">
        <ele>23.4</ele>
        <time>2018-10-14T13:55:36Z</time>
      </trkpt>
      <trkpt lat="43.41132" lon="6.72498">
        <ele>23.200001</ele>
        <time>2018-10-14T13:55:38Z</time>
      </trkpt>
      <trkpt lat="43.41143" lon="6.72505">
        <ele>22.5</ele>
        <time>2018-10-14T13:55:40Z</time>
      </trkpt>
      <trkpt lat="43.41155" lon="6.72512">
        <ele>22.6</ele>
        <time>2018-10-14T13:55:42Z</time>
      </trkpt>
      <trkpt lat="43.41167" lon="6.72515">
        <ele>22.5</ele>
        <time>2018-10-14T13:55:44Z</time>
      </trkpt>
      <trkpt lat="43.4118" lon="6.72512">
        <ele>22.6</ele>
        <time>2018-10-14T13:55:46Z</time>
      </trkpt>
      <trkpt lat="43.41193" lon="6.72512">
        <ele>22.1</ele>
        <time>2018-10-14T13:55:48Z</time>
      </trkpt>
      <trkpt lat="43.41207" lon="6.72516">
        <ele>22.1</ele>
        <time>2018-10-14T13:55:50Z</time>
      </trkpt>
      <trkpt lat="43.4122" lon="6.72523">
        <ele>21.9</ele>
        <time>2018-10-14T13:55:52Z</time>
      </trkpt>
      <trkpt lat="43.41233" lon="6.7253">
        <ele>21.5</ele>
        <time>2018-10-14T13:55:54Z</time>
      </trkpt>
      <trkpt lat="43.41245" lon="6.72536">
        <ele>21</ele>
        <time>2018-10-14T13:55:56Z</time>
      </trkpt>
      <trkpt lat="43.41258" lon="6.72542">
        <ele>21.5</ele>
        <time>2018-10-14T13:55:58Z</time>
      </trkpt>
      <trkpt lat="43.41271" lon="6.72547">
        <ele>21.299999</ele>
        <time>2018-10-14T13:56:00Z</time>
      </trkpt>
      <trkpt lat="43.41282" lon="6.72552">
        <ele>21.200001</ele>
        <time>2018-10-14T13:56:02Z</time>
      </trkpt>
      <trkpt lat="43.41294" lon="6.72559">
        <ele>21.299999</ele>
        <time>2018-10-14T13:56:04Z</time>
      </trkpt>
      <trkpt lat="43.41307" lon="6.72567">
        <ele>21.4</ele>
        <time>2018-10-14T13:56:06Z</time>
      </trkpt>
      <trkpt lat="43.4132" lon="6.72574">
        <ele>21.4</ele>
        <time>2018-10-14T13:56:08Z</time>
      </trkpt>
      <trkpt lat="43.41334" lon="6.72581">
        <ele>21.200001</ele>
        <time>2018-10-14T13:56:10Z</time>
      </trkpt>
      <trkpt lat="43.41347" lon="6.72586">
        <ele>21.299999</ele>
        <time>2018-10-14T13:56:12Z</time>
      </trkpt>
      <trkpt lat="43.41361" lon="6.72591">
        <ele>21.700001</ele>
        <time>2018-10-14T13:56:14Z</time>
      </trkpt>
      <trkpt lat="43.41374" lon="6.72597">
        <ele>22</ele>
        <time>2018-10-14T13:56:16Z</time>
      </trkpt>
      <trkpt lat="43.41385" lon="6.72607">
        <ele>21.5</ele>
        <time>2018-10-14T13:56:18Z</time>
      </trkpt>
      <trkpt lat="43.41394" lon="6.7262">
        <ele>21.6</ele>
        <time>2018-10-14T13:56:20Z</time>
      </trkpt>
      <trkpt lat="43.41406" lon="6.72629">
        <ele>21.700001</ele>
        <time>2018-10-14T13:56:22Z</time>
      </trkpt>
      <trkpt lat="43.41417" lon="6.72635">
        <ele>22</ele>
        <time>2018-10-14T13:56:24Z</time>
      </trkpt>
      <trkpt lat="43.41428" lon="6.72641">
        <ele>21.9</ele>
        <time>2018-10-14T13:56:26Z</time>
      </trkpt>
      <trkpt lat="43.41439" lon="6.72647">
        <ele>21.4</ele>
        <time>2018-10-14T13:56:28Z</time>
      </trkpt>
      <trkpt lat="43.4145" lon="6.72653">
        <ele>21.5</ele>
        <time>2018-10-14T13:56:30Z</time>
      </trkpt>
      <trkpt lat="43.41459" lon="6.72656">
        <ele>22</ele>
        <time>2018-10-14T13:56:32Z</time>
      </trkpt>
      <trkpt lat="43.41469" lon="6.72655">
        <ele>21.6</ele>
        <time>2018-10-14T13:56:35Z</time>
      </trkpt>
      <trkpt lat="43.41479" lon="6.72653">
        <ele>20.700001</ele>
        <time>2018-10-14T13:56:38Z</time>
      </trkpt>
      <trkpt lat="43.4149" lon="6.72656">
        <ele>19.9</ele>
        <time>2018-10-14T13:56:41Z</time>
      </trkpt>
      <trkpt lat="43.415" lon="6.72658">
        <ele>19.4</ele>
        <time>2018-10-14T13:56:43Z</time>
      </trkpt>
      <trkpt lat="43.41509" lon="6.72666">
        <ele>19.1</ele>
        <time>2018-10-14T13:56:46Z</time>
      </trkpt>
      <trkpt lat="43.41499" lon="6.72673">
        <ele>19</ele>
        <time>2018-10-14T13:56:56Z</time>
      </trkpt>
      <trkpt lat="43.41488" lon="6.72684">
        <ele>19.299999</ele>
        <time>2018-10-14T13:56:59Z</time>
      </trkpt>
      <trkpt lat="43.41479" lon="6.72695">
        <ele>18.9</ele>
        <time>2018-10-14T13:57:01Z</time>
      </trkpt>
      <trkpt lat="43.4147" lon="6.72707">
        <ele>18.9</ele>
        <time>2018-10-14T13:57:03Z</time>
      </trkpt>
      <trkpt lat="43.41461" lon="6.72718">
        <ele>19</ele>
        <time>2018-10-14T13:57:05Z</time>
      </trkpt>
      <trkpt lat="43.41452" lon="6.72729">
        <ele>19</ele>
        <time>2018-10-14T13:57:07Z</time>
      </trkpt>
      <trkpt lat="43.41444" lon="6.72741">
        <ele>19.1</ele>
        <time>2018-10-14T13:57:09Z</time>
      </trkpt>
      <trkpt lat="43.41434" lon="6.72751">
        <ele>19.799999</ele>
        <time>2018-10-14T13:57:11Z</time>
      </trkpt>
      <trkpt lat="43.41426" lon="6.72763">
        <ele>19.799999</ele>
        <time>2018-10-14T13:57:13Z</time>
      </trkpt>
      <trkpt lat="43.41418" lon="6.72775">
        <ele>19.299999</ele>
        <time>2018-10-14T13:57:15Z</time>
      </trkpt>
      <trkpt lat="43.4141" lon="6.72785">
        <ele>19.4</ele>
        <time>2018-10-14T13:57:17Z</time>
      </trkpt>
      <trkpt lat="43.41402" lon="6.72794">
        <ele>19.6</ele>
        <time>2018-10-14T13:57:19Z</time>
      </trkpt>
      <trkpt lat="43.41395" lon="6.72804">
        <ele>19.799999</ele>
        <time>2018-10-14T13:57:21Z</time>
      </trkpt>
      <trkpt lat="43.41388" lon="6.72815">
        <ele>20.299999</ele>
        <time>2018-10-14T13:57:23Z</time>
      </trkpt>
      <trkpt lat="43.41381" lon="6.72825">
        <ele>20.1</ele>
        <time>2018-10-14T13:57:25Z</time>
      </trkpt>
      <trkpt lat="43.41374" lon="6.72837">
        <ele>19.5</ele>
        <time>2018-10-14T13:57:27Z</time>
      </trkpt>
      <trkpt lat="43.41366" lon="6.72846">
        <ele>19.200001</ele>
        <time>2018-10-14T13:57:29Z</time>
      </trkpt>
      <trkpt lat="43.41358" lon="6.72857">
        <ele>19.1</ele>
        <time>2018-10-14T13:57:31Z</time>
      </trkpt>
      <trkpt lat="43.41351" lon="6.72869">
        <ele>19.700001</ele>
        <time>2018-10-14T13:57:33Z</time>
      </trkpt>
      <trkpt lat="43.41344" lon="6.72879">
        <ele>19.700001</ele>
        <time>2018-10-14T13:57:35Z</time>
      </trkpt>
      <trkpt lat="43.41337" lon="6.72889">
        <ele>19.4</ele>
        <time>2018-10-14T13:57:37Z</time>
      </trkpt>
      <trkpt lat="43.4133" lon="6.72898">
        <ele>19.4</ele>
        <time>2018-10-14T13:57:39Z</time>
      </trkpt>
      <trkpt lat="43.41322" lon="6.72907">
        <ele>19.200001</ele>
        <time>2018-10-14T13:57:41Z</time>
      </trkpt>
      <trkpt lat="43.41315" lon="6.72917">
        <ele>19.299999</ele>
        <time>2018-10-14T13:57:43Z</time>
      </trkpt>
      <trkpt lat="43.41307" lon="6.72926">
        <ele>19.4</ele>
        <time>2018-10-14T13:57:45Z</time>
      </trkpt>
      <trkpt lat="43.41299" lon="6.72935">
        <ele>19.1</ele>
        <time>2018-10-14T13:57:47Z</time>
      </trkpt>
      <trkpt lat="43.41292" lon="6.72946">
        <ele>18.799999</ele>
        <time>2018-10-14T13:57:49Z</time>
      </trkpt>
      <trkpt lat="43.41284" lon="6.72955">
        <ele>18.6</ele>
        <time>2018-10-14T13:57:51Z</time>
      </trkpt>
      <trkpt lat="43.41276" lon="6.72964">
        <ele>18</ele>
        <time>2018-10-14T13:57:53Z</time>
      </trkpt>
      <trkpt lat="43.41268" lon="6.72974">
        <ele>17.9</ele>
        <time>2018-10-14T13:57:55Z</time>
      </trkpt>
      <trkpt lat="43.4126" lon="6.72983">
        <ele>18.1</ele>
        <time>2018-10-14T13:57:57Z</time>
      </trkpt>
      <trkpt lat="43.41252" lon="6.72992">
        <ele>18.299999</ele>
        <time>2018-10-14T13:57:59Z</time>
      </trkpt>
      <trkpt lat="43.41245" lon="6.73002">
        <ele>17.9</ele>
        <time>2018-10-14T13:58:01Z</time>
      </trkpt>
      <trkpt lat="43.41237" lon="6.73013">
        <ele>17.799999</ele>
        <time>2018-10-14T13:58:03Z</time>
      </trkpt>
      <trkpt lat="43.4123" lon="6.73024">
        <ele>17.6</ele>
        <time>2018-10-14T13:58:05Z</time>
      </trkpt>
      <trkpt lat="43.41222" lon="6.73034">
        <ele>17.799999</ele>
        <time>2018-10-14T13:58:07Z</time>
      </trkpt>
      <trkpt lat="43.41215" lon="6.73044">
        <ele>18.6</ele>
        <time>2018-10-14T13:58:09Z</time>
      </trkpt>
      <trkpt lat="43.41207" lon="6.73054">
        <ele>18.700001</ele>
        <time>2018-10-14T13:58:11Z</time>
      </trkpt>
      <trkpt lat="43.412" lon="6.73063">
        <ele>19.299999</ele>
        <time>2018-10-14T13:58:13Z</time>
      </trkpt>
      <trkpt lat="43.41193" lon="6.73072">
        <ele>19</ele>
        <time>2018-10-14T13:58:15Z</time>
      </trkpt>
      <trkpt lat="43.41187" lon="6.73083">
        <ele>19</ele>
        <time>2018-10-14T13:58:17Z</time>
      </trkpt>
      <trkpt lat="43.4118" lon="6.73098">
        <ele>18.799999</ele>
        <time>2018-10-14T13:58:20Z</time>
      </trkpt>
      <trkpt lat="43.41173" lon="6.73108">
        <ele>18.9</ele>
        <time>2018-10-14T13:58:23Z</time>
      </trkpt>
      <trkpt lat="43.41169" lon="6.73121">
        <ele>18</ele>
        <time>2018-10-14T13:58:26Z</time>
      </trkpt>
      <trkpt lat="43.41173" lon="6.73135">
        <ele>17.9</ele>
        <time>2018-10-14T13:58:30Z</time>
      </trkpt>
      <trkpt lat="43.41178" lon="6.73147">
        <ele>18.1</ele>
        <time>2018-10-14T13:58:33Z</time>
      </trkpt>
      <trkpt lat="43.41184" lon="6.7316">
        <ele>17.6</ele>
        <time>2018-10-14T13:58:36Z</time>
      </trkpt>
      <trkpt lat="43.41191" lon="6.73172">
        <ele>17.299999</ele>
        <time>2018-10-14T13:58:39Z</time>
      </trkpt>
      <trkpt lat="43.412" lon="6.73183">
        <ele>17.6</ele>
        <time>2018-10-14T13:58:42Z</time>
      </trkpt>
      <trkpt lat="43.41202" lon="6.73199">
        <ele>17.700001</ele>
        <time>2018-10-14T13:58:45Z</time>
      </trkpt>
      <trkpt lat="43.41195" lon="6.73213">
        <ele>17.200001</ele>
        <time>2018-10-14T13:58:48Z</time>
      </trkpt>
      <trkpt lat="43.41187" lon="6.73229">
        <ele>17.4</ele>
        <time>2018-10-14T13:58:51Z</time>
      </trkpt>
      <trkpt lat="43.41182" lon="6.73239">
        <ele>17.4</ele>
        <time>2018-10-14T13:58:53Z</time>
      </trkpt>
      <trkpt lat="43.41177" lon="6.73251">
        <ele>17.4</ele>
        <time>2018-10-14T13:58:55Z</time>
      </trkpt>
      <trkpt lat="43.41173" lon="6.73264">
        <ele>17.299999</ele>
        <time>2018-10-14T13:58:57Z</time>
      </trkpt>
      <trkpt lat="43.41169" lon="6.73277">
        <ele>17.1</ele>
        <time>2018-10-14T13:58:59Z</time>
      </trkpt>
      <trkpt lat="43.41162" lon="6.7329">
        <ele>17.299999</ele>
        <time>2018-10-14T13:59:01Z</time>
      </trkpt>
      <trkpt lat="43.41157" lon="6.73304">
        <ele>17.6</ele>
        <time>2018-10-14T13:59:03Z</time>
      </trkpt>
      <trkpt lat="43.41151" lon="6.73316">
        <ele>17.6</ele>
        <time>2018-10-14T13:59:05Z</time>
      </trkpt>
      <trkpt lat="43.41146" lon="6.73329">
        <ele>17.9</ele>
        <time>2018-10-14T13:59:07Z</time>
      </trkpt>
      <trkpt lat="43.41141" lon="6.73342">
        <ele>18.1</ele>
        <time>2018-10-14T13:59:09Z</time>
      </trkpt>
      <trkpt lat="43.41136" lon="6.73355">
        <ele>18.1</ele>
        <time>2018-10-14T13:59:11Z</time>
      </trkpt>
      <trkpt lat="43.41132" lon="6.73368">
        <ele>17.799999</ele>
        <time>2018-10-14T13:59:13Z</time>
      </trkpt>
      <trkpt lat="43.41127" lon="6.73382">
        <ele>17.799999</ele>
        <time>2018-10-14T13:59:15Z</time>
      </trkpt>
      <trkpt lat="43.41123" lon="6.73396">
        <ele>17.200001</ele>
        <time>2018-10-14T13:59:17Z</time>
      </trkpt>
      <trkpt lat="43.41118" lon="6.7341">
        <ele>17.5</ele>
        <time>2018-10-14T13:59:19Z</time>
      </trkpt>
      <trkpt lat="43.41113" lon="6.73424">
        <ele>17.200001</ele>
        <time>2018-10-14T13:59:21Z</time>
      </trkpt>
      <trkpt lat="43.4111" lon="6.73439">
        <ele>16.9</ele>
        <time>2018-10-14T13:59:23Z</time>
      </trkpt>
      <trkpt lat="43.41111" lon="6.73453">
        <ele>16.799999</ele>
        <time>2018-10-14T13:59:25Z</time>
      </trkpt>
      <trkpt lat="43.41118" lon="6.73464">
        <ele>16.700001</ele>
        <time>2018-10-14T13:59:27Z</time>
      </trkpt>
      <trkpt lat="43.41126" lon="6.73472">
        <ele>16.6</ele>
        <time>2018-10-14T13:59:29Z</time>
      </trkpt>
      <trkpt lat="43.41134" lon="6.7348">
        <ele>16.4</ele>
        <time>2018-10-14T13:59:31Z</time>
      </trkpt>
      <trkpt lat="43.41145" lon="6.73491">
        <ele>15.9</ele>
        <time>2018-10-14T13:59:34Z</time>
      </trkpt>
      <trkpt lat="43.41153" lon="6.73499">
        <ele>16.4</ele>
        <time>2018-10-14T13:59:37Z</time>
      </trkpt>
      <trkpt lat="43.41161" lon="6.73511">
        <ele>15.7</ele>
        <time>2018-10-14T13:59:41Z</time>
      </trkpt>
      <trkpt lat="43.4117" lon="6.7352">
        <ele>15.7</ele>
        <time>2018-10-14T13:59:45Z</time>
      </trkpt>
      <trkpt lat="43.41182" lon="6.73526">
        <ele>15.7</ele>
        <time>2018-10-14T13:59:48Z</time>
      </trkpt>
      <trkpt lat="43.41193" lon="6.73529">
        <ele>16.4</ele>
        <time>2018-10-14T13:59:51Z</time>
      </trkpt>
      <trkpt lat="43.41203" lon="6.73527">
        <ele>16.6</ele>
        <time>2018-10-14T13:59:54Z</time>
      </trkpt>
      <trkpt lat="43.41212" lon="6.73524">
        <ele>15.6</ele>
        <time>2018-10-14T13:59:56Z</time>
      </trkpt>
      <trkpt lat="43.41222" lon="6.73521">
        <ele>15.5</ele>
        <time>2018-10-14T13:59:58Z</time>
      </trkpt>
      <trkpt lat="43.4123" lon="6.73516">
        <ele>14.8</ele>
        <time>2018-10-14T14:00:00Z</time>
      </trkpt>
      <trkpt lat="43.41239" lon="6.73508">
        <ele>14.6</ele>
        <time>2018-10-14T14:00:03Z</time>
      </trkpt>
      <trkpt lat="43.41249" lon="6.73497">
        <ele>16.700001</ele>
        <time>2018-10-14T14:00:07Z</time>
      </trkpt>
      <trkpt lat="43.41256" lon="6.73487">
        <ele>17.200001</ele>
        <time>2018-10-14T14:00:09Z</time>
      </trkpt>
      <trkpt lat="43.41264" lon="6.73481">
        <ele>17</ele>
        <time>2018-10-14T14:00:11Z</time>
      </trkpt>
      <trkpt lat="43.41275" lon="6.73482">
        <ele>16.700001</ele>
        <time>2018-10-14T14:00:14Z</time>
      </trkpt>
      <trkpt lat="43.41286" lon="6.73487">
        <ele>16.1</ele>
        <time>2018-10-14T14:00:17Z</time>
      </trkpt>
      <trkpt lat="43.41298" lon="6.7349">
        <ele>15.9</ele>
        <time>2018-10-14T14:00:20Z</time>
      </trkpt>
      <trkpt lat="43.41311" lon="6.73492">
        <ele>15.5</ele>
        <time>2018-10-14T14:00:23Z</time>
      </trkpt>
      <trkpt lat="43.4132" lon="6.73494">
        <ele>15.3</ele>
        <time>2018-10-14T14:00:25Z</time>
      </trkpt>
      <trkpt lat="43.41329" lon="6.73496">
        <ele>15.1</ele>
        <time>2018-10-14T14:00:27Z</time>
      </trkpt>
      <trkpt lat="43.41338" lon="6.73499">
        <ele>15.5</ele>
        <time>2018-10-14T14:00:29Z</time>
      </trkpt>
      <trkpt lat="43.41347" lon="6.73502">
        <ele>15.5</ele>
        <time>2018-10-14T14:00:31Z</time>
      </trkpt>
      <trkpt lat="43.41356" lon="6.73505">
        <ele>15.8</ele>
        <time>2018-10-14T14:00:33Z</time>
      </trkpt>
      <trkpt lat="43.41366" lon="6.73507">
        <ele>16.1</ele>
        <time>2018-10-14T14:00:35Z</time>
      </trkpt>
      <trkpt lat="43.41377" lon="6.73509">
        <ele>16.1</ele>
        <time>2018-10-14T14:00:37Z</time>
      </trkpt>
      <trkpt lat="43.41387" lon="6.73512">
        <ele>16.1</ele>
        <time>2018-10-14T14:00:39Z</time>
      </trkpt>
      <trkpt lat="43.41398" lon="6.73514">
        <ele>16.299999</ele>
        <time>2018-10-14T14:00:41Z</time>
      </trkpt>
      <trkpt lat="43.41409" lon="6.73517">
        <ele>15.9</ele>
        <time>2018-10-14T14:00:43Z</time>
      </trkpt>
      <trkpt lat="43.41419" lon="6.7352">
        <ele>15.4</ele>
        <time>2018-10-14T14:00:45Z</time>
      </trkpt>
      <trkpt lat="43.4143" lon="6.73522">
        <ele>15.2</ele>
        <time>2018-10-14T14:00:47Z</time>
      </trkpt>
      <trkpt lat="43.41441" lon="6.73525">
        <ele>15.2</ele>
        <time>2018-10-14T14:00:49Z</time>
      </trkpt>
      <trkpt lat="43.41451" lon="6.73527">
        <ele>15.5</ele>
        <time>2018-10-14T14:00:51Z</time>
      </trkpt>
      <trkpt lat="43.41462" lon="6.73529">
        <ele>15.5</ele>
        <time>2018-10-14T14:00:53Z</time>
      </trkpt>
      <trkpt lat="43.41472" lon="6.73532">
        <ele>16.200001</ele>
        <time>2018-10-14T14:00:55Z</time>
      </trkpt>
      <trkpt lat="43.41483" lon="6.73534">
        <ele>15.9</ele>
        <time>2018-10-14T14:00:57Z</time>
      </trkpt>
      <trkpt lat="43.41493" lon="6.73537">
        <ele>15.7</ele>
        <time>2018-10-14T14:00:59Z</time>
      </trkpt>
      <trkpt lat="43.41503" lon="6.73539">
        <ele>15.9</ele>
        <time>2018-10-14T14:01:01Z</time>
      </trkpt>
      <trkpt lat="43.41513" lon="6.73542">
        <ele>15.3</ele>
        <time>2018-10-14T14:01:03Z</time>
      </trkpt>
      <trkpt lat="43.41522" lon="6.73544">
        <ele>15.4</ele>
        <time>2018-10-14T14:01:05Z</time>
      </trkpt>
      <trkpt lat="43.41532" lon="6.73545">
        <ele>15.7</ele>
        <time>2018-10-14T14:01:07Z</time>
      </trkpt>
      <trkpt lat="43.41541" lon="6.73547">
        <ele>16.1</ele>
        <time>2018-10-14T14:01:09Z</time>
      </trkpt>
      <trkpt lat="43.41551" lon="6.73548">
        <ele>15.8</ele>
        <time>2018-10-14T14:01:11Z</time>
      </trkpt>
      <trkpt lat="43.4156" lon="6.73551">
        <ele>15.5</ele>
        <time>2018-10-14T14:01:13Z</time>
      </trkpt>
      <trkpt lat="43.4157" lon="6.73554">
        <ele>14.8</ele>
        <time>2018-10-14T14:01:15Z</time>
      </trkpt>
      <trkpt lat="43.41579" lon="6.73558">
        <ele>15.4</ele>
        <time>2018-10-14T14:01:17Z</time>
      </trkpt>
      <trkpt lat="43.41587" lon="6.73567">
        <ele>15.8</ele>
        <time>2018-10-14T14:01:19Z</time>
      </trkpt>
      <trkpt lat="43.41594" lon="6.73576">
        <ele>16.700001</ele>
        <time>2018-10-14T14:01:21Z</time>
      </trkpt>
      <trkpt lat="43.41602" lon="6.73591">
        <ele>16.5</ele>
        <time>2018-10-14T14:01:24Z</time>
      </trkpt>
      <trkpt lat="43.41607" lon="6.73601">
        <ele>16.299999</ele>
        <time>2018-10-14T14:01:26Z</time>
      </trkpt>
      <trkpt lat="43.41612" lon="6.73611">
        <ele>16.1</ele>
        <time>2018-10-14T14:01:28Z</time>
      </trkpt>
      <trkpt lat="43.41617" lon="6.73621">
        <ele>16.4</ele>
        <time>2018-10-14T14:01:30Z</time>
      </trkpt>
      <trkpt lat="43.41624" lon="6.73635">
        <ele>15.5</ele>
        <time>2018-10-14T14:01:33Z</time>
      </trkpt>
      <trkpt lat="43.4163" lon="6.73648">
        <ele>14.8</ele>
        <time>2018-10-14T14:01:36Z</time>
      </trkpt>
      <trkpt lat="43.41637" lon="6.73662">
        <ele>15.4</ele>
        <time>2018-10-14T14:01:39Z</time>
      </trkpt>
      <trkpt lat="43.41643" lon="6.73674">
        <ele>15.1</ele>
        <time>2018-10-14T14:01:42Z</time>
      </trkpt>
      <trkpt lat="43.41646" lon="6.73687">
        <ele>14.8</ele>
        <time>2018-10-14T14:01:45Z</time>
      </trkpt>
      <trkpt lat="43.41638" lon="6.73697">
        <ele>16</ele>
        <time>2018-10-14T14:01:50Z</time>
      </trkpt>
      <trkpt lat="43.41628" lon="6.73701">
        <ele>16.200001</ele>
        <time>2018-10-14T14:01:53Z</time>
      </trkpt>
      <trkpt lat="43.41618" lon="6.73706">
        <ele>15.5</ele>
        <time>2018-10-14T14:01:56Z</time>
      </trkpt>
      <trkpt lat="43.41615" lon="6.7372">
        <ele>16.6</ele>
        <time>2018-10-14T14:02:00Z</time>
      </trkpt>
      <trkpt lat="43.41619" lon="6.73734">
        <ele>15.3</ele>
        <time>2018-10-14T14:02:04Z</time>
      </trkpt>
      <trkpt lat="43.41619" lon="6.73746">
        <ele>15.2</ele>
        <time>2018-10-14T14:02:07Z</time>
      </trkpt>
      <trkpt lat="43.41621" lon="6.73759">
        <ele>15.2</ele>
        <time>2018-10-14T14:02:10Z</time>
      </trkpt>
      <trkpt lat="43.41623" lon="6.73774">
        <ele>16.299999</ele>
        <time>2018-10-14T14:02:14Z</time>
      </trkpt>
      <trkpt lat="43.41625" lon="6.73787">
        <ele>15.5</ele>
        <time>2018-10-14T14:02:18Z</time>
      </trkpt>
      <trkpt lat="43.41626" lon="6.738">
        <ele>15.8</ele>
        <time>2018-10-14T14:02:23Z</time>
      </trkpt>
      <trkpt lat="43.41628" lon="6.73813">
        <ele>15.2</ele>
        <time>2018-10-14T14:02:29Z</time>
      </trkpt>
      <trkpt lat="43.41635" lon="6.73821">
        <ele>14.7</ele>
        <time>2018-10-14T14:02:40Z</time>
      </trkpt>
    </trkseg>
  </trk>
</gpx>